<?xml version="1.0" encoding="UTF-8" standalone="no" ?>
<gpx xmlns="http://www.topografix.com/GPX/1/1" xmlns:xsi="http://www.w3.org/2001/XMLSchema-instance" xsi:schemaLocation="http://www.topografix.com/GPX/1/1 http://www.topografix.com/GPX/1/1/gpx.xsd" version="1.1" creator="VisuGPX - https://www.visugpx.com">
  <metadata>
    <name>Gève - Molière - Clément D.</name>
  </metadata>
  <trk>
    <name><![CDATA[Gève - Molière - Clément D.]]></name>
    <extensions>
      <line xmlns="http://www.topografix.com/GPX/gpx_style/0/2">
        <color>0000FF</color>
        <width>4</width>
      </line>
    </extensions>
    <trkseg>
      <trkpt lat="45.17667" lon="5.5401">
        <ele>1034.5999755859</ele>
        <time>2016-12-16T12:20:19Z</time>
      </trkpt>
      <trkpt lat="45.17669" lon="5.54018">
        <ele>1034.5999755859</ele>
        <time>2016-12-16T12:20:22Z</time>
      </trkpt>
      <trkpt lat="45.17669" lon="5.54021">
        <ele>1035.1999511719</ele>
        <time>2016-12-16T12:20:23Z</time>
      </trkpt>
      <trkpt lat="45.17671" lon="5.54023">
        <ele>1035.5999755859</ele>
        <time>2016-12-16T12:20:24Z</time>
      </trkpt>
      <trkpt lat="45.17676" lon="5.54032">
        <ele>1035.5999755859</ele>
        <time>2016-12-16T12:20:29Z</time>
      </trkpt>
      <trkpt lat="45.17684" lon="5.54049">
        <ele>1035.5999755859</ele>
        <time>2016-12-16T12:20:35Z</time>
      </trkpt>
      <trkpt lat="45.17686" lon="5.54051">
        <ele>1035.5999755859</ele>
        <time>2016-12-16T12:20:36Z</time>
      </trkpt>
      <trkpt lat="45.17692" lon="5.54058">
        <ele>1035.8000488281</ele>
        <time>2016-12-16T12:20:39Z</time>
      </trkpt>
      <trkpt lat="45.17694" lon="5.54059">
        <ele>1036.1999511719</ele>
        <time>2016-12-16T12:20:40Z</time>
      </trkpt>
      <trkpt lat="45.17696" lon="5.54062">
        <ele>1036.4000244141</ele>
        <time>2016-12-16T12:20:41Z</time>
      </trkpt>
      <trkpt lat="45.17698" lon="5.54064">
        <ele>1036.5999755859</ele>
        <time>2016-12-16T12:20:42Z</time>
      </trkpt>
      <trkpt lat="45.177" lon="5.54066">
        <ele>1037</ele>
        <time>2016-12-16T12:20:43Z</time>
      </trkpt>
      <trkpt lat="45.17714" lon="5.54079">
        <ele>1037</ele>
        <time>2016-12-16T12:20:49Z</time>
      </trkpt>
      <trkpt lat="45.17727" lon="5.54094">
        <ele>1037.4000244141</ele>
        <time>2016-12-16T12:20:55Z</time>
      </trkpt>
      <trkpt lat="45.17729" lon="5.54096">
        <ele>1037.8000488281</ele>
        <time>2016-12-16T12:20:56Z</time>
      </trkpt>
      <trkpt lat="45.17732" lon="5.54098">
        <ele>1038.5999755859</ele>
        <time>2016-12-16T12:20:57Z</time>
      </trkpt>
      <trkpt lat="45.17734" lon="5.54101">
        <ele>1039</ele>
        <time>2016-12-16T12:20:58Z</time>
      </trkpt>
      <trkpt lat="45.17742" lon="5.54112">
        <ele>1039</ele>
        <time>2016-12-16T12:21:02Z</time>
      </trkpt>
      <trkpt lat="45.17755" lon="5.54128">
        <ele>1039</ele>
        <time>2016-12-16T12:21:08Z</time>
      </trkpt>
      <trkpt lat="45.17761" lon="5.5413">
        <ele>1039.4000244141</ele>
        <time>2016-12-16T12:21:10Z</time>
      </trkpt>
      <trkpt lat="45.17764" lon="5.5413">
        <ele>1039.8000488281</ele>
        <time>2016-12-16T12:21:11Z</time>
      </trkpt>
      <trkpt lat="45.17768" lon="5.54128">
        <ele>1040.1999511719</ele>
        <time>2016-12-16T12:21:12Z</time>
      </trkpt>
      <trkpt lat="45.17771" lon="5.54126">
        <ele>1040.5999755859</ele>
        <time>2016-12-16T12:21:13Z</time>
      </trkpt>
      <trkpt lat="45.17774" lon="5.54123">
        <ele>1041.1999511719</ele>
        <time>2016-12-16T12:21:14Z</time>
      </trkpt>
      <trkpt lat="45.17779" lon="5.54115">
        <ele>1041.1999511719</ele>
        <time>2016-12-16T12:21:16Z</time>
      </trkpt>
      <trkpt lat="45.17787" lon="5.54088">
        <ele>1041.1999511719</ele>
        <time>2016-12-16T12:21:22Z</time>
      </trkpt>
      <trkpt lat="45.17796" lon="5.54058">
        <ele>1041.1999511719</ele>
        <time>2016-12-16T12:21:29Z</time>
      </trkpt>
      <trkpt lat="45.17799" lon="5.54051">
        <ele>1041.1999511719</ele>
        <time>2016-12-16T12:21:31Z</time>
      </trkpt>
      <trkpt lat="45.1781" lon="5.54026">
        <ele>1041.1999511719</ele>
        <time>2016-12-16T12:21:37Z</time>
      </trkpt>
      <trkpt lat="45.17825" lon="5.53997">
        <ele>1041.1999511719</ele>
        <time>2016-12-16T12:21:44Z</time>
      </trkpt>
      <trkpt lat="45.1784" lon="5.53976">
        <ele>1041.1999511719</ele>
        <time>2016-12-16T12:21:50Z</time>
      </trkpt>
      <trkpt lat="45.1786" lon="5.53952">
        <ele>1041.1999511719</ele>
        <time>2016-12-16T12:21:57Z</time>
      </trkpt>
      <trkpt lat="45.17884" lon="5.53934">
        <ele>1041.1999511719</ele>
        <time>2016-12-16T12:22:04Z</time>
      </trkpt>
      <trkpt lat="45.17913" lon="5.53926">
        <ele>1041.1999511719</ele>
        <time>2016-12-16T12:22:12Z</time>
      </trkpt>
      <trkpt lat="45.17935" lon="5.53931">
        <ele>1041.1999511719</ele>
        <time>2016-12-16T12:22:19Z</time>
      </trkpt>
      <trkpt lat="45.17941" lon="5.53934">
        <ele>1041.5999755859</ele>
        <time>2016-12-16T12:22:21Z</time>
      </trkpt>
      <trkpt lat="45.17944" lon="5.53936">
        <ele>1042</ele>
        <time>2016-12-16T12:22:22Z</time>
      </trkpt>
      <trkpt lat="45.17946" lon="5.53937">
        <ele>1042.4000244141</ele>
        <time>2016-12-16T12:22:23Z</time>
      </trkpt>
      <trkpt lat="45.17949" lon="5.53938">
        <ele>1042.8000488281</ele>
        <time>2016-12-16T12:22:24Z</time>
      </trkpt>
      <trkpt lat="45.17952" lon="5.5394">
        <ele>1043.1999511719</ele>
        <time>2016-12-16T12:22:25Z</time>
      </trkpt>
      <trkpt lat="45.17957" lon="5.53943">
        <ele>1043.1999511719</ele>
        <time>2016-12-16T12:22:27Z</time>
      </trkpt>
      <trkpt lat="45.17972" lon="5.53955">
        <ele>1043.8000488281</ele>
        <time>2016-12-16T12:22:33Z</time>
      </trkpt>
      <trkpt lat="45.17975" lon="5.53957">
        <ele>1044.1999511719</ele>
        <time>2016-12-16T12:22:34Z</time>
      </trkpt>
      <trkpt lat="45.17978" lon="5.53959">
        <ele>1045</ele>
        <time>2016-12-16T12:22:35Z</time>
      </trkpt>
      <trkpt lat="45.1798" lon="5.53961">
        <ele>1045.5999755859</ele>
        <time>2016-12-16T12:22:36Z</time>
      </trkpt>
      <trkpt lat="45.17992" lon="5.5397">
        <ele>1045.5999755859</ele>
        <time>2016-12-16T12:22:41Z</time>
      </trkpt>
      <trkpt lat="45.17994" lon="5.53972">
        <ele>1046</ele>
        <time>2016-12-16T12:22:42Z</time>
      </trkpt>
      <trkpt lat="45.17997" lon="5.53973">
        <ele>1046.4000244141</ele>
        <time>2016-12-16T12:22:43Z</time>
      </trkpt>
      <trkpt lat="45.18" lon="5.53974">
        <ele>1046.8000488281</ele>
        <time>2016-12-16T12:22:44Z</time>
      </trkpt>
      <trkpt lat="45.18002" lon="5.53975">
        <ele>1047.1999511719</ele>
        <time>2016-12-16T12:22:45Z</time>
      </trkpt>
      <trkpt lat="45.18005" lon="5.53976">
        <ele>1047.5999755859</ele>
        <time>2016-12-16T12:22:46Z</time>
      </trkpt>
      <trkpt lat="45.18007" lon="5.53979">
        <ele>1047.5999755859</ele>
        <time>2016-12-16T12:22:47Z</time>
      </trkpt>
      <trkpt lat="45.18017" lon="5.53988">
        <ele>1048.1999511719</ele>
        <time>2016-12-16T12:22:51Z</time>
      </trkpt>
      <trkpt lat="45.1802" lon="5.53989">
        <ele>1048.5999755859</ele>
        <time>2016-12-16T12:22:52Z</time>
      </trkpt>
      <trkpt lat="45.18023" lon="5.5399">
        <ele>1049</ele>
        <time>2016-12-16T12:22:53Z</time>
      </trkpt>
      <trkpt lat="45.18026" lon="5.5399">
        <ele>1049.5999755859</ele>
        <time>2016-12-16T12:22:54Z</time>
      </trkpt>
      <trkpt lat="45.18029" lon="5.5399">
        <ele>1050</ele>
        <time>2016-12-16T12:22:55Z</time>
      </trkpt>
      <trkpt lat="45.1804" lon="5.53986">
        <ele>1050</ele>
        <time>2016-12-16T12:22:59Z</time>
      </trkpt>
      <trkpt lat="45.18045" lon="5.53982">
        <ele>1050.4000244141</ele>
        <time>2016-12-16T12:23:01Z</time>
      </trkpt>
      <trkpt lat="45.18048" lon="5.53979">
        <ele>1050.8000488281</ele>
        <time>2016-12-16T12:23:02Z</time>
      </trkpt>
      <trkpt lat="45.18049" lon="5.53976">
        <ele>1051.1999511719</ele>
        <time>2016-12-16T12:23:03Z</time>
      </trkpt>
      <trkpt lat="45.18051" lon="5.53971">
        <ele>1051.5999755859</ele>
        <time>2016-12-16T12:23:04Z</time>
      </trkpt>
      <trkpt lat="45.18052" lon="5.53967">
        <ele>1052</ele>
        <time>2016-12-16T12:23:05Z</time>
      </trkpt>
      <trkpt lat="45.18068" lon="5.53925">
        <ele>1052</ele>
        <time>2016-12-16T12:23:14Z</time>
      </trkpt>
      <trkpt lat="45.18079" lon="5.539">
        <ele>1052</ele>
        <time>2016-12-16T12:23:20Z</time>
      </trkpt>
      <trkpt lat="45.1809" lon="5.53869">
        <ele>1052</ele>
        <time>2016-12-16T12:23:27Z</time>
      </trkpt>
      <trkpt lat="45.18108" lon="5.53821">
        <ele>1052</ele>
        <time>2016-12-16T12:23:37Z</time>
      </trkpt>
      <trkpt lat="45.18123" lon="5.53784">
        <ele>1052</ele>
        <time>2016-12-16T12:23:45Z</time>
      </trkpt>
      <trkpt lat="45.18138" lon="5.53769">
        <ele>1052</ele>
        <time>2016-12-16T12:23:50Z</time>
      </trkpt>
      <trkpt lat="45.18159" lon="5.53764">
        <ele>1052</ele>
        <time>2016-12-16T12:23:56Z</time>
      </trkpt>
      <trkpt lat="45.1818" lon="5.53763">
        <ele>1052.4000244141</ele>
        <time>2016-12-16T12:24:02Z</time>
      </trkpt>
      <trkpt lat="45.18183" lon="5.53763">
        <ele>1052.8000488281</ele>
        <time>2016-12-16T12:24:03Z</time>
      </trkpt>
      <trkpt lat="45.18187" lon="5.53762">
        <ele>1053.4000244141</ele>
        <time>2016-12-16T12:24:04Z</time>
      </trkpt>
      <trkpt lat="45.1819" lon="5.53762">
        <ele>1053.8000488281</ele>
        <time>2016-12-16T12:24:05Z</time>
      </trkpt>
      <trkpt lat="45.18193" lon="5.53762">
        <ele>1054.1999511719</ele>
        <time>2016-12-16T12:24:06Z</time>
      </trkpt>
      <trkpt lat="45.18218" lon="5.53761">
        <ele>1054.1999511719</ele>
        <time>2016-12-16T12:24:13Z</time>
      </trkpt>
      <trkpt lat="45.18232" lon="5.53761">
        <ele>1054.5999755859</ele>
        <time>2016-12-16T12:24:17Z</time>
      </trkpt>
      <trkpt lat="45.18236" lon="5.53761">
        <ele>1055</ele>
        <time>2016-12-16T12:24:18Z</time>
      </trkpt>
      <trkpt lat="45.18239" lon="5.53761">
        <ele>1055.4000244141</ele>
        <time>2016-12-16T12:24:19Z</time>
      </trkpt>
      <trkpt lat="45.18243" lon="5.53761">
        <ele>1055.8000488281</ele>
        <time>2016-12-16T12:24:20Z</time>
      </trkpt>
      <trkpt lat="45.18247" lon="5.53761">
        <ele>1056.1999511719</ele>
        <time>2016-12-16T12:24:21Z</time>
      </trkpt>
      <trkpt lat="45.18271" lon="5.53757">
        <ele>1056.1999511719</ele>
        <time>2016-12-16T12:24:28Z</time>
      </trkpt>
      <trkpt lat="45.1828" lon="5.53755">
        <ele>1056.5999755859</ele>
        <time>2016-12-16T12:24:31Z</time>
      </trkpt>
      <trkpt lat="45.18283" lon="5.53755">
        <ele>1057</ele>
        <time>2016-12-16T12:24:32Z</time>
      </trkpt>
      <trkpt lat="45.18285" lon="5.53754">
        <ele>1057.4000244141</ele>
        <time>2016-12-16T12:24:33Z</time>
      </trkpt>
      <trkpt lat="45.18288" lon="5.53753">
        <ele>1058</ele>
        <time>2016-12-16T12:24:34Z</time>
      </trkpt>
      <trkpt lat="45.18292" lon="5.53752">
        <ele>1058.4000244141</ele>
        <time>2016-12-16T12:24:35Z</time>
      </trkpt>
      <trkpt lat="45.18304" lon="5.53749">
        <ele>1058.4000244141</ele>
        <time>2016-12-16T12:24:39Z</time>
      </trkpt>
      <trkpt lat="45.18314" lon="5.53747">
        <ele>1058.8000488281</ele>
        <time>2016-12-16T12:24:42Z</time>
      </trkpt>
      <trkpt lat="45.18317" lon="5.53746">
        <ele>1059.1999511719</ele>
        <time>2016-12-16T12:24:43Z</time>
      </trkpt>
      <trkpt lat="45.18321" lon="5.53746">
        <ele>1059.5999755859</ele>
        <time>2016-12-16T12:24:44Z</time>
      </trkpt>
      <trkpt lat="45.18324" lon="5.53746">
        <ele>1060</ele>
        <time>2016-12-16T12:24:45Z</time>
      </trkpt>
      <trkpt lat="45.18327" lon="5.53745">
        <ele>1060.4000244141</ele>
        <time>2016-12-16T12:24:46Z</time>
      </trkpt>
      <trkpt lat="45.1836" lon="5.53741">
        <ele>1060.4000244141</ele>
        <time>2016-12-16T12:24:55Z</time>
      </trkpt>
      <trkpt lat="45.18396" lon="5.53733">
        <ele>1060.4000244141</ele>
        <time>2016-12-16T12:25:05Z</time>
      </trkpt>
      <trkpt lat="45.18418" lon="5.53731">
        <ele>1060.4000244141</ele>
        <time>2016-12-16T12:25:12Z</time>
      </trkpt>
      <trkpt lat="45.18438" lon="5.53747">
        <ele>1060.8000488281</ele>
        <time>2016-12-16T12:25:19Z</time>
      </trkpt>
      <trkpt lat="45.18441" lon="5.5375">
        <ele>1061.1999511719</ele>
        <time>2016-12-16T12:25:20Z</time>
      </trkpt>
      <trkpt lat="45.18444" lon="5.53752">
        <ele>1061.5999755859</ele>
        <time>2016-12-16T12:25:21Z</time>
      </trkpt>
      <trkpt lat="45.18447" lon="5.53754">
        <ele>1062</ele>
        <time>2016-12-16T12:25:22Z</time>
      </trkpt>
      <trkpt lat="45.18449" lon="5.53757">
        <ele>1062.4000244141</ele>
        <time>2016-12-16T12:25:23Z</time>
      </trkpt>
      <trkpt lat="45.18454" lon="5.53762">
        <ele>1062.4000244141</ele>
        <time>2016-12-16T12:25:25Z</time>
      </trkpt>
      <trkpt lat="45.18469" lon="5.53778">
        <ele>1062.4000244141</ele>
        <time>2016-12-16T12:25:31Z</time>
      </trkpt>
      <trkpt lat="45.18472" lon="5.5378">
        <ele>1062.8000488281</ele>
        <time>2016-12-16T12:25:32Z</time>
      </trkpt>
      <trkpt lat="45.18474" lon="5.53782">
        <ele>1063.1999511719</ele>
        <time>2016-12-16T12:25:33Z</time>
      </trkpt>
      <trkpt lat="45.18477" lon="5.53784">
        <ele>1063.5999755859</ele>
        <time>2016-12-16T12:25:34Z</time>
      </trkpt>
      <trkpt lat="45.18479" lon="5.53785">
        <ele>1064</ele>
        <time>2016-12-16T12:25:35Z</time>
      </trkpt>
      <trkpt lat="45.18482" lon="5.53787">
        <ele>1064.4000244141</ele>
        <time>2016-12-16T12:25:36Z</time>
      </trkpt>
      <trkpt lat="45.18485" lon="5.5379">
        <ele>1064.4000244141</ele>
        <time>2016-12-16T12:25:37Z</time>
      </trkpt>
      <trkpt lat="45.18504" lon="5.53802">
        <ele>1064.4000244141</ele>
        <time>2016-12-16T12:25:44Z</time>
      </trkpt>
      <trkpt lat="45.18518" lon="5.5381">
        <ele>1064.8000488281</ele>
        <time>2016-12-16T12:25:49Z</time>
      </trkpt>
      <trkpt lat="45.18521" lon="5.53811">
        <ele>1065.1999511719</ele>
        <time>2016-12-16T12:25:50Z</time>
      </trkpt>
      <trkpt lat="45.18523" lon="5.53812">
        <ele>1065.5999755859</ele>
        <time>2016-12-16T12:25:51Z</time>
      </trkpt>
      <trkpt lat="45.18526" lon="5.53814">
        <ele>1066.1999511719</ele>
        <time>2016-12-16T12:25:52Z</time>
      </trkpt>
      <trkpt lat="45.18529" lon="5.53815">
        <ele>1066.5999755859</ele>
        <time>2016-12-16T12:25:53Z</time>
      </trkpt>
      <trkpt lat="45.18541" lon="5.53819">
        <ele>1066.5999755859</ele>
        <time>2016-12-16T12:25:57Z</time>
      </trkpt>
      <trkpt lat="45.18553" lon="5.53823">
        <ele>1067</ele>
        <time>2016-12-16T12:26:01Z</time>
      </trkpt>
      <trkpt lat="45.18556" lon="5.53823">
        <ele>1067.4000244141</ele>
        <time>2016-12-16T12:26:02Z</time>
      </trkpt>
      <trkpt lat="45.18559" lon="5.53823">
        <ele>1067.8000488281</ele>
        <time>2016-12-16T12:26:03Z</time>
      </trkpt>
      <trkpt lat="45.18562" lon="5.53823">
        <ele>1068.1999511719</ele>
        <time>2016-12-16T12:26:04Z</time>
      </trkpt>
      <trkpt lat="45.18565" lon="5.53823">
        <ele>1068.5999755859</ele>
        <time>2016-12-16T12:26:05Z</time>
      </trkpt>
      <trkpt lat="45.18579" lon="5.53822">
        <ele>1068.5999755859</ele>
        <time>2016-12-16T12:26:10Z</time>
      </trkpt>
      <trkpt lat="45.18593" lon="5.53821">
        <ele>1069</ele>
        <time>2016-12-16T12:26:15Z</time>
      </trkpt>
      <trkpt lat="45.18595" lon="5.53821">
        <ele>1069.4000244141</ele>
        <time>2016-12-16T12:26:16Z</time>
      </trkpt>
      <trkpt lat="45.18597" lon="5.53822">
        <ele>1069.8000488281</ele>
        <time>2016-12-16T12:26:17Z</time>
      </trkpt>
      <trkpt lat="45.186" lon="5.53823">
        <ele>1070.5999755859</ele>
        <time>2016-12-16T12:26:18Z</time>
      </trkpt>
      <trkpt lat="45.18609" lon="5.53827">
        <ele>1070.5999755859</ele>
        <time>2016-12-16T12:26:22Z</time>
      </trkpt>
      <trkpt lat="45.18621" lon="5.53832">
        <ele>1071</ele>
        <time>2016-12-16T12:26:27Z</time>
      </trkpt>
      <trkpt lat="45.18623" lon="5.53832">
        <ele>1071.5999755859</ele>
        <time>2016-12-16T12:26:28Z</time>
      </trkpt>
      <trkpt lat="45.18626" lon="5.53832">
        <ele>1072</ele>
        <time>2016-12-16T12:26:29Z</time>
      </trkpt>
      <trkpt lat="45.18628" lon="5.53831">
        <ele>1072.4000244141</ele>
        <time>2016-12-16T12:26:30Z</time>
      </trkpt>
      <trkpt lat="45.1863" lon="5.5383">
        <ele>1073</ele>
        <time>2016-12-16T12:26:31Z</time>
      </trkpt>
      <trkpt lat="45.18634" lon="5.53827">
        <ele>1073</ele>
        <time>2016-12-16T12:26:33Z</time>
      </trkpt>
      <trkpt lat="45.18651" lon="5.53817">
        <ele>1073</ele>
        <time>2016-12-16T12:26:40Z</time>
      </trkpt>
      <trkpt lat="45.18659" lon="5.53816">
        <ele>1073.8000488281</ele>
        <time>2016-12-16T12:26:43Z</time>
      </trkpt>
      <trkpt lat="45.18661" lon="5.53816">
        <ele>1074.1999511719</ele>
        <time>2016-12-16T12:26:44Z</time>
      </trkpt>
      <trkpt lat="45.18664" lon="5.53816">
        <ele>1074.5999755859</ele>
        <time>2016-12-16T12:26:45Z</time>
      </trkpt>
      <trkpt lat="45.18666" lon="5.53817">
        <ele>1075.1999511719</ele>
        <time>2016-12-16T12:26:46Z</time>
      </trkpt>
      <trkpt lat="45.18678" lon="5.53825">
        <ele>1075.1999511719</ele>
        <time>2016-12-16T12:26:52Z</time>
      </trkpt>
      <trkpt lat="45.18683" lon="5.5383">
        <ele>1075.5999755859</ele>
        <time>2016-12-16T12:26:55Z</time>
      </trkpt>
      <trkpt lat="45.18684" lon="5.53831">
        <ele>1076</ele>
        <time>2016-12-16T12:26:56Z</time>
      </trkpt>
      <trkpt lat="45.18686" lon="5.53833">
        <ele>1076.4000244141</ele>
        <time>2016-12-16T12:26:57Z</time>
      </trkpt>
      <trkpt lat="45.18688" lon="5.53834">
        <ele>1076.8000488281</ele>
        <time>2016-12-16T12:26:58Z</time>
      </trkpt>
      <trkpt lat="45.1869" lon="5.53835">
        <ele>1077.1999511719</ele>
        <time>2016-12-16T12:26:59Z</time>
      </trkpt>
      <trkpt lat="45.18697" lon="5.53842">
        <ele>1077.1999511719</ele>
        <time>2016-12-16T12:27:04Z</time>
      </trkpt>
      <trkpt lat="45.18699" lon="5.53843">
        <ele>1077.5999755859</ele>
        <time>2016-12-16T12:27:05Z</time>
      </trkpt>
      <trkpt lat="45.18701" lon="5.53844">
        <ele>1078</ele>
        <time>2016-12-16T12:27:06Z</time>
      </trkpt>
      <trkpt lat="45.18702" lon="5.53845">
        <ele>1079</ele>
        <time>2016-12-16T12:27:07Z</time>
      </trkpt>
      <trkpt lat="45.18704" lon="5.53846">
        <ele>1079.4000244141</ele>
        <time>2016-12-16T12:27:08Z</time>
      </trkpt>
      <trkpt lat="45.18711" lon="5.53849">
        <ele>1079.4000244141</ele>
        <time>2016-12-16T12:27:12Z</time>
      </trkpt>
      <trkpt lat="45.18715" lon="5.5385">
        <ele>1079.8000488281</ele>
        <time>2016-12-16T12:27:14Z</time>
      </trkpt>
      <trkpt lat="45.18717" lon="5.53851">
        <ele>1080.1999511719</ele>
        <time>2016-12-16T12:27:15Z</time>
      </trkpt>
      <trkpt lat="45.18719" lon="5.53852">
        <ele>1080.5999755859</ele>
        <time>2016-12-16T12:27:16Z</time>
      </trkpt>
      <trkpt lat="45.1872" lon="5.53853">
        <ele>1081</ele>
        <time>2016-12-16T12:27:17Z</time>
      </trkpt>
      <trkpt lat="45.18722" lon="5.53854">
        <ele>1081.4000244141</ele>
        <time>2016-12-16T12:27:18Z</time>
      </trkpt>
      <trkpt lat="45.18736" lon="5.53861">
        <ele>1081.8000488281</ele>
        <time>2016-12-16T12:27:26Z</time>
      </trkpt>
      <trkpt lat="45.18738" lon="5.53862">
        <ele>1082.1999511719</ele>
        <time>2016-12-16T12:27:27Z</time>
      </trkpt>
      <trkpt lat="45.18741" lon="5.53863">
        <ele>1082.5999755859</ele>
        <time>2016-12-16T12:27:28Z</time>
      </trkpt>
      <trkpt lat="45.18743" lon="5.53864">
        <ele>1083</ele>
        <time>2016-12-16T12:27:29Z</time>
      </trkpt>
      <trkpt lat="45.18744" lon="5.53865">
        <ele>1083.4000244141</ele>
        <time>2016-12-16T12:27:30Z</time>
      </trkpt>
      <trkpt lat="45.18749" lon="5.53868">
        <ele>1083.4000244141</ele>
        <time>2016-12-16T12:27:33Z</time>
      </trkpt>
      <trkpt lat="45.18758" lon="5.53873">
        <ele>1083.8000488281</ele>
        <time>2016-12-16T12:27:38Z</time>
      </trkpt>
      <trkpt lat="45.1876" lon="5.53874">
        <ele>1084.1999511719</ele>
        <time>2016-12-16T12:27:39Z</time>
      </trkpt>
      <trkpt lat="45.18762" lon="5.53875">
        <ele>1084.5999755859</ele>
        <time>2016-12-16T12:27:40Z</time>
      </trkpt>
      <trkpt lat="45.18763" lon="5.53875">
        <ele>1085</ele>
        <time>2016-12-16T12:27:41Z</time>
      </trkpt>
      <trkpt lat="45.18765" lon="5.53875">
        <ele>1085.4000244141</ele>
        <time>2016-12-16T12:27:42Z</time>
      </trkpt>
      <trkpt lat="45.18771" lon="5.53876">
        <ele>1085.4000244141</ele>
        <time>2016-12-16T12:27:45Z</time>
      </trkpt>
      <trkpt lat="45.18779" lon="5.53877">
        <ele>1085.8000488281</ele>
        <time>2016-12-16T12:27:50Z</time>
      </trkpt>
      <trkpt lat="45.18781" lon="5.53878">
        <ele>1086.1999511719</ele>
        <time>2016-12-16T12:27:51Z</time>
      </trkpt>
      <trkpt lat="45.18783" lon="5.53879">
        <ele>1086.8000488281</ele>
        <time>2016-12-16T12:27:52Z</time>
      </trkpt>
      <trkpt lat="45.18784" lon="5.53879">
        <ele>1087.1999511719</ele>
        <time>2016-12-16T12:27:53Z</time>
      </trkpt>
      <trkpt lat="45.18785" lon="5.5388">
        <ele>1087.5999755859</ele>
        <time>2016-12-16T12:27:54Z</time>
      </trkpt>
      <trkpt lat="45.18787" lon="5.5388">
        <ele>1087.5999755859</ele>
        <time>2016-12-16T12:27:55Z</time>
      </trkpt>
      <trkpt lat="45.18798" lon="5.53881">
        <ele>1088</ele>
        <time>2016-12-16T12:28:01Z</time>
      </trkpt>
      <trkpt lat="45.188" lon="5.53881">
        <ele>1088.4000244141</ele>
        <time>2016-12-16T12:28:02Z</time>
      </trkpt>
      <trkpt lat="45.18802" lon="5.53881">
        <ele>1088.8000488281</ele>
        <time>2016-12-16T12:28:03Z</time>
      </trkpt>
      <trkpt lat="45.18804" lon="5.5388">
        <ele>1089.1999511719</ele>
        <time>2016-12-16T12:28:04Z</time>
      </trkpt>
      <trkpt lat="45.18806" lon="5.5388">
        <ele>1089.5999755859</ele>
        <time>2016-12-16T12:28:05Z</time>
      </trkpt>
      <trkpt lat="45.18814" lon="5.53878">
        <ele>1089.5999755859</ele>
        <time>2016-12-16T12:28:09Z</time>
      </trkpt>
      <trkpt lat="45.18817" lon="5.53878">
        <ele>1090</ele>
        <time>2016-12-16T12:28:11Z</time>
      </trkpt>
      <trkpt lat="45.18819" lon="5.53877">
        <ele>1090.4000244141</ele>
        <time>2016-12-16T12:28:12Z</time>
      </trkpt>
      <trkpt lat="45.1882" lon="5.53878">
        <ele>1090.8000488281</ele>
        <time>2016-12-16T12:28:13Z</time>
      </trkpt>
      <trkpt lat="45.18821" lon="5.53877">
        <ele>1091.1999511719</ele>
        <time>2016-12-16T12:28:14Z</time>
      </trkpt>
      <trkpt lat="45.18823" lon="5.53877">
        <ele>1091.5999755859</ele>
        <time>2016-12-16T12:28:15Z</time>
      </trkpt>
      <trkpt lat="45.18833" lon="5.53876">
        <ele>1091.5999755859</ele>
        <time>2016-12-16T12:28:21Z</time>
      </trkpt>
      <trkpt lat="45.18835" lon="5.53876">
        <ele>1091.5999755859</ele>
        <time>2016-12-16T12:28:22Z</time>
      </trkpt>
      <trkpt lat="45.18836" lon="5.53875">
        <ele>1092.1999511719</ele>
        <time>2016-12-16T12:28:23Z</time>
      </trkpt>
      <trkpt lat="45.18838" lon="5.53875">
        <ele>1092.5999755859</ele>
        <time>2016-12-16T12:28:24Z</time>
      </trkpt>
      <trkpt lat="45.18839" lon="5.53875">
        <ele>1093</ele>
        <time>2016-12-16T12:28:25Z</time>
      </trkpt>
      <trkpt lat="45.18841" lon="5.53875">
        <ele>1093.4000244141</ele>
        <time>2016-12-16T12:28:26Z</time>
      </trkpt>
      <trkpt lat="45.18842" lon="5.53874">
        <ele>1093.8000488281</ele>
        <time>2016-12-16T12:28:27Z</time>
      </trkpt>
      <trkpt lat="45.18844" lon="5.53873">
        <ele>1093.8000488281</ele>
        <time>2016-12-16T12:28:28Z</time>
      </trkpt>
      <trkpt lat="45.18854" lon="5.53873">
        <ele>1094.1999511719</ele>
        <time>2016-12-16T12:28:34Z</time>
      </trkpt>
      <trkpt lat="45.18856" lon="5.53872">
        <ele>1094.5999755859</ele>
        <time>2016-12-16T12:28:35Z</time>
      </trkpt>
      <trkpt lat="45.18857" lon="5.53872">
        <ele>1095</ele>
        <time>2016-12-16T12:28:36Z</time>
      </trkpt>
      <trkpt lat="45.18859" lon="5.53872">
        <ele>1095.4000244141</ele>
        <time>2016-12-16T12:28:37Z</time>
      </trkpt>
      <trkpt lat="45.18861" lon="5.53872">
        <ele>1095.8000488281</ele>
        <time>2016-12-16T12:28:38Z</time>
      </trkpt>
      <trkpt lat="45.18865" lon="5.53871">
        <ele>1095.8000488281</ele>
        <time>2016-12-16T12:28:41Z</time>
      </trkpt>
      <trkpt lat="45.18867" lon="5.53871">
        <ele>1095.8000488281</ele>
        <time>2016-12-16T12:28:42Z</time>
      </trkpt>
      <trkpt lat="45.1887" lon="5.53873">
        <ele>1096.1999511719</ele>
        <time>2016-12-16T12:28:45Z</time>
      </trkpt>
      <trkpt lat="45.18871" lon="5.53873">
        <ele>1097</ele>
        <time>2016-12-16T12:28:46Z</time>
      </trkpt>
      <trkpt lat="45.18872" lon="5.53873">
        <ele>1097.4000244141</ele>
        <time>2016-12-16T12:28:47Z</time>
      </trkpt>
      <trkpt lat="45.18874" lon="5.53874">
        <ele>1097.8000488281</ele>
        <time>2016-12-16T12:28:48Z</time>
      </trkpt>
      <trkpt lat="45.18882" lon="5.53875">
        <ele>1097.8000488281</ele>
        <time>2016-12-16T12:28:53Z</time>
      </trkpt>
      <trkpt lat="45.18889" lon="5.53878">
        <ele>1098.4000244141</ele>
        <time>2016-12-16T12:28:57Z</time>
      </trkpt>
      <trkpt lat="45.1889" lon="5.53878">
        <ele>1098.8000488281</ele>
        <time>2016-12-16T12:28:58Z</time>
      </trkpt>
      <trkpt lat="45.18892" lon="5.53879">
        <ele>1099.1999511719</ele>
        <time>2016-12-16T12:28:59Z</time>
      </trkpt>
      <trkpt lat="45.18894" lon="5.53879">
        <ele>1099.5999755859</ele>
        <time>2016-12-16T12:29:00Z</time>
      </trkpt>
      <trkpt lat="45.18896" lon="5.53879">
        <ele>1100</ele>
        <time>2016-12-16T12:29:01Z</time>
      </trkpt>
      <trkpt lat="45.18902" lon="5.5388">
        <ele>1100.4000244141</ele>
        <time>2016-12-16T12:29:06Z</time>
      </trkpt>
      <trkpt lat="45.18904" lon="5.5388">
        <ele>1100.8000488281</ele>
        <time>2016-12-16T12:29:07Z</time>
      </trkpt>
      <trkpt lat="45.18906" lon="5.53881">
        <ele>1101.1999511719</ele>
        <time>2016-12-16T12:29:08Z</time>
      </trkpt>
      <trkpt lat="45.18908" lon="5.53882">
        <ele>1101.5999755859</ele>
        <time>2016-12-16T12:29:09Z</time>
      </trkpt>
      <trkpt lat="45.1891" lon="5.53883">
        <ele>1102</ele>
        <time>2016-12-16T12:29:10Z</time>
      </trkpt>
      <trkpt lat="45.18913" lon="5.53884">
        <ele>1102</ele>
        <time>2016-12-16T12:29:12Z</time>
      </trkpt>
      <trkpt lat="45.18917" lon="5.53884">
        <ele>1102.4000244141</ele>
        <time>2016-12-16T12:29:16Z</time>
      </trkpt>
      <trkpt lat="45.18918" lon="5.53883">
        <ele>1102.8000488281</ele>
        <time>2016-12-16T12:29:17Z</time>
      </trkpt>
      <trkpt lat="45.18919" lon="5.53882">
        <ele>1103.1999511719</ele>
        <time>2016-12-16T12:29:18Z</time>
      </trkpt>
      <trkpt lat="45.18921" lon="5.53883">
        <ele>1103.5999755859</ele>
        <time>2016-12-16T12:29:19Z</time>
      </trkpt>
      <trkpt lat="45.18923" lon="5.53883">
        <ele>1104</ele>
        <time>2016-12-16T12:29:20Z</time>
      </trkpt>
      <trkpt lat="45.18926" lon="5.53881">
        <ele>1104</ele>
        <time>2016-12-16T12:29:23Z</time>
      </trkpt>
      <trkpt lat="45.18927" lon="5.5388">
        <ele>1104</ele>
        <time>2016-12-16T12:29:24Z</time>
      </trkpt>
      <trkpt lat="45.18926" lon="5.53879">
        <ele>1104</ele>
        <time>2016-12-16T12:29:26Z</time>
      </trkpt>
      <trkpt lat="45.18925" lon="5.53879">
        <ele>1104</ele>
        <time>2016-12-16T12:29:27Z</time>
      </trkpt>
      <trkpt lat="45.18918" lon="5.53887">
        <ele>1104</ele>
        <time>2016-12-16T12:29:30Z</time>
      </trkpt>
      <trkpt lat="45.18915" lon="5.53892">
        <ele>1104</ele>
        <time>2016-12-16T12:29:31Z</time>
      </trkpt>
      <trkpt lat="45.18913" lon="5.53903">
        <ele>1104</ele>
        <time>2016-12-16T12:29:33Z</time>
      </trkpt>
      <trkpt lat="45.18912" lon="5.5393">
        <ele>1104</ele>
        <time>2016-12-16T12:29:37Z</time>
      </trkpt>
      <trkpt lat="45.18906" lon="5.53942">
        <ele>1103.5999755859</ele>
        <time>2016-12-16T12:29:39Z</time>
      </trkpt>
      <trkpt lat="45.18901" lon="5.53947">
        <ele>1103.1999511719</ele>
        <time>2016-12-16T12:29:40Z</time>
      </trkpt>
      <trkpt lat="45.18896" lon="5.53952">
        <ele>1102.8000488281</ele>
        <time>2016-12-16T12:29:41Z</time>
      </trkpt>
      <trkpt lat="45.18892" lon="5.53957">
        <ele>1102.4000244141</ele>
        <time>2016-12-16T12:29:42Z</time>
      </trkpt>
      <trkpt lat="45.18889" lon="5.53962">
        <ele>1101.8000488281</ele>
        <time>2016-12-16T12:29:43Z</time>
      </trkpt>
      <trkpt lat="45.18886" lon="5.53967">
        <ele>1101.8000488281</ele>
        <time>2016-12-16T12:29:44Z</time>
      </trkpt>
      <trkpt lat="45.18884" lon="5.53972">
        <ele>1101.8000488281</ele>
        <time>2016-12-16T12:29:45Z</time>
      </trkpt>
      <trkpt lat="45.18871" lon="5.53989">
        <ele>1101.8000488281</ele>
        <time>2016-12-16T12:29:50Z</time>
      </trkpt>
      <trkpt lat="45.18858" lon="5.54001">
        <ele>1101.8000488281</ele>
        <time>2016-12-16T12:29:55Z</time>
      </trkpt>
      <trkpt lat="45.18842" lon="5.54008">
        <ele>1101.8000488281</ele>
        <time>2016-12-16T12:30:02Z</time>
      </trkpt>
      <trkpt lat="45.18837" lon="5.5401">
        <ele>1102.4000244141</ele>
        <time>2016-12-16T12:30:04Z</time>
      </trkpt>
      <trkpt lat="45.18834" lon="5.5401">
        <ele>1102.8000488281</ele>
        <time>2016-12-16T12:30:05Z</time>
      </trkpt>
      <trkpt lat="45.18832" lon="5.54011">
        <ele>1103.1999511719</ele>
        <time>2016-12-16T12:30:06Z</time>
      </trkpt>
      <trkpt lat="45.18829" lon="5.54011">
        <ele>1103.5999755859</ele>
        <time>2016-12-16T12:30:07Z</time>
      </trkpt>
      <trkpt lat="45.18827" lon="5.54011">
        <ele>1104</ele>
        <time>2016-12-16T12:30:08Z</time>
      </trkpt>
      <trkpt lat="45.18807" lon="5.54012">
        <ele>1104</ele>
        <time>2016-12-16T12:30:15Z</time>
      </trkpt>
      <trkpt lat="45.18785" lon="5.54015">
        <ele>1104</ele>
        <time>2016-12-16T12:30:23Z</time>
      </trkpt>
      <trkpt lat="45.18763" lon="5.54019">
        <ele>1104</ele>
        <time>2016-12-16T12:30:31Z</time>
      </trkpt>
      <trkpt lat="45.18761" lon="5.5402">
        <ele>1104.4000244141</ele>
        <time>2016-12-16T12:30:32Z</time>
      </trkpt>
      <trkpt lat="45.18759" lon="5.54021">
        <ele>1104.8000488281</ele>
        <time>2016-12-16T12:30:33Z</time>
      </trkpt>
      <trkpt lat="45.18757" lon="5.54021">
        <ele>1105.1999511719</ele>
        <time>2016-12-16T12:30:34Z</time>
      </trkpt>
      <trkpt lat="45.18755" lon="5.54022">
        <ele>1105.5999755859</ele>
        <time>2016-12-16T12:30:35Z</time>
      </trkpt>
      <trkpt lat="45.18752" lon="5.54023">
        <ele>1106</ele>
        <time>2016-12-16T12:30:36Z</time>
      </trkpt>
      <trkpt lat="45.1875" lon="5.54023">
        <ele>1106</ele>
        <time>2016-12-16T12:30:37Z</time>
      </trkpt>
      <trkpt lat="45.18733" lon="5.54023">
        <ele>1106</ele>
        <time>2016-12-16T12:30:42Z</time>
      </trkpt>
      <trkpt lat="45.18712" lon="5.54021">
        <ele>1106</ele>
        <time>2016-12-16T12:30:47Z</time>
      </trkpt>
      <trkpt lat="45.18683" lon="5.5402">
        <ele>1106</ele>
        <time>2016-12-16T12:30:54Z</time>
      </trkpt>
      <trkpt lat="45.18667" lon="5.54018">
        <ele>1106</ele>
        <time>2016-12-16T12:30:59Z</time>
      </trkpt>
      <trkpt lat="45.18663" lon="5.5402">
        <ele>1106</ele>
        <time>2016-12-16T12:31:01Z</time>
      </trkpt>
      <trkpt lat="45.18662" lon="5.54021">
        <ele>1106</ele>
        <time>2016-12-16T12:31:02Z</time>
      </trkpt>
      <trkpt lat="45.18661" lon="5.54022">
        <ele>1106</ele>
        <time>2016-12-16T12:31:04Z</time>
      </trkpt>
      <trkpt lat="45.18662" lon="5.54022">
        <ele>1106</ele>
        <time>2016-12-16T12:31:06Z</time>
      </trkpt>
      <trkpt lat="45.18666" lon="5.54024">
        <ele>1106</ele>
        <time>2016-12-16T12:31:09Z</time>
      </trkpt>
      <trkpt lat="45.18667" lon="5.54024">
        <ele>1106</ele>
        <time>2016-12-16T12:31:10Z</time>
      </trkpt>
      <trkpt lat="45.18669" lon="5.54025">
        <ele>1106.4000244141</ele>
        <time>2016-12-16T12:31:11Z</time>
      </trkpt>
      <trkpt lat="45.1867" lon="5.54026">
        <ele>1106.8000488281</ele>
        <time>2016-12-16T12:31:12Z</time>
      </trkpt>
      <trkpt lat="45.18671" lon="5.54027">
        <ele>1107.1999511719</ele>
        <time>2016-12-16T12:31:13Z</time>
      </trkpt>
      <trkpt lat="45.18673" lon="5.54029">
        <ele>1108</ele>
        <time>2016-12-16T12:31:14Z</time>
      </trkpt>
      <trkpt lat="45.18674" lon="5.5403">
        <ele>1108</ele>
        <time>2016-12-16T12:31:15Z</time>
      </trkpt>
      <trkpt lat="45.18676" lon="5.54031">
        <ele>1108</ele>
        <time>2016-12-16T12:31:16Z</time>
      </trkpt>
      <trkpt lat="45.18687" lon="5.54037">
        <ele>1108.4000244141</ele>
        <time>2016-12-16T12:31:22Z</time>
      </trkpt>
      <trkpt lat="45.18689" lon="5.54039">
        <ele>1108.8000488281</ele>
        <time>2016-12-16T12:31:23Z</time>
      </trkpt>
      <trkpt lat="45.18691" lon="5.5404">
        <ele>1109.1999511719</ele>
        <time>2016-12-16T12:31:24Z</time>
      </trkpt>
      <trkpt lat="45.18692" lon="5.54041">
        <ele>1109.8000488281</ele>
        <time>2016-12-16T12:31:25Z</time>
      </trkpt>
      <trkpt lat="45.18694" lon="5.54043">
        <ele>1110.1999511719</ele>
        <time>2016-12-16T12:31:26Z</time>
      </trkpt>
      <trkpt lat="45.18701" lon="5.54048">
        <ele>1110.1999511719</ele>
        <time>2016-12-16T12:31:31Z</time>
      </trkpt>
      <trkpt lat="45.18704" lon="5.5405">
        <ele>1110.5999755859</ele>
        <time>2016-12-16T12:31:33Z</time>
      </trkpt>
      <trkpt lat="45.18705" lon="5.54051">
        <ele>1111</ele>
        <time>2016-12-16T12:31:34Z</time>
      </trkpt>
      <trkpt lat="45.18707" lon="5.54052">
        <ele>1111.4000244141</ele>
        <time>2016-12-16T12:31:35Z</time>
      </trkpt>
      <trkpt lat="45.18708" lon="5.54054">
        <ele>1111.8000488281</ele>
        <time>2016-12-16T12:31:36Z</time>
      </trkpt>
      <trkpt lat="45.1871" lon="5.54055">
        <ele>1112.4000244141</ele>
        <time>2016-12-16T12:31:37Z</time>
      </trkpt>
      <trkpt lat="45.18711" lon="5.54056">
        <ele>1112.4000244141</ele>
        <time>2016-12-16T12:31:38Z</time>
      </trkpt>
      <trkpt lat="45.18713" lon="5.54058">
        <ele>1112.8000488281</ele>
        <time>2016-12-16T12:31:41Z</time>
      </trkpt>
      <trkpt lat="45.18714" lon="5.54059">
        <ele>1113.1999511719</ele>
        <time>2016-12-16T12:31:42Z</time>
      </trkpt>
      <trkpt lat="45.18715" lon="5.5406">
        <ele>1113.5999755859</ele>
        <time>2016-12-16T12:31:43Z</time>
      </trkpt>
      <trkpt lat="45.18716" lon="5.5406">
        <ele>1114</ele>
        <time>2016-12-16T12:31:44Z</time>
      </trkpt>
      <trkpt lat="45.18717" lon="5.54061">
        <ele>1114.4000244141</ele>
        <time>2016-12-16T12:31:45Z</time>
      </trkpt>
      <trkpt lat="45.18719" lon="5.54063">
        <ele>1114.4000244141</ele>
        <time>2016-12-16T12:31:47Z</time>
      </trkpt>
      <trkpt lat="45.18723" lon="5.54066">
        <ele>1114.8000488281</ele>
        <time>2016-12-16T12:31:51Z</time>
      </trkpt>
      <trkpt lat="45.18724" lon="5.54067">
        <ele>1115.4000244141</ele>
        <time>2016-12-16T12:31:52Z</time>
      </trkpt>
      <trkpt lat="45.18725" lon="5.54067">
        <ele>1115.8000488281</ele>
        <time>2016-12-16T12:31:53Z</time>
      </trkpt>
      <trkpt lat="45.18726" lon="5.54068">
        <ele>1116.1999511719</ele>
        <time>2016-12-16T12:31:54Z</time>
      </trkpt>
      <trkpt lat="45.18728" lon="5.54069">
        <ele>1116.5999755859</ele>
        <time>2016-12-16T12:31:55Z</time>
      </trkpt>
      <trkpt lat="45.18736" lon="5.54072">
        <ele>1116.5999755859</ele>
        <time>2016-12-16T12:31:59Z</time>
      </trkpt>
      <trkpt lat="45.18738" lon="5.54074">
        <ele>1117</ele>
        <time>2016-12-16T12:32:01Z</time>
      </trkpt>
      <trkpt lat="45.18739" lon="5.54076">
        <ele>1117.4000244141</ele>
        <time>2016-12-16T12:32:02Z</time>
      </trkpt>
      <trkpt lat="45.18741" lon="5.54078">
        <ele>1117.8000488281</ele>
        <time>2016-12-16T12:32:03Z</time>
      </trkpt>
      <trkpt lat="45.18741" lon="5.54079">
        <ele>1118.5999755859</ele>
        <time>2016-12-16T12:32:04Z</time>
      </trkpt>
      <trkpt lat="45.18743" lon="5.5408">
        <ele>1118.5999755859</ele>
        <time>2016-12-16T12:32:05Z</time>
      </trkpt>
      <trkpt lat="45.18745" lon="5.54083">
        <ele>1118.5999755859</ele>
        <time>2016-12-16T12:32:07Z</time>
      </trkpt>
      <trkpt lat="45.18747" lon="5.54086">
        <ele>1119.1999511719</ele>
        <time>2016-12-16T12:32:09Z</time>
      </trkpt>
      <trkpt lat="45.18748" lon="5.54087">
        <ele>1119.5999755859</ele>
        <time>2016-12-16T12:32:10Z</time>
      </trkpt>
      <trkpt lat="45.18749" lon="5.54089">
        <ele>1120</ele>
        <time>2016-12-16T12:32:11Z</time>
      </trkpt>
      <trkpt lat="45.1875" lon="5.5409">
        <ele>1120.4000244141</ele>
        <time>2016-12-16T12:32:12Z</time>
      </trkpt>
      <trkpt lat="45.1875" lon="5.54091">
        <ele>1121</ele>
        <time>2016-12-16T12:32:13Z</time>
      </trkpt>
      <trkpt lat="45.18753" lon="5.54095">
        <ele>1121</ele>
        <time>2016-12-16T12:32:17Z</time>
      </trkpt>
      <trkpt lat="45.18754" lon="5.54096">
        <ele>1121.4000244141</ele>
        <time>2016-12-16T12:32:18Z</time>
      </trkpt>
      <trkpt lat="45.18755" lon="5.54096">
        <ele>1121.8000488281</ele>
        <time>2016-12-16T12:32:19Z</time>
      </trkpt>
      <trkpt lat="45.18756" lon="5.54098">
        <ele>1122.1999511719</ele>
        <time>2016-12-16T12:32:20Z</time>
      </trkpt>
      <trkpt lat="45.18757" lon="5.54099">
        <ele>1122.5999755859</ele>
        <time>2016-12-16T12:32:21Z</time>
      </trkpt>
      <trkpt lat="45.18759" lon="5.541">
        <ele>1123</ele>
        <time>2016-12-16T12:32:22Z</time>
      </trkpt>
      <trkpt lat="45.18768" lon="5.54105">
        <ele>1123.8000488281</ele>
        <time>2016-12-16T12:32:27Z</time>
      </trkpt>
      <trkpt lat="45.18769" lon="5.54105">
        <ele>1124.1999511719</ele>
        <time>2016-12-16T12:32:28Z</time>
      </trkpt>
      <trkpt lat="45.1877" lon="5.54106">
        <ele>1124.5999755859</ele>
        <time>2016-12-16T12:32:29Z</time>
      </trkpt>
      <trkpt lat="45.18772" lon="5.54106">
        <ele>1125</ele>
        <time>2016-12-16T12:32:30Z</time>
      </trkpt>
      <trkpt lat="45.18785" lon="5.54114">
        <ele>1125</ele>
        <time>2016-12-16T12:32:38Z</time>
      </trkpt>
      <trkpt lat="45.18787" lon="5.54115">
        <ele>1125.4000244141</ele>
        <time>2016-12-16T12:32:39Z</time>
      </trkpt>
      <trkpt lat="45.18789" lon="5.54116">
        <ele>1125.8000488281</ele>
        <time>2016-12-16T12:32:40Z</time>
      </trkpt>
      <trkpt lat="45.18791" lon="5.54117">
        <ele>1126.1999511719</ele>
        <time>2016-12-16T12:32:41Z</time>
      </trkpt>
      <trkpt lat="45.18792" lon="5.54118">
        <ele>1126.5999755859</ele>
        <time>2016-12-16T12:32:42Z</time>
      </trkpt>
      <trkpt lat="45.18795" lon="5.5412">
        <ele>1127</ele>
        <time>2016-12-16T12:32:43Z</time>
      </trkpt>
      <trkpt lat="45.18799" lon="5.54122">
        <ele>1127</ele>
        <time>2016-12-16T12:32:45Z</time>
      </trkpt>
      <trkpt lat="45.18815" lon="5.54129">
        <ele>1127</ele>
        <time>2016-12-16T12:32:53Z</time>
      </trkpt>
      <trkpt lat="45.18827" lon="5.54133">
        <ele>1127</ele>
        <time>2016-12-16T12:32:59Z</time>
      </trkpt>
      <trkpt lat="45.18831" lon="5.54135">
        <ele>1127.4000244141</ele>
        <time>2016-12-16T12:33:01Z</time>
      </trkpt>
      <trkpt lat="45.18833" lon="5.54135">
        <ele>1127.8000488281</ele>
        <time>2016-12-16T12:33:02Z</time>
      </trkpt>
      <trkpt lat="45.18835" lon="5.54136">
        <ele>1128.1999511719</ele>
        <time>2016-12-16T12:33:03Z</time>
      </trkpt>
      <trkpt lat="45.18837" lon="5.54136">
        <ele>1128.5999755859</ele>
        <time>2016-12-16T12:33:04Z</time>
      </trkpt>
      <trkpt lat="45.18839" lon="5.54137">
        <ele>1129</ele>
        <time>2016-12-16T12:33:05Z</time>
      </trkpt>
      <trkpt lat="45.18841" lon="5.54138">
        <ele>1129</ele>
        <time>2016-12-16T12:33:06Z</time>
      </trkpt>
      <trkpt lat="45.18854" lon="5.54143">
        <ele>1129</ele>
        <time>2016-12-16T12:33:12Z</time>
      </trkpt>
      <trkpt lat="45.18871" lon="5.54147">
        <ele>1129</ele>
        <time>2016-12-16T12:33:20Z</time>
      </trkpt>
      <trkpt lat="45.18873" lon="5.54148">
        <ele>1129.4000244141</ele>
        <time>2016-12-16T12:33:21Z</time>
      </trkpt>
      <trkpt lat="45.18876" lon="5.54148">
        <ele>1129.8000488281</ele>
        <time>2016-12-16T12:33:22Z</time>
      </trkpt>
      <trkpt lat="45.18878" lon="5.54149">
        <ele>1130.1999511719</ele>
        <time>2016-12-16T12:33:23Z</time>
      </trkpt>
      <trkpt lat="45.1888" lon="5.5415">
        <ele>1130.5999755859</ele>
        <time>2016-12-16T12:33:24Z</time>
      </trkpt>
      <trkpt lat="45.18883" lon="5.5415">
        <ele>1131</ele>
        <time>2016-12-16T12:33:25Z</time>
      </trkpt>
      <trkpt lat="45.1889" lon="5.54153">
        <ele>1131</ele>
        <time>2016-12-16T12:33:28Z</time>
      </trkpt>
      <trkpt lat="45.18903" lon="5.54157">
        <ele>1131</ele>
        <time>2016-12-16T12:33:34Z</time>
      </trkpt>
      <trkpt lat="45.18916" lon="5.54161">
        <ele>1131</ele>
        <time>2016-12-16T12:33:40Z</time>
      </trkpt>
      <trkpt lat="45.18918" lon="5.54162">
        <ele>1131.5999755859</ele>
        <time>2016-12-16T12:33:41Z</time>
      </trkpt>
      <trkpt lat="45.1892" lon="5.54163">
        <ele>1132</ele>
        <time>2016-12-16T12:33:42Z</time>
      </trkpt>
      <trkpt lat="45.18922" lon="5.54164">
        <ele>1132.4000244141</ele>
        <time>2016-12-16T12:33:43Z</time>
      </trkpt>
      <trkpt lat="45.18924" lon="5.54165">
        <ele>1133</ele>
        <time>2016-12-16T12:33:44Z</time>
      </trkpt>
      <trkpt lat="45.18926" lon="5.54165">
        <ele>1133.4000244141</ele>
        <time>2016-12-16T12:33:45Z</time>
      </trkpt>
      <trkpt lat="45.18928" lon="5.54165">
        <ele>1133.4000244141</ele>
        <time>2016-12-16T12:33:46Z</time>
      </trkpt>
      <trkpt lat="45.18942" lon="5.54169">
        <ele>1133.4000244141</ele>
        <time>2016-12-16T12:33:53Z</time>
      </trkpt>
      <trkpt lat="45.18946" lon="5.5417">
        <ele>1133.8000488281</ele>
        <time>2016-12-16T12:33:55Z</time>
      </trkpt>
      <trkpt lat="45.18948" lon="5.54171">
        <ele>1134.1999511719</ele>
        <time>2016-12-16T12:33:56Z</time>
      </trkpt>
      <trkpt lat="45.1895" lon="5.54171">
        <ele>1134.5999755859</ele>
        <time>2016-12-16T12:33:57Z</time>
      </trkpt>
      <trkpt lat="45.18952" lon="5.54171">
        <ele>1135</ele>
        <time>2016-12-16T12:33:58Z</time>
      </trkpt>
      <trkpt lat="45.18953" lon="5.54172">
        <ele>1135.4000244141</ele>
        <time>2016-12-16T12:33:59Z</time>
      </trkpt>
      <trkpt lat="45.18958" lon="5.54173">
        <ele>1135.4000244141</ele>
        <time>2016-12-16T12:34:02Z</time>
      </trkpt>
      <trkpt lat="45.18964" lon="5.54174">
        <ele>1135.4000244141</ele>
        <time>2016-12-16T12:34:05Z</time>
      </trkpt>
      <trkpt lat="45.18973" lon="5.54177">
        <ele>1135.4000244141</ele>
        <time>2016-12-16T12:34:09Z</time>
      </trkpt>
      <trkpt lat="45.18975" lon="5.54178">
        <ele>1135.8000488281</ele>
        <time>2016-12-16T12:34:10Z</time>
      </trkpt>
      <trkpt lat="45.18978" lon="5.54178">
        <ele>1136.1999511719</ele>
        <time>2016-12-16T12:34:11Z</time>
      </trkpt>
      <trkpt lat="45.1898" lon="5.54179">
        <ele>1136.5999755859</ele>
        <time>2016-12-16T12:34:12Z</time>
      </trkpt>
      <trkpt lat="45.18983" lon="5.5418">
        <ele>1137</ele>
        <time>2016-12-16T12:34:13Z</time>
      </trkpt>
      <trkpt lat="45.18985" lon="5.5418">
        <ele>1137.4000244141</ele>
        <time>2016-12-16T12:34:14Z</time>
      </trkpt>
      <trkpt lat="45.18987" lon="5.54181">
        <ele>1137.4000244141</ele>
        <time>2016-12-16T12:34:15Z</time>
      </trkpt>
      <trkpt lat="45.19001" lon="5.54187">
        <ele>1137.4000244141</ele>
        <time>2016-12-16T12:34:22Z</time>
      </trkpt>
      <trkpt lat="45.19015" lon="5.54193">
        <ele>1137.4000244141</ele>
        <time>2016-12-16T12:34:29Z</time>
      </trkpt>
      <trkpt lat="45.1902" lon="5.54196">
        <ele>1137.8000488281</ele>
        <time>2016-12-16T12:34:32Z</time>
      </trkpt>
      <trkpt lat="45.19022" lon="5.54197">
        <ele>1138.1999511719</ele>
        <time>2016-12-16T12:34:33Z</time>
      </trkpt>
      <trkpt lat="45.19023" lon="5.54197">
        <ele>1138.5999755859</ele>
        <time>2016-12-16T12:34:34Z</time>
      </trkpt>
      <trkpt lat="45.19026" lon="5.54198">
        <ele>1139</ele>
        <time>2016-12-16T12:34:35Z</time>
      </trkpt>
      <trkpt lat="45.19028" lon="5.54198">
        <ele>1139.4000244141</ele>
        <time>2016-12-16T12:34:36Z</time>
      </trkpt>
      <trkpt lat="45.19045" lon="5.54203">
        <ele>1139.4000244141</ele>
        <time>2016-12-16T12:34:44Z</time>
      </trkpt>
      <trkpt lat="45.19057" lon="5.54206">
        <ele>1139.8000488281</ele>
        <time>2016-12-16T12:34:50Z</time>
      </trkpt>
      <trkpt lat="45.19059" lon="5.54207">
        <ele>1140.1999511719</ele>
        <time>2016-12-16T12:34:51Z</time>
      </trkpt>
      <trkpt lat="45.1906" lon="5.54208">
        <ele>1140.8000488281</ele>
        <time>2016-12-16T12:34:52Z</time>
      </trkpt>
      <trkpt lat="45.19062" lon="5.54209">
        <ele>1141.1999511719</ele>
        <time>2016-12-16T12:34:53Z</time>
      </trkpt>
      <trkpt lat="45.19064" lon="5.5421">
        <ele>1141.5999755859</ele>
        <time>2016-12-16T12:34:54Z</time>
      </trkpt>
      <trkpt lat="45.19077" lon="5.54217">
        <ele>1141.5999755859</ele>
        <time>2016-12-16T12:35:01Z</time>
      </trkpt>
      <trkpt lat="45.19088" lon="5.54224">
        <ele>1142</ele>
        <time>2016-12-16T12:35:07Z</time>
      </trkpt>
      <trkpt lat="45.19089" lon="5.54225">
        <ele>1142.4000244141</ele>
        <time>2016-12-16T12:35:08Z</time>
      </trkpt>
      <trkpt lat="45.19091" lon="5.54226">
        <ele>1142.8000488281</ele>
        <time>2016-12-16T12:35:09Z</time>
      </trkpt>
      <trkpt lat="45.19093" lon="5.54227">
        <ele>1143.1999511719</ele>
        <time>2016-12-16T12:35:10Z</time>
      </trkpt>
      <trkpt lat="45.19095" lon="5.54228">
        <ele>1143.5999755859</ele>
        <time>2016-12-16T12:35:11Z</time>
      </trkpt>
      <trkpt lat="45.19105" lon="5.54235">
        <ele>1143.5999755859</ele>
        <time>2016-12-16T12:35:16Z</time>
      </trkpt>
      <trkpt lat="45.1912" lon="5.54245">
        <ele>1143.5999755859</ele>
        <time>2016-12-16T12:35:24Z</time>
      </trkpt>
      <trkpt lat="45.19134" lon="5.54255">
        <ele>1143.5999755859</ele>
        <time>2016-12-16T12:35:31Z</time>
      </trkpt>
      <trkpt lat="45.19143" lon="5.5426">
        <ele>1144</ele>
        <time>2016-12-16T12:35:35Z</time>
      </trkpt>
      <trkpt lat="45.19145" lon="5.54262">
        <ele>1144.4000244141</ele>
        <time>2016-12-16T12:35:36Z</time>
      </trkpt>
      <trkpt lat="45.19147" lon="5.54263">
        <ele>1144.8000488281</ele>
        <time>2016-12-16T12:35:37Z</time>
      </trkpt>
      <trkpt lat="45.19149" lon="5.54265">
        <ele>1145.1999511719</ele>
        <time>2016-12-16T12:35:38Z</time>
      </trkpt>
      <trkpt lat="45.19151" lon="5.54266">
        <ele>1145.5999755859</ele>
        <time>2016-12-16T12:35:39Z</time>
      </trkpt>
      <trkpt lat="45.19158" lon="5.5427">
        <ele>1145.5999755859</ele>
        <time>2016-12-16T12:35:43Z</time>
      </trkpt>
      <trkpt lat="45.19165" lon="5.54276">
        <ele>1146</ele>
        <time>2016-12-16T12:35:48Z</time>
      </trkpt>
      <trkpt lat="45.19167" lon="5.54277">
        <ele>1146.4000244141</ele>
        <time>2016-12-16T12:35:49Z</time>
      </trkpt>
      <trkpt lat="45.19168" lon="5.54278">
        <ele>1146.8000488281</ele>
        <time>2016-12-16T12:35:50Z</time>
      </trkpt>
      <trkpt lat="45.1917" lon="5.54279">
        <ele>1147.1999511719</ele>
        <time>2016-12-16T12:35:51Z</time>
      </trkpt>
      <trkpt lat="45.19172" lon="5.5428">
        <ele>1147.5999755859</ele>
        <time>2016-12-16T12:35:52Z</time>
      </trkpt>
      <trkpt lat="45.1918" lon="5.54287">
        <ele>1147.5999755859</ele>
        <time>2016-12-16T12:35:58Z</time>
      </trkpt>
      <trkpt lat="45.19181" lon="5.54288">
        <ele>1148.1999511719</ele>
        <time>2016-12-16T12:35:59Z</time>
      </trkpt>
      <trkpt lat="45.19182" lon="5.54289">
        <ele>1148.5999755859</ele>
        <time>2016-12-16T12:36:00Z</time>
      </trkpt>
      <trkpt lat="45.19183" lon="5.5429">
        <ele>1149</ele>
        <time>2016-12-16T12:36:01Z</time>
      </trkpt>
      <trkpt lat="45.19185" lon="5.54291">
        <ele>1149.4000244141</ele>
        <time>2016-12-16T12:36:02Z</time>
      </trkpt>
      <trkpt lat="45.19186" lon="5.54292">
        <ele>1149.8000488281</ele>
        <time>2016-12-16T12:36:03Z</time>
      </trkpt>
      <trkpt lat="45.19188" lon="5.54294">
        <ele>1149.8000488281</ele>
        <time>2016-12-16T12:36:05Z</time>
      </trkpt>
      <trkpt lat="45.19189" lon="5.54295">
        <ele>1149.8000488281</ele>
        <time>2016-12-16T12:36:07Z</time>
      </trkpt>
      <trkpt lat="45.19193" lon="5.54298">
        <ele>1150.1999511719</ele>
        <time>2016-12-16T12:36:11Z</time>
      </trkpt>
      <trkpt lat="45.19194" lon="5.54298">
        <ele>1150.5999755859</ele>
        <time>2016-12-16T12:36:12Z</time>
      </trkpt>
      <trkpt lat="45.19195" lon="5.54299">
        <ele>1151</ele>
        <time>2016-12-16T12:36:13Z</time>
      </trkpt>
      <trkpt lat="45.19195" lon="5.54301">
        <ele>1151.4000244141</ele>
        <time>2016-12-16T12:36:14Z</time>
      </trkpt>
      <trkpt lat="45.19196" lon="5.54302">
        <ele>1151.8000488281</ele>
        <time>2016-12-16T12:36:15Z</time>
      </trkpt>
      <trkpt lat="45.19196" lon="5.54304">
        <ele>1151.8000488281</ele>
        <time>2016-12-16T12:36:16Z</time>
      </trkpt>
      <trkpt lat="45.19197" lon="5.54309">
        <ele>1151.8000488281</ele>
        <time>2016-12-16T12:36:20Z</time>
      </trkpt>
      <trkpt lat="45.19197" lon="5.54311">
        <ele>1151.8000488281</ele>
        <time>2016-12-16T12:36:21Z</time>
      </trkpt>
      <trkpt lat="45.19198" lon="5.54314">
        <ele>1152.4000244141</ele>
        <time>2016-12-16T12:36:23Z</time>
      </trkpt>
      <trkpt lat="45.19199" lon="5.54316">
        <ele>1152.8000488281</ele>
        <time>2016-12-16T12:36:24Z</time>
      </trkpt>
      <trkpt lat="45.19199" lon="5.54317">
        <ele>1153.1999511719</ele>
        <time>2016-12-16T12:36:25Z</time>
      </trkpt>
      <trkpt lat="45.192" lon="5.54319">
        <ele>1153.5999755859</ele>
        <time>2016-12-16T12:36:26Z</time>
      </trkpt>
      <trkpt lat="45.192" lon="5.5432">
        <ele>1154</ele>
        <time>2016-12-16T12:36:27Z</time>
      </trkpt>
      <trkpt lat="45.19201" lon="5.54322">
        <ele>1154</ele>
        <time>2016-12-16T12:36:28Z</time>
      </trkpt>
      <trkpt lat="45.19203" lon="5.54325">
        <ele>1154.4000244141</ele>
        <time>2016-12-16T12:36:31Z</time>
      </trkpt>
      <trkpt lat="45.19204" lon="5.54327">
        <ele>1154.8000488281</ele>
        <time>2016-12-16T12:36:32Z</time>
      </trkpt>
      <trkpt lat="45.19204" lon="5.54328">
        <ele>1155.1999511719</ele>
        <time>2016-12-16T12:36:33Z</time>
      </trkpt>
      <trkpt lat="45.19205" lon="5.54329">
        <ele>1155.5999755859</ele>
        <time>2016-12-16T12:36:34Z</time>
      </trkpt>
      <trkpt lat="45.19205" lon="5.54331">
        <ele>1156</ele>
        <time>2016-12-16T12:36:35Z</time>
      </trkpt>
      <trkpt lat="45.19206" lon="5.54333">
        <ele>1156</ele>
        <time>2016-12-16T12:36:37Z</time>
      </trkpt>
      <trkpt lat="45.19207" lon="5.54338">
        <ele>1156.5999755859</ele>
        <time>2016-12-16T12:36:41Z</time>
      </trkpt>
      <trkpt lat="45.19208" lon="5.54339">
        <ele>1157</ele>
        <time>2016-12-16T12:36:42Z</time>
      </trkpt>
      <trkpt lat="45.19209" lon="5.5434">
        <ele>1157.4000244141</ele>
        <time>2016-12-16T12:36:43Z</time>
      </trkpt>
      <trkpt lat="45.19209" lon="5.5434">
        <ele>1157.8000488281</ele>
        <time>2016-12-16T12:36:44Z</time>
      </trkpt>
      <trkpt lat="45.19211" lon="5.54341">
        <ele>1158.1999511719</ele>
        <time>2016-12-16T12:36:45Z</time>
      </trkpt>
      <trkpt lat="45.19215" lon="5.54344">
        <ele>1158.1999511719</ele>
        <time>2016-12-16T12:36:49Z</time>
      </trkpt>
      <trkpt lat="45.19217" lon="5.54348">
        <ele>1158.5999755859</ele>
        <time>2016-12-16T12:36:52Z</time>
      </trkpt>
      <trkpt lat="45.19216" lon="5.5435">
        <ele>1159</ele>
        <time>2016-12-16T12:36:53Z</time>
      </trkpt>
      <trkpt lat="45.19215" lon="5.5435">
        <ele>1159.4000244141</ele>
        <time>2016-12-16T12:36:54Z</time>
      </trkpt>
      <trkpt lat="45.19216" lon="5.54351">
        <ele>1159.8000488281</ele>
        <time>2016-12-16T12:36:55Z</time>
      </trkpt>
      <trkpt lat="45.19215" lon="5.54353">
        <ele>1160.4000244141</ele>
        <time>2016-12-16T12:37:04Z</time>
      </trkpt>
      <trkpt lat="45.19214" lon="5.54354">
        <ele>1160.4000244141</ele>
        <time>2016-12-16T12:37:06Z</time>
      </trkpt>
      <trkpt lat="45.1921" lon="5.54354">
        <ele>1160.8000488281</ele>
        <time>2016-12-16T12:37:10Z</time>
      </trkpt>
      <trkpt lat="45.19213" lon="5.54376">
        <ele>1166.5999755859</ele>
        <time>2016-12-16T12:39:42Z</time>
      </trkpt>
      <trkpt lat="45.19216" lon="5.54376">
        <ele>1166.5999755859</ele>
        <time>2016-12-16T12:39:43Z</time>
      </trkpt>
      <trkpt lat="45.19219" lon="5.54377">
        <ele>1167</ele>
        <time>2016-12-16T12:39:44Z</time>
      </trkpt>
      <trkpt lat="45.19221" lon="5.54377">
        <ele>1167.4000244141</ele>
        <time>2016-12-16T12:39:45Z</time>
      </trkpt>
      <trkpt lat="45.19223" lon="5.54378">
        <ele>1167.8000488281</ele>
        <time>2016-12-16T12:39:46Z</time>
      </trkpt>
      <trkpt lat="45.19224" lon="5.54379">
        <ele>1168.4000244141</ele>
        <time>2016-12-16T12:39:47Z</time>
      </trkpt>
      <trkpt lat="45.19225" lon="5.5438">
        <ele>1168.8000488281</ele>
        <time>2016-12-16T12:39:48Z</time>
      </trkpt>
      <trkpt lat="45.19226" lon="5.54381">
        <ele>1168.8000488281</ele>
        <time>2016-12-16T12:39:49Z</time>
      </trkpt>
      <trkpt lat="45.19231" lon="5.54383">
        <ele>1169.5999755859</ele>
        <time>2016-12-16T12:39:53Z</time>
      </trkpt>
      <trkpt lat="45.19231" lon="5.54384">
        <ele>1170.1999511719</ele>
        <time>2016-12-16T12:39:54Z</time>
      </trkpt>
      <trkpt lat="45.19232" lon="5.54384">
        <ele>1170.5999755859</ele>
        <time>2016-12-16T12:39:55Z</time>
      </trkpt>
      <trkpt lat="45.19234" lon="5.54384">
        <ele>1171</ele>
        <time>2016-12-16T12:39:56Z</time>
      </trkpt>
      <trkpt lat="45.19238" lon="5.54385">
        <ele>1171.4000244141</ele>
        <time>2016-12-16T12:39:59Z</time>
      </trkpt>
      <trkpt lat="45.1924" lon="5.54386">
        <ele>1172</ele>
        <time>2016-12-16T12:40:00Z</time>
      </trkpt>
      <trkpt lat="45.19241" lon="5.54386">
        <ele>1172.4000244141</ele>
        <time>2016-12-16T12:40:01Z</time>
      </trkpt>
      <trkpt lat="45.19242" lon="5.54386">
        <ele>1172.8000488281</ele>
        <time>2016-12-16T12:40:02Z</time>
      </trkpt>
      <trkpt lat="45.19243" lon="5.54386">
        <ele>1173.4000244141</ele>
        <time>2016-12-16T12:40:03Z</time>
      </trkpt>
      <trkpt lat="45.19247" lon="5.54385">
        <ele>1173.8000488281</ele>
        <time>2016-12-16T12:40:06Z</time>
      </trkpt>
      <trkpt lat="45.19248" lon="5.54386">
        <ele>1174.1999511719</ele>
        <time>2016-12-16T12:40:07Z</time>
      </trkpt>
      <trkpt lat="45.19249" lon="5.54385">
        <ele>1174.5999755859</ele>
        <time>2016-12-16T12:40:08Z</time>
      </trkpt>
      <trkpt lat="45.1925" lon="5.54384">
        <ele>1175.1999511719</ele>
        <time>2016-12-16T12:40:09Z</time>
      </trkpt>
      <trkpt lat="45.19251" lon="5.54384">
        <ele>1175.5999755859</ele>
        <time>2016-12-16T12:40:10Z</time>
      </trkpt>
      <trkpt lat="45.19252" lon="5.54384">
        <ele>1175.5999755859</ele>
        <time>2016-12-16T12:40:11Z</time>
      </trkpt>
      <trkpt lat="45.19257" lon="5.54385">
        <ele>1176</ele>
        <time>2016-12-16T12:40:15Z</time>
      </trkpt>
      <trkpt lat="45.19258" lon="5.54385">
        <ele>1176.4000244141</ele>
        <time>2016-12-16T12:40:16Z</time>
      </trkpt>
      <trkpt lat="45.1926" lon="5.54384">
        <ele>1176.8000488281</ele>
        <time>2016-12-16T12:40:17Z</time>
      </trkpt>
      <trkpt lat="45.19262" lon="5.54384">
        <ele>1177.5999755859</ele>
        <time>2016-12-16T12:40:18Z</time>
      </trkpt>
      <trkpt lat="45.19264" lon="5.54382">
        <ele>1177.5999755859</ele>
        <time>2016-12-16T12:40:20Z</time>
      </trkpt>
      <trkpt lat="45.19268" lon="5.54382">
        <ele>1178</ele>
        <time>2016-12-16T12:40:24Z</time>
      </trkpt>
      <trkpt lat="45.19269" lon="5.54383">
        <ele>1179</ele>
        <time>2016-12-16T12:40:26Z</time>
      </trkpt>
      <trkpt lat="45.19269" lon="5.54383">
        <ele>1179.4000244141</ele>
        <time>2016-12-16T12:40:27Z</time>
      </trkpt>
      <trkpt lat="45.1927" lon="5.54383">
        <ele>1179.8000488281</ele>
        <time>2016-12-16T12:40:28Z</time>
      </trkpt>
      <trkpt lat="45.19274" lon="5.54384">
        <ele>1179.8000488281</ele>
        <time>2016-12-16T12:40:31Z</time>
      </trkpt>
      <trkpt lat="45.19276" lon="5.54385">
        <ele>1180.1999511719</ele>
        <time>2016-12-16T12:40:33Z</time>
      </trkpt>
      <trkpt lat="45.19276" lon="5.54385">
        <ele>1180.8000488281</ele>
        <time>2016-12-16T12:40:34Z</time>
      </trkpt>
      <trkpt lat="45.19277" lon="5.54385">
        <ele>1181.1999511719</ele>
        <time>2016-12-16T12:40:35Z</time>
      </trkpt>
      <trkpt lat="45.19278" lon="5.54385">
        <ele>1181.5999755859</ele>
        <time>2016-12-16T12:40:36Z</time>
      </trkpt>
      <trkpt lat="45.19279" lon="5.54385">
        <ele>1182</ele>
        <time>2016-12-16T12:40:37Z</time>
      </trkpt>
      <trkpt lat="45.19284" lon="5.54382">
        <ele>1182</ele>
        <time>2016-12-16T12:40:41Z</time>
      </trkpt>
      <trkpt lat="45.19289" lon="5.54378">
        <ele>1182</ele>
        <time>2016-12-16T12:40:46Z</time>
      </trkpt>
      <trkpt lat="45.1929" lon="5.54376">
        <ele>1182</ele>
        <time>2016-12-16T12:40:47Z</time>
      </trkpt>
      <trkpt lat="45.19291" lon="5.54372">
        <ele>1182.4000244141</ele>
        <time>2016-12-16T12:40:50Z</time>
      </trkpt>
      <trkpt lat="45.19292" lon="5.5437">
        <ele>1182.8000488281</ele>
        <time>2016-12-16T12:40:51Z</time>
      </trkpt>
      <trkpt lat="45.19292" lon="5.54369">
        <ele>1183.1999511719</ele>
        <time>2016-12-16T12:40:52Z</time>
      </trkpt>
      <trkpt lat="45.19293" lon="5.54368">
        <ele>1183.5999755859</ele>
        <time>2016-12-16T12:40:53Z</time>
      </trkpt>
      <trkpt lat="45.19294" lon="5.54366">
        <ele>1184</ele>
        <time>2016-12-16T12:40:54Z</time>
      </trkpt>
      <trkpt lat="45.19295" lon="5.54364">
        <ele>1184</ele>
        <time>2016-12-16T12:40:56Z</time>
      </trkpt>
      <trkpt lat="45.19296" lon="5.54361">
        <ele>1184.4000244141</ele>
        <time>2016-12-16T12:40:58Z</time>
      </trkpt>
      <trkpt lat="45.19296" lon="5.5436">
        <ele>1185</ele>
        <time>2016-12-16T12:40:59Z</time>
      </trkpt>
      <trkpt lat="45.19297" lon="5.54358">
        <ele>1185.4000244141</ele>
        <time>2016-12-16T12:41:00Z</time>
      </trkpt>
      <trkpt lat="45.19298" lon="5.54357">
        <ele>1185.8000488281</ele>
        <time>2016-12-16T12:41:01Z</time>
      </trkpt>
      <trkpt lat="45.19299" lon="5.54355">
        <ele>1186.1999511719</ele>
        <time>2016-12-16T12:41:02Z</time>
      </trkpt>
      <trkpt lat="45.19299" lon="5.54354">
        <ele>1186.1999511719</ele>
        <time>2016-12-16T12:41:03Z</time>
      </trkpt>
      <trkpt lat="45.19301" lon="5.54345">
        <ele>1187</ele>
        <time>2016-12-16T12:41:08Z</time>
      </trkpt>
      <trkpt lat="45.19302" lon="5.54343">
        <ele>1187.4000244141</ele>
        <time>2016-12-16T12:41:09Z</time>
      </trkpt>
      <trkpt lat="45.19303" lon="5.54342">
        <ele>1187.8000488281</ele>
        <time>2016-12-16T12:41:10Z</time>
      </trkpt>
      <trkpt lat="45.19304" lon="5.5434">
        <ele>1188.1999511719</ele>
        <time>2016-12-16T12:41:11Z</time>
      </trkpt>
      <trkpt lat="45.19306" lon="5.54333">
        <ele>1188.1999511719</ele>
        <time>2016-12-16T12:41:16Z</time>
      </trkpt>
      <trkpt lat="45.19308" lon="5.54327">
        <ele>1188.1999511719</ele>
        <time>2016-12-16T12:41:22Z</time>
      </trkpt>
      <trkpt lat="45.19309" lon="5.54326">
        <ele>1188.5999755859</ele>
        <time>2016-12-16T12:41:23Z</time>
      </trkpt>
      <trkpt lat="45.19309" lon="5.54326">
        <ele>1189</ele>
        <time>2016-12-16T12:41:24Z</time>
      </trkpt>
      <trkpt lat="45.1931" lon="5.54325">
        <ele>1189.4000244141</ele>
        <time>2016-12-16T12:41:25Z</time>
      </trkpt>
      <trkpt lat="45.19311" lon="5.54323">
        <ele>1190</ele>
        <time>2016-12-16T12:41:26Z</time>
      </trkpt>
      <trkpt lat="45.19311" lon="5.54322">
        <ele>1190.4000244141</ele>
        <time>2016-12-16T12:41:27Z</time>
      </trkpt>
      <trkpt lat="45.19315" lon="5.54319">
        <ele>1190.4000244141</ele>
        <time>2016-12-16T12:41:30Z</time>
      </trkpt>
      <trkpt lat="45.19318" lon="5.54316">
        <ele>1190.4000244141</ele>
        <time>2016-12-16T12:41:33Z</time>
      </trkpt>
      <trkpt lat="45.19325" lon="5.54314">
        <ele>1190.8000488281</ele>
        <time>2016-12-16T12:41:37Z</time>
      </trkpt>
      <trkpt lat="45.19326" lon="5.54314">
        <ele>1191.1999511719</ele>
        <time>2016-12-16T12:41:38Z</time>
      </trkpt>
      <trkpt lat="45.19327" lon="5.54314">
        <ele>1191.5999755859</ele>
        <time>2016-12-16T12:41:39Z</time>
      </trkpt>
      <trkpt lat="45.19329" lon="5.54313">
        <ele>1192.1999511719</ele>
        <time>2016-12-16T12:41:40Z</time>
      </trkpt>
      <trkpt lat="45.1933" lon="5.54312">
        <ele>1192.5999755859</ele>
        <time>2016-12-16T12:41:41Z</time>
      </trkpt>
      <trkpt lat="45.19338" lon="5.54312">
        <ele>1192.5999755859</ele>
        <time>2016-12-16T12:41:46Z</time>
      </trkpt>
      <trkpt lat="45.19341" lon="5.54311">
        <ele>1192.5999755859</ele>
        <time>2016-12-16T12:41:48Z</time>
      </trkpt>
      <trkpt lat="45.19342" lon="5.54311">
        <ele>1193</ele>
        <time>2016-12-16T12:41:49Z</time>
      </trkpt>
      <trkpt lat="45.19343" lon="5.5431">
        <ele>1193.4000244141</ele>
        <time>2016-12-16T12:41:50Z</time>
      </trkpt>
      <trkpt lat="45.19343" lon="5.5431">
        <ele>1193.8000488281</ele>
        <time>2016-12-16T12:41:51Z</time>
      </trkpt>
      <trkpt lat="45.19344" lon="5.54309">
        <ele>1194.8000488281</ele>
        <time>2016-12-16T12:41:53Z</time>
      </trkpt>
      <trkpt lat="45.19348" lon="5.54308">
        <ele>1194.8000488281</ele>
        <time>2016-12-16T12:41:56Z</time>
      </trkpt>
      <trkpt lat="45.19352" lon="5.54307">
        <ele>1195.1999511719</ele>
        <time>2016-12-16T12:41:59Z</time>
      </trkpt>
      <trkpt lat="45.19353" lon="5.54307">
        <ele>1195.5999755859</ele>
        <time>2016-12-16T12:42:00Z</time>
      </trkpt>
      <trkpt lat="45.19354" lon="5.54308">
        <ele>1196</ele>
        <time>2016-12-16T12:42:01Z</time>
      </trkpt>
      <trkpt lat="45.19355" lon="5.54307">
        <ele>1196.5999755859</ele>
        <time>2016-12-16T12:42:02Z</time>
      </trkpt>
      <trkpt lat="45.19356" lon="5.54307">
        <ele>1197</ele>
        <time>2016-12-16T12:42:03Z</time>
      </trkpt>
      <trkpt lat="45.19361" lon="5.54307">
        <ele>1197</ele>
        <time>2016-12-16T12:42:07Z</time>
      </trkpt>
      <trkpt lat="45.19365" lon="5.54308">
        <ele>1197.4000244141</ele>
        <time>2016-12-16T12:42:09Z</time>
      </trkpt>
      <trkpt lat="45.19366" lon="5.54308">
        <ele>1197.8000488281</ele>
        <time>2016-12-16T12:42:10Z</time>
      </trkpt>
      <trkpt lat="45.19368" lon="5.54309">
        <ele>1198.1999511719</ele>
        <time>2016-12-16T12:42:11Z</time>
      </trkpt>
      <trkpt lat="45.19369" lon="5.54309">
        <ele>1198.8000488281</ele>
        <time>2016-12-16T12:42:12Z</time>
      </trkpt>
      <trkpt lat="45.1937" lon="5.54309">
        <ele>1199.1999511719</ele>
        <time>2016-12-16T12:42:13Z</time>
      </trkpt>
      <trkpt lat="45.19375" lon="5.54304">
        <ele>1199.1999511719</ele>
        <time>2016-12-16T12:42:19Z</time>
      </trkpt>
      <trkpt lat="45.19376" lon="5.54301">
        <ele>1199.1999511719</ele>
        <time>2016-12-16T12:42:21Z</time>
      </trkpt>
      <trkpt lat="45.19374" lon="5.54295">
        <ele>1199.1999511719</ele>
        <time>2016-12-16T12:42:24Z</time>
      </trkpt>
      <trkpt lat="45.1937" lon="5.54287">
        <ele>1199.1999511719</ele>
        <time>2016-12-16T12:42:29Z</time>
      </trkpt>
      <trkpt lat="45.19368" lon="5.54282">
        <ele>1199.5999755859</ele>
        <time>2016-12-16T12:42:32Z</time>
      </trkpt>
      <trkpt lat="45.19367" lon="5.5428">
        <ele>1200</ele>
        <time>2016-12-16T12:42:33Z</time>
      </trkpt>
      <trkpt lat="45.19366" lon="5.54277">
        <ele>1200.5999755859</ele>
        <time>2016-12-16T12:42:34Z</time>
      </trkpt>
      <trkpt lat="45.19366" lon="5.54275">
        <ele>1201</ele>
        <time>2016-12-16T12:42:35Z</time>
      </trkpt>
      <trkpt lat="45.19366" lon="5.54272">
        <ele>1201.4000244141</ele>
        <time>2016-12-16T12:42:36Z</time>
      </trkpt>
      <trkpt lat="45.19364" lon="5.54259">
        <ele>1201.4000244141</ele>
        <time>2016-12-16T12:42:42Z</time>
      </trkpt>
      <trkpt lat="45.19364" lon="5.54256">
        <ele>1201.8000488281</ele>
        <time>2016-12-16T12:42:43Z</time>
      </trkpt>
      <trkpt lat="45.19363" lon="5.54254">
        <ele>1202.4000244141</ele>
        <time>2016-12-16T12:42:44Z</time>
      </trkpt>
      <trkpt lat="45.19362" lon="5.54253">
        <ele>1202.8000488281</ele>
        <time>2016-12-16T12:42:45Z</time>
      </trkpt>
      <trkpt lat="45.19361" lon="5.54252">
        <ele>1203.1999511719</ele>
        <time>2016-12-16T12:42:46Z</time>
      </trkpt>
      <trkpt lat="45.19361" lon="5.54251">
        <ele>1203.8000488281</ele>
        <time>2016-12-16T12:42:47Z</time>
      </trkpt>
      <trkpt lat="45.19361" lon="5.54249">
        <ele>1203.8000488281</ele>
        <time>2016-12-16T12:42:48Z</time>
      </trkpt>
      <trkpt lat="45.19363" lon="5.54243">
        <ele>1203.8000488281</ele>
        <time>2016-12-16T12:42:53Z</time>
      </trkpt>
      <trkpt lat="45.19363" lon="5.54242">
        <ele>1204.1999511719</ele>
        <time>2016-12-16T12:42:54Z</time>
      </trkpt>
      <trkpt lat="45.19364" lon="5.5424">
        <ele>1204.5999755859</ele>
        <time>2016-12-16T12:42:55Z</time>
      </trkpt>
      <trkpt lat="45.19365" lon="5.54238">
        <ele>1205</ele>
        <time>2016-12-16T12:42:56Z</time>
      </trkpt>
      <trkpt lat="45.19365" lon="5.54237">
        <ele>1205.4000244141</ele>
        <time>2016-12-16T12:42:57Z</time>
      </trkpt>
      <trkpt lat="45.19365" lon="5.54235">
        <ele>1205.8000488281</ele>
        <time>2016-12-16T12:42:58Z</time>
      </trkpt>
      <trkpt lat="45.19369" lon="5.54224">
        <ele>1205.8000488281</ele>
        <time>2016-12-16T12:43:06Z</time>
      </trkpt>
      <trkpt lat="45.19373" lon="5.54217">
        <ele>1205.8000488281</ele>
        <time>2016-12-16T12:43:12Z</time>
      </trkpt>
      <trkpt lat="45.19374" lon="5.54215">
        <ele>1206.1999511719</ele>
        <time>2016-12-16T12:43:14Z</time>
      </trkpt>
      <trkpt lat="45.19375" lon="5.54215">
        <ele>1206.5999755859</ele>
        <time>2016-12-16T12:43:15Z</time>
      </trkpt>
      <trkpt lat="45.19375" lon="5.54215">
        <ele>1207</ele>
        <time>2016-12-16T12:43:16Z</time>
      </trkpt>
      <trkpt lat="45.19376" lon="5.54215">
        <ele>1207.4000244141</ele>
        <time>2016-12-16T12:43:17Z</time>
      </trkpt>
      <trkpt lat="45.19377" lon="5.54213">
        <ele>1207.8000488281</ele>
        <time>2016-12-16T12:43:19Z</time>
      </trkpt>
      <trkpt lat="45.19379" lon="5.54212">
        <ele>1208.1999511719</ele>
        <time>2016-12-16T12:43:21Z</time>
      </trkpt>
      <trkpt lat="45.1938" lon="5.54212">
        <ele>1208.5999755859</ele>
        <time>2016-12-16T12:43:22Z</time>
      </trkpt>
      <trkpt lat="45.19381" lon="5.54211">
        <ele>1209.1999511719</ele>
        <time>2016-12-16T12:43:23Z</time>
      </trkpt>
      <trkpt lat="45.19382" lon="5.5421">
        <ele>1209.5999755859</ele>
        <time>2016-12-16T12:43:24Z</time>
      </trkpt>
      <trkpt lat="45.19384" lon="5.54208">
        <ele>1210</ele>
        <time>2016-12-16T12:43:25Z</time>
      </trkpt>
      <trkpt lat="45.1939" lon="5.54203">
        <ele>1210.4000244141</ele>
        <time>2016-12-16T12:43:29Z</time>
      </trkpt>
      <trkpt lat="45.19392" lon="5.54202">
        <ele>1210.8000488281</ele>
        <time>2016-12-16T12:43:30Z</time>
      </trkpt>
      <trkpt lat="45.19393" lon="5.542">
        <ele>1211.1999511719</ele>
        <time>2016-12-16T12:43:31Z</time>
      </trkpt>
      <trkpt lat="45.19394" lon="5.54199">
        <ele>1211.5999755859</ele>
        <time>2016-12-16T12:43:32Z</time>
      </trkpt>
      <trkpt lat="45.19395" lon="5.54198">
        <ele>1212</ele>
        <time>2016-12-16T12:43:33Z</time>
      </trkpt>
      <trkpt lat="45.194" lon="5.54193">
        <ele>1212</ele>
        <time>2016-12-16T12:43:36Z</time>
      </trkpt>
      <trkpt lat="45.19406" lon="5.54191">
        <ele>1212.4000244141</ele>
        <time>2016-12-16T12:43:40Z</time>
      </trkpt>
      <trkpt lat="45.19408" lon="5.54191">
        <ele>1213</ele>
        <time>2016-12-16T12:43:41Z</time>
      </trkpt>
      <trkpt lat="45.1941" lon="5.5419">
        <ele>1213.4000244141</ele>
        <time>2016-12-16T12:43:42Z</time>
      </trkpt>
      <trkpt lat="45.19412" lon="5.5419">
        <ele>1213.8000488281</ele>
        <time>2016-12-16T12:43:43Z</time>
      </trkpt>
      <trkpt lat="45.19413" lon="5.5419">
        <ele>1214.1999511719</ele>
        <time>2016-12-16T12:43:44Z</time>
      </trkpt>
      <trkpt lat="45.19418" lon="5.54187">
        <ele>1214.1999511719</ele>
        <time>2016-12-16T12:43:47Z</time>
      </trkpt>
      <trkpt lat="45.19422" lon="5.54185">
        <ele>1214.5999755859</ele>
        <time>2016-12-16T12:43:52Z</time>
      </trkpt>
      <trkpt lat="45.19424" lon="5.54186">
        <ele>1215</ele>
        <time>2016-12-16T12:43:53Z</time>
      </trkpt>
      <trkpt lat="45.19425" lon="5.54186">
        <ele>1215.4000244141</ele>
        <time>2016-12-16T12:43:54Z</time>
      </trkpt>
      <trkpt lat="45.19426" lon="5.54186">
        <ele>1215.8000488281</ele>
        <time>2016-12-16T12:43:55Z</time>
      </trkpt>
      <trkpt lat="45.19428" lon="5.54187">
        <ele>1216.1999511719</ele>
        <time>2016-12-16T12:43:56Z</time>
      </trkpt>
      <trkpt lat="45.19432" lon="5.5419">
        <ele>1216.1999511719</ele>
        <time>2016-12-16T12:43:58Z</time>
      </trkpt>
      <trkpt lat="45.19435" lon="5.54192">
        <ele>1216.1999511719</ele>
        <time>2016-12-16T12:44:00Z</time>
      </trkpt>
      <trkpt lat="45.1944" lon="5.54193">
        <ele>1216.5999755859</ele>
        <time>2016-12-16T12:44:05Z</time>
      </trkpt>
      <trkpt lat="45.19441" lon="5.54192">
        <ele>1217</ele>
        <time>2016-12-16T12:44:06Z</time>
      </trkpt>
      <trkpt lat="45.19442" lon="5.54194">
        <ele>1217.4000244141</ele>
        <time>2016-12-16T12:44:07Z</time>
      </trkpt>
      <trkpt lat="45.19443" lon="5.54194">
        <ele>1217.8000488281</ele>
        <time>2016-12-16T12:44:08Z</time>
      </trkpt>
      <trkpt lat="45.19444" lon="5.54194">
        <ele>1218.1999511719</ele>
        <time>2016-12-16T12:44:09Z</time>
      </trkpt>
      <trkpt lat="45.19449" lon="5.54197">
        <ele>1218.1999511719</ele>
        <time>2016-12-16T12:44:13Z</time>
      </trkpt>
      <trkpt lat="45.19452" lon="5.54199">
        <ele>1218.8000488281</ele>
        <time>2016-12-16T12:44:16Z</time>
      </trkpt>
      <trkpt lat="45.19453" lon="5.542">
        <ele>1219.1999511719</ele>
        <time>2016-12-16T12:44:17Z</time>
      </trkpt>
      <trkpt lat="45.19454" lon="5.542">
        <ele>1219.5999755859</ele>
        <time>2016-12-16T12:44:18Z</time>
      </trkpt>
      <trkpt lat="45.19455" lon="5.54201">
        <ele>1220.1999511719</ele>
        <time>2016-12-16T12:44:19Z</time>
      </trkpt>
      <trkpt lat="45.19457" lon="5.54201">
        <ele>1220.5999755859</ele>
        <time>2016-12-16T12:44:20Z</time>
      </trkpt>
      <trkpt lat="45.19463" lon="5.54203">
        <ele>1221</ele>
        <time>2016-12-16T12:44:25Z</time>
      </trkpt>
      <trkpt lat="45.19464" lon="5.54204">
        <ele>1222</ele>
        <time>2016-12-16T12:44:26Z</time>
      </trkpt>
      <trkpt lat="45.19465" lon="5.54205">
        <ele>1222.4000244141</ele>
        <time>2016-12-16T12:44:27Z</time>
      </trkpt>
      <trkpt lat="45.19465" lon="5.54206">
        <ele>1222.8000488281</ele>
        <time>2016-12-16T12:44:28Z</time>
      </trkpt>
      <trkpt lat="45.19466" lon="5.54209">
        <ele>1222.8000488281</ele>
        <time>2016-12-16T12:44:30Z</time>
      </trkpt>
      <trkpt lat="45.19467" lon="5.54209">
        <ele>1222.8000488281</ele>
        <time>2016-12-16T12:44:31Z</time>
      </trkpt>
      <trkpt lat="45.1947" lon="5.54213">
        <ele>1222.8000488281</ele>
        <time>2016-12-16T12:44:36Z</time>
      </trkpt>
      <trkpt lat="45.19469" lon="5.54216">
        <ele>1222.8000488281</ele>
        <time>2016-12-16T12:44:38Z</time>
      </trkpt>
      <trkpt lat="45.19466" lon="5.54222">
        <ele>1222.8000488281</ele>
        <time>2016-12-16T12:44:41Z</time>
      </trkpt>
      <trkpt lat="45.19463" lon="5.54235">
        <ele>1222.8000488281</ele>
        <time>2016-12-16T12:44:46Z</time>
      </trkpt>
      <trkpt lat="45.19461" lon="5.54252">
        <ele>1222.8000488281</ele>
        <time>2016-12-16T12:44:51Z</time>
      </trkpt>
      <trkpt lat="45.19462" lon="5.54259">
        <ele>1222.8000488281</ele>
        <time>2016-12-16T12:44:53Z</time>
      </trkpt>
      <trkpt lat="45.19466" lon="5.54269">
        <ele>1222.8000488281</ele>
        <time>2016-12-16T12:44:56Z</time>
      </trkpt>
      <trkpt lat="45.19468" lon="5.54271">
        <ele>1223.1999511719</ele>
        <time>2016-12-16T12:44:57Z</time>
      </trkpt>
      <trkpt lat="45.19469" lon="5.54273">
        <ele>1223.5999755859</ele>
        <time>2016-12-16T12:44:58Z</time>
      </trkpt>
      <trkpt lat="45.1947" lon="5.54276">
        <ele>1224</ele>
        <time>2016-12-16T12:44:59Z</time>
      </trkpt>
      <trkpt lat="45.19471" lon="5.54279">
        <ele>1224.4000244141</ele>
        <time>2016-12-16T12:45:00Z</time>
      </trkpt>
      <trkpt lat="45.19472" lon="5.54281">
        <ele>1224.8000488281</ele>
        <time>2016-12-16T12:45:01Z</time>
      </trkpt>
      <trkpt lat="45.19473" lon="5.54284">
        <ele>1224.8000488281</ele>
        <time>2016-12-16T12:45:02Z</time>
      </trkpt>
      <trkpt lat="45.1948" lon="5.54305">
        <ele>1224.8000488281</ele>
        <time>2016-12-16T12:45:09Z</time>
      </trkpt>
      <trkpt lat="45.19476" lon="5.54328">
        <ele>1224.8000488281</ele>
        <time>2016-12-16T12:45:13Z</time>
      </trkpt>
      <trkpt lat="45.19473" lon="5.54332">
        <ele>1224.8000488281</ele>
        <time>2016-12-16T12:45:14Z</time>
      </trkpt>
      <trkpt lat="45.19469" lon="5.54336">
        <ele>1224.4000244141</ele>
        <time>2016-12-16T12:45:15Z</time>
      </trkpt>
      <trkpt lat="45.19464" lon="5.54339">
        <ele>1223.5999755859</ele>
        <time>2016-12-16T12:45:16Z</time>
      </trkpt>
      <trkpt lat="45.19459" lon="5.54343">
        <ele>1223.1999511719</ele>
        <time>2016-12-16T12:45:17Z</time>
      </trkpt>
      <trkpt lat="45.19453" lon="5.54346">
        <ele>1222.8000488281</ele>
        <time>2016-12-16T12:45:18Z</time>
      </trkpt>
      <trkpt lat="45.19445" lon="5.54351">
        <ele>1222.8000488281</ele>
        <time>2016-12-16T12:45:20Z</time>
      </trkpt>
      <trkpt lat="45.19435" lon="5.54362">
        <ele>1222.8000488281</ele>
        <time>2016-12-16T12:45:23Z</time>
      </trkpt>
      <trkpt lat="45.19431" lon="5.54369">
        <ele>1222.8000488281</ele>
        <time>2016-12-16T12:45:25Z</time>
      </trkpt>
      <trkpt lat="45.19425" lon="5.54387">
        <ele>1222.8000488281</ele>
        <time>2016-12-16T12:45:30Z</time>
      </trkpt>
      <trkpt lat="45.19421" lon="5.54399">
        <ele>1223.1999511719</ele>
        <time>2016-12-16T12:45:34Z</time>
      </trkpt>
      <trkpt lat="45.1942" lon="5.54401">
        <ele>1223.5999755859</ele>
        <time>2016-12-16T12:45:35Z</time>
      </trkpt>
      <trkpt lat="45.19419" lon="5.54403">
        <ele>1224</ele>
        <time>2016-12-16T12:45:36Z</time>
      </trkpt>
      <trkpt lat="45.19419" lon="5.54405">
        <ele>1224.4000244141</ele>
        <time>2016-12-16T12:45:37Z</time>
      </trkpt>
      <trkpt lat="45.19418" lon="5.54408">
        <ele>1225</ele>
        <time>2016-12-16T12:45:38Z</time>
      </trkpt>
      <trkpt lat="45.19415" lon="5.54415">
        <ele>1225.4000244141</ele>
        <time>2016-12-16T12:45:41Z</time>
      </trkpt>
      <trkpt lat="45.19414" lon="5.54417">
        <ele>1225.8000488281</ele>
        <time>2016-12-16T12:45:42Z</time>
      </trkpt>
      <trkpt lat="45.19414" lon="5.54419">
        <ele>1226.4000244141</ele>
        <time>2016-12-16T12:45:43Z</time>
      </trkpt>
      <trkpt lat="45.19413" lon="5.54422">
        <ele>1226.8000488281</ele>
        <time>2016-12-16T12:45:44Z</time>
      </trkpt>
      <trkpt lat="45.19413" lon="5.54425">
        <ele>1227.4000244141</ele>
        <time>2016-12-16T12:45:45Z</time>
      </trkpt>
      <trkpt lat="45.19411" lon="5.54432">
        <ele>1227.4000244141</ele>
        <time>2016-12-16T12:45:48Z</time>
      </trkpt>
      <trkpt lat="45.19411" lon="5.54449">
        <ele>1227.4000244141</ele>
        <time>2016-12-16T12:45:54Z</time>
      </trkpt>
      <trkpt lat="45.19411" lon="5.54461">
        <ele>1227.8000488281</ele>
        <time>2016-12-16T12:45:59Z</time>
      </trkpt>
      <trkpt lat="45.19411" lon="5.54463">
        <ele>1228.1999511719</ele>
        <time>2016-12-16T12:46:00Z</time>
      </trkpt>
      <trkpt lat="45.19411" lon="5.54466">
        <ele>1228.5999755859</ele>
        <time>2016-12-16T12:46:01Z</time>
      </trkpt>
      <trkpt lat="45.19411" lon="5.54468">
        <ele>1229</ele>
        <time>2016-12-16T12:46:02Z</time>
      </trkpt>
      <trkpt lat="45.19411" lon="5.5447">
        <ele>1229.4000244141</ele>
        <time>2016-12-16T12:46:03Z</time>
      </trkpt>
      <trkpt lat="45.19411" lon="5.54479">
        <ele>1229.4000244141</ele>
        <time>2016-12-16T12:46:07Z</time>
      </trkpt>
      <trkpt lat="45.19412" lon="5.54485">
        <ele>1229.8000488281</ele>
        <time>2016-12-16T12:46:10Z</time>
      </trkpt>
      <trkpt lat="45.19412" lon="5.54488">
        <ele>1230.1999511719</ele>
        <time>2016-12-16T12:46:11Z</time>
      </trkpt>
      <trkpt lat="45.19412" lon="5.5449">
        <ele>1230.5999755859</ele>
        <time>2016-12-16T12:46:12Z</time>
      </trkpt>
      <trkpt lat="45.19412" lon="5.54492">
        <ele>1231</ele>
        <time>2016-12-16T12:46:13Z</time>
      </trkpt>
      <trkpt lat="45.19412" lon="5.54494">
        <ele>1231.4000244141</ele>
        <time>2016-12-16T12:46:14Z</time>
      </trkpt>
      <trkpt lat="45.19412" lon="5.54502">
        <ele>1231.4000244141</ele>
        <time>2016-12-16T12:46:17Z</time>
      </trkpt>
      <trkpt lat="45.1941" lon="5.54506">
        <ele>1231.4000244141</ele>
        <time>2016-12-16T12:46:19Z</time>
      </trkpt>
      <trkpt lat="45.19409" lon="5.5451">
        <ele>1232</ele>
        <time>2016-12-16T12:46:21Z</time>
      </trkpt>
      <trkpt lat="45.19408" lon="5.5451">
        <ele>1232.4000244141</ele>
        <time>2016-12-16T12:46:22Z</time>
      </trkpt>
      <trkpt lat="45.19408" lon="5.54511">
        <ele>1232.8000488281</ele>
        <time>2016-12-16T12:46:23Z</time>
      </trkpt>
      <trkpt lat="45.19407" lon="5.54513">
        <ele>1233.1999511719</ele>
        <time>2016-12-16T12:46:24Z</time>
      </trkpt>
      <trkpt lat="45.19406" lon="5.54515">
        <ele>1233.5999755859</ele>
        <time>2016-12-16T12:46:25Z</time>
      </trkpt>
      <trkpt lat="45.19402" lon="5.54524">
        <ele>1234</ele>
        <time>2016-12-16T12:46:30Z</time>
      </trkpt>
      <trkpt lat="45.19401" lon="5.54526">
        <ele>1234.4000244141</ele>
        <time>2016-12-16T12:46:31Z</time>
      </trkpt>
      <trkpt lat="45.19401" lon="5.54528">
        <ele>1235</ele>
        <time>2016-12-16T12:46:32Z</time>
      </trkpt>
      <trkpt lat="45.194" lon="5.54531">
        <ele>1235.4000244141</ele>
        <time>2016-12-16T12:46:33Z</time>
      </trkpt>
      <trkpt lat="45.19398" lon="5.54533">
        <ele>1235.8000488281</ele>
        <time>2016-12-16T12:46:34Z</time>
      </trkpt>
      <trkpt lat="45.19395" lon="5.5454">
        <ele>1235.8000488281</ele>
        <time>2016-12-16T12:46:37Z</time>
      </trkpt>
      <trkpt lat="45.1939" lon="5.54552">
        <ele>1236.1999511719</ele>
        <time>2016-12-16T12:46:43Z</time>
      </trkpt>
      <trkpt lat="45.19389" lon="5.54554">
        <ele>1236.5999755859</ele>
        <time>2016-12-16T12:46:44Z</time>
      </trkpt>
      <trkpt lat="45.19388" lon="5.54555">
        <ele>1237.1999511719</ele>
        <time>2016-12-16T12:46:45Z</time>
      </trkpt>
      <trkpt lat="45.19387" lon="5.54557">
        <ele>1237.5999755859</ele>
        <time>2016-12-16T12:46:46Z</time>
      </trkpt>
      <trkpt lat="45.19386" lon="5.54558">
        <ele>1238</ele>
        <time>2016-12-16T12:46:47Z</time>
      </trkpt>
      <trkpt lat="45.19379" lon="5.54564">
        <ele>1238</ele>
        <time>2016-12-16T12:46:51Z</time>
      </trkpt>
      <trkpt lat="45.19374" lon="5.54567">
        <ele>1238.4000244141</ele>
        <time>2016-12-16T12:46:54Z</time>
      </trkpt>
      <trkpt lat="45.19372" lon="5.54568">
        <ele>1239.1999511719</ele>
        <time>2016-12-16T12:46:55Z</time>
      </trkpt>
      <trkpt lat="45.19371" lon="5.54569">
        <ele>1239.5999755859</ele>
        <time>2016-12-16T12:46:56Z</time>
      </trkpt>
      <trkpt lat="45.1937" lon="5.5457">
        <ele>1240</ele>
        <time>2016-12-16T12:46:57Z</time>
      </trkpt>
      <trkpt lat="45.19368" lon="5.5457">
        <ele>1240</ele>
        <time>2016-12-16T12:46:58Z</time>
      </trkpt>
      <trkpt lat="45.1936" lon="5.54575">
        <ele>1240</ele>
        <time>2016-12-16T12:47:04Z</time>
      </trkpt>
      <trkpt lat="45.19359" lon="5.54576">
        <ele>1240</ele>
        <time>2016-12-16T12:47:05Z</time>
      </trkpt>
      <trkpt lat="45.19355" lon="5.54577">
        <ele>1240.4000244141</ele>
        <time>2016-12-16T12:47:07Z</time>
      </trkpt>
      <trkpt lat="45.19354" lon="5.54578">
        <ele>1240.8000488281</ele>
        <time>2016-12-16T12:47:08Z</time>
      </trkpt>
      <trkpt lat="45.19352" lon="5.54579">
        <ele>1241.1999511719</ele>
        <time>2016-12-16T12:47:09Z</time>
      </trkpt>
      <trkpt lat="45.19351" lon="5.5458">
        <ele>1241.5999755859</ele>
        <time>2016-12-16T12:47:10Z</time>
      </trkpt>
      <trkpt lat="45.19349" lon="5.54581">
        <ele>1242</ele>
        <time>2016-12-16T12:47:11Z</time>
      </trkpt>
      <trkpt lat="45.19342" lon="5.54586">
        <ele>1242</ele>
        <time>2016-12-16T12:47:15Z</time>
      </trkpt>
      <trkpt lat="45.19332" lon="5.54591">
        <ele>1242</ele>
        <time>2016-12-16T12:47:21Z</time>
      </trkpt>
      <trkpt lat="45.1933" lon="5.54591">
        <ele>1242.5999755859</ele>
        <time>2016-12-16T12:47:22Z</time>
      </trkpt>
      <trkpt lat="45.19329" lon="5.54591">
        <ele>1243</ele>
        <time>2016-12-16T12:47:23Z</time>
      </trkpt>
      <trkpt lat="45.19327" lon="5.54592">
        <ele>1243.4000244141</ele>
        <time>2016-12-16T12:47:24Z</time>
      </trkpt>
      <trkpt lat="45.19326" lon="5.54593">
        <ele>1243.8000488281</ele>
        <time>2016-12-16T12:47:25Z</time>
      </trkpt>
      <trkpt lat="45.19325" lon="5.54594">
        <ele>1244.4000244141</ele>
        <time>2016-12-16T12:47:26Z</time>
      </trkpt>
      <trkpt lat="45.19322" lon="5.54596">
        <ele>1244.4000244141</ele>
        <time>2016-12-16T12:47:28Z</time>
      </trkpt>
      <trkpt lat="45.19318" lon="5.54599">
        <ele>1244.8000488281</ele>
        <time>2016-12-16T12:47:32Z</time>
      </trkpt>
      <trkpt lat="45.19317" lon="5.546">
        <ele>1245.1999511719</ele>
        <time>2016-12-16T12:47:33Z</time>
      </trkpt>
      <trkpt lat="45.19315" lon="5.546">
        <ele>1245.5999755859</ele>
        <time>2016-12-16T12:47:34Z</time>
      </trkpt>
      <trkpt lat="45.19314" lon="5.54601">
        <ele>1246</ele>
        <time>2016-12-16T12:47:35Z</time>
      </trkpt>
      <trkpt lat="45.19313" lon="5.54601">
        <ele>1246.4000244141</ele>
        <time>2016-12-16T12:47:36Z</time>
      </trkpt>
      <trkpt lat="45.19309" lon="5.54604">
        <ele>1246.4000244141</ele>
        <time>2016-12-16T12:47:41Z</time>
      </trkpt>
      <trkpt lat="45.19308" lon="5.54605">
        <ele>1246.8000488281</ele>
        <time>2016-12-16T12:47:42Z</time>
      </trkpt>
      <trkpt lat="45.19307" lon="5.54605">
        <ele>1247.1999511719</ele>
        <time>2016-12-16T12:47:43Z</time>
      </trkpt>
      <trkpt lat="45.19306" lon="5.54606">
        <ele>1248.1999511719</ele>
        <time>2016-12-16T12:47:44Z</time>
      </trkpt>
      <trkpt lat="45.19305" lon="5.54607">
        <ele>1248.5999755859</ele>
        <time>2016-12-16T12:47:45Z</time>
      </trkpt>
      <trkpt lat="45.19301" lon="5.54609">
        <ele>1248.5999755859</ele>
        <time>2016-12-16T12:47:48Z</time>
      </trkpt>
      <trkpt lat="45.19297" lon="5.54611">
        <ele>1249</ele>
        <time>2016-12-16T12:47:51Z</time>
      </trkpt>
      <trkpt lat="45.19296" lon="5.54611">
        <ele>1249.4000244141</ele>
        <time>2016-12-16T12:47:52Z</time>
      </trkpt>
      <trkpt lat="45.19294" lon="5.54612">
        <ele>1249.8000488281</ele>
        <time>2016-12-16T12:47:53Z</time>
      </trkpt>
      <trkpt lat="45.19293" lon="5.54613">
        <ele>1250.1999511719</ele>
        <time>2016-12-16T12:47:54Z</time>
      </trkpt>
      <trkpt lat="45.19291" lon="5.54614">
        <ele>1250.5999755859</ele>
        <time>2016-12-16T12:47:55Z</time>
      </trkpt>
      <trkpt lat="45.19285" lon="5.54617">
        <ele>1250.5999755859</ele>
        <time>2016-12-16T12:47:59Z</time>
      </trkpt>
      <trkpt lat="45.1928" lon="5.5462">
        <ele>1251</ele>
        <time>2016-12-16T12:48:03Z</time>
      </trkpt>
      <trkpt lat="45.19278" lon="5.54621">
        <ele>1251.4000244141</ele>
        <time>2016-12-16T12:48:04Z</time>
      </trkpt>
      <trkpt lat="45.19276" lon="5.54622">
        <ele>1251.8000488281</ele>
        <time>2016-12-16T12:48:05Z</time>
      </trkpt>
      <trkpt lat="45.19275" lon="5.54624">
        <ele>1252.1999511719</ele>
        <time>2016-12-16T12:48:06Z</time>
      </trkpt>
      <trkpt lat="45.19274" lon="5.54625">
        <ele>1252.5999755859</ele>
        <time>2016-12-16T12:48:07Z</time>
      </trkpt>
      <trkpt lat="45.19265" lon="5.54633">
        <ele>1252.5999755859</ele>
        <time>2016-12-16T12:48:14Z</time>
      </trkpt>
      <trkpt lat="45.19263" lon="5.54636">
        <ele>1253</ele>
        <time>2016-12-16T12:48:17Z</time>
      </trkpt>
      <trkpt lat="45.19262" lon="5.54637">
        <ele>1253.4000244141</ele>
        <time>2016-12-16T12:48:18Z</time>
      </trkpt>
      <trkpt lat="45.1926" lon="5.54639">
        <ele>1253.8000488281</ele>
        <time>2016-12-16T12:48:19Z</time>
      </trkpt>
      <trkpt lat="45.19259" lon="5.5464">
        <ele>1254.1999511719</ele>
        <time>2016-12-16T12:48:20Z</time>
      </trkpt>
      <trkpt lat="45.19256" lon="5.54642">
        <ele>1254.8000488281</ele>
        <time>2016-12-16T12:48:21Z</time>
      </trkpt>
      <trkpt lat="45.19246" lon="5.54646">
        <ele>1254.8000488281</ele>
        <time>2016-12-16T12:48:26Z</time>
      </trkpt>
      <trkpt lat="45.19236" lon="5.54655">
        <ele>1254.8000488281</ele>
        <time>2016-12-16T12:48:32Z</time>
      </trkpt>
      <trkpt lat="45.19227" lon="5.5466">
        <ele>1255.1999511719</ele>
        <time>2016-12-16T12:48:38Z</time>
      </trkpt>
      <trkpt lat="45.19225" lon="5.5466">
        <ele>1255.5999755859</ele>
        <time>2016-12-16T12:48:39Z</time>
      </trkpt>
      <trkpt lat="45.19223" lon="5.5466">
        <ele>1256</ele>
        <time>2016-12-16T12:48:40Z</time>
      </trkpt>
      <trkpt lat="45.19221" lon="5.5466">
        <ele>1256.4000244141</ele>
        <time>2016-12-16T12:48:41Z</time>
      </trkpt>
      <trkpt lat="45.19219" lon="5.54661">
        <ele>1256.8000488281</ele>
        <time>2016-12-16T12:48:42Z</time>
      </trkpt>
      <trkpt lat="45.19218" lon="5.5466">
        <ele>1256.8000488281</ele>
        <time>2016-12-16T12:48:43Z</time>
      </trkpt>
      <trkpt lat="45.19216" lon="5.5466">
        <ele>1256.8000488281</ele>
        <time>2016-12-16T12:48:44Z</time>
      </trkpt>
      <trkpt lat="45.19211" lon="5.54656">
        <ele>1256.8000488281</ele>
        <time>2016-12-16T12:48:50Z</time>
      </trkpt>
      <trkpt lat="45.19202" lon="5.54651">
        <ele>1256.8000488281</ele>
        <time>2016-12-16T12:48:55Z</time>
      </trkpt>
      <trkpt lat="45.19186" lon="5.54645">
        <ele>1256.8000488281</ele>
        <time>2016-12-16T12:49:02Z</time>
      </trkpt>
      <trkpt lat="45.19171" lon="5.5464">
        <ele>1256.8000488281</ele>
        <time>2016-12-16T12:49:08Z</time>
      </trkpt>
      <trkpt lat="45.19169" lon="5.54638">
        <ele>1256.8000488281</ele>
        <time>2016-12-16T12:49:09Z</time>
      </trkpt>
      <trkpt lat="45.19155" lon="5.5463">
        <ele>1256.8000488281</ele>
        <time>2016-12-16T12:49:16Z</time>
      </trkpt>
      <trkpt lat="45.19152" lon="5.54632">
        <ele>1256.8000488281</ele>
        <time>2016-12-16T12:49:17Z</time>
      </trkpt>
      <trkpt lat="45.19145" lon="5.54642">
        <ele>1256.8000488281</ele>
        <time>2016-12-16T12:49:20Z</time>
      </trkpt>
      <trkpt lat="45.19142" lon="5.54646">
        <ele>1256.8000488281</ele>
        <time>2016-12-16T12:49:21Z</time>
      </trkpt>
      <trkpt lat="45.19138" lon="5.54659">
        <ele>1256.8000488281</ele>
        <time>2016-12-16T12:49:25Z</time>
      </trkpt>
      <trkpt lat="45.19143" lon="5.5468">
        <ele>1256.8000488281</ele>
        <time>2016-12-16T12:49:33Z</time>
      </trkpt>
      <trkpt lat="45.1915" lon="5.54688">
        <ele>1256.8000488281</ele>
        <time>2016-12-16T12:49:38Z</time>
      </trkpt>
      <trkpt lat="45.19153" lon="5.5469">
        <ele>1257.1999511719</ele>
        <time>2016-12-16T12:49:40Z</time>
      </trkpt>
      <trkpt lat="45.19154" lon="5.54691">
        <ele>1257.5999755859</ele>
        <time>2016-12-16T12:49:41Z</time>
      </trkpt>
      <trkpt lat="45.19155" lon="5.54693">
        <ele>1258.1999511719</ele>
        <time>2016-12-16T12:49:42Z</time>
      </trkpt>
      <trkpt lat="45.19156" lon="5.54695">
        <ele>1258.5999755859</ele>
        <time>2016-12-16T12:49:43Z</time>
      </trkpt>
      <trkpt lat="45.19158" lon="5.54696">
        <ele>1259</ele>
        <time>2016-12-16T12:49:44Z</time>
      </trkpt>
      <trkpt lat="45.19168" lon="5.547">
        <ele>1259.4000244141</ele>
        <time>2016-12-16T12:49:50Z</time>
      </trkpt>
      <trkpt lat="45.19169" lon="5.547">
        <ele>1259.8000488281</ele>
        <time>2016-12-16T12:49:51Z</time>
      </trkpt>
      <trkpt lat="45.19169" lon="5.547">
        <ele>1260.1999511719</ele>
        <time>2016-12-16T12:49:52Z</time>
      </trkpt>
      <trkpt lat="45.19171" lon="5.547">
        <ele>1260.5999755859</ele>
        <time>2016-12-16T12:49:53Z</time>
      </trkpt>
      <trkpt lat="45.19172" lon="5.547">
        <ele>1261.1999511719</ele>
        <time>2016-12-16T12:49:54Z</time>
      </trkpt>
      <trkpt lat="45.19174" lon="5.54701">
        <ele>1261.1999511719</ele>
        <time>2016-12-16T12:49:55Z</time>
      </trkpt>
      <trkpt lat="45.19184" lon="5.54705">
        <ele>1261.1999511719</ele>
        <time>2016-12-16T12:50:01Z</time>
      </trkpt>
      <trkpt lat="45.19191" lon="5.54709">
        <ele>1261.5999755859</ele>
        <time>2016-12-16T12:50:05Z</time>
      </trkpt>
      <trkpt lat="45.19193" lon="5.5471">
        <ele>1262</ele>
        <time>2016-12-16T12:50:06Z</time>
      </trkpt>
      <trkpt lat="45.19194" lon="5.54711">
        <ele>1262.4000244141</ele>
        <time>2016-12-16T12:50:07Z</time>
      </trkpt>
      <trkpt lat="45.19195" lon="5.54712">
        <ele>1262.8000488281</ele>
        <time>2016-12-16T12:50:08Z</time>
      </trkpt>
      <trkpt lat="45.19196" lon="5.54713">
        <ele>1263.1999511719</ele>
        <time>2016-12-16T12:50:09Z</time>
      </trkpt>
      <trkpt lat="45.19205" lon="5.54715">
        <ele>1263.1999511719</ele>
        <time>2016-12-16T12:50:14Z</time>
      </trkpt>
      <trkpt lat="45.19207" lon="5.54716">
        <ele>1263.1999511719</ele>
        <time>2016-12-16T12:50:15Z</time>
      </trkpt>
      <trkpt lat="45.19214" lon="5.5472">
        <ele>1263.1999511719</ele>
        <time>2016-12-16T12:50:19Z</time>
      </trkpt>
      <trkpt lat="45.19217" lon="5.54722">
        <ele>1263.5999755859</ele>
        <time>2016-12-16T12:50:21Z</time>
      </trkpt>
      <trkpt lat="45.19218" lon="5.54723">
        <ele>1264.1999511719</ele>
        <time>2016-12-16T12:50:22Z</time>
      </trkpt>
      <trkpt lat="45.1922" lon="5.54724">
        <ele>1264.5999755859</ele>
        <time>2016-12-16T12:50:23Z</time>
      </trkpt>
      <trkpt lat="45.19221" lon="5.54726">
        <ele>1265</ele>
        <time>2016-12-16T12:50:24Z</time>
      </trkpt>
      <trkpt lat="45.19223" lon="5.54727">
        <ele>1265.4000244141</ele>
        <time>2016-12-16T12:50:25Z</time>
      </trkpt>
      <trkpt lat="45.19228" lon="5.54733">
        <ele>1265.4000244141</ele>
        <time>2016-12-16T12:50:30Z</time>
      </trkpt>
      <trkpt lat="45.19229" lon="5.54735">
        <ele>1265.4000244141</ele>
        <time>2016-12-16T12:50:31Z</time>
      </trkpt>
      <trkpt lat="45.1923" lon="5.54737">
        <ele>1265.8000488281</ele>
        <time>2016-12-16T12:50:33Z</time>
      </trkpt>
      <trkpt lat="45.19232" lon="5.54738">
        <ele>1266.1999511719</ele>
        <time>2016-12-16T12:50:34Z</time>
      </trkpt>
      <trkpt lat="45.19233" lon="5.54738">
        <ele>1266.5999755859</ele>
        <time>2016-12-16T12:50:35Z</time>
      </trkpt>
      <trkpt lat="45.19234" lon="5.5474">
        <ele>1267</ele>
        <time>2016-12-16T12:50:36Z</time>
      </trkpt>
      <trkpt lat="45.19236" lon="5.5474">
        <ele>1267.4000244141</ele>
        <time>2016-12-16T12:50:37Z</time>
      </trkpt>
      <trkpt lat="45.19242" lon="5.54743">
        <ele>1268</ele>
        <time>2016-12-16T12:50:41Z</time>
      </trkpt>
      <trkpt lat="45.19242" lon="5.54743">
        <ele>1268.4000244141</ele>
        <time>2016-12-16T12:50:42Z</time>
      </trkpt>
      <trkpt lat="45.19244" lon="5.54744">
        <ele>1268.8000488281</ele>
        <time>2016-12-16T12:50:43Z</time>
      </trkpt>
      <trkpt lat="45.19246" lon="5.54745">
        <ele>1269.1999511719</ele>
        <time>2016-12-16T12:50:44Z</time>
      </trkpt>
      <trkpt lat="45.19247" lon="5.54746">
        <ele>1269.8000488281</ele>
        <time>2016-12-16T12:50:45Z</time>
      </trkpt>
      <trkpt lat="45.19254" lon="5.5475">
        <ele>1270.1999511719</ele>
        <time>2016-12-16T12:50:50Z</time>
      </trkpt>
      <trkpt lat="45.19255" lon="5.54752">
        <ele>1270.5999755859</ele>
        <time>2016-12-16T12:50:51Z</time>
      </trkpt>
      <trkpt lat="45.19256" lon="5.54752">
        <ele>1271</ele>
        <time>2016-12-16T12:50:52Z</time>
      </trkpt>
      <trkpt lat="45.19257" lon="5.54753">
        <ele>1271.4000244141</ele>
        <time>2016-12-16T12:50:53Z</time>
      </trkpt>
      <trkpt lat="45.19259" lon="5.54754">
        <ele>1271.8000488281</ele>
        <time>2016-12-16T12:50:54Z</time>
      </trkpt>
      <trkpt lat="45.19262" lon="5.54754">
        <ele>1271.8000488281</ele>
        <time>2016-12-16T12:50:56Z</time>
      </trkpt>
      <trkpt lat="45.19264" lon="5.54754">
        <ele>1271.8000488281</ele>
        <time>2016-12-16T12:50:57Z</time>
      </trkpt>
      <trkpt lat="45.19273" lon="5.54758">
        <ele>1272.1999511719</ele>
        <time>2016-12-16T12:51:03Z</time>
      </trkpt>
      <trkpt lat="45.19275" lon="5.54759">
        <ele>1272.5999755859</ele>
        <time>2016-12-16T12:51:04Z</time>
      </trkpt>
      <trkpt lat="45.19276" lon="5.5476">
        <ele>1273.1999511719</ele>
        <time>2016-12-16T12:51:05Z</time>
      </trkpt>
      <trkpt lat="45.19277" lon="5.54761">
        <ele>1273.5999755859</ele>
        <time>2016-12-16T12:51:06Z</time>
      </trkpt>
      <trkpt lat="45.19279" lon="5.54762">
        <ele>1274</ele>
        <time>2016-12-16T12:51:07Z</time>
      </trkpt>
      <trkpt lat="45.19283" lon="5.54765">
        <ele>1274</ele>
        <time>2016-12-16T12:51:10Z</time>
      </trkpt>
      <trkpt lat="45.19296" lon="5.54768">
        <ele>1274</ele>
        <time>2016-12-16T12:51:16Z</time>
      </trkpt>
      <trkpt lat="45.19299" lon="5.54769">
        <ele>1274</ele>
        <time>2016-12-16T12:51:18Z</time>
      </trkpt>
      <trkpt lat="45.19305" lon="5.54774">
        <ele>1274</ele>
        <time>2016-12-16T12:51:21Z</time>
      </trkpt>
      <trkpt lat="45.1931" lon="5.54776">
        <ele>1274</ele>
        <time>2016-12-16T12:51:23Z</time>
      </trkpt>
      <trkpt lat="45.19315" lon="5.54778">
        <ele>1274.4000244141</ele>
        <time>2016-12-16T12:51:25Z</time>
      </trkpt>
      <trkpt lat="45.19317" lon="5.5478">
        <ele>1274.8000488281</ele>
        <time>2016-12-16T12:51:26Z</time>
      </trkpt>
      <trkpt lat="45.1932" lon="5.54781">
        <ele>1275.5999755859</ele>
        <time>2016-12-16T12:51:27Z</time>
      </trkpt>
      <trkpt lat="45.19322" lon="5.54781">
        <ele>1276</ele>
        <time>2016-12-16T12:51:28Z</time>
      </trkpt>
      <trkpt lat="45.19339" lon="5.54785">
        <ele>1276</ele>
        <time>2016-12-16T12:51:35Z</time>
      </trkpt>
      <trkpt lat="45.19345" lon="5.5479">
        <ele>1276.4000244141</ele>
        <time>2016-12-16T12:51:38Z</time>
      </trkpt>
      <trkpt lat="45.19347" lon="5.54792">
        <ele>1276.8000488281</ele>
        <time>2016-12-16T12:51:39Z</time>
      </trkpt>
      <trkpt lat="45.19349" lon="5.54793">
        <ele>1277.1999511719</ele>
        <time>2016-12-16T12:51:40Z</time>
      </trkpt>
      <trkpt lat="45.1935" lon="5.54794">
        <ele>1277.5999755859</ele>
        <time>2016-12-16T12:51:41Z</time>
      </trkpt>
      <trkpt lat="45.19352" lon="5.54795">
        <ele>1278</ele>
        <time>2016-12-16T12:51:42Z</time>
      </trkpt>
      <trkpt lat="45.19365" lon="5.54801">
        <ele>1278</ele>
        <time>2016-12-16T12:51:49Z</time>
      </trkpt>
      <trkpt lat="45.19369" lon="5.54799">
        <ele>1278</ele>
        <time>2016-12-16T12:51:50Z</time>
      </trkpt>
      <trkpt lat="45.1938" lon="5.54798">
        <ele>1278</ele>
        <time>2016-12-16T12:51:55Z</time>
      </trkpt>
      <trkpt lat="45.19386" lon="5.54801">
        <ele>1278</ele>
        <time>2016-12-16T12:51:58Z</time>
      </trkpt>
      <trkpt lat="45.19394" lon="5.54811">
        <ele>1278</ele>
        <time>2016-12-16T12:52:02Z</time>
      </trkpt>
      <trkpt lat="45.19406" lon="5.54828">
        <ele>1278</ele>
        <time>2016-12-16T12:52:08Z</time>
      </trkpt>
      <trkpt lat="45.19411" lon="5.54839">
        <ele>1277.5999755859</ele>
        <time>2016-12-16T12:52:11Z</time>
      </trkpt>
      <trkpt lat="45.19413" lon="5.54844">
        <ele>1277.1999511719</ele>
        <time>2016-12-16T12:52:12Z</time>
      </trkpt>
      <trkpt lat="45.19416" lon="5.5485">
        <ele>1276.8000488281</ele>
        <time>2016-12-16T12:52:13Z</time>
      </trkpt>
      <trkpt lat="45.19418" lon="5.54853">
        <ele>1276.4000244141</ele>
        <time>2016-12-16T12:52:14Z</time>
      </trkpt>
      <trkpt lat="45.19421" lon="5.54856">
        <ele>1276</ele>
        <time>2016-12-16T12:52:15Z</time>
      </trkpt>
      <trkpt lat="45.19424" lon="5.54858">
        <ele>1276</ele>
        <time>2016-12-16T12:52:16Z</time>
      </trkpt>
      <trkpt lat="45.19427" lon="5.54859">
        <ele>1276</ele>
        <time>2016-12-16T12:52:17Z</time>
      </trkpt>
      <trkpt lat="45.19446" lon="5.54866">
        <ele>1276</ele>
        <time>2016-12-16T12:52:22Z</time>
      </trkpt>
      <trkpt lat="45.19473" lon="5.54869">
        <ele>1276</ele>
        <time>2016-12-16T12:52:29Z</time>
      </trkpt>
      <trkpt lat="45.19481" lon="5.54874">
        <ele>1276.4000244141</ele>
        <time>2016-12-16T12:52:33Z</time>
      </trkpt>
      <trkpt lat="45.19482" lon="5.54875">
        <ele>1276.8000488281</ele>
        <time>2016-12-16T12:52:34Z</time>
      </trkpt>
      <trkpt lat="45.19484" lon="5.54875">
        <ele>1277.4000244141</ele>
        <time>2016-12-16T12:52:35Z</time>
      </trkpt>
      <trkpt lat="45.19487" lon="5.54875">
        <ele>1277.8000488281</ele>
        <time>2016-12-16T12:52:36Z</time>
      </trkpt>
      <trkpt lat="45.19488" lon="5.54876">
        <ele>1278.1999511719</ele>
        <time>2016-12-16T12:52:37Z</time>
      </trkpt>
      <trkpt lat="45.19494" lon="5.5488">
        <ele>1278.1999511719</ele>
        <time>2016-12-16T12:52:41Z</time>
      </trkpt>
      <trkpt lat="45.19498" lon="5.54883">
        <ele>1278.5999755859</ele>
        <time>2016-12-16T12:52:43Z</time>
      </trkpt>
      <trkpt lat="45.195" lon="5.54884">
        <ele>1279</ele>
        <time>2016-12-16T12:52:44Z</time>
      </trkpt>
      <trkpt lat="45.19501" lon="5.54885">
        <ele>1279.4000244141</ele>
        <time>2016-12-16T12:52:45Z</time>
      </trkpt>
      <trkpt lat="45.19503" lon="5.54886">
        <ele>1279.8000488281</ele>
        <time>2016-12-16T12:52:46Z</time>
      </trkpt>
      <trkpt lat="45.19504" lon="5.54887">
        <ele>1280.1999511719</ele>
        <time>2016-12-16T12:52:47Z</time>
      </trkpt>
      <trkpt lat="45.19511" lon="5.54891">
        <ele>1280.8000488281</ele>
        <time>2016-12-16T12:52:52Z</time>
      </trkpt>
      <trkpt lat="45.19512" lon="5.54892">
        <ele>1281.1999511719</ele>
        <time>2016-12-16T12:52:53Z</time>
      </trkpt>
      <trkpt lat="45.19514" lon="5.54893">
        <ele>1281.5999755859</ele>
        <time>2016-12-16T12:52:54Z</time>
      </trkpt>
      <trkpt lat="45.19514" lon="5.54894">
        <ele>1282</ele>
        <time>2016-12-16T12:52:55Z</time>
      </trkpt>
      <trkpt lat="45.19516" lon="5.54895">
        <ele>1282.5999755859</ele>
        <time>2016-12-16T12:52:56Z</time>
      </trkpt>
      <trkpt lat="45.1952" lon="5.549">
        <ele>1282.5999755859</ele>
        <time>2016-12-16T12:53:00Z</time>
      </trkpt>
      <trkpt lat="45.19522" lon="5.54902">
        <ele>1283</ele>
        <time>2016-12-16T12:53:01Z</time>
      </trkpt>
      <trkpt lat="45.19523" lon="5.54903">
        <ele>1283.4000244141</ele>
        <time>2016-12-16T12:53:02Z</time>
      </trkpt>
      <trkpt lat="45.19525" lon="5.54904">
        <ele>1283.8000488281</ele>
        <time>2016-12-16T12:53:03Z</time>
      </trkpt>
      <trkpt lat="45.19527" lon="5.54905">
        <ele>1284.1999511719</ele>
        <time>2016-12-16T12:53:04Z</time>
      </trkpt>
      <trkpt lat="45.19528" lon="5.54906">
        <ele>1284.5999755859</ele>
        <time>2016-12-16T12:53:05Z</time>
      </trkpt>
      <trkpt lat="45.19531" lon="5.54908">
        <ele>1284.5999755859</ele>
        <time>2016-12-16T12:53:07Z</time>
      </trkpt>
      <trkpt lat="45.19536" lon="5.54911">
        <ele>1285</ele>
        <time>2016-12-16T12:53:10Z</time>
      </trkpt>
      <trkpt lat="45.19537" lon="5.54913">
        <ele>1285.4000244141</ele>
        <time>2016-12-16T12:53:11Z</time>
      </trkpt>
      <trkpt lat="45.19538" lon="5.54914">
        <ele>1285.8000488281</ele>
        <time>2016-12-16T12:53:12Z</time>
      </trkpt>
      <trkpt lat="45.19539" lon="5.54916">
        <ele>1286.1999511719</ele>
        <time>2016-12-16T12:53:13Z</time>
      </trkpt>
      <trkpt lat="45.19541" lon="5.54917">
        <ele>1286.5999755859</ele>
        <time>2016-12-16T12:53:14Z</time>
      </trkpt>
      <trkpt lat="45.19542" lon="5.54919">
        <ele>1286.5999755859</ele>
        <time>2016-12-16T12:53:15Z</time>
      </trkpt>
      <trkpt lat="45.19548" lon="5.54934">
        <ele>1286.5999755859</ele>
        <time>2016-12-16T12:53:22Z</time>
      </trkpt>
      <trkpt lat="45.19555" lon="5.54957">
        <ele>1286.5999755859</ele>
        <time>2016-12-16T12:53:27Z</time>
      </trkpt>
      <trkpt lat="45.19565" lon="5.54972">
        <ele>1286.5999755859</ele>
        <time>2016-12-16T12:53:30Z</time>
      </trkpt>
      <trkpt lat="45.1957" lon="5.54978">
        <ele>1286.5999755859</ele>
        <time>2016-12-16T12:53:31Z</time>
      </trkpt>
      <trkpt lat="45.19575" lon="5.54983">
        <ele>1286.1999511719</ele>
        <time>2016-12-16T12:53:32Z</time>
      </trkpt>
      <trkpt lat="45.1958" lon="5.54988">
        <ele>1285.8000488281</ele>
        <time>2016-12-16T12:53:33Z</time>
      </trkpt>
      <trkpt lat="45.19585" lon="5.54994">
        <ele>1285.4000244141</ele>
        <time>2016-12-16T12:53:34Z</time>
      </trkpt>
      <trkpt lat="45.1959" lon="5.55001">
        <ele>1285</ele>
        <time>2016-12-16T12:53:35Z</time>
      </trkpt>
      <trkpt lat="45.19597" lon="5.55008">
        <ele>1284.4000244141</ele>
        <time>2016-12-16T12:53:36Z</time>
      </trkpt>
      <trkpt lat="45.19602" lon="5.55014">
        <ele>1283.8000488281</ele>
        <time>2016-12-16T12:53:37Z</time>
      </trkpt>
      <trkpt lat="45.19608" lon="5.55021">
        <ele>1283.4000244141</ele>
        <time>2016-12-16T12:53:38Z</time>
      </trkpt>
      <trkpt lat="45.19615" lon="5.55027">
        <ele>1282.8000488281</ele>
        <time>2016-12-16T12:53:39Z</time>
      </trkpt>
      <trkpt lat="45.19623" lon="5.55031">
        <ele>1282</ele>
        <time>2016-12-16T12:53:40Z</time>
      </trkpt>
      <trkpt lat="45.19631" lon="5.55032">
        <ele>1281</ele>
        <time>2016-12-16T12:53:41Z</time>
      </trkpt>
      <trkpt lat="45.19638" lon="5.55032">
        <ele>1280.1999511719</ele>
        <time>2016-12-16T12:53:42Z</time>
      </trkpt>
      <trkpt lat="45.19643" lon="5.55032">
        <ele>1279.4000244141</ele>
        <time>2016-12-16T12:53:43Z</time>
      </trkpt>
      <trkpt lat="45.19646" lon="5.5503">
        <ele>1278.5999755859</ele>
        <time>2016-12-16T12:53:44Z</time>
      </trkpt>
      <trkpt lat="45.19649" lon="5.55029">
        <ele>1278.5999755859</ele>
        <time>2016-12-16T12:53:45Z</time>
      </trkpt>
      <trkpt lat="45.19656" lon="5.55027">
        <ele>1279</ele>
        <time>2016-12-16T12:53:48Z</time>
      </trkpt>
      <trkpt lat="45.19657" lon="5.55027">
        <ele>1279.4000244141</ele>
        <time>2016-12-16T12:53:49Z</time>
      </trkpt>
      <trkpt lat="45.1966" lon="5.55027">
        <ele>1279.8000488281</ele>
        <time>2016-12-16T12:53:50Z</time>
      </trkpt>
      <trkpt lat="45.19663" lon="5.55027">
        <ele>1280.1999511719</ele>
        <time>2016-12-16T12:53:51Z</time>
      </trkpt>
      <trkpt lat="45.19667" lon="5.55026">
        <ele>1280.5999755859</ele>
        <time>2016-12-16T12:53:52Z</time>
      </trkpt>
      <trkpt lat="45.19674" lon="5.55024">
        <ele>1280.5999755859</ele>
        <time>2016-12-16T12:53:55Z</time>
      </trkpt>
      <trkpt lat="45.19678" lon="5.55021">
        <ele>1281</ele>
        <time>2016-12-16T12:53:57Z</time>
      </trkpt>
      <trkpt lat="45.1968" lon="5.55021">
        <ele>1281.4000244141</ele>
        <time>2016-12-16T12:53:58Z</time>
      </trkpt>
      <trkpt lat="45.19682" lon="5.55021">
        <ele>1281.8000488281</ele>
        <time>2016-12-16T12:53:59Z</time>
      </trkpt>
      <trkpt lat="45.19684" lon="5.55021">
        <ele>1282.1999511719</ele>
        <time>2016-12-16T12:54:00Z</time>
      </trkpt>
      <trkpt lat="45.19686" lon="5.5502">
        <ele>1282.5999755859</ele>
        <time>2016-12-16T12:54:01Z</time>
      </trkpt>
      <trkpt lat="45.19694" lon="5.55017">
        <ele>1282.5999755859</ele>
        <time>2016-12-16T12:54:05Z</time>
      </trkpt>
      <trkpt lat="45.19698" lon="5.55016">
        <ele>1282.5999755859</ele>
        <time>2016-12-16T12:54:07Z</time>
      </trkpt>
      <trkpt lat="45.19708" lon="5.55013">
        <ele>1283</ele>
        <time>2016-12-16T12:54:11Z</time>
      </trkpt>
      <trkpt lat="45.1971" lon="5.55013">
        <ele>1283.4000244141</ele>
        <time>2016-12-16T12:54:12Z</time>
      </trkpt>
      <trkpt lat="45.19713" lon="5.55013">
        <ele>1284</ele>
        <time>2016-12-16T12:54:13Z</time>
      </trkpt>
      <trkpt lat="45.19714" lon="5.55012">
        <ele>1284.4000244141</ele>
        <time>2016-12-16T12:54:14Z</time>
      </trkpt>
      <trkpt lat="45.19716" lon="5.55012">
        <ele>1284.8000488281</ele>
        <time>2016-12-16T12:54:15Z</time>
      </trkpt>
      <trkpt lat="45.19721" lon="5.55008">
        <ele>1284.8000488281</ele>
        <time>2016-12-16T12:54:18Z</time>
      </trkpt>
      <trkpt lat="45.19725" lon="5.55006">
        <ele>1285.1999511719</ele>
        <time>2016-12-16T12:54:20Z</time>
      </trkpt>
      <trkpt lat="45.19727" lon="5.55005">
        <ele>1285.5999755859</ele>
        <time>2016-12-16T12:54:21Z</time>
      </trkpt>
      <trkpt lat="45.19729" lon="5.55005">
        <ele>1286</ele>
        <time>2016-12-16T12:54:22Z</time>
      </trkpt>
      <trkpt lat="45.19731" lon="5.55005">
        <ele>1286.5999755859</ele>
        <time>2016-12-16T12:54:23Z</time>
      </trkpt>
      <trkpt lat="45.19733" lon="5.55004">
        <ele>1287</ele>
        <time>2016-12-16T12:54:24Z</time>
      </trkpt>
      <trkpt lat="45.1974" lon="5.55001">
        <ele>1287</ele>
        <time>2016-12-16T12:54:29Z</time>
      </trkpt>
      <trkpt lat="45.19744" lon="5.54998">
        <ele>1287.4000244141</ele>
        <time>2016-12-16T12:54:31Z</time>
      </trkpt>
      <trkpt lat="45.19745" lon="5.54997">
        <ele>1287.8000488281</ele>
        <time>2016-12-16T12:54:32Z</time>
      </trkpt>
      <trkpt lat="45.19747" lon="5.54997">
        <ele>1288.1999511719</ele>
        <time>2016-12-16T12:54:33Z</time>
      </trkpt>
      <trkpt lat="45.19748" lon="5.54996">
        <ele>1288.5999755859</ele>
        <time>2016-12-16T12:54:34Z</time>
      </trkpt>
      <trkpt lat="45.1975" lon="5.54996">
        <ele>1289</ele>
        <time>2016-12-16T12:54:35Z</time>
      </trkpt>
      <trkpt lat="45.19754" lon="5.54993">
        <ele>1289</ele>
        <time>2016-12-16T12:54:37Z</time>
      </trkpt>
      <trkpt lat="45.19768" lon="5.54988">
        <ele>1289</ele>
        <time>2016-12-16T12:54:41Z</time>
      </trkpt>
      <trkpt lat="45.19787" lon="5.54982">
        <ele>1288.4000244141</ele>
        <time>2016-12-16T12:54:44Z</time>
      </trkpt>
      <trkpt lat="45.19793" lon="5.54978">
        <ele>1288</ele>
        <time>2016-12-16T12:54:45Z</time>
      </trkpt>
      <trkpt lat="45.19799" lon="5.54975">
        <ele>1287.5999755859</ele>
        <time>2016-12-16T12:54:46Z</time>
      </trkpt>
      <trkpt lat="45.19802" lon="5.54972">
        <ele>1287</ele>
        <time>2016-12-16T12:54:47Z</time>
      </trkpt>
      <trkpt lat="45.19806" lon="5.54968">
        <ele>1286.5999755859</ele>
        <time>2016-12-16T12:54:48Z</time>
      </trkpt>
      <trkpt lat="45.1981" lon="5.54963">
        <ele>1286.5999755859</ele>
        <time>2016-12-16T12:54:51Z</time>
      </trkpt>
      <trkpt lat="45.19815" lon="5.5496">
        <ele>1286.5999755859</ele>
        <time>2016-12-16T12:54:54Z</time>
      </trkpt>
      <trkpt lat="45.19817" lon="5.54957">
        <ele>1286.5999755859</ele>
        <time>2016-12-16T12:54:56Z</time>
      </trkpt>
      <trkpt lat="45.19823" lon="5.5495">
        <ele>1286.5999755859</ele>
        <time>2016-12-16T12:55:00Z</time>
      </trkpt>
      <trkpt lat="45.19825" lon="5.54948">
        <ele>1286.5999755859</ele>
        <time>2016-12-16T12:55:01Z</time>
      </trkpt>
      <trkpt lat="45.1984" lon="5.54939">
        <ele>1286.5999755859</ele>
        <time>2016-12-16T12:55:06Z</time>
      </trkpt>
      <trkpt lat="45.19845" lon="5.54939">
        <ele>1286</ele>
        <time>2016-12-16T12:55:07Z</time>
      </trkpt>
      <trkpt lat="45.19852" lon="5.54937">
        <ele>1285.4000244141</ele>
        <time>2016-12-16T12:55:08Z</time>
      </trkpt>
      <trkpt lat="45.19864" lon="5.54932">
        <ele>1283.8000488281</ele>
        <time>2016-12-16T12:55:09Z</time>
      </trkpt>
      <trkpt lat="45.19874" lon="5.54925">
        <ele>1283</ele>
        <time>2016-12-16T12:55:10Z</time>
      </trkpt>
      <trkpt lat="45.19884" lon="5.54917">
        <ele>1282.1999511719</ele>
        <time>2016-12-16T12:55:11Z</time>
      </trkpt>
      <trkpt lat="45.1989" lon="5.5491">
        <ele>1281.4000244141</ele>
        <time>2016-12-16T12:55:12Z</time>
      </trkpt>
      <trkpt lat="45.19904" lon="5.54895">
        <ele>1281.4000244141</ele>
        <time>2016-12-16T12:55:14Z</time>
      </trkpt>
      <trkpt lat="45.19912" lon="5.54866">
        <ele>1281.4000244141</ele>
        <time>2016-12-16T12:55:19Z</time>
      </trkpt>
      <trkpt lat="45.19913" lon="5.5486">
        <ele>1281.8000488281</ele>
        <time>2016-12-16T12:55:20Z</time>
      </trkpt>
      <trkpt lat="45.19913" lon="5.54855">
        <ele>1282.1999511719</ele>
        <time>2016-12-16T12:55:21Z</time>
      </trkpt>
      <trkpt lat="45.19914" lon="5.54851">
        <ele>1282.5999755859</ele>
        <time>2016-12-16T12:55:22Z</time>
      </trkpt>
      <trkpt lat="45.19915" lon="5.54847">
        <ele>1283</ele>
        <time>2016-12-16T12:55:23Z</time>
      </trkpt>
      <trkpt lat="45.19916" lon="5.54842">
        <ele>1283.4000244141</ele>
        <time>2016-12-16T12:55:24Z</time>
      </trkpt>
      <trkpt lat="45.1992" lon="5.5483">
        <ele>1284</ele>
        <time>2016-12-16T12:55:27Z</time>
      </trkpt>
      <trkpt lat="45.19921" lon="5.54826">
        <ele>1284.4000244141</ele>
        <time>2016-12-16T12:55:28Z</time>
      </trkpt>
      <trkpt lat="45.19922" lon="5.54823">
        <ele>1284.8000488281</ele>
        <time>2016-12-16T12:55:29Z</time>
      </trkpt>
      <trkpt lat="45.19923" lon="5.5482">
        <ele>1285.1999511719</ele>
        <time>2016-12-16T12:55:30Z</time>
      </trkpt>
      <trkpt lat="45.19924" lon="5.54817">
        <ele>1285.5999755859</ele>
        <time>2016-12-16T12:55:31Z</time>
      </trkpt>
      <trkpt lat="45.1993" lon="5.54806">
        <ele>1285.5999755859</ele>
        <time>2016-12-16T12:55:36Z</time>
      </trkpt>
      <trkpt lat="45.19932" lon="5.54801">
        <ele>1286</ele>
        <time>2016-12-16T12:55:38Z</time>
      </trkpt>
      <trkpt lat="45.19933" lon="5.54799">
        <ele>1286.4000244141</ele>
        <time>2016-12-16T12:55:39Z</time>
      </trkpt>
      <trkpt lat="45.19934" lon="5.54797">
        <ele>1286.8000488281</ele>
        <time>2016-12-16T12:55:40Z</time>
      </trkpt>
      <trkpt lat="45.19936" lon="5.54795">
        <ele>1287.4000244141</ele>
        <time>2016-12-16T12:55:41Z</time>
      </trkpt>
      <trkpt lat="45.19939" lon="5.54794">
        <ele>1287.8000488281</ele>
        <time>2016-12-16T12:55:42Z</time>
      </trkpt>
      <trkpt lat="45.19948" lon="5.54792">
        <ele>1288.1999511719</ele>
        <time>2016-12-16T12:55:47Z</time>
      </trkpt>
      <trkpt lat="45.1995" lon="5.54794">
        <ele>1288.5999755859</ele>
        <time>2016-12-16T12:55:48Z</time>
      </trkpt>
      <trkpt lat="45.19951" lon="5.54796">
        <ele>1289</ele>
        <time>2016-12-16T12:55:49Z</time>
      </trkpt>
      <trkpt lat="45.19953" lon="5.54799">
        <ele>1289.4000244141</ele>
        <time>2016-12-16T12:55:50Z</time>
      </trkpt>
      <trkpt lat="45.19953" lon="5.54803">
        <ele>1289.8000488281</ele>
        <time>2016-12-16T12:55:51Z</time>
      </trkpt>
      <trkpt lat="45.19955" lon="5.54823">
        <ele>1289.8000488281</ele>
        <time>2016-12-16T12:55:57Z</time>
      </trkpt>
      <trkpt lat="45.19958" lon="5.5484">
        <ele>1289.8000488281</ele>
        <time>2016-12-16T12:56:02Z</time>
      </trkpt>
      <trkpt lat="45.19959" lon="5.54854">
        <ele>1289.8000488281</ele>
        <time>2016-12-16T12:56:06Z</time>
      </trkpt>
      <trkpt lat="45.19967" lon="5.54882">
        <ele>1289.8000488281</ele>
        <time>2016-12-16T12:56:13Z</time>
      </trkpt>
      <trkpt lat="45.19979" lon="5.54898">
        <ele>1289.8000488281</ele>
        <time>2016-12-16T12:56:18Z</time>
      </trkpt>
      <trkpt lat="45.19989" lon="5.54921">
        <ele>1289.8000488281</ele>
        <time>2016-12-16T12:56:23Z</time>
      </trkpt>
      <trkpt lat="45.19989" lon="5.5493">
        <ele>1289.8000488281</ele>
        <time>2016-12-16T12:56:25Z</time>
      </trkpt>
      <trkpt lat="45.19987" lon="5.54934">
        <ele>1289.8000488281</ele>
        <time>2016-12-16T12:56:26Z</time>
      </trkpt>
      <trkpt lat="45.19978" lon="5.54947">
        <ele>1289.8000488281</ele>
        <time>2016-12-16T12:56:29Z</time>
      </trkpt>
      <trkpt lat="45.19974" lon="5.54952">
        <ele>1289.4000244141</ele>
        <time>2016-12-16T12:56:30Z</time>
      </trkpt>
      <trkpt lat="45.1997" lon="5.54959">
        <ele>1289</ele>
        <time>2016-12-16T12:56:31Z</time>
      </trkpt>
      <trkpt lat="45.19966" lon="5.54965">
        <ele>1288.5999755859</ele>
        <time>2016-12-16T12:56:32Z</time>
      </trkpt>
      <trkpt lat="45.19962" lon="5.5497">
        <ele>1288.1999511719</ele>
        <time>2016-12-16T12:56:33Z</time>
      </trkpt>
      <trkpt lat="45.19959" lon="5.54976">
        <ele>1287.5999755859</ele>
        <time>2016-12-16T12:56:34Z</time>
      </trkpt>
      <trkpt lat="45.19955" lon="5.54983">
        <ele>1287.5999755859</ele>
        <time>2016-12-16T12:56:35Z</time>
      </trkpt>
      <trkpt lat="45.19949" lon="5.5499">
        <ele>1287.5999755859</ele>
        <time>2016-12-16T12:56:36Z</time>
      </trkpt>
      <trkpt lat="45.19943" lon="5.54997">
        <ele>1287.1999511719</ele>
        <time>2016-12-16T12:56:37Z</time>
      </trkpt>
      <trkpt lat="45.19937" lon="5.55004">
        <ele>1286.8000488281</ele>
        <time>2016-12-16T12:56:38Z</time>
      </trkpt>
      <trkpt lat="45.19934" lon="5.55009">
        <ele>1286.4000244141</ele>
        <time>2016-12-16T12:56:39Z</time>
      </trkpt>
      <trkpt lat="45.19932" lon="5.55012">
        <ele>1286</ele>
        <time>2016-12-16T12:56:40Z</time>
      </trkpt>
      <trkpt lat="45.19932" lon="5.55014">
        <ele>1285.5999755859</ele>
        <time>2016-12-16T12:56:41Z</time>
      </trkpt>
      <trkpt lat="45.1993" lon="5.55015">
        <ele>1285.5999755859</ele>
        <time>2016-12-16T12:56:42Z</time>
      </trkpt>
      <trkpt lat="45.19929" lon="5.55015">
        <ele>1285.5999755859</ele>
        <time>2016-12-16T12:56:46Z</time>
      </trkpt>
      <trkpt lat="45.19927" lon="5.55017">
        <ele>1285.5999755859</ele>
        <time>2016-12-16T12:56:50Z</time>
      </trkpt>
      <trkpt lat="45.19925" lon="5.55019">
        <ele>1285.5999755859</ele>
        <time>2016-12-16T12:56:51Z</time>
      </trkpt>
      <trkpt lat="45.19922" lon="5.55027">
        <ele>1285.5999755859</ele>
        <time>2016-12-16T12:56:56Z</time>
      </trkpt>
      <trkpt lat="45.19921" lon="5.55032">
        <ele>1285.1999511719</ele>
        <time>2016-12-16T12:56:58Z</time>
      </trkpt>
      <trkpt lat="45.1992" lon="5.55035">
        <ele>1284.8000488281</ele>
        <time>2016-12-16T12:56:59Z</time>
      </trkpt>
      <trkpt lat="45.1992" lon="5.55038">
        <ele>1284.4000244141</ele>
        <time>2016-12-16T12:57:00Z</time>
      </trkpt>
      <trkpt lat="45.1992" lon="5.55042">
        <ele>1283.8000488281</ele>
        <time>2016-12-16T12:57:01Z</time>
      </trkpt>
      <trkpt lat="45.1992" lon="5.55046">
        <ele>1283.4000244141</ele>
        <time>2016-12-16T12:57:02Z</time>
      </trkpt>
      <trkpt lat="45.19922" lon="5.55071">
        <ele>1283</ele>
        <time>2016-12-16T12:57:06Z</time>
      </trkpt>
      <trkpt lat="45.19922" lon="5.55079">
        <ele>1282.5999755859</ele>
        <time>2016-12-16T12:57:07Z</time>
      </trkpt>
      <trkpt lat="45.19921" lon="5.55087">
        <ele>1282.1999511719</ele>
        <time>2016-12-16T12:57:08Z</time>
      </trkpt>
      <trkpt lat="45.19919" lon="5.55096">
        <ele>1281.8000488281</ele>
        <time>2016-12-16T12:57:09Z</time>
      </trkpt>
      <trkpt lat="45.19917" lon="5.55104">
        <ele>1281.1999511719</ele>
        <time>2016-12-16T12:57:10Z</time>
      </trkpt>
      <trkpt lat="45.19913" lon="5.55113">
        <ele>1280.8000488281</ele>
        <time>2016-12-16T12:57:11Z</time>
      </trkpt>
      <trkpt lat="45.1991" lon="5.5512">
        <ele>1280.1999511719</ele>
        <time>2016-12-16T12:57:12Z</time>
      </trkpt>
      <trkpt lat="45.19907" lon="5.55125">
        <ele>1279.1999511719</ele>
        <time>2016-12-16T12:57:13Z</time>
      </trkpt>
      <trkpt lat="45.19904" lon="5.55129">
        <ele>1278.5999755859</ele>
        <time>2016-12-16T12:57:14Z</time>
      </trkpt>
      <trkpt lat="45.19901" lon="5.55133">
        <ele>1278</ele>
        <time>2016-12-16T12:57:15Z</time>
      </trkpt>
      <trkpt lat="45.19899" lon="5.55135">
        <ele>1277.4000244141</ele>
        <time>2016-12-16T12:57:16Z</time>
      </trkpt>
      <trkpt lat="45.19897" lon="5.55138">
        <ele>1276.8000488281</ele>
        <time>2016-12-16T12:57:17Z</time>
      </trkpt>
      <trkpt lat="45.19894" lon="5.5514">
        <ele>1276.8000488281</ele>
        <time>2016-12-16T12:57:18Z</time>
      </trkpt>
      <trkpt lat="45.19892" lon="5.55141">
        <ele>1276.4000244141</ele>
        <time>2016-12-16T12:57:19Z</time>
      </trkpt>
      <trkpt lat="45.19892" lon="5.55141">
        <ele>1275.8000488281</ele>
        <time>2016-12-16T12:57:20Z</time>
      </trkpt>
      <trkpt lat="45.19891" lon="5.55144">
        <ele>1275.4000244141</ele>
        <time>2016-12-16T12:57:21Z</time>
      </trkpt>
      <trkpt lat="45.19891" lon="5.55147">
        <ele>1275</ele>
        <time>2016-12-16T12:57:22Z</time>
      </trkpt>
      <trkpt lat="45.19892" lon="5.55148">
        <ele>1274.5999755859</ele>
        <time>2016-12-16T12:57:23Z</time>
      </trkpt>
      <trkpt lat="45.19896" lon="5.55149">
        <ele>1274.5999755859</ele>
        <time>2016-12-16T12:57:26Z</time>
      </trkpt>
      <trkpt lat="45.19901" lon="5.55154">
        <ele>1274.5999755859</ele>
        <time>2016-12-16T12:57:31Z</time>
      </trkpt>
      <trkpt lat="45.19902" lon="5.55163">
        <ele>1274.5999755859</ele>
        <time>2016-12-16T12:57:36Z</time>
      </trkpt>
      <trkpt lat="45.19904" lon="5.55166">
        <ele>1275.4000244141</ele>
        <time>2016-12-16T12:57:38Z</time>
      </trkpt>
      <trkpt lat="45.19905" lon="5.55166">
        <ele>1276</ele>
        <time>2016-12-16T12:57:39Z</time>
      </trkpt>
      <trkpt lat="45.19906" lon="5.55168">
        <ele>1276.4000244141</ele>
        <time>2016-12-16T12:57:40Z</time>
      </trkpt>
      <trkpt lat="45.19908" lon="5.55169">
        <ele>1276.8000488281</ele>
        <time>2016-12-16T12:57:41Z</time>
      </trkpt>
      <trkpt lat="45.19909" lon="5.55169">
        <ele>1276.8000488281</ele>
        <time>2016-12-16T12:57:42Z</time>
      </trkpt>
      <trkpt lat="45.19912" lon="5.55173">
        <ele>1277.1999511719</ele>
        <time>2016-12-16T12:57:45Z</time>
      </trkpt>
      <trkpt lat="45.19913" lon="5.55174">
        <ele>1277.5999755859</ele>
        <time>2016-12-16T12:57:46Z</time>
      </trkpt>
      <trkpt lat="45.19914" lon="5.55175">
        <ele>1278</ele>
        <time>2016-12-16T12:57:47Z</time>
      </trkpt>
      <trkpt lat="45.19915" lon="5.55176">
        <ele>1278.4000244141</ele>
        <time>2016-12-16T12:57:48Z</time>
      </trkpt>
      <trkpt lat="45.19916" lon="5.55177">
        <ele>1278.8000488281</ele>
        <time>2016-12-16T12:57:49Z</time>
      </trkpt>
      <trkpt lat="45.19923" lon="5.55184">
        <ele>1278.8000488281</ele>
        <time>2016-12-16T12:57:55Z</time>
      </trkpt>
      <trkpt lat="45.19924" lon="5.55185">
        <ele>1279.1999511719</ele>
        <time>2016-12-16T12:57:56Z</time>
      </trkpt>
      <trkpt lat="45.19925" lon="5.55187">
        <ele>1279.8000488281</ele>
        <time>2016-12-16T12:57:57Z</time>
      </trkpt>
      <trkpt lat="45.19926" lon="5.55188">
        <ele>1280.1999511719</ele>
        <time>2016-12-16T12:57:58Z</time>
      </trkpt>
      <trkpt lat="45.19927" lon="5.55189">
        <ele>1280.5999755859</ele>
        <time>2016-12-16T12:57:59Z</time>
      </trkpt>
      <trkpt lat="45.19928" lon="5.55191">
        <ele>1281</ele>
        <time>2016-12-16T12:58:00Z</time>
      </trkpt>
      <trkpt lat="45.19931" lon="5.55195">
        <ele>1281</ele>
        <time>2016-12-16T12:58:03Z</time>
      </trkpt>
      <trkpt lat="45.19939" lon="5.55205">
        <ele>1281</ele>
        <time>2016-12-16T12:58:09Z</time>
      </trkpt>
      <trkpt lat="45.1994" lon="5.55206">
        <ele>1281.4000244141</ele>
        <time>2016-12-16T12:58:10Z</time>
      </trkpt>
      <trkpt lat="45.19941" lon="5.55207">
        <ele>1281.8000488281</ele>
        <time>2016-12-16T12:58:11Z</time>
      </trkpt>
      <trkpt lat="45.19943" lon="5.55209">
        <ele>1282.1999511719</ele>
        <time>2016-12-16T12:58:12Z</time>
      </trkpt>
      <trkpt lat="45.19944" lon="5.55209">
        <ele>1282.5999755859</ele>
        <time>2016-12-16T12:58:13Z</time>
      </trkpt>
      <trkpt lat="45.19946" lon="5.55211">
        <ele>1283.1999511719</ele>
        <time>2016-12-16T12:58:14Z</time>
      </trkpt>
      <trkpt lat="45.19947" lon="5.55212">
        <ele>1283.1999511719</ele>
        <time>2016-12-16T12:58:15Z</time>
      </trkpt>
      <trkpt lat="45.19958" lon="5.55217">
        <ele>1283.1999511719</ele>
        <time>2016-12-16T12:58:22Z</time>
      </trkpt>
      <trkpt lat="45.19959" lon="5.55219">
        <ele>1283.1999511719</ele>
        <time>2016-12-16T12:58:23Z</time>
      </trkpt>
      <trkpt lat="45.19961" lon="5.55223">
        <ele>1283.1999511719</ele>
        <time>2016-12-16T12:58:26Z</time>
      </trkpt>
      <trkpt lat="45.19964" lon="5.55225">
        <ele>1283.1999511719</ele>
        <time>2016-12-16T12:58:30Z</time>
      </trkpt>
      <trkpt lat="45.19969" lon="5.55234">
        <ele>1283.1999511719</ele>
        <time>2016-12-16T12:58:35Z</time>
      </trkpt>
      <trkpt lat="45.19972" lon="5.5525">
        <ele>1283.1999511719</ele>
        <time>2016-12-16T12:58:40Z</time>
      </trkpt>
      <trkpt lat="45.19973" lon="5.55262">
        <ele>1283.1999511719</ele>
        <time>2016-12-16T12:58:45Z</time>
      </trkpt>
      <trkpt lat="45.19975" lon="5.55273">
        <ele>1283.1999511719</ele>
        <time>2016-12-16T12:58:50Z</time>
      </trkpt>
      <trkpt lat="45.19974" lon="5.55274">
        <ele>1282.5999755859</ele>
        <time>2016-12-16T12:58:51Z</time>
      </trkpt>
      <trkpt lat="45.19973" lon="5.55277">
        <ele>1281.8000488281</ele>
        <time>2016-12-16T12:58:52Z</time>
      </trkpt>
      <trkpt lat="45.19972" lon="5.55282">
        <ele>1281.4000244141</ele>
        <time>2016-12-16T12:58:53Z</time>
      </trkpt>
      <trkpt lat="45.19971" lon="5.55288">
        <ele>1280.8000488281</ele>
        <time>2016-12-16T12:58:54Z</time>
      </trkpt>
      <trkpt lat="45.1997" lon="5.55296">
        <ele>1280</ele>
        <time>2016-12-16T12:58:55Z</time>
      </trkpt>
      <trkpt lat="45.19969" lon="5.55303">
        <ele>1279.1999511719</ele>
        <time>2016-12-16T12:58:56Z</time>
      </trkpt>
      <trkpt lat="45.19968" lon="5.5531">
        <ele>1278.5999755859</ele>
        <time>2016-12-16T12:58:57Z</time>
      </trkpt>
      <trkpt lat="45.19969" lon="5.55317">
        <ele>1277.8000488281</ele>
        <time>2016-12-16T12:58:58Z</time>
      </trkpt>
      <trkpt lat="45.19974" lon="5.55326">
        <ele>1277.8000488281</ele>
        <time>2016-12-16T12:59:01Z</time>
      </trkpt>
      <trkpt lat="45.19976" lon="5.55329">
        <ele>1278.1999511719</ele>
        <time>2016-12-16T12:59:02Z</time>
      </trkpt>
      <trkpt lat="45.19977" lon="5.55333">
        <ele>1278.5999755859</ele>
        <time>2016-12-16T12:59:03Z</time>
      </trkpt>
      <trkpt lat="45.19979" lon="5.55337">
        <ele>1279</ele>
        <time>2016-12-16T12:59:04Z</time>
      </trkpt>
      <trkpt lat="45.19981" lon="5.5534">
        <ele>1279.4000244141</ele>
        <time>2016-12-16T12:59:05Z</time>
      </trkpt>
      <trkpt lat="45.19983" lon="5.55343">
        <ele>1279.8000488281</ele>
        <time>2016-12-16T12:59:06Z</time>
      </trkpt>
      <trkpt lat="45.19984" lon="5.55346">
        <ele>1279.8000488281</ele>
        <time>2016-12-16T12:59:07Z</time>
      </trkpt>
      <trkpt lat="45.19991" lon="5.55367">
        <ele>1279.8000488281</ele>
        <time>2016-12-16T12:59:12Z</time>
      </trkpt>
      <trkpt lat="45.19993" lon="5.55385">
        <ele>1278.8000488281</ele>
        <time>2016-12-16T12:59:16Z</time>
      </trkpt>
      <trkpt lat="45.19999" lon="5.55401">
        <ele>1277.8000488281</ele>
        <time>2016-12-16T12:59:17Z</time>
      </trkpt>
      <trkpt lat="45.20004" lon="5.55416">
        <ele>1277</ele>
        <time>2016-12-16T12:59:18Z</time>
      </trkpt>
      <trkpt lat="45.2001" lon="5.55432">
        <ele>1276</ele>
        <time>2016-12-16T12:59:19Z</time>
      </trkpt>
      <trkpt lat="45.20015" lon="5.55444">
        <ele>1275</ele>
        <time>2016-12-16T12:59:20Z</time>
      </trkpt>
      <trkpt lat="45.20019" lon="5.55453">
        <ele>1274</ele>
        <time>2016-12-16T12:59:21Z</time>
      </trkpt>
      <trkpt lat="45.20022" lon="5.55458">
        <ele>1273</ele>
        <time>2016-12-16T12:59:22Z</time>
      </trkpt>
      <trkpt lat="45.20027" lon="5.55461">
        <ele>1272</ele>
        <time>2016-12-16T12:59:23Z</time>
      </trkpt>
      <trkpt lat="45.20031" lon="5.5546">
        <ele>1271</ele>
        <time>2016-12-16T12:59:24Z</time>
      </trkpt>
      <trkpt lat="45.20033" lon="5.5546">
        <ele>1271.4000244141</ele>
        <time>2016-12-16T12:59:25Z</time>
      </trkpt>
      <trkpt lat="45.20037" lon="5.5546">
        <ele>1272</ele>
        <time>2016-12-16T12:59:26Z</time>
      </trkpt>
      <trkpt lat="45.20041" lon="5.5546">
        <ele>1272.4000244141</ele>
        <time>2016-12-16T12:59:27Z</time>
      </trkpt>
      <trkpt lat="45.20043" lon="5.55459">
        <ele>1272.8000488281</ele>
        <time>2016-12-16T12:59:28Z</time>
      </trkpt>
      <trkpt lat="45.20046" lon="5.55458">
        <ele>1273.4000244141</ele>
        <time>2016-12-16T12:59:29Z</time>
      </trkpt>
      <trkpt lat="45.20048" lon="5.55457">
        <ele>1273.8000488281</ele>
        <time>2016-12-16T12:59:30Z</time>
      </trkpt>
      <trkpt lat="45.20051" lon="5.55458">
        <ele>1274.1999511719</ele>
        <time>2016-12-16T12:59:31Z</time>
      </trkpt>
      <trkpt lat="45.20053" lon="5.55458">
        <ele>1274.5999755859</ele>
        <time>2016-12-16T12:59:32Z</time>
      </trkpt>
      <trkpt lat="45.20055" lon="5.55459">
        <ele>1275</ele>
        <time>2016-12-16T12:59:33Z</time>
      </trkpt>
      <trkpt lat="45.20058" lon="5.55461">
        <ele>1275.4000244141</ele>
        <time>2016-12-16T12:59:34Z</time>
      </trkpt>
      <trkpt lat="45.20066" lon="5.55463">
        <ele>1275.4000244141</ele>
        <time>2016-12-16T12:59:37Z</time>
      </trkpt>
      <trkpt lat="45.20077" lon="5.55469">
        <ele>1275.8000488281</ele>
        <time>2016-12-16T12:59:42Z</time>
      </trkpt>
      <trkpt lat="45.2008" lon="5.55468">
        <ele>1276.1999511719</ele>
        <time>2016-12-16T12:59:43Z</time>
      </trkpt>
      <trkpt lat="45.20083" lon="5.55468">
        <ele>1276.5999755859</ele>
        <time>2016-12-16T12:59:44Z</time>
      </trkpt>
      <trkpt lat="45.20086" lon="5.55467">
        <ele>1277</ele>
        <time>2016-12-16T12:59:45Z</time>
      </trkpt>
      <trkpt lat="45.20088" lon="5.55467">
        <ele>1277.4000244141</ele>
        <time>2016-12-16T12:59:46Z</time>
      </trkpt>
      <trkpt lat="45.20094" lon="5.55468">
        <ele>1277.4000244141</ele>
        <time>2016-12-16T12:59:48Z</time>
      </trkpt>
      <trkpt lat="45.20114" lon="5.55475">
        <ele>1277.4000244141</ele>
        <time>2016-12-16T12:59:55Z</time>
      </trkpt>
      <trkpt lat="45.2013" lon="5.55471">
        <ele>1277.4000244141</ele>
        <time>2016-12-16T12:59:59Z</time>
      </trkpt>
      <trkpt lat="45.20138" lon="5.55469">
        <ele>1277</ele>
        <time>2016-12-16T13:00:00Z</time>
      </trkpt>
      <trkpt lat="45.20145" lon="5.55468">
        <ele>1276.5999755859</ele>
        <time>2016-12-16T13:00:01Z</time>
      </trkpt>
      <trkpt lat="45.20152" lon="5.55467">
        <ele>1276</ele>
        <time>2016-12-16T13:00:02Z</time>
      </trkpt>
      <trkpt lat="45.20158" lon="5.55465">
        <ele>1275.5999755859</ele>
        <time>2016-12-16T13:00:03Z</time>
      </trkpt>
      <trkpt lat="45.20162" lon="5.55465">
        <ele>1275.1999511719</ele>
        <time>2016-12-16T13:00:04Z</time>
      </trkpt>
      <trkpt lat="45.20165" lon="5.55464">
        <ele>1275.1999511719</ele>
        <time>2016-12-16T13:00:05Z</time>
      </trkpt>
      <trkpt lat="45.20177" lon="5.55465">
        <ele>1275.5999755859</ele>
        <time>2016-12-16T13:00:09Z</time>
      </trkpt>
      <trkpt lat="45.20179" lon="5.55464">
        <ele>1276</ele>
        <time>2016-12-16T13:00:10Z</time>
      </trkpt>
      <trkpt lat="45.20181" lon="5.55464">
        <ele>1276.5999755859</ele>
        <time>2016-12-16T13:00:11Z</time>
      </trkpt>
      <trkpt lat="45.20184" lon="5.55464">
        <ele>1277</ele>
        <time>2016-12-16T13:00:12Z</time>
      </trkpt>
      <trkpt lat="45.20187" lon="5.55466">
        <ele>1277.4000244141</ele>
        <time>2016-12-16T13:00:13Z</time>
      </trkpt>
      <trkpt lat="45.20192" lon="5.5547">
        <ele>1277.4000244141</ele>
        <time>2016-12-16T13:00:15Z</time>
      </trkpt>
      <trkpt lat="45.20201" lon="5.55477">
        <ele>1277.8000488281</ele>
        <time>2016-12-16T13:00:19Z</time>
      </trkpt>
      <trkpt lat="45.20203" lon="5.55479">
        <ele>1278.1999511719</ele>
        <time>2016-12-16T13:00:20Z</time>
      </trkpt>
      <trkpt lat="45.20204" lon="5.5548">
        <ele>1278.5999755859</ele>
        <time>2016-12-16T13:00:21Z</time>
      </trkpt>
      <trkpt lat="45.20207" lon="5.55482">
        <ele>1279</ele>
        <time>2016-12-16T13:00:22Z</time>
      </trkpt>
      <trkpt lat="45.20209" lon="5.55483">
        <ele>1279.4000244141</ele>
        <time>2016-12-16T13:00:23Z</time>
      </trkpt>
      <trkpt lat="45.20215" lon="5.55488">
        <ele>1280</ele>
        <time>2016-12-16T13:00:26Z</time>
      </trkpt>
      <trkpt lat="45.20216" lon="5.5549">
        <ele>1280.4000244141</ele>
        <time>2016-12-16T13:00:27Z</time>
      </trkpt>
      <trkpt lat="45.20218" lon="5.55492">
        <ele>1280.8000488281</ele>
        <time>2016-12-16T13:00:28Z</time>
      </trkpt>
      <trkpt lat="45.2022" lon="5.55494">
        <ele>1281.1999511719</ele>
        <time>2016-12-16T13:00:29Z</time>
      </trkpt>
      <trkpt lat="45.20222" lon="5.55495">
        <ele>1281.5999755859</ele>
        <time>2016-12-16T13:00:30Z</time>
      </trkpt>
      <trkpt lat="45.20231" lon="5.55502">
        <ele>1281.5999755859</ele>
        <time>2016-12-16T13:00:34Z</time>
      </trkpt>
      <trkpt lat="45.20238" lon="5.55509">
        <ele>1282</ele>
        <time>2016-12-16T13:00:38Z</time>
      </trkpt>
      <trkpt lat="45.20241" lon="5.55511">
        <ele>1282.4000244141</ele>
        <time>2016-12-16T13:00:39Z</time>
      </trkpt>
      <trkpt lat="45.20242" lon="5.55512">
        <ele>1282.8000488281</ele>
        <time>2016-12-16T13:00:40Z</time>
      </trkpt>
      <trkpt lat="45.20244" lon="5.55512">
        <ele>1283.1999511719</ele>
        <time>2016-12-16T13:00:41Z</time>
      </trkpt>
      <trkpt lat="45.20246" lon="5.55512">
        <ele>1283.5999755859</ele>
        <time>2016-12-16T13:00:42Z</time>
      </trkpt>
      <trkpt lat="45.20251" lon="5.55513">
        <ele>1283.5999755859</ele>
        <time>2016-12-16T13:00:45Z</time>
      </trkpt>
      <trkpt lat="45.20267" lon="5.55518">
        <ele>1283.5999755859</ele>
        <time>2016-12-16T13:00:50Z</time>
      </trkpt>
      <trkpt lat="45.20289" lon="5.55523">
        <ele>1283.5999755859</ele>
        <time>2016-12-16T13:00:55Z</time>
      </trkpt>
      <trkpt lat="45.20309" lon="5.55524">
        <ele>1283.5999755859</ele>
        <time>2016-12-16T13:01:01Z</time>
      </trkpt>
      <trkpt lat="45.20329" lon="5.55534">
        <ele>1283.5999755859</ele>
        <time>2016-12-16T13:01:07Z</time>
      </trkpt>
      <trkpt lat="45.20348" lon="5.55536">
        <ele>1283.5999755859</ele>
        <time>2016-12-16T13:01:11Z</time>
      </trkpt>
      <trkpt lat="45.20359" lon="5.55533">
        <ele>1283.5999755859</ele>
        <time>2016-12-16T13:01:16Z</time>
      </trkpt>
      <trkpt lat="45.20367" lon="5.55538">
        <ele>1284.1999511719</ele>
        <time>2016-12-16T13:01:21Z</time>
      </trkpt>
      <trkpt lat="45.20368" lon="5.55538">
        <ele>1284.5999755859</ele>
        <time>2016-12-16T13:01:22Z</time>
      </trkpt>
      <trkpt lat="45.2037" lon="5.55538">
        <ele>1285</ele>
        <time>2016-12-16T13:01:23Z</time>
      </trkpt>
      <trkpt lat="45.20371" lon="5.55539">
        <ele>1285.5999755859</ele>
        <time>2016-12-16T13:01:24Z</time>
      </trkpt>
      <trkpt lat="45.20372" lon="5.55539">
        <ele>1286</ele>
        <time>2016-12-16T13:01:25Z</time>
      </trkpt>
      <trkpt lat="45.20375" lon="5.5554">
        <ele>1286.4000244141</ele>
        <time>2016-12-16T13:01:27Z</time>
      </trkpt>
      <trkpt lat="45.20377" lon="5.5554">
        <ele>1286.8000488281</ele>
        <time>2016-12-16T13:01:28Z</time>
      </trkpt>
      <trkpt lat="45.20379" lon="5.5554">
        <ele>1287.1999511719</ele>
        <time>2016-12-16T13:01:29Z</time>
      </trkpt>
      <trkpt lat="45.2038" lon="5.55541">
        <ele>1287.5999755859</ele>
        <time>2016-12-16T13:01:30Z</time>
      </trkpt>
      <trkpt lat="45.20382" lon="5.55542">
        <ele>1288.1999511719</ele>
        <time>2016-12-16T13:01:31Z</time>
      </trkpt>
      <trkpt lat="45.20383" lon="5.55544">
        <ele>1288.5999755859</ele>
        <time>2016-12-16T13:01:32Z</time>
      </trkpt>
      <trkpt lat="45.20385" lon="5.55546">
        <ele>1289</ele>
        <time>2016-12-16T13:01:33Z</time>
      </trkpt>
      <trkpt lat="45.20387" lon="5.55547">
        <ele>1289.4000244141</ele>
        <time>2016-12-16T13:01:34Z</time>
      </trkpt>
      <trkpt lat="45.20388" lon="5.55549">
        <ele>1289.8000488281</ele>
        <time>2016-12-16T13:01:35Z</time>
      </trkpt>
      <trkpt lat="45.20389" lon="5.5555">
        <ele>1290.1999511719</ele>
        <time>2016-12-16T13:01:36Z</time>
      </trkpt>
      <trkpt lat="45.2039" lon="5.55551">
        <ele>1290.1999511719</ele>
        <time>2016-12-16T13:01:37Z</time>
      </trkpt>
      <trkpt lat="45.20391" lon="5.55551">
        <ele>1290.5999755859</ele>
        <time>2016-12-16T13:01:38Z</time>
      </trkpt>
      <trkpt lat="45.20393" lon="5.55551">
        <ele>1291</ele>
        <time>2016-12-16T13:01:39Z</time>
      </trkpt>
      <trkpt lat="45.20394" lon="5.55551">
        <ele>1291.5999755859</ele>
        <time>2016-12-16T13:01:40Z</time>
      </trkpt>
      <trkpt lat="45.20396" lon="5.55551">
        <ele>1292</ele>
        <time>2016-12-16T13:01:41Z</time>
      </trkpt>
      <trkpt lat="45.20397" lon="5.5555">
        <ele>1292.4000244141</ele>
        <time>2016-12-16T13:01:42Z</time>
      </trkpt>
      <trkpt lat="45.20399" lon="5.55551">
        <ele>1292.4000244141</ele>
        <time>2016-12-16T13:01:44Z</time>
      </trkpt>
      <trkpt lat="45.20402" lon="5.55552">
        <ele>1292.8000488281</ele>
        <time>2016-12-16T13:01:46Z</time>
      </trkpt>
      <trkpt lat="45.20402" lon="5.55551">
        <ele>1293.1999511719</ele>
        <time>2016-12-16T13:01:47Z</time>
      </trkpt>
      <trkpt lat="45.20403" lon="5.55551">
        <ele>1293.8000488281</ele>
        <time>2016-12-16T13:01:48Z</time>
      </trkpt>
      <trkpt lat="45.20404" lon="5.55551">
        <ele>1294.1999511719</ele>
        <time>2016-12-16T13:01:49Z</time>
      </trkpt>
      <trkpt lat="45.20407" lon="5.55551">
        <ele>1294.5999755859</ele>
        <time>2016-12-16T13:01:50Z</time>
      </trkpt>
      <trkpt lat="45.20414" lon="5.55551">
        <ele>1294.5999755859</ele>
        <time>2016-12-16T13:01:54Z</time>
      </trkpt>
      <trkpt lat="45.20421" lon="5.55559">
        <ele>1294.5999755859</ele>
        <time>2016-12-16T13:01:59Z</time>
      </trkpt>
      <trkpt lat="45.20427" lon="5.55574">
        <ele>1294.5999755859</ele>
        <time>2016-12-16T13:02:06Z</time>
      </trkpt>
      <trkpt lat="45.20432" lon="5.55589">
        <ele>1294.5999755859</ele>
        <time>2016-12-16T13:02:12Z</time>
      </trkpt>
      <trkpt lat="45.20435" lon="5.55608">
        <ele>1294.5999755859</ele>
        <time>2016-12-16T13:02:16Z</time>
      </trkpt>
      <trkpt lat="45.20437" lon="5.55632">
        <ele>1294</ele>
        <time>2016-12-16T13:02:20Z</time>
      </trkpt>
      <trkpt lat="45.20437" lon="5.5564">
        <ele>1293.5999755859</ele>
        <time>2016-12-16T13:02:21Z</time>
      </trkpt>
      <trkpt lat="45.20437" lon="5.55647">
        <ele>1293</ele>
        <time>2016-12-16T13:02:22Z</time>
      </trkpt>
      <trkpt lat="45.20438" lon="5.55658">
        <ele>1292.4000244141</ele>
        <time>2016-12-16T13:02:23Z</time>
      </trkpt>
      <trkpt lat="45.2044" lon="5.55667">
        <ele>1291.8000488281</ele>
        <time>2016-12-16T13:02:24Z</time>
      </trkpt>
      <trkpt lat="45.20443" lon="5.55675">
        <ele>1291.1999511719</ele>
        <time>2016-12-16T13:02:25Z</time>
      </trkpt>
      <trkpt lat="45.20446" lon="5.55683">
        <ele>1290.5999755859</ele>
        <time>2016-12-16T13:02:26Z</time>
      </trkpt>
      <trkpt lat="45.20449" lon="5.55688">
        <ele>1290</ele>
        <time>2016-12-16T13:02:27Z</time>
      </trkpt>
      <trkpt lat="45.20452" lon="5.55694">
        <ele>1289.5999755859</ele>
        <time>2016-12-16T13:02:28Z</time>
      </trkpt>
      <trkpt lat="45.20456" lon="5.55699">
        <ele>1289.1999511719</ele>
        <time>2016-12-16T13:02:29Z</time>
      </trkpt>
      <trkpt lat="45.2046" lon="5.55706">
        <ele>1288.8000488281</ele>
        <time>2016-12-16T13:02:30Z</time>
      </trkpt>
      <trkpt lat="45.20463" lon="5.55713">
        <ele>1288.4000244141</ele>
        <time>2016-12-16T13:02:31Z</time>
      </trkpt>
      <trkpt lat="45.20467" lon="5.55722">
        <ele>1287.8000488281</ele>
        <time>2016-12-16T13:02:32Z</time>
      </trkpt>
      <trkpt lat="45.20471" lon="5.55731">
        <ele>1287.1999511719</ele>
        <time>2016-12-16T13:02:33Z</time>
      </trkpt>
      <trkpt lat="45.20475" lon="5.55737">
        <ele>1286.1999511719</ele>
        <time>2016-12-16T13:02:34Z</time>
      </trkpt>
      <trkpt lat="45.20478" lon="5.55742">
        <ele>1285.5999755859</ele>
        <time>2016-12-16T13:02:35Z</time>
      </trkpt>
      <trkpt lat="45.20482" lon="5.55747">
        <ele>1285.1999511719</ele>
        <time>2016-12-16T13:02:36Z</time>
      </trkpt>
      <trkpt lat="45.20486" lon="5.55751">
        <ele>1284.8000488281</ele>
        <time>2016-12-16T13:02:37Z</time>
      </trkpt>
      <trkpt lat="45.2049" lon="5.55757">
        <ele>1284.1999511719</ele>
        <time>2016-12-16T13:02:38Z</time>
      </trkpt>
      <trkpt lat="45.20496" lon="5.55761">
        <ele>1283.8000488281</ele>
        <time>2016-12-16T13:02:39Z</time>
      </trkpt>
      <trkpt lat="45.20502" lon="5.55765">
        <ele>1283</ele>
        <time>2016-12-16T13:02:40Z</time>
      </trkpt>
      <trkpt lat="45.20507" lon="5.55766">
        <ele>1282.4000244141</ele>
        <time>2016-12-16T13:02:41Z</time>
      </trkpt>
      <trkpt lat="45.20512" lon="5.55767">
        <ele>1281.5999755859</ele>
        <time>2016-12-16T13:02:42Z</time>
      </trkpt>
      <trkpt lat="45.20517" lon="5.55766">
        <ele>1281</ele>
        <time>2016-12-16T13:02:43Z</time>
      </trkpt>
      <trkpt lat="45.20522" lon="5.55768">
        <ele>1280.1999511719</ele>
        <time>2016-12-16T13:02:44Z</time>
      </trkpt>
      <trkpt lat="45.20528" lon="5.5577">
        <ele>1279.4000244141</ele>
        <time>2016-12-16T13:02:45Z</time>
      </trkpt>
      <trkpt lat="45.20534" lon="5.5577">
        <ele>1278.5999755859</ele>
        <time>2016-12-16T13:02:46Z</time>
      </trkpt>
      <trkpt lat="45.2054" lon="5.5577">
        <ele>1277.8000488281</ele>
        <time>2016-12-16T13:02:47Z</time>
      </trkpt>
      <trkpt lat="45.20546" lon="5.55769">
        <ele>1277</ele>
        <time>2016-12-16T13:02:48Z</time>
      </trkpt>
      <trkpt lat="45.20552" lon="5.55775">
        <ele>1276.1999511719</ele>
        <time>2016-12-16T13:02:49Z</time>
      </trkpt>
      <trkpt lat="45.20558" lon="5.55776">
        <ele>1275.4000244141</ele>
        <time>2016-12-16T13:02:50Z</time>
      </trkpt>
      <trkpt lat="45.20563" lon="5.55777">
        <ele>1274.5999755859</ele>
        <time>2016-12-16T13:02:51Z</time>
      </trkpt>
      <trkpt lat="45.20568" lon="5.55777">
        <ele>1273.8000488281</ele>
        <time>2016-12-16T13:02:52Z</time>
      </trkpt>
      <trkpt lat="45.20572" lon="5.55778">
        <ele>1272.8000488281</ele>
        <time>2016-12-16T13:02:53Z</time>
      </trkpt>
      <trkpt lat="45.20577" lon="5.55778">
        <ele>1272</ele>
        <time>2016-12-16T13:02:54Z</time>
      </trkpt>
      <trkpt lat="45.20581" lon="5.55777">
        <ele>1271.4000244141</ele>
        <time>2016-12-16T13:02:55Z</time>
      </trkpt>
      <trkpt lat="45.20584" lon="5.55776">
        <ele>1270.5999755859</ele>
        <time>2016-12-16T13:02:56Z</time>
      </trkpt>
      <trkpt lat="45.20587" lon="5.55776">
        <ele>1270</ele>
        <time>2016-12-16T13:02:57Z</time>
      </trkpt>
      <trkpt lat="45.20589" lon="5.55777">
        <ele>1269.4000244141</ele>
        <time>2016-12-16T13:02:58Z</time>
      </trkpt>
      <trkpt lat="45.20591" lon="5.55777">
        <ele>1268.8000488281</ele>
        <time>2016-12-16T13:02:59Z</time>
      </trkpt>
      <trkpt lat="45.20611" lon="5.55773">
        <ele>1268.8000488281</ele>
        <time>2016-12-16T13:03:04Z</time>
      </trkpt>
      <trkpt lat="45.20626" lon="5.55774">
        <ele>1268.8000488281</ele>
        <time>2016-12-16T13:03:09Z</time>
      </trkpt>
      <trkpt lat="45.20638" lon="5.55775">
        <ele>1268.8000488281</ele>
        <time>2016-12-16T13:03:14Z</time>
      </trkpt>
      <trkpt lat="45.2065" lon="5.55785">
        <ele>1268.8000488281</ele>
        <time>2016-12-16T13:03:17Z</time>
      </trkpt>
      <trkpt lat="45.20665" lon="5.55788">
        <ele>1268.8000488281</ele>
        <time>2016-12-16T13:03:21Z</time>
      </trkpt>
      <trkpt lat="45.20677" lon="5.55792">
        <ele>1268.8000488281</ele>
        <time>2016-12-16T13:03:26Z</time>
      </trkpt>
      <trkpt lat="45.2068" lon="5.55791">
        <ele>1268.8000488281</ele>
        <time>2016-12-16T13:03:28Z</time>
      </trkpt>
      <trkpt lat="45.20686" lon="5.55786">
        <ele>1268.8000488281</ele>
        <time>2016-12-16T13:03:30Z</time>
      </trkpt>
      <trkpt lat="45.20694" lon="5.55778">
        <ele>1268.8000488281</ele>
        <time>2016-12-16T13:03:32Z</time>
      </trkpt>
      <trkpt lat="45.20698" lon="5.55779">
        <ele>1268.8000488281</ele>
        <time>2016-12-16T13:03:33Z</time>
      </trkpt>
      <trkpt lat="45.20702" lon="5.55779">
        <ele>1268.8000488281</ele>
        <time>2016-12-16T13:03:35Z</time>
      </trkpt>
      <trkpt lat="45.20713" lon="5.55784">
        <ele>1268.8000488281</ele>
        <time>2016-12-16T13:03:39Z</time>
      </trkpt>
      <trkpt lat="45.20724" lon="5.55786">
        <ele>1268.8000488281</ele>
        <time>2016-12-16T13:03:45Z</time>
      </trkpt>
      <trkpt lat="45.20727" lon="5.55787">
        <ele>1268.8000488281</ele>
        <time>2016-12-16T13:03:46Z</time>
      </trkpt>
      <trkpt lat="45.20731" lon="5.5579">
        <ele>1268.8000488281</ele>
        <time>2016-12-16T13:03:49Z</time>
      </trkpt>
      <trkpt lat="45.20746" lon="5.55802">
        <ele>1268.8000488281</ele>
        <time>2016-12-16T13:03:53Z</time>
      </trkpt>
      <trkpt lat="45.20752" lon="5.55803">
        <ele>1268.8000488281</ele>
        <time>2016-12-16T13:03:54Z</time>
      </trkpt>
      <trkpt lat="45.20759" lon="5.55802">
        <ele>1268.8000488281</ele>
        <time>2016-12-16T13:03:56Z</time>
      </trkpt>
      <trkpt lat="45.20786" lon="5.55792">
        <ele>1268.8000488281</ele>
        <time>2016-12-16T13:04:02Z</time>
      </trkpt>
      <trkpt lat="45.20803" lon="5.558">
        <ele>1268.8000488281</ele>
        <time>2016-12-16T13:04:08Z</time>
      </trkpt>
      <trkpt lat="45.20805" lon="5.55801">
        <ele>1268.8000488281</ele>
        <time>2016-12-16T13:04:09Z</time>
      </trkpt>
      <trkpt lat="45.20814" lon="5.5581">
        <ele>1268.8000488281</ele>
        <time>2016-12-16T13:04:13Z</time>
      </trkpt>
      <trkpt lat="45.20818" lon="5.55814">
        <ele>1269.1999511719</ele>
        <time>2016-12-16T13:04:15Z</time>
      </trkpt>
      <trkpt lat="45.2082" lon="5.55818">
        <ele>1269.5999755859</ele>
        <time>2016-12-16T13:04:16Z</time>
      </trkpt>
      <trkpt lat="45.20822" lon="5.5582">
        <ele>1270.1999511719</ele>
        <time>2016-12-16T13:04:17Z</time>
      </trkpt>
      <trkpt lat="45.20823" lon="5.55822">
        <ele>1270.5999755859</ele>
        <time>2016-12-16T13:04:18Z</time>
      </trkpt>
      <trkpt lat="45.20824" lon="5.55823">
        <ele>1271</ele>
        <time>2016-12-16T13:04:19Z</time>
      </trkpt>
      <trkpt lat="45.20837" lon="5.55832">
        <ele>1271</ele>
        <time>2016-12-16T13:04:25Z</time>
      </trkpt>
      <trkpt lat="45.20843" lon="5.55839">
        <ele>1271</ele>
        <time>2016-12-16T13:04:30Z</time>
      </trkpt>
      <trkpt lat="45.20845" lon="5.55845">
        <ele>1271</ele>
        <time>2016-12-16T13:04:32Z</time>
      </trkpt>
      <trkpt lat="45.20848" lon="5.55852">
        <ele>1271</ele>
        <time>2016-12-16T13:04:35Z</time>
      </trkpt>
      <trkpt lat="45.20847" lon="5.55857">
        <ele>1271</ele>
        <time>2016-12-16T13:04:38Z</time>
      </trkpt>
      <trkpt lat="45.20848" lon="5.55857">
        <ele>1271</ele>
        <time>2016-12-16T13:04:40Z</time>
      </trkpt>
      <trkpt lat="45.20852" lon="5.55859">
        <ele>1271</ele>
        <time>2016-12-16T13:04:44Z</time>
      </trkpt>
      <trkpt lat="45.20854" lon="5.55857">
        <ele>1271</ele>
        <time>2016-12-16T13:04:46Z</time>
      </trkpt>
      <trkpt lat="45.20856" lon="5.55858">
        <ele>1271.4000244141</ele>
        <time>2016-12-16T13:04:47Z</time>
      </trkpt>
      <trkpt lat="45.20857" lon="5.55859">
        <ele>1271.8000488281</ele>
        <time>2016-12-16T13:04:48Z</time>
      </trkpt>
      <trkpt lat="45.20858" lon="5.55859">
        <ele>1272.1999511719</ele>
        <time>2016-12-16T13:04:49Z</time>
      </trkpt>
      <trkpt lat="45.20859" lon="5.55859">
        <ele>1272.5999755859</ele>
        <time>2016-12-16T13:04:50Z</time>
      </trkpt>
      <trkpt lat="45.2086" lon="5.5586">
        <ele>1273</ele>
        <time>2016-12-16T13:04:51Z</time>
      </trkpt>
      <trkpt lat="45.20864" lon="5.55861">
        <ele>1273</ele>
        <time>2016-12-16T13:04:54Z</time>
      </trkpt>
      <trkpt lat="45.20872" lon="5.55862">
        <ele>1273</ele>
        <time>2016-12-16T13:05:00Z</time>
      </trkpt>
      <trkpt lat="45.20885" lon="5.55863">
        <ele>1273</ele>
        <time>2016-12-16T13:05:06Z</time>
      </trkpt>
      <trkpt lat="45.20902" lon="5.55865">
        <ele>1273</ele>
        <time>2016-12-16T13:05:13Z</time>
      </trkpt>
      <trkpt lat="45.20905" lon="5.55866">
        <ele>1273.4000244141</ele>
        <time>2016-12-16T13:05:14Z</time>
      </trkpt>
      <trkpt lat="45.20908" lon="5.55866">
        <ele>1273.8000488281</ele>
        <time>2016-12-16T13:05:15Z</time>
      </trkpt>
      <trkpt lat="45.20911" lon="5.55866">
        <ele>1274.1999511719</ele>
        <time>2016-12-16T13:05:16Z</time>
      </trkpt>
      <trkpt lat="45.20914" lon="5.55866">
        <ele>1274.5999755859</ele>
        <time>2016-12-16T13:05:17Z</time>
      </trkpt>
      <trkpt lat="45.20916" lon="5.55867">
        <ele>1275</ele>
        <time>2016-12-16T13:05:18Z</time>
      </trkpt>
      <trkpt lat="45.20918" lon="5.55869">
        <ele>1275</ele>
        <time>2016-12-16T13:05:19Z</time>
      </trkpt>
      <trkpt lat="45.20936" lon="5.55883">
        <ele>1275</ele>
        <time>2016-12-16T13:05:27Z</time>
      </trkpt>
      <trkpt lat="45.20941" lon="5.55884">
        <ele>1275.4000244141</ele>
        <time>2016-12-16T13:05:29Z</time>
      </trkpt>
      <trkpt lat="45.20944" lon="5.55885">
        <ele>1276</ele>
        <time>2016-12-16T13:05:30Z</time>
      </trkpt>
      <trkpt lat="45.20947" lon="5.55887">
        <ele>1276.4000244141</ele>
        <time>2016-12-16T13:05:31Z</time>
      </trkpt>
      <trkpt lat="45.20949" lon="5.55888">
        <ele>1276.8000488281</ele>
        <time>2016-12-16T13:05:32Z</time>
      </trkpt>
      <trkpt lat="45.20952" lon="5.55889">
        <ele>1277.1999511719</ele>
        <time>2016-12-16T13:05:33Z</time>
      </trkpt>
      <trkpt lat="45.2097" lon="5.55894">
        <ele>1277.1999511719</ele>
        <time>2016-12-16T13:05:40Z</time>
      </trkpt>
      <trkpt lat="45.20987" lon="5.55892">
        <ele>1277.5999755859</ele>
        <time>2016-12-16T13:05:46Z</time>
      </trkpt>
      <trkpt lat="45.2099" lon="5.55891">
        <ele>1278</ele>
        <time>2016-12-16T13:05:47Z</time>
      </trkpt>
      <trkpt lat="45.20993" lon="5.5589">
        <ele>1278.4000244141</ele>
        <time>2016-12-16T13:05:48Z</time>
      </trkpt>
      <trkpt lat="45.20995" lon="5.55889">
        <ele>1278.8000488281</ele>
        <time>2016-12-16T13:05:49Z</time>
      </trkpt>
      <trkpt lat="45.20998" lon="5.55889">
        <ele>1279.1999511719</ele>
        <time>2016-12-16T13:05:50Z</time>
      </trkpt>
      <trkpt lat="45.21002" lon="5.5589">
        <ele>1279.1999511719</ele>
        <time>2016-12-16T13:05:52Z</time>
      </trkpt>
      <trkpt lat="45.21016" lon="5.55891">
        <ele>1279.1999511719</ele>
        <time>2016-12-16T13:05:58Z</time>
      </trkpt>
      <trkpt lat="45.21026" lon="5.55895">
        <ele>1279.5999755859</ele>
        <time>2016-12-16T13:06:02Z</time>
      </trkpt>
      <trkpt lat="45.21029" lon="5.55894">
        <ele>1280.1999511719</ele>
        <time>2016-12-16T13:06:03Z</time>
      </trkpt>
      <trkpt lat="45.21031" lon="5.55894">
        <ele>1280.5999755859</ele>
        <time>2016-12-16T13:06:04Z</time>
      </trkpt>
      <trkpt lat="45.21034" lon="5.55894">
        <ele>1281</ele>
        <time>2016-12-16T13:06:05Z</time>
      </trkpt>
      <trkpt lat="45.21037" lon="5.55894">
        <ele>1281.4000244141</ele>
        <time>2016-12-16T13:06:06Z</time>
      </trkpt>
      <trkpt lat="45.21045" lon="5.55896">
        <ele>1281.4000244141</ele>
        <time>2016-12-16T13:06:09Z</time>
      </trkpt>
      <trkpt lat="45.2106" lon="5.55901">
        <ele>1281.4000244141</ele>
        <time>2016-12-16T13:06:14Z</time>
      </trkpt>
      <trkpt lat="45.2108" lon="5.55904">
        <ele>1281.4000244141</ele>
        <time>2016-12-16T13:06:20Z</time>
      </trkpt>
      <trkpt lat="45.21083" lon="5.55905">
        <ele>1281.8000488281</ele>
        <time>2016-12-16T13:06:21Z</time>
      </trkpt>
      <trkpt lat="45.21087" lon="5.55905">
        <ele>1282.1999511719</ele>
        <time>2016-12-16T13:06:22Z</time>
      </trkpt>
      <trkpt lat="45.2109" lon="5.55906">
        <ele>1282.5999755859</ele>
        <time>2016-12-16T13:06:23Z</time>
      </trkpt>
      <trkpt lat="45.21093" lon="5.55907">
        <ele>1283</ele>
        <time>2016-12-16T13:06:24Z</time>
      </trkpt>
      <trkpt lat="45.21096" lon="5.55908">
        <ele>1283.5999755859</ele>
        <time>2016-12-16T13:06:25Z</time>
      </trkpt>
      <trkpt lat="45.21102" lon="5.5591">
        <ele>1283.5999755859</ele>
        <time>2016-12-16T13:06:27Z</time>
      </trkpt>
      <trkpt lat="45.21125" lon="5.55918">
        <ele>1283.5999755859</ele>
        <time>2016-12-16T13:06:34Z</time>
      </trkpt>
      <trkpt lat="45.21145" lon="5.55927">
        <ele>1283.5999755859</ele>
        <time>2016-12-16T13:06:41Z</time>
      </trkpt>
      <trkpt lat="45.21157" lon="5.55935">
        <ele>1284</ele>
        <time>2016-12-16T13:06:45Z</time>
      </trkpt>
      <trkpt lat="45.2116" lon="5.55937">
        <ele>1284.4000244141</ele>
        <time>2016-12-16T13:06:46Z</time>
      </trkpt>
      <trkpt lat="45.21163" lon="5.55938">
        <ele>1284.8000488281</ele>
        <time>2016-12-16T13:06:47Z</time>
      </trkpt>
      <trkpt lat="45.21166" lon="5.5594">
        <ele>1285.1999511719</ele>
        <time>2016-12-16T13:06:48Z</time>
      </trkpt>
      <trkpt lat="45.21169" lon="5.5594">
        <ele>1285.8000488281</ele>
        <time>2016-12-16T13:06:49Z</time>
      </trkpt>
      <trkpt lat="45.21173" lon="5.55941">
        <ele>1285.8000488281</ele>
        <time>2016-12-16T13:06:50Z</time>
      </trkpt>
      <trkpt lat="45.21193" lon="5.5595">
        <ele>1285.8000488281</ele>
        <time>2016-12-16T13:06:56Z</time>
      </trkpt>
      <trkpt lat="45.21215" lon="5.55961">
        <ele>1285.8000488281</ele>
        <time>2016-12-16T13:07:03Z</time>
      </trkpt>
      <trkpt lat="45.21232" lon="5.5597">
        <ele>1286.1999511719</ele>
        <time>2016-12-16T13:07:09Z</time>
      </trkpt>
      <trkpt lat="45.21235" lon="5.55972">
        <ele>1286.5999755859</ele>
        <time>2016-12-16T13:07:10Z</time>
      </trkpt>
      <trkpt lat="45.21238" lon="5.55973">
        <ele>1287</ele>
        <time>2016-12-16T13:07:11Z</time>
      </trkpt>
      <trkpt lat="45.21241" lon="5.55975">
        <ele>1287.4000244141</ele>
        <time>2016-12-16T13:07:12Z</time>
      </trkpt>
      <trkpt lat="45.21244" lon="5.55976">
        <ele>1287.8000488281</ele>
        <time>2016-12-16T13:07:13Z</time>
      </trkpt>
      <trkpt lat="45.21259" lon="5.55982">
        <ele>1287.8000488281</ele>
        <time>2016-12-16T13:07:18Z</time>
      </trkpt>
      <trkpt lat="45.21281" lon="5.5599">
        <ele>1287.8000488281</ele>
        <time>2016-12-16T13:07:25Z</time>
      </trkpt>
      <trkpt lat="45.2129" lon="5.55992">
        <ele>1288.1999511719</ele>
        <time>2016-12-16T13:07:28Z</time>
      </trkpt>
      <trkpt lat="45.21293" lon="5.55993">
        <ele>1288.5999755859</ele>
        <time>2016-12-16T13:07:29Z</time>
      </trkpt>
      <trkpt lat="45.21296" lon="5.55994">
        <ele>1289</ele>
        <time>2016-12-16T13:07:30Z</time>
      </trkpt>
      <trkpt lat="45.21299" lon="5.55995">
        <ele>1290</ele>
        <time>2016-12-16T13:07:31Z</time>
      </trkpt>
      <trkpt lat="45.21315" lon="5.56001">
        <ele>1290</ele>
        <time>2016-12-16T13:07:37Z</time>
      </trkpt>
      <trkpt lat="45.21323" lon="5.56006">
        <ele>1290</ele>
        <time>2016-12-16T13:07:40Z</time>
      </trkpt>
      <trkpt lat="45.21325" lon="5.5601">
        <ele>1290</ele>
        <time>2016-12-16T13:07:42Z</time>
      </trkpt>
      <trkpt lat="45.21329" lon="5.56012">
        <ele>1290</ele>
        <time>2016-12-16T13:07:47Z</time>
      </trkpt>
      <trkpt lat="45.21337" lon="5.56009">
        <ele>1290</ele>
        <time>2016-12-16T13:07:51Z</time>
      </trkpt>
      <trkpt lat="45.2134" lon="5.56009">
        <ele>1290</ele>
        <time>2016-12-16T13:07:52Z</time>
      </trkpt>
      <trkpt lat="45.21346" lon="5.56011">
        <ele>1290</ele>
        <time>2016-12-16T13:07:56Z</time>
      </trkpt>
      <trkpt lat="45.21348" lon="5.56012">
        <ele>1290</ele>
        <time>2016-12-16T13:08:01Z</time>
      </trkpt>
      <trkpt lat="45.21349" lon="5.56011">
        <ele>1290</ele>
        <time>2016-12-16T13:08:12Z</time>
      </trkpt>
      <trkpt lat="45.21353" lon="5.56009">
        <ele>1290</ele>
        <time>2016-12-16T13:08:16Z</time>
      </trkpt>
      <trkpt lat="45.21355" lon="5.5601">
        <ele>1290.4000244141</ele>
        <time>2016-12-16T13:08:20Z</time>
      </trkpt>
      <trkpt lat="45.21356" lon="5.5601">
        <ele>1290.8000488281</ele>
        <time>2016-12-16T13:08:21Z</time>
      </trkpt>
      <trkpt lat="45.21356" lon="5.56011">
        <ele>1291.1999511719</ele>
        <time>2016-12-16T13:08:22Z</time>
      </trkpt>
      <trkpt lat="45.21357" lon="5.56011">
        <ele>1291.5999755859</ele>
        <time>2016-12-16T13:08:23Z</time>
      </trkpt>
      <trkpt lat="45.21358" lon="5.56011">
        <ele>1292</ele>
        <time>2016-12-16T13:08:24Z</time>
      </trkpt>
      <trkpt lat="45.21361" lon="5.56011">
        <ele>1292</ele>
        <time>2016-12-16T13:08:27Z</time>
      </trkpt>
      <trkpt lat="45.21373" lon="5.56011">
        <ele>1292</ele>
        <time>2016-12-16T13:08:33Z</time>
      </trkpt>
      <trkpt lat="45.21378" lon="5.56012">
        <ele>1292</ele>
        <time>2016-12-16T13:08:38Z</time>
      </trkpt>
      <trkpt lat="45.21378" lon="5.56011">
        <ele>1292</ele>
        <time>2016-12-16T13:08:39Z</time>
      </trkpt>
      <trkpt lat="45.21384" lon="5.5601">
        <ele>1292</ele>
        <time>2016-12-16T13:08:44Z</time>
      </trkpt>
      <trkpt lat="45.21384" lon="5.5601">
        <ele>1292</ele>
        <time>2016-12-16T13:08:45Z</time>
      </trkpt>
      <trkpt lat="45.21388" lon="5.56008">
        <ele>1292</ele>
        <time>2016-12-16T13:08:49Z</time>
      </trkpt>
      <trkpt lat="45.21399" lon="5.56009">
        <ele>1292</ele>
        <time>2016-12-16T13:08:54Z</time>
      </trkpt>
      <trkpt lat="45.21419" lon="5.56007">
        <ele>1292</ele>
        <time>2016-12-16T13:09:00Z</time>
      </trkpt>
      <trkpt lat="45.21441" lon="5.56005">
        <ele>1292</ele>
        <time>2016-12-16T13:09:07Z</time>
      </trkpt>
      <trkpt lat="45.21456" lon="5.56004">
        <ele>1292</ele>
        <time>2016-12-16T13:09:12Z</time>
      </trkpt>
      <trkpt lat="45.21469" lon="5.56003">
        <ele>1292</ele>
        <time>2016-12-16T13:09:17Z</time>
      </trkpt>
      <trkpt lat="45.21486" lon="5.56002">
        <ele>1292</ele>
        <time>2016-12-16T13:09:23Z</time>
      </trkpt>
      <trkpt lat="45.21509" lon="5.56001">
        <ele>1292</ele>
        <time>2016-12-16T13:09:30Z</time>
      </trkpt>
      <trkpt lat="45.21529" lon="5.56">
        <ele>1292</ele>
        <time>2016-12-16T13:09:36Z</time>
      </trkpt>
      <trkpt lat="45.21557" lon="5.56">
        <ele>1292</ele>
        <time>2016-12-16T13:09:44Z</time>
      </trkpt>
      <trkpt lat="45.2156" lon="5.55999">
        <ele>1292.4000244141</ele>
        <time>2016-12-16T13:09:45Z</time>
      </trkpt>
      <trkpt lat="45.21563" lon="5.55998">
        <ele>1292.8000488281</ele>
        <time>2016-12-16T13:09:46Z</time>
      </trkpt>
      <trkpt lat="45.21566" lon="5.55997">
        <ele>1293.1999511719</ele>
        <time>2016-12-16T13:09:47Z</time>
      </trkpt>
      <trkpt lat="45.21569" lon="5.55996">
        <ele>1293.5999755859</ele>
        <time>2016-12-16T13:09:48Z</time>
      </trkpt>
      <trkpt lat="45.21572" lon="5.55996">
        <ele>1294</ele>
        <time>2016-12-16T13:09:49Z</time>
      </trkpt>
      <trkpt lat="45.21578" lon="5.55997">
        <ele>1294</ele>
        <time>2016-12-16T13:09:52Z</time>
      </trkpt>
      <trkpt lat="45.21594" lon="5.55996">
        <ele>1294</ele>
        <time>2016-12-16T13:09:59Z</time>
      </trkpt>
      <trkpt lat="45.21608" lon="5.55996">
        <ele>1294</ele>
        <time>2016-12-16T13:10:04Z</time>
      </trkpt>
      <trkpt lat="45.21638" lon="5.55995">
        <ele>1294</ele>
        <time>2016-12-16T13:10:12Z</time>
      </trkpt>
      <trkpt lat="45.21665" lon="5.55997">
        <ele>1294</ele>
        <time>2016-12-16T13:10:19Z</time>
      </trkpt>
      <trkpt lat="45.217" lon="5.56004">
        <ele>1294</ele>
        <time>2016-12-16T13:10:27Z</time>
      </trkpt>
      <trkpt lat="45.21731" lon="5.56009">
        <ele>1293.5999755859</ele>
        <time>2016-12-16T13:10:34Z</time>
      </trkpt>
      <trkpt lat="45.21736" lon="5.56009">
        <ele>1293.1999511719</ele>
        <time>2016-12-16T13:10:35Z</time>
      </trkpt>
      <trkpt lat="45.2174" lon="5.5601">
        <ele>1292.5999755859</ele>
        <time>2016-12-16T13:10:36Z</time>
      </trkpt>
      <trkpt lat="45.21744" lon="5.56011">
        <ele>1292.1999511719</ele>
        <time>2016-12-16T13:10:37Z</time>
      </trkpt>
      <trkpt lat="45.21749" lon="5.56012">
        <ele>1291.8000488281</ele>
        <time>2016-12-16T13:10:38Z</time>
      </trkpt>
      <trkpt lat="45.21762" lon="5.56014">
        <ele>1291.8000488281</ele>
        <time>2016-12-16T13:10:41Z</time>
      </trkpt>
      <trkpt lat="45.21775" lon="5.56017">
        <ele>1291.8000488281</ele>
        <time>2016-12-16T13:10:44Z</time>
      </trkpt>
      <trkpt lat="45.21788" lon="5.56018">
        <ele>1291.8000488281</ele>
        <time>2016-12-16T13:10:47Z</time>
      </trkpt>
      <trkpt lat="45.21813" lon="5.5602">
        <ele>1291.8000488281</ele>
        <time>2016-12-16T13:10:54Z</time>
      </trkpt>
      <trkpt lat="45.21823" lon="5.56025">
        <ele>1291.8000488281</ele>
        <time>2016-12-16T13:10:59Z</time>
      </trkpt>
      <trkpt lat="45.21825" lon="5.56039">
        <ele>1291.8000488281</ele>
        <time>2016-12-16T13:11:04Z</time>
      </trkpt>
      <trkpt lat="45.21832" lon="5.56061">
        <ele>1291.8000488281</ele>
        <time>2016-12-16T13:11:08Z</time>
      </trkpt>
      <trkpt lat="45.21835" lon="5.5607">
        <ele>1291.8000488281</ele>
        <time>2016-12-16T13:11:10Z</time>
      </trkpt>
      <trkpt lat="45.2184" lon="5.56084">
        <ele>1291.8000488281</ele>
        <time>2016-12-16T13:11:13Z</time>
      </trkpt>
      <trkpt lat="45.2185" lon="5.56109">
        <ele>1291.8000488281</ele>
        <time>2016-12-16T13:11:19Z</time>
      </trkpt>
      <trkpt lat="45.21863" lon="5.5613">
        <ele>1291.8000488281</ele>
        <time>2016-12-16T13:11:25Z</time>
      </trkpt>
      <trkpt lat="45.21874" lon="5.56147">
        <ele>1291.8000488281</ele>
        <time>2016-12-16T13:11:30Z</time>
      </trkpt>
      <trkpt lat="45.21888" lon="5.56173">
        <ele>1291.8000488281</ele>
        <time>2016-12-16T13:11:37Z</time>
      </trkpt>
      <trkpt lat="45.21898" lon="5.56193">
        <ele>1291.8000488281</ele>
        <time>2016-12-16T13:11:42Z</time>
      </trkpt>
      <trkpt lat="45.21911" lon="5.56216">
        <ele>1291.8000488281</ele>
        <time>2016-12-16T13:11:48Z</time>
      </trkpt>
      <trkpt lat="45.21927" lon="5.56242">
        <ele>1291.8000488281</ele>
        <time>2016-12-16T13:11:55Z</time>
      </trkpt>
      <trkpt lat="45.21939" lon="5.56264">
        <ele>1292.1999511719</ele>
        <time>2016-12-16T13:12:01Z</time>
      </trkpt>
      <trkpt lat="45.21941" lon="5.56268">
        <ele>1292.5999755859</ele>
        <time>2016-12-16T13:12:02Z</time>
      </trkpt>
      <trkpt lat="45.21943" lon="5.56271">
        <ele>1293.4000244141</ele>
        <time>2016-12-16T13:12:03Z</time>
      </trkpt>
      <trkpt lat="45.21945" lon="5.56274">
        <ele>1293.8000488281</ele>
        <time>2016-12-16T13:12:04Z</time>
      </trkpt>
      <trkpt lat="45.21959" lon="5.56297">
        <ele>1293.8000488281</ele>
        <time>2016-12-16T13:12:11Z</time>
      </trkpt>
      <trkpt lat="45.21964" lon="5.56303">
        <ele>1294.1999511719</ele>
        <time>2016-12-16T13:12:13Z</time>
      </trkpt>
      <trkpt lat="45.21965" lon="5.56306">
        <ele>1294.5999755859</ele>
        <time>2016-12-16T13:12:14Z</time>
      </trkpt>
      <trkpt lat="45.21967" lon="5.56309">
        <ele>1295</ele>
        <time>2016-12-16T13:12:15Z</time>
      </trkpt>
      <trkpt lat="45.21968" lon="5.56312">
        <ele>1295.4000244141</ele>
        <time>2016-12-16T13:12:16Z</time>
      </trkpt>
      <trkpt lat="45.2197" lon="5.56316">
        <ele>1296</ele>
        <time>2016-12-16T13:12:17Z</time>
      </trkpt>
      <trkpt lat="45.21979" lon="5.56337">
        <ele>1296</ele>
        <time>2016-12-16T13:12:23Z</time>
      </trkpt>
      <trkpt lat="45.21984" lon="5.56349">
        <ele>1296.4000244141</ele>
        <time>2016-12-16T13:12:27Z</time>
      </trkpt>
      <trkpt lat="45.21985" lon="5.56352">
        <ele>1297.1999511719</ele>
        <time>2016-12-16T13:12:28Z</time>
      </trkpt>
      <trkpt lat="45.21986" lon="5.56356">
        <ele>1297.8000488281</ele>
        <time>2016-12-16T13:12:29Z</time>
      </trkpt>
      <trkpt lat="45.21987" lon="5.56359">
        <ele>1298.1999511719</ele>
        <time>2016-12-16T13:12:30Z</time>
      </trkpt>
      <trkpt lat="45.21995" lon="5.56378">
        <ele>1298.5999755859</ele>
        <time>2016-12-16T13:12:36Z</time>
      </trkpt>
      <trkpt lat="45.21996" lon="5.5638">
        <ele>1299</ele>
        <time>2016-12-16T13:12:37Z</time>
      </trkpt>
      <trkpt lat="45.21997" lon="5.56383">
        <ele>1299.4000244141</ele>
        <time>2016-12-16T13:12:38Z</time>
      </trkpt>
      <trkpt lat="45.21998" lon="5.56386">
        <ele>1299.8000488281</ele>
        <time>2016-12-16T13:12:39Z</time>
      </trkpt>
      <trkpt lat="45.21999" lon="5.56389">
        <ele>1300.1999511719</ele>
        <time>2016-12-16T13:12:40Z</time>
      </trkpt>
      <trkpt lat="45.22003" lon="5.56397">
        <ele>1300.1999511719</ele>
        <time>2016-12-16T13:12:43Z</time>
      </trkpt>
      <trkpt lat="45.2201" lon="5.56411">
        <ele>1300.5999755859</ele>
        <time>2016-12-16T13:12:48Z</time>
      </trkpt>
      <trkpt lat="45.22011" lon="5.56414">
        <ele>1301</ele>
        <time>2016-12-16T13:12:49Z</time>
      </trkpt>
      <trkpt lat="45.22013" lon="5.56416">
        <ele>1301.4000244141</ele>
        <time>2016-12-16T13:12:50Z</time>
      </trkpt>
      <trkpt lat="45.22014" lon="5.56419">
        <ele>1301.8000488281</ele>
        <time>2016-12-16T13:12:51Z</time>
      </trkpt>
      <trkpt lat="45.22016" lon="5.56421">
        <ele>1302.1999511719</ele>
        <time>2016-12-16T13:12:52Z</time>
      </trkpt>
      <trkpt lat="45.22023" lon="5.56428">
        <ele>1302.1999511719</ele>
        <time>2016-12-16T13:12:56Z</time>
      </trkpt>
      <trkpt lat="45.22028" lon="5.56433">
        <ele>1302.5999755859</ele>
        <time>2016-12-16T13:12:59Z</time>
      </trkpt>
      <trkpt lat="45.2203" lon="5.56436">
        <ele>1303</ele>
        <time>2016-12-16T13:13:00Z</time>
      </trkpt>
      <trkpt lat="45.22031" lon="5.56439">
        <ele>1303.4000244141</ele>
        <time>2016-12-16T13:13:01Z</time>
      </trkpt>
      <trkpt lat="45.22033" lon="5.56442">
        <ele>1303.8000488281</ele>
        <time>2016-12-16T13:13:02Z</time>
      </trkpt>
      <trkpt lat="45.22034" lon="5.56445">
        <ele>1304.1999511719</ele>
        <time>2016-12-16T13:13:03Z</time>
      </trkpt>
      <trkpt lat="45.22045" lon="5.56466">
        <ele>1304.1999511719</ele>
        <time>2016-12-16T13:13:10Z</time>
      </trkpt>
      <trkpt lat="45.22046" lon="5.56469">
        <ele>1304.5999755859</ele>
        <time>2016-12-16T13:13:11Z</time>
      </trkpt>
      <trkpt lat="45.22047" lon="5.56471">
        <ele>1305</ele>
        <time>2016-12-16T13:13:12Z</time>
      </trkpt>
      <trkpt lat="45.22049" lon="5.56474">
        <ele>1305.5999755859</ele>
        <time>2016-12-16T13:13:13Z</time>
      </trkpt>
      <trkpt lat="45.2205" lon="5.56477">
        <ele>1306</ele>
        <time>2016-12-16T13:13:14Z</time>
      </trkpt>
      <trkpt lat="45.22051" lon="5.56481">
        <ele>1306.4000244141</ele>
        <time>2016-12-16T13:13:15Z</time>
      </trkpt>
      <trkpt lat="45.22054" lon="5.56486">
        <ele>1306.4000244141</ele>
        <time>2016-12-16T13:13:17Z</time>
      </trkpt>
      <trkpt lat="45.22057" lon="5.56495">
        <ele>1306.8000488281</ele>
        <time>2016-12-16T13:13:20Z</time>
      </trkpt>
      <trkpt lat="45.22058" lon="5.56497">
        <ele>1307.1999511719</ele>
        <time>2016-12-16T13:13:21Z</time>
      </trkpt>
      <trkpt lat="45.22059" lon="5.565">
        <ele>1307.5999755859</ele>
        <time>2016-12-16T13:13:22Z</time>
      </trkpt>
      <trkpt lat="45.2206" lon="5.56503">
        <ele>1308</ele>
        <time>2016-12-16T13:13:23Z</time>
      </trkpt>
      <trkpt lat="45.22061" lon="5.56506">
        <ele>1308.4000244141</ele>
        <time>2016-12-16T13:13:24Z</time>
      </trkpt>
      <trkpt lat="45.22067" lon="5.56523">
        <ele>1308.4000244141</ele>
        <time>2016-12-16T13:13:29Z</time>
      </trkpt>
      <trkpt lat="45.22072" lon="5.56539">
        <ele>1308.8000488281</ele>
        <time>2016-12-16T13:13:34Z</time>
      </trkpt>
      <trkpt lat="45.22072" lon="5.56543">
        <ele>1309.1999511719</ele>
        <time>2016-12-16T13:13:35Z</time>
      </trkpt>
      <trkpt lat="45.22073" lon="5.56546">
        <ele>1309.5999755859</ele>
        <time>2016-12-16T13:13:36Z</time>
      </trkpt>
      <trkpt lat="45.22074" lon="5.5655">
        <ele>1310</ele>
        <time>2016-12-16T13:13:37Z</time>
      </trkpt>
      <trkpt lat="45.22074" lon="5.56554">
        <ele>1310.4000244141</ele>
        <time>2016-12-16T13:13:38Z</time>
      </trkpt>
      <trkpt lat="45.22078" lon="5.56568">
        <ele>1310.4000244141</ele>
        <time>2016-12-16T13:13:42Z</time>
      </trkpt>
      <trkpt lat="45.22081" lon="5.56589">
        <ele>1310.4000244141</ele>
        <time>2016-12-16T13:13:48Z</time>
      </trkpt>
      <trkpt lat="45.22084" lon="5.56612">
        <ele>1310.4000244141</ele>
        <time>2016-12-16T13:13:55Z</time>
      </trkpt>
      <trkpt lat="45.22086" lon="5.56624">
        <ele>1310.8000488281</ele>
        <time>2016-12-16T13:13:58Z</time>
      </trkpt>
      <trkpt lat="45.22086" lon="5.56628">
        <ele>1311.4000244141</ele>
        <time>2016-12-16T13:13:59Z</time>
      </trkpt>
      <trkpt lat="45.22087" lon="5.56632">
        <ele>1311.8000488281</ele>
        <time>2016-12-16T13:14:00Z</time>
      </trkpt>
      <trkpt lat="45.22087" lon="5.56636">
        <ele>1312.1999511719</ele>
        <time>2016-12-16T13:14:01Z</time>
      </trkpt>
      <trkpt lat="45.22088" lon="5.5664">
        <ele>1312.5999755859</ele>
        <time>2016-12-16T13:14:02Z</time>
      </trkpt>
      <trkpt lat="45.22091" lon="5.56663">
        <ele>1312.5999755859</ele>
        <time>2016-12-16T13:14:07Z</time>
      </trkpt>
      <trkpt lat="45.22097" lon="5.56685">
        <ele>1312.5999755859</ele>
        <time>2016-12-16T13:14:12Z</time>
      </trkpt>
      <trkpt lat="45.221" lon="5.56708">
        <ele>1312.5999755859</ele>
        <time>2016-12-16T13:14:17Z</time>
      </trkpt>
      <trkpt lat="45.22105" lon="5.5674">
        <ele>1312.5999755859</ele>
        <time>2016-12-16T13:14:24Z</time>
      </trkpt>
      <trkpt lat="45.22109" lon="5.56763">
        <ele>1312.5999755859</ele>
        <time>2016-12-16T13:14:30Z</time>
      </trkpt>
      <trkpt lat="45.22115" lon="5.56784">
        <ele>1312.5999755859</ele>
        <time>2016-12-16T13:14:36Z</time>
      </trkpt>
      <trkpt lat="45.22118" lon="5.56793">
        <ele>1313</ele>
        <time>2016-12-16T13:14:39Z</time>
      </trkpt>
      <trkpt lat="45.22118" lon="5.56795">
        <ele>1313.4000244141</ele>
        <time>2016-12-16T13:14:40Z</time>
      </trkpt>
      <trkpt lat="45.22119" lon="5.56798">
        <ele>1313.8000488281</ele>
        <time>2016-12-16T13:14:41Z</time>
      </trkpt>
      <trkpt lat="45.22119" lon="5.568">
        <ele>1314.4000244141</ele>
        <time>2016-12-16T13:14:42Z</time>
      </trkpt>
      <trkpt lat="45.2212" lon="5.56802">
        <ele>1314.8000488281</ele>
        <time>2016-12-16T13:14:43Z</time>
      </trkpt>
      <trkpt lat="45.22123" lon="5.56811">
        <ele>1314.8000488281</ele>
        <time>2016-12-16T13:14:48Z</time>
      </trkpt>
      <trkpt lat="45.22124" lon="5.56812">
        <ele>1314.8000488281</ele>
        <time>2016-12-16T13:14:49Z</time>
      </trkpt>
      <trkpt lat="45.22124" lon="5.56813">
        <ele>1314.8000488281</ele>
        <time>2016-12-16T13:14:50Z</time>
      </trkpt>
      <trkpt lat="45.22125" lon="5.56815">
        <ele>1315.1999511719</ele>
        <time>2016-12-16T13:14:51Z</time>
      </trkpt>
      <trkpt lat="45.22125" lon="5.56817">
        <ele>1315.5999755859</ele>
        <time>2016-12-16T13:14:52Z</time>
      </trkpt>
      <trkpt lat="45.22126" lon="5.56819">
        <ele>1316</ele>
        <time>2016-12-16T13:14:53Z</time>
      </trkpt>
      <trkpt lat="45.22127" lon="5.56821">
        <ele>1316.4000244141</ele>
        <time>2016-12-16T13:14:54Z</time>
      </trkpt>
      <trkpt lat="45.22127" lon="5.56822">
        <ele>1316.8000488281</ele>
        <time>2016-12-16T13:14:55Z</time>
      </trkpt>
      <trkpt lat="45.22128" lon="5.56825">
        <ele>1316.8000488281</ele>
        <time>2016-12-16T13:14:56Z</time>
      </trkpt>
      <trkpt lat="45.22134" lon="5.56836">
        <ele>1316.8000488281</ele>
        <time>2016-12-16T13:15:02Z</time>
      </trkpt>
      <trkpt lat="45.22135" lon="5.56837">
        <ele>1317.1999511719</ele>
        <time>2016-12-16T13:15:03Z</time>
      </trkpt>
      <trkpt lat="45.22136" lon="5.56839">
        <ele>1317.5999755859</ele>
        <time>2016-12-16T13:15:04Z</time>
      </trkpt>
      <trkpt lat="45.22137" lon="5.56841">
        <ele>1318</ele>
        <time>2016-12-16T13:15:05Z</time>
      </trkpt>
      <trkpt lat="45.22138" lon="5.56842">
        <ele>1318.5999755859</ele>
        <time>2016-12-16T13:15:06Z</time>
      </trkpt>
      <trkpt lat="45.22138" lon="5.56843">
        <ele>1319</ele>
        <time>2016-12-16T13:15:07Z</time>
      </trkpt>
      <trkpt lat="45.2214" lon="5.56846">
        <ele>1319</ele>
        <time>2016-12-16T13:15:09Z</time>
      </trkpt>
      <trkpt lat="45.22146" lon="5.56854">
        <ele>1319.4000244141</ele>
        <time>2016-12-16T13:15:16Z</time>
      </trkpt>
      <trkpt lat="45.22146" lon="5.56854">
        <ele>1319.8000488281</ele>
        <time>2016-12-16T13:15:17Z</time>
      </trkpt>
      <trkpt lat="45.22146" lon="5.56855">
        <ele>1320.1999511719</ele>
        <time>2016-12-16T13:15:18Z</time>
      </trkpt>
      <trkpt lat="45.22147" lon="5.56857">
        <ele>1320.5999755859</ele>
        <time>2016-12-16T13:15:19Z</time>
      </trkpt>
      <trkpt lat="45.22148" lon="5.56859">
        <ele>1321.1999511719</ele>
        <time>2016-12-16T13:15:20Z</time>
      </trkpt>
      <trkpt lat="45.2215" lon="5.56863">
        <ele>1321.1999511719</ele>
        <time>2016-12-16T13:15:22Z</time>
      </trkpt>
      <trkpt lat="45.22152" lon="5.56866">
        <ele>1321.5999755859</ele>
        <time>2016-12-16T13:15:24Z</time>
      </trkpt>
      <trkpt lat="45.22153" lon="5.56868">
        <ele>1322</ele>
        <time>2016-12-16T13:15:25Z</time>
      </trkpt>
      <trkpt lat="45.22154" lon="5.5687">
        <ele>1322.4000244141</ele>
        <time>2016-12-16T13:15:26Z</time>
      </trkpt>
      <trkpt lat="45.22155" lon="5.56872">
        <ele>1322.8000488281</ele>
        <time>2016-12-16T13:15:27Z</time>
      </trkpt>
      <trkpt lat="45.22156" lon="5.56874">
        <ele>1323.1999511719</ele>
        <time>2016-12-16T13:15:28Z</time>
      </trkpt>
      <trkpt lat="45.22159" lon="5.56879">
        <ele>1323.1999511719</ele>
        <time>2016-12-16T13:15:32Z</time>
      </trkpt>
      <trkpt lat="45.22161" lon="5.56882">
        <ele>1323.1999511719</ele>
        <time>2016-12-16T13:15:34Z</time>
      </trkpt>
      <trkpt lat="45.22162" lon="5.56884">
        <ele>1323.5999755859</ele>
        <time>2016-12-16T13:15:35Z</time>
      </trkpt>
      <trkpt lat="45.22163" lon="5.56886">
        <ele>1324</ele>
        <time>2016-12-16T13:15:36Z</time>
      </trkpt>
      <trkpt lat="45.22164" lon="5.56887">
        <ele>1324.4000244141</ele>
        <time>2016-12-16T13:15:37Z</time>
      </trkpt>
      <trkpt lat="45.22166" lon="5.56888">
        <ele>1324.8000488281</ele>
        <time>2016-12-16T13:15:38Z</time>
      </trkpt>
      <trkpt lat="45.22166" lon="5.56889">
        <ele>1325.1999511719</ele>
        <time>2016-12-16T13:15:39Z</time>
      </trkpt>
      <trkpt lat="45.22168" lon="5.56889">
        <ele>1325.1999511719</ele>
        <time>2016-12-16T13:15:40Z</time>
      </trkpt>
      <trkpt lat="45.2217" lon="5.56891">
        <ele>1325.5999755859</ele>
        <time>2016-12-16T13:15:43Z</time>
      </trkpt>
      <trkpt lat="45.22171" lon="5.56892">
        <ele>1326.1999511719</ele>
        <time>2016-12-16T13:15:44Z</time>
      </trkpt>
      <trkpt lat="45.22173" lon="5.56894">
        <ele>1327</ele>
        <time>2016-12-16T13:15:45Z</time>
      </trkpt>
      <trkpt lat="45.22174" lon="5.56895">
        <ele>1327.4000244141</ele>
        <time>2016-12-16T13:15:46Z</time>
      </trkpt>
      <trkpt lat="45.22176" lon="5.56903">
        <ele>1327.4000244141</ele>
        <time>2016-12-16T13:15:51Z</time>
      </trkpt>
      <trkpt lat="45.22176" lon="5.56905">
        <ele>1327.4000244141</ele>
        <time>2016-12-16T13:15:52Z</time>
      </trkpt>
      <trkpt lat="45.2218" lon="5.56916">
        <ele>1327.4000244141</ele>
        <time>2016-12-16T13:15:58Z</time>
      </trkpt>
      <trkpt lat="45.22182" lon="5.56919">
        <ele>1327.8000488281</ele>
        <time>2016-12-16T13:16:00Z</time>
      </trkpt>
      <trkpt lat="45.22183" lon="5.5692">
        <ele>1328.1999511719</ele>
        <time>2016-12-16T13:16:01Z</time>
      </trkpt>
      <trkpt lat="45.22183" lon="5.5692">
        <ele>1328.5999755859</ele>
        <time>2016-12-16T13:16:02Z</time>
      </trkpt>
      <trkpt lat="45.22184" lon="5.56921">
        <ele>1329</ele>
        <time>2016-12-16T13:16:03Z</time>
      </trkpt>
      <trkpt lat="45.22185" lon="5.56922">
        <ele>1329.4000244141</ele>
        <time>2016-12-16T13:16:04Z</time>
      </trkpt>
      <trkpt lat="45.22186" lon="5.56923">
        <ele>1329.4000244141</ele>
        <time>2016-12-16T13:16:05Z</time>
      </trkpt>
      <trkpt lat="45.22186" lon="5.56924">
        <ele>1329.4000244141</ele>
        <time>2016-12-16T13:16:06Z</time>
      </trkpt>
      <trkpt lat="45.22188" lon="5.56928">
        <ele>1329.8000488281</ele>
        <time>2016-12-16T13:16:10Z</time>
      </trkpt>
      <trkpt lat="45.22189" lon="5.56929">
        <ele>1330.1999511719</ele>
        <time>2016-12-16T13:16:11Z</time>
      </trkpt>
      <trkpt lat="45.22189" lon="5.5693">
        <ele>1330.8000488281</ele>
        <time>2016-12-16T13:16:12Z</time>
      </trkpt>
      <trkpt lat="45.2219" lon="5.56931">
        <ele>1331.1999511719</ele>
        <time>2016-12-16T13:16:13Z</time>
      </trkpt>
      <trkpt lat="45.22191" lon="5.56932">
        <ele>1331.5999755859</ele>
        <time>2016-12-16T13:16:14Z</time>
      </trkpt>
      <trkpt lat="45.22196" lon="5.56937">
        <ele>1331.5999755859</ele>
        <time>2016-12-16T13:16:18Z</time>
      </trkpt>
      <trkpt lat="45.222" lon="5.56939">
        <ele>1332</ele>
        <time>2016-12-16T13:16:21Z</time>
      </trkpt>
      <trkpt lat="45.222" lon="5.56939">
        <ele>1332.4000244141</ele>
        <time>2016-12-16T13:16:22Z</time>
      </trkpt>
      <trkpt lat="45.22202" lon="5.5694">
        <ele>1332.8000488281</ele>
        <time>2016-12-16T13:16:23Z</time>
      </trkpt>
      <trkpt lat="45.22202" lon="5.56941">
        <ele>1333.1999511719</ele>
        <time>2016-12-16T13:16:24Z</time>
      </trkpt>
      <trkpt lat="45.22203" lon="5.56941">
        <ele>1333.5999755859</ele>
        <time>2016-12-16T13:16:25Z</time>
      </trkpt>
      <trkpt lat="45.22209" lon="5.56945">
        <ele>1334</ele>
        <time>2016-12-16T13:16:31Z</time>
      </trkpt>
      <trkpt lat="45.2221" lon="5.56946">
        <ele>1334.4000244141</ele>
        <time>2016-12-16T13:16:32Z</time>
      </trkpt>
      <trkpt lat="45.22211" lon="5.56947">
        <ele>1334.8000488281</ele>
        <time>2016-12-16T13:16:33Z</time>
      </trkpt>
      <trkpt lat="45.22212" lon="5.56948">
        <ele>1335.1999511719</ele>
        <time>2016-12-16T13:16:34Z</time>
      </trkpt>
      <trkpt lat="45.22213" lon="5.56949">
        <ele>1335.5999755859</ele>
        <time>2016-12-16T13:16:35Z</time>
      </trkpt>
      <trkpt lat="45.22215" lon="5.5695">
        <ele>1336</ele>
        <time>2016-12-16T13:16:37Z</time>
      </trkpt>
      <trkpt lat="45.22216" lon="5.5695">
        <ele>1336.4000244141</ele>
        <time>2016-12-16T13:16:38Z</time>
      </trkpt>
      <trkpt lat="45.22217" lon="5.56951">
        <ele>1336.8000488281</ele>
        <time>2016-12-16T13:16:39Z</time>
      </trkpt>
      <trkpt lat="45.22217" lon="5.56952">
        <ele>1337.1999511719</ele>
        <time>2016-12-16T13:16:40Z</time>
      </trkpt>
      <trkpt lat="45.22218" lon="5.56952">
        <ele>1337.8000488281</ele>
        <time>2016-12-16T13:16:41Z</time>
      </trkpt>
      <trkpt lat="45.22224" lon="5.56956">
        <ele>1338.1999511719</ele>
        <time>2016-12-16T13:16:47Z</time>
      </trkpt>
      <trkpt lat="45.22225" lon="5.56957">
        <ele>1338.5999755859</ele>
        <time>2016-12-16T13:16:48Z</time>
      </trkpt>
      <trkpt lat="45.22227" lon="5.56958">
        <ele>1339</ele>
        <time>2016-12-16T13:16:49Z</time>
      </trkpt>
      <trkpt lat="45.22228" lon="5.56959">
        <ele>1339.4000244141</ele>
        <time>2016-12-16T13:16:50Z</time>
      </trkpt>
      <trkpt lat="45.22228" lon="5.56959">
        <ele>1340</ele>
        <time>2016-12-16T13:16:51Z</time>
      </trkpt>
      <trkpt lat="45.22231" lon="5.5696">
        <ele>1340</ele>
        <time>2016-12-16T13:16:53Z</time>
      </trkpt>
      <trkpt lat="45.22233" lon="5.5696">
        <ele>1340</ele>
        <time>2016-12-16T13:16:55Z</time>
      </trkpt>
      <trkpt lat="45.22234" lon="5.5696">
        <ele>1340.4000244141</ele>
        <time>2016-12-16T13:16:56Z</time>
      </trkpt>
      <trkpt lat="45.22235" lon="5.56961">
        <ele>1340.8000488281</ele>
        <time>2016-12-16T13:16:57Z</time>
      </trkpt>
      <trkpt lat="45.22236" lon="5.56961">
        <ele>1341.1999511719</ele>
        <time>2016-12-16T13:16:58Z</time>
      </trkpt>
      <trkpt lat="45.22238" lon="5.56961">
        <ele>1341.5999755859</ele>
        <time>2016-12-16T13:16:59Z</time>
      </trkpt>
      <trkpt lat="45.22239" lon="5.56961">
        <ele>1342</ele>
        <time>2016-12-16T13:17:00Z</time>
      </trkpt>
      <trkpt lat="45.2224" lon="5.56962">
        <ele>1342</ele>
        <time>2016-12-16T13:17:01Z</time>
      </trkpt>
      <trkpt lat="45.22243" lon="5.56964">
        <ele>1342.4000244141</ele>
        <time>2016-12-16T13:17:03Z</time>
      </trkpt>
      <trkpt lat="45.22244" lon="5.56963">
        <ele>1342.8000488281</ele>
        <time>2016-12-16T13:17:04Z</time>
      </trkpt>
      <trkpt lat="45.22245" lon="5.56964">
        <ele>1343.1999511719</ele>
        <time>2016-12-16T13:17:05Z</time>
      </trkpt>
      <trkpt lat="45.22246" lon="5.56964">
        <ele>1343.5999755859</ele>
        <time>2016-12-16T13:17:06Z</time>
      </trkpt>
      <trkpt lat="45.22247" lon="5.56965">
        <ele>1344</ele>
        <time>2016-12-16T13:17:07Z</time>
      </trkpt>
      <trkpt lat="45.22248" lon="5.56966">
        <ele>1344</ele>
        <time>2016-12-16T13:17:08Z</time>
      </trkpt>
      <trkpt lat="45.22251" lon="5.56966">
        <ele>1344.5999755859</ele>
        <time>2016-12-16T13:17:12Z</time>
      </trkpt>
      <trkpt lat="45.22252" lon="5.56967">
        <ele>1345</ele>
        <time>2016-12-16T13:17:13Z</time>
      </trkpt>
      <trkpt lat="45.22253" lon="5.56967">
        <ele>1345.4000244141</ele>
        <time>2016-12-16T13:17:14Z</time>
      </trkpt>
      <trkpt lat="45.22254" lon="5.56968">
        <ele>1345.8000488281</ele>
        <time>2016-12-16T13:17:15Z</time>
      </trkpt>
      <trkpt lat="45.22255" lon="5.56969">
        <ele>1346.1999511719</ele>
        <time>2016-12-16T13:17:16Z</time>
      </trkpt>
      <trkpt lat="45.22261" lon="5.56971">
        <ele>1346.1999511719</ele>
        <time>2016-12-16T13:17:22Z</time>
      </trkpt>
      <trkpt lat="45.22266" lon="5.56975">
        <ele>1346.5999755859</ele>
        <time>2016-12-16T13:17:26Z</time>
      </trkpt>
      <trkpt lat="45.22267" lon="5.56976">
        <ele>1347</ele>
        <time>2016-12-16T13:17:27Z</time>
      </trkpt>
      <trkpt lat="45.22269" lon="5.56977">
        <ele>1347.4000244141</ele>
        <time>2016-12-16T13:17:28Z</time>
      </trkpt>
      <trkpt lat="45.2227" lon="5.56978">
        <ele>1347.8000488281</ele>
        <time>2016-12-16T13:17:29Z</time>
      </trkpt>
      <trkpt lat="45.22271" lon="5.56979">
        <ele>1348.1999511719</ele>
        <time>2016-12-16T13:17:30Z</time>
      </trkpt>
      <trkpt lat="45.22272" lon="5.56979">
        <ele>1348.1999511719</ele>
        <time>2016-12-16T13:17:31Z</time>
      </trkpt>
      <trkpt lat="45.22274" lon="5.56981">
        <ele>1348.1999511719</ele>
        <time>2016-12-16T13:17:37Z</time>
      </trkpt>
      <trkpt lat="45.22276" lon="5.56983">
        <ele>1348.5999755859</ele>
        <time>2016-12-16T13:17:41Z</time>
      </trkpt>
      <trkpt lat="45.22277" lon="5.56984">
        <ele>1349</ele>
        <time>2016-12-16T13:17:42Z</time>
      </trkpt>
      <trkpt lat="45.22278" lon="5.56985">
        <ele>1349.4000244141</ele>
        <time>2016-12-16T13:17:43Z</time>
      </trkpt>
      <trkpt lat="45.22279" lon="5.56986">
        <ele>1349.8000488281</ele>
        <time>2016-12-16T13:17:44Z</time>
      </trkpt>
      <trkpt lat="45.22281" lon="5.56987">
        <ele>1350.1999511719</ele>
        <time>2016-12-16T13:17:45Z</time>
      </trkpt>
      <trkpt lat="45.22285" lon="5.56991">
        <ele>1350.1999511719</ele>
        <time>2016-12-16T13:17:49Z</time>
      </trkpt>
      <trkpt lat="45.22287" lon="5.56995">
        <ele>1350.8000488281</ele>
        <time>2016-12-16T13:17:51Z</time>
      </trkpt>
      <trkpt lat="45.22287" lon="5.56996">
        <ele>1351.1999511719</ele>
        <time>2016-12-16T13:17:52Z</time>
      </trkpt>
      <trkpt lat="45.22288" lon="5.56997">
        <ele>1351.5999755859</ele>
        <time>2016-12-16T13:17:53Z</time>
      </trkpt>
      <trkpt lat="45.22289" lon="5.56998">
        <ele>1352</ele>
        <time>2016-12-16T13:17:54Z</time>
      </trkpt>
      <trkpt lat="45.2229" lon="5.57">
        <ele>1352.4000244141</ele>
        <time>2016-12-16T13:17:55Z</time>
      </trkpt>
      <trkpt lat="45.22291" lon="5.57002">
        <ele>1352.4000244141</ele>
        <time>2016-12-16T13:17:56Z</time>
      </trkpt>
      <trkpt lat="45.22301" lon="5.57005">
        <ele>1352.4000244141</ele>
        <time>2016-12-16T13:18:02Z</time>
      </trkpt>
      <trkpt lat="45.22313" lon="5.57013">
        <ele>1352.4000244141</ele>
        <time>2016-12-16T13:18:06Z</time>
      </trkpt>
      <trkpt lat="45.22322" lon="5.57015">
        <ele>1352.4000244141</ele>
        <time>2016-12-16T13:18:11Z</time>
      </trkpt>
      <trkpt lat="45.22327" lon="5.57016">
        <ele>1353.1999511719</ele>
        <time>2016-12-16T13:18:14Z</time>
      </trkpt>
      <trkpt lat="45.22329" lon="5.57017">
        <ele>1353.5999755859</ele>
        <time>2016-12-16T13:18:15Z</time>
      </trkpt>
      <trkpt lat="45.2233" lon="5.57017">
        <ele>1354</ele>
        <time>2016-12-16T13:18:16Z</time>
      </trkpt>
      <trkpt lat="45.22331" lon="5.57019">
        <ele>1354.4000244141</ele>
        <time>2016-12-16T13:18:17Z</time>
      </trkpt>
      <trkpt lat="45.2234" lon="5.57025">
        <ele>1354.4000244141</ele>
        <time>2016-12-16T13:18:23Z</time>
      </trkpt>
      <trkpt lat="45.22349" lon="5.57034">
        <ele>1354.4000244141</ele>
        <time>2016-12-16T13:18:28Z</time>
      </trkpt>
      <trkpt lat="45.22357" lon="5.57044">
        <ele>1354.4000244141</ele>
        <time>2016-12-16T13:18:34Z</time>
      </trkpt>
      <trkpt lat="45.22364" lon="5.57048">
        <ele>1354.8000488281</ele>
        <time>2016-12-16T13:18:38Z</time>
      </trkpt>
      <trkpt lat="45.22365" lon="5.57049">
        <ele>1355.1999511719</ele>
        <time>2016-12-16T13:18:39Z</time>
      </trkpt>
      <trkpt lat="45.22366" lon="5.5705">
        <ele>1355.8000488281</ele>
        <time>2016-12-16T13:18:40Z</time>
      </trkpt>
      <trkpt lat="45.22367" lon="5.57052">
        <ele>1356.1999511719</ele>
        <time>2016-12-16T13:18:41Z</time>
      </trkpt>
      <trkpt lat="45.22369" lon="5.57053">
        <ele>1356.5999755859</ele>
        <time>2016-12-16T13:18:42Z</time>
      </trkpt>
      <trkpt lat="45.22375" lon="5.57054">
        <ele>1356.5999755859</ele>
        <time>2016-12-16T13:18:46Z</time>
      </trkpt>
      <trkpt lat="45.2238" lon="5.57055">
        <ele>1357</ele>
        <time>2016-12-16T13:18:50Z</time>
      </trkpt>
      <trkpt lat="45.22381" lon="5.57055">
        <ele>1357.4000244141</ele>
        <time>2016-12-16T13:18:51Z</time>
      </trkpt>
      <trkpt lat="45.22382" lon="5.57055">
        <ele>1357.8000488281</ele>
        <time>2016-12-16T13:18:52Z</time>
      </trkpt>
      <trkpt lat="45.22384" lon="5.57055">
        <ele>1358.4000244141</ele>
        <time>2016-12-16T13:18:53Z</time>
      </trkpt>
      <trkpt lat="45.22385" lon="5.57056">
        <ele>1358.8000488281</ele>
        <time>2016-12-16T13:18:54Z</time>
      </trkpt>
      <trkpt lat="45.22391" lon="5.57057">
        <ele>1359.1999511719</ele>
        <time>2016-12-16T13:18:58Z</time>
      </trkpt>
      <trkpt lat="45.22392" lon="5.57056">
        <ele>1359.5999755859</ele>
        <time>2016-12-16T13:18:59Z</time>
      </trkpt>
      <trkpt lat="45.22394" lon="5.57055">
        <ele>1360</ele>
        <time>2016-12-16T13:19:00Z</time>
      </trkpt>
      <trkpt lat="45.22395" lon="5.57055">
        <ele>1360.4000244141</ele>
        <time>2016-12-16T13:19:01Z</time>
      </trkpt>
      <trkpt lat="45.22396" lon="5.57055">
        <ele>1360.8000488281</ele>
        <time>2016-12-16T13:19:02Z</time>
      </trkpt>
      <trkpt lat="45.224" lon="5.57056">
        <ele>1361.1999511719</ele>
        <time>2016-12-16T13:19:05Z</time>
      </trkpt>
      <trkpt lat="45.22401" lon="5.57056">
        <ele>1361.5999755859</ele>
        <time>2016-12-16T13:19:06Z</time>
      </trkpt>
      <trkpt lat="45.22401" lon="5.57056">
        <ele>1362.1999511719</ele>
        <time>2016-12-16T13:19:07Z</time>
      </trkpt>
      <trkpt lat="45.22402" lon="5.57055">
        <ele>1362.5999755859</ele>
        <time>2016-12-16T13:19:08Z</time>
      </trkpt>
      <trkpt lat="45.22404" lon="5.57055">
        <ele>1363</ele>
        <time>2016-12-16T13:19:09Z</time>
      </trkpt>
      <trkpt lat="45.22405" lon="5.57054">
        <ele>1363</ele>
        <time>2016-12-16T13:19:11Z</time>
      </trkpt>
      <trkpt lat="45.2241" lon="5.57055">
        <ele>1363</ele>
        <time>2016-12-16T13:19:15Z</time>
      </trkpt>
      <trkpt lat="45.22413" lon="5.57055">
        <ele>1363</ele>
        <time>2016-12-16T13:19:17Z</time>
      </trkpt>
      <trkpt lat="45.22418" lon="5.57052">
        <ele>1363</ele>
        <time>2016-12-16T13:19:21Z</time>
      </trkpt>
      <trkpt lat="45.2242" lon="5.57049">
        <ele>1363</ele>
        <time>2016-12-16T13:19:23Z</time>
      </trkpt>
      <trkpt lat="45.22431" lon="5.57049">
        <ele>1363</ele>
        <time>2016-12-16T13:19:28Z</time>
      </trkpt>
      <trkpt lat="45.22439" lon="5.57045">
        <ele>1363.5999755859</ele>
        <time>2016-12-16T13:21:11Z</time>
      </trkpt>
      <trkpt lat="45.22431" lon="5.57046">
        <ele>1363.5999755859</ele>
        <time>2016-12-16T13:21:17Z</time>
      </trkpt>
      <trkpt lat="45.22424" lon="5.57049">
        <ele>1363.5999755859</ele>
        <time>2016-12-16T13:21:23Z</time>
      </trkpt>
      <trkpt lat="45.22423" lon="5.57055">
        <ele>1363.5999755859</ele>
        <time>2016-12-16T13:21:27Z</time>
      </trkpt>
      <trkpt lat="45.22426" lon="5.57056">
        <ele>1363.5999755859</ele>
        <time>2016-12-16T13:21:30Z</time>
      </trkpt>
      <trkpt lat="45.22427" lon="5.57055">
        <ele>1364</ele>
        <time>2016-12-16T13:21:31Z</time>
      </trkpt>
      <trkpt lat="45.22428" lon="5.57055">
        <ele>1364.4000244141</ele>
        <time>2016-12-16T13:21:32Z</time>
      </trkpt>
      <trkpt lat="45.22429" lon="5.57055">
        <ele>1364.8000488281</ele>
        <time>2016-12-16T13:21:33Z</time>
      </trkpt>
      <trkpt lat="45.2243" lon="5.57055">
        <ele>1365.1999511719</ele>
        <time>2016-12-16T13:21:34Z</time>
      </trkpt>
      <trkpt lat="45.22431" lon="5.57055">
        <ele>1365.5999755859</ele>
        <time>2016-12-16T13:21:35Z</time>
      </trkpt>
      <trkpt lat="45.22434" lon="5.57055">
        <ele>1365.5999755859</ele>
        <time>2016-12-16T13:21:38Z</time>
      </trkpt>
      <trkpt lat="45.2244" lon="5.57055">
        <ele>1365.5999755859</ele>
        <time>2016-12-16T13:21:42Z</time>
      </trkpt>
      <trkpt lat="45.22442" lon="5.57055">
        <ele>1365.5999755859</ele>
        <time>2016-12-16T13:21:44Z</time>
      </trkpt>
      <trkpt lat="45.22449" lon="5.57056">
        <ele>1366.1999511719</ele>
        <time>2016-12-16T13:21:50Z</time>
      </trkpt>
      <trkpt lat="45.2245" lon="5.57057">
        <ele>1366.5999755859</ele>
        <time>2016-12-16T13:21:51Z</time>
      </trkpt>
      <trkpt lat="45.22451" lon="5.57057">
        <ele>1367</ele>
        <time>2016-12-16T13:21:52Z</time>
      </trkpt>
      <trkpt lat="45.22452" lon="5.57059">
        <ele>1367.4000244141</ele>
        <time>2016-12-16T13:21:53Z</time>
      </trkpt>
      <trkpt lat="45.22453" lon="5.57059">
        <ele>1367.8000488281</ele>
        <time>2016-12-16T13:21:54Z</time>
      </trkpt>
      <trkpt lat="45.22455" lon="5.57059">
        <ele>1367.8000488281</ele>
        <time>2016-12-16T13:21:56Z</time>
      </trkpt>
      <trkpt lat="45.22461" lon="5.5706">
        <ele>1368.1999511719</ele>
        <time>2016-12-16T13:22:00Z</time>
      </trkpt>
      <trkpt lat="45.22462" lon="5.5706">
        <ele>1368.5999755859</ele>
        <time>2016-12-16T13:22:01Z</time>
      </trkpt>
      <trkpt lat="45.22463" lon="5.57061">
        <ele>1369</ele>
        <time>2016-12-16T13:22:02Z</time>
      </trkpt>
      <trkpt lat="45.22464" lon="5.57062">
        <ele>1369.4000244141</ele>
        <time>2016-12-16T13:22:03Z</time>
      </trkpt>
      <trkpt lat="45.22465" lon="5.57063">
        <ele>1369.8000488281</ele>
        <time>2016-12-16T13:22:04Z</time>
      </trkpt>
      <trkpt lat="45.22472" lon="5.57064">
        <ele>1369.8000488281</ele>
        <time>2016-12-16T13:22:09Z</time>
      </trkpt>
      <trkpt lat="45.22482" lon="5.57068">
        <ele>1370.1999511719</ele>
        <time>2016-12-16T13:22:16Z</time>
      </trkpt>
      <trkpt lat="45.22484" lon="5.57068">
        <ele>1370.5999755859</ele>
        <time>2016-12-16T13:22:17Z</time>
      </trkpt>
      <trkpt lat="45.22485" lon="5.57068">
        <ele>1371.1999511719</ele>
        <time>2016-12-16T13:22:18Z</time>
      </trkpt>
      <trkpt lat="45.22486" lon="5.57069">
        <ele>1371.5999755859</ele>
        <time>2016-12-16T13:22:19Z</time>
      </trkpt>
      <trkpt lat="45.22487" lon="5.57069">
        <ele>1372</ele>
        <time>2016-12-16T13:22:20Z</time>
      </trkpt>
      <trkpt lat="45.22488" lon="5.57069">
        <ele>1372</ele>
        <time>2016-12-16T13:22:21Z</time>
      </trkpt>
      <trkpt lat="45.2249" lon="5.57069">
        <ele>1372</ele>
        <time>2016-12-16T13:22:22Z</time>
      </trkpt>
      <trkpt lat="45.22495" lon="5.57071">
        <ele>1372</ele>
        <time>2016-12-16T13:22:26Z</time>
      </trkpt>
      <trkpt lat="45.22498" lon="5.57073">
        <ele>1372</ele>
        <time>2016-12-16T13:22:28Z</time>
      </trkpt>
      <trkpt lat="45.22499" lon="5.57073">
        <ele>1372.4000244141</ele>
        <time>2016-12-16T13:22:29Z</time>
      </trkpt>
      <trkpt lat="45.225" lon="5.57074">
        <ele>1372.8000488281</ele>
        <time>2016-12-16T13:22:30Z</time>
      </trkpt>
      <trkpt lat="45.22501" lon="5.57074">
        <ele>1373.1999511719</ele>
        <time>2016-12-16T13:22:31Z</time>
      </trkpt>
      <trkpt lat="45.22503" lon="5.57074">
        <ele>1373.5999755859</ele>
        <time>2016-12-16T13:22:32Z</time>
      </trkpt>
      <trkpt lat="45.22504" lon="5.57074">
        <ele>1374</ele>
        <time>2016-12-16T13:22:33Z</time>
      </trkpt>
      <trkpt lat="45.22513" lon="5.57077">
        <ele>1374</ele>
        <time>2016-12-16T13:22:41Z</time>
      </trkpt>
      <trkpt lat="45.22514" lon="5.57078">
        <ele>1374.4000244141</ele>
        <time>2016-12-16T13:22:42Z</time>
      </trkpt>
      <trkpt lat="45.22516" lon="5.57078">
        <ele>1375</ele>
        <time>2016-12-16T13:22:43Z</time>
      </trkpt>
      <trkpt lat="45.22516" lon="5.57078">
        <ele>1375.4000244141</ele>
        <time>2016-12-16T13:22:44Z</time>
      </trkpt>
      <trkpt lat="45.22517" lon="5.57078">
        <ele>1376.1999511719</ele>
        <time>2016-12-16T13:22:45Z</time>
      </trkpt>
      <trkpt lat="45.22519" lon="5.57077">
        <ele>1376.1999511719</ele>
        <time>2016-12-16T13:22:46Z</time>
      </trkpt>
      <trkpt lat="45.2252" lon="5.57077">
        <ele>1376.1999511719</ele>
        <time>2016-12-16T13:22:47Z</time>
      </trkpt>
      <trkpt lat="45.22521" lon="5.57077">
        <ele>1376.5999755859</ele>
        <time>2016-12-16T13:22:48Z</time>
      </trkpt>
      <trkpt lat="45.22523" lon="5.57077">
        <ele>1377</ele>
        <time>2016-12-16T13:22:49Z</time>
      </trkpt>
      <trkpt lat="45.22524" lon="5.57077">
        <ele>1377.5999755859</ele>
        <time>2016-12-16T13:22:50Z</time>
      </trkpt>
      <trkpt lat="45.22526" lon="5.57077">
        <ele>1378</ele>
        <time>2016-12-16T13:22:51Z</time>
      </trkpt>
      <trkpt lat="45.22526" lon="5.57077">
        <ele>1378.4000244141</ele>
        <time>2016-12-16T13:22:52Z</time>
      </trkpt>
      <trkpt lat="45.2253" lon="5.57078">
        <ele>1378.4000244141</ele>
        <time>2016-12-16T13:22:56Z</time>
      </trkpt>
      <trkpt lat="45.22533" lon="5.57076">
        <ele>1378.8000488281</ele>
        <time>2016-12-16T13:22:59Z</time>
      </trkpt>
      <trkpt lat="45.22534" lon="5.57077">
        <ele>1379.1999511719</ele>
        <time>2016-12-16T13:23:00Z</time>
      </trkpt>
      <trkpt lat="45.22534" lon="5.57076">
        <ele>1379.5999755859</ele>
        <time>2016-12-16T13:23:01Z</time>
      </trkpt>
      <trkpt lat="45.22535" lon="5.57077">
        <ele>1380</ele>
        <time>2016-12-16T13:23:02Z</time>
      </trkpt>
      <trkpt lat="45.22536" lon="5.57077">
        <ele>1380.4000244141</ele>
        <time>2016-12-16T13:23:03Z</time>
      </trkpt>
      <trkpt lat="45.22541" lon="5.57077">
        <ele>1380.4000244141</ele>
        <time>2016-12-16T13:23:08Z</time>
      </trkpt>
      <trkpt lat="45.22544" lon="5.57076">
        <ele>1380.8000488281</ele>
        <time>2016-12-16T13:23:11Z</time>
      </trkpt>
      <trkpt lat="45.22545" lon="5.57076">
        <ele>1381.1999511719</ele>
        <time>2016-12-16T13:23:12Z</time>
      </trkpt>
      <trkpt lat="45.22546" lon="5.57077">
        <ele>1381.5999755859</ele>
        <time>2016-12-16T13:23:13Z</time>
      </trkpt>
      <trkpt lat="45.22547" lon="5.57077">
        <ele>1382</ele>
        <time>2016-12-16T13:23:14Z</time>
      </trkpt>
      <trkpt lat="45.22549" lon="5.57078">
        <ele>1382.5999755859</ele>
        <time>2016-12-16T13:23:15Z</time>
      </trkpt>
      <trkpt lat="45.2255" lon="5.57079">
        <ele>1382.5999755859</ele>
        <time>2016-12-16T13:23:16Z</time>
      </trkpt>
      <trkpt lat="45.22553" lon="5.57081">
        <ele>1383</ele>
        <time>2016-12-16T13:23:19Z</time>
      </trkpt>
      <trkpt lat="45.22554" lon="5.57081">
        <ele>1383.4000244141</ele>
        <time>2016-12-16T13:23:20Z</time>
      </trkpt>
      <trkpt lat="45.22555" lon="5.57082">
        <ele>1383.8000488281</ele>
        <time>2016-12-16T13:23:21Z</time>
      </trkpt>
      <trkpt lat="45.22556" lon="5.57083">
        <ele>1384.1999511719</ele>
        <time>2016-12-16T13:23:22Z</time>
      </trkpt>
      <trkpt lat="45.22557" lon="5.57083">
        <ele>1384.5999755859</ele>
        <time>2016-12-16T13:23:23Z</time>
      </trkpt>
      <trkpt lat="45.22562" lon="5.57088">
        <ele>1384.5999755859</ele>
        <time>2016-12-16T13:23:29Z</time>
      </trkpt>
      <trkpt lat="45.22566" lon="5.57093">
        <ele>1384.5999755859</ele>
        <time>2016-12-16T13:23:34Z</time>
      </trkpt>
      <trkpt lat="45.22566" lon="5.57094">
        <ele>1384.5999755859</ele>
        <time>2016-12-16T13:23:35Z</time>
      </trkpt>
      <trkpt lat="45.22569" lon="5.57097">
        <ele>1384.5999755859</ele>
        <time>2016-12-16T13:23:39Z</time>
      </trkpt>
      <trkpt lat="45.22571" lon="5.57098">
        <ele>1385</ele>
        <time>2016-12-16T13:23:41Z</time>
      </trkpt>
      <trkpt lat="45.22572" lon="5.57099">
        <ele>1385.4000244141</ele>
        <time>2016-12-16T13:23:42Z</time>
      </trkpt>
      <trkpt lat="45.22572" lon="5.57098">
        <ele>1385.8000488281</ele>
        <time>2016-12-16T13:23:43Z</time>
      </trkpt>
      <trkpt lat="45.22572" lon="5.57098">
        <ele>1386.5999755859</ele>
        <time>2016-12-16T13:24:00Z</time>
      </trkpt>
      <trkpt lat="45.22573" lon="5.57096">
        <ele>1386.5999755859</ele>
        <time>2016-12-16T13:24:07Z</time>
      </trkpt>
      <trkpt lat="45.22573" lon="5.57094">
        <ele>1386.5999755859</ele>
        <time>2016-12-16T13:24:08Z</time>
      </trkpt>
      <trkpt lat="45.22574" lon="5.57092">
        <ele>1386.5999755859</ele>
        <time>2016-12-16T13:24:09Z</time>
      </trkpt>
      <trkpt lat="45.22578" lon="5.5709">
        <ele>1386.5999755859</ele>
        <time>2016-12-16T13:24:12Z</time>
      </trkpt>
      <trkpt lat="45.2258" lon="5.57091">
        <ele>1386.5999755859</ele>
        <time>2016-12-16T13:24:16Z</time>
      </trkpt>
      <trkpt lat="45.22589" lon="5.57091">
        <ele>1386.5999755859</ele>
        <time>2016-12-16T13:24:21Z</time>
      </trkpt>
      <trkpt lat="45.22601" lon="5.57089">
        <ele>1386.5999755859</ele>
        <time>2016-12-16T13:24:28Z</time>
      </trkpt>
      <trkpt lat="45.22607" lon="5.57087">
        <ele>1386.5999755859</ele>
        <time>2016-12-16T13:24:34Z</time>
      </trkpt>
      <trkpt lat="45.22609" lon="5.57085">
        <ele>1386.5999755859</ele>
        <time>2016-12-16T13:24:35Z</time>
      </trkpt>
      <trkpt lat="45.22609" lon="5.57085">
        <ele>1387.1999511719</ele>
        <time>2016-12-16T13:24:36Z</time>
      </trkpt>
      <trkpt lat="45.22611" lon="5.57084">
        <ele>1387.5999755859</ele>
        <time>2016-12-16T13:24:37Z</time>
      </trkpt>
      <trkpt lat="45.22613" lon="5.57083">
        <ele>1388</ele>
        <time>2016-12-16T13:24:38Z</time>
      </trkpt>
      <trkpt lat="45.22614" lon="5.57081">
        <ele>1388.4000244141</ele>
        <time>2016-12-16T13:24:39Z</time>
      </trkpt>
      <trkpt lat="45.22616" lon="5.5708">
        <ele>1388.8000488281</ele>
        <time>2016-12-16T13:24:40Z</time>
      </trkpt>
      <trkpt lat="45.22619" lon="5.57078">
        <ele>1389.1999511719</ele>
        <time>2016-12-16T13:24:43Z</time>
      </trkpt>
      <trkpt lat="45.2262" lon="5.57078">
        <ele>1389.5999755859</ele>
        <time>2016-12-16T13:24:44Z</time>
      </trkpt>
      <trkpt lat="45.2262" lon="5.57077">
        <ele>1390.1999511719</ele>
        <time>2016-12-16T13:24:45Z</time>
      </trkpt>
      <trkpt lat="45.22621" lon="5.57077">
        <ele>1390.5999755859</ele>
        <time>2016-12-16T13:24:46Z</time>
      </trkpt>
      <trkpt lat="45.22622" lon="5.57075">
        <ele>1391</ele>
        <time>2016-12-16T13:24:47Z</time>
      </trkpt>
      <trkpt lat="45.22623" lon="5.57075">
        <ele>1391</ele>
        <time>2016-12-16T13:24:48Z</time>
      </trkpt>
      <trkpt lat="45.22625" lon="5.57075">
        <ele>1391</ele>
        <time>2016-12-16T13:24:50Z</time>
      </trkpt>
      <trkpt lat="45.22627" lon="5.57074">
        <ele>1391.4000244141</ele>
        <time>2016-12-16T13:24:52Z</time>
      </trkpt>
      <trkpt lat="45.22628" lon="5.57073">
        <ele>1391.8000488281</ele>
        <time>2016-12-16T13:24:53Z</time>
      </trkpt>
      <trkpt lat="45.22628" lon="5.57072">
        <ele>1392.1999511719</ele>
        <time>2016-12-16T13:24:54Z</time>
      </trkpt>
      <trkpt lat="45.22628" lon="5.57072">
        <ele>1392.5999755859</ele>
        <time>2016-12-16T13:24:55Z</time>
      </trkpt>
      <trkpt lat="45.22629" lon="5.57071">
        <ele>1393</ele>
        <time>2016-12-16T13:24:56Z</time>
      </trkpt>
      <trkpt lat="45.22633" lon="5.57067">
        <ele>1393</ele>
        <time>2016-12-16T13:25:01Z</time>
      </trkpt>
      <trkpt lat="45.22635" lon="5.57067">
        <ele>1393</ele>
        <time>2016-12-16T13:25:02Z</time>
      </trkpt>
      <trkpt lat="45.22638" lon="5.57067">
        <ele>1393.4000244141</ele>
        <time>2016-12-16T13:25:05Z</time>
      </trkpt>
      <trkpt lat="45.2264" lon="5.57067">
        <ele>1394</ele>
        <time>2016-12-16T13:25:06Z</time>
      </trkpt>
      <trkpt lat="45.22641" lon="5.57066">
        <ele>1394.4000244141</ele>
        <time>2016-12-16T13:25:07Z</time>
      </trkpt>
      <trkpt lat="45.22643" lon="5.57066">
        <ele>1394.8000488281</ele>
        <time>2016-12-16T13:25:08Z</time>
      </trkpt>
      <trkpt lat="45.22644" lon="5.57066">
        <ele>1395.1999511719</ele>
        <time>2016-12-16T13:25:09Z</time>
      </trkpt>
      <trkpt lat="45.22645" lon="5.57064">
        <ele>1395.1999511719</ele>
        <time>2016-12-16T13:25:10Z</time>
      </trkpt>
      <trkpt lat="45.22648" lon="5.57062">
        <ele>1395.1999511719</ele>
        <time>2016-12-16T13:25:13Z</time>
      </trkpt>
      <trkpt lat="45.22649" lon="5.57061">
        <ele>1396</ele>
        <time>2016-12-16T13:25:14Z</time>
      </trkpt>
      <trkpt lat="45.2265" lon="5.57061">
        <ele>1396.4000244141</ele>
        <time>2016-12-16T13:25:15Z</time>
      </trkpt>
      <trkpt lat="45.22651" lon="5.57061">
        <ele>1396.8000488281</ele>
        <time>2016-12-16T13:25:16Z</time>
      </trkpt>
      <trkpt lat="45.22653" lon="5.57061">
        <ele>1397.1999511719</ele>
        <time>2016-12-16T13:25:17Z</time>
      </trkpt>
      <trkpt lat="45.22656" lon="5.57059">
        <ele>1397.1999511719</ele>
        <time>2016-12-16T13:25:19Z</time>
      </trkpt>
      <trkpt lat="45.22661" lon="5.57056">
        <ele>1397.5999755859</ele>
        <time>2016-12-16T13:25:23Z</time>
      </trkpt>
      <trkpt lat="45.22663" lon="5.57055">
        <ele>1398</ele>
        <time>2016-12-16T13:25:24Z</time>
      </trkpt>
      <trkpt lat="45.22663" lon="5.57055">
        <ele>1398.4000244141</ele>
        <time>2016-12-16T13:25:25Z</time>
      </trkpt>
      <trkpt lat="45.22665" lon="5.57054">
        <ele>1398.8000488281</ele>
        <time>2016-12-16T13:25:26Z</time>
      </trkpt>
      <trkpt lat="45.22667" lon="5.57054">
        <ele>1399.1999511719</ele>
        <time>2016-12-16T13:25:27Z</time>
      </trkpt>
      <trkpt lat="45.2267" lon="5.57054">
        <ele>1399.1999511719</ele>
        <time>2016-12-16T13:25:30Z</time>
      </trkpt>
      <trkpt lat="45.22671" lon="5.57054">
        <ele>1399.5999755859</ele>
        <time>2016-12-16T13:25:31Z</time>
      </trkpt>
      <trkpt lat="45.22673" lon="5.57054">
        <ele>1400</ele>
        <time>2016-12-16T13:25:32Z</time>
      </trkpt>
      <trkpt lat="45.22674" lon="5.57053">
        <ele>1400.5999755859</ele>
        <time>2016-12-16T13:25:33Z</time>
      </trkpt>
      <trkpt lat="45.22676" lon="5.57052">
        <ele>1401</ele>
        <time>2016-12-16T13:25:34Z</time>
      </trkpt>
      <trkpt lat="45.22677" lon="5.57051">
        <ele>1401.4000244141</ele>
        <time>2016-12-16T13:25:35Z</time>
      </trkpt>
      <trkpt lat="45.2268" lon="5.57051">
        <ele>1401.4000244141</ele>
        <time>2016-12-16T13:25:37Z</time>
      </trkpt>
      <trkpt lat="45.22684" lon="5.57051">
        <ele>1401.8000488281</ele>
        <time>2016-12-16T13:25:40Z</time>
      </trkpt>
      <trkpt lat="45.22686" lon="5.57051">
        <ele>1402.1999511719</ele>
        <time>2016-12-16T13:25:41Z</time>
      </trkpt>
      <trkpt lat="45.22686" lon="5.57052">
        <ele>1402.5999755859</ele>
        <time>2016-12-16T13:25:42Z</time>
      </trkpt>
      <trkpt lat="45.22687" lon="5.57052">
        <ele>1403.1999511719</ele>
        <time>2016-12-16T13:25:43Z</time>
      </trkpt>
      <trkpt lat="45.22688" lon="5.57052">
        <ele>1403.5999755859</ele>
        <time>2016-12-16T13:25:44Z</time>
      </trkpt>
      <trkpt lat="45.22693" lon="5.57052">
        <ele>1404</ele>
        <time>2016-12-16T13:25:48Z</time>
      </trkpt>
      <trkpt lat="45.22694" lon="5.57052">
        <ele>1404.4000244141</ele>
        <time>2016-12-16T13:25:49Z</time>
      </trkpt>
      <trkpt lat="45.22695" lon="5.57051">
        <ele>1404.8000488281</ele>
        <time>2016-12-16T13:25:50Z</time>
      </trkpt>
      <trkpt lat="45.22697" lon="5.5705">
        <ele>1405.1999511719</ele>
        <time>2016-12-16T13:25:51Z</time>
      </trkpt>
      <trkpt lat="45.22697" lon="5.5705">
        <ele>1405.5999755859</ele>
        <time>2016-12-16T13:25:52Z</time>
      </trkpt>
      <trkpt lat="45.227" lon="5.57048">
        <ele>1405.5999755859</ele>
        <time>2016-12-16T13:25:54Z</time>
      </trkpt>
      <trkpt lat="45.22705" lon="5.57046">
        <ele>1406</ele>
        <time>2016-12-16T13:25:58Z</time>
      </trkpt>
      <trkpt lat="45.22706" lon="5.57045">
        <ele>1406.5999755859</ele>
        <time>2016-12-16T13:25:59Z</time>
      </trkpt>
      <trkpt lat="45.22707" lon="5.57044">
        <ele>1407</ele>
        <time>2016-12-16T13:26:00Z</time>
      </trkpt>
      <trkpt lat="45.22708" lon="5.57045">
        <ele>1407.4000244141</ele>
        <time>2016-12-16T13:26:01Z</time>
      </trkpt>
      <trkpt lat="45.22709" lon="5.57045">
        <ele>1407.8000488281</ele>
        <time>2016-12-16T13:26:02Z</time>
      </trkpt>
      <trkpt lat="45.22712" lon="5.57043">
        <ele>1407.8000488281</ele>
        <time>2016-12-16T13:26:05Z</time>
      </trkpt>
      <trkpt lat="45.22722" lon="5.57041">
        <ele>1407.8000488281</ele>
        <time>2016-12-16T13:26:10Z</time>
      </trkpt>
      <trkpt lat="45.22732" lon="5.57039">
        <ele>1407.8000488281</ele>
        <time>2016-12-16T13:26:16Z</time>
      </trkpt>
      <trkpt lat="45.22742" lon="5.57037">
        <ele>1407.8000488281</ele>
        <time>2016-12-16T13:26:22Z</time>
      </trkpt>
      <trkpt lat="45.22748" lon="5.57037">
        <ele>1407.8000488281</ele>
        <time>2016-12-16T13:26:27Z</time>
      </trkpt>
      <trkpt lat="45.2275" lon="5.57037">
        <ele>1408.1999511719</ele>
        <time>2016-12-16T13:26:28Z</time>
      </trkpt>
      <trkpt lat="45.22751" lon="5.57036">
        <ele>1409.1999511719</ele>
        <time>2016-12-16T13:26:29Z</time>
      </trkpt>
      <trkpt lat="45.22752" lon="5.57035">
        <ele>1409.5999755859</ele>
        <time>2016-12-16T13:26:30Z</time>
      </trkpt>
      <trkpt lat="45.22753" lon="5.57035">
        <ele>1410</ele>
        <time>2016-12-16T13:26:31Z</time>
      </trkpt>
      <trkpt lat="45.22757" lon="5.57035">
        <ele>1410</ele>
        <time>2016-12-16T13:26:33Z</time>
      </trkpt>
      <trkpt lat="45.22759" lon="5.57035">
        <ele>1410.4000244141</ele>
        <time>2016-12-16T13:26:34Z</time>
      </trkpt>
      <trkpt lat="45.2276" lon="5.57035">
        <ele>1410.8000488281</ele>
        <time>2016-12-16T13:26:35Z</time>
      </trkpt>
      <trkpt lat="45.22762" lon="5.57035">
        <ele>1411.1999511719</ele>
        <time>2016-12-16T13:26:36Z</time>
      </trkpt>
      <trkpt lat="45.22764" lon="5.57036">
        <ele>1411.5999755859</ele>
        <time>2016-12-16T13:26:37Z</time>
      </trkpt>
      <trkpt lat="45.22766" lon="5.57035">
        <ele>1412</ele>
        <time>2016-12-16T13:26:38Z</time>
      </trkpt>
      <trkpt lat="45.2277" lon="5.57034">
        <ele>1412.4000244141</ele>
        <time>2016-12-16T13:26:41Z</time>
      </trkpt>
      <trkpt lat="45.22771" lon="5.57034">
        <ele>1412.8000488281</ele>
        <time>2016-12-16T13:26:42Z</time>
      </trkpt>
      <trkpt lat="45.22773" lon="5.57034">
        <ele>1413.1999511719</ele>
        <time>2016-12-16T13:26:43Z</time>
      </trkpt>
      <trkpt lat="45.22774" lon="5.57034">
        <ele>1413.5999755859</ele>
        <time>2016-12-16T13:26:44Z</time>
      </trkpt>
      <trkpt lat="45.22776" lon="5.57034">
        <ele>1414</ele>
        <time>2016-12-16T13:26:45Z</time>
      </trkpt>
      <trkpt lat="45.22778" lon="5.57033">
        <ele>1414</ele>
        <time>2016-12-16T13:26:47Z</time>
      </trkpt>
      <trkpt lat="45.22782" lon="5.57031">
        <ele>1414</ele>
        <time>2016-12-16T13:26:50Z</time>
      </trkpt>
      <trkpt lat="45.22784" lon="5.57029">
        <ele>1414.5999755859</ele>
        <time>2016-12-16T13:26:52Z</time>
      </trkpt>
      <trkpt lat="45.22785" lon="5.57028">
        <ele>1415.4000244141</ele>
        <time>2016-12-16T13:26:53Z</time>
      </trkpt>
      <trkpt lat="45.22787" lon="5.57027">
        <ele>1415.8000488281</ele>
        <time>2016-12-16T13:26:54Z</time>
      </trkpt>
      <trkpt lat="45.22788" lon="5.57026">
        <ele>1416.1999511719</ele>
        <time>2016-12-16T13:26:55Z</time>
      </trkpt>
      <trkpt lat="45.22789" lon="5.57025">
        <ele>1416.1999511719</ele>
        <time>2016-12-16T13:26:56Z</time>
      </trkpt>
      <trkpt lat="45.22791" lon="5.57022">
        <ele>1416.5999755859</ele>
        <time>2016-12-16T13:26:59Z</time>
      </trkpt>
      <trkpt lat="45.22793" lon="5.57021">
        <ele>1417</ele>
        <time>2016-12-16T13:27:00Z</time>
      </trkpt>
      <trkpt lat="45.22794" lon="5.5702">
        <ele>1417.4000244141</ele>
        <time>2016-12-16T13:27:01Z</time>
      </trkpt>
      <trkpt lat="45.22795" lon="5.57018">
        <ele>1418</ele>
        <time>2016-12-16T13:27:02Z</time>
      </trkpt>
      <trkpt lat="45.22796" lon="5.57018">
        <ele>1418.4000244141</ele>
        <time>2016-12-16T13:27:03Z</time>
      </trkpt>
      <trkpt lat="45.228" lon="5.57016">
        <ele>1418.4000244141</ele>
        <time>2016-12-16T13:27:07Z</time>
      </trkpt>
      <trkpt lat="45.22803" lon="5.57016">
        <ele>1418.8000488281</ele>
        <time>2016-12-16T13:27:09Z</time>
      </trkpt>
      <trkpt lat="45.22804" lon="5.57016">
        <ele>1419.1999511719</ele>
        <time>2016-12-16T13:27:10Z</time>
      </trkpt>
      <trkpt lat="45.22806" lon="5.57016">
        <ele>1419.5999755859</ele>
        <time>2016-12-16T13:27:11Z</time>
      </trkpt>
      <trkpt lat="45.22807" lon="5.57015">
        <ele>1420</ele>
        <time>2016-12-16T13:27:12Z</time>
      </trkpt>
      <trkpt lat="45.22808" lon="5.57015">
        <ele>1420.4000244141</ele>
        <time>2016-12-16T13:27:13Z</time>
      </trkpt>
      <trkpt lat="45.22809" lon="5.57015">
        <ele>1420.4000244141</ele>
        <time>2016-12-16T13:27:14Z</time>
      </trkpt>
      <trkpt lat="45.22814" lon="5.57016">
        <ele>1420.4000244141</ele>
        <time>2016-12-16T13:27:17Z</time>
      </trkpt>
      <trkpt lat="45.22815" lon="5.57016">
        <ele>1420.4000244141</ele>
        <time>2016-12-16T13:27:18Z</time>
      </trkpt>
      <trkpt lat="45.22818" lon="5.57016">
        <ele>1420.4000244141</ele>
        <time>2016-12-16T13:27:23Z</time>
      </trkpt>
      <trkpt lat="45.22824" lon="5.57016">
        <ele>1420.4000244141</ele>
        <time>2016-12-16T13:27:26Z</time>
      </trkpt>
      <trkpt lat="45.22826" lon="5.57015">
        <ele>1420.4000244141</ele>
        <time>2016-12-16T13:27:28Z</time>
      </trkpt>
      <trkpt lat="45.22829" lon="5.57014">
        <ele>1420.8000488281</ele>
        <time>2016-12-16T13:27:30Z</time>
      </trkpt>
      <trkpt lat="45.2283" lon="5.57013">
        <ele>1421.1999511719</ele>
        <time>2016-12-16T13:27:31Z</time>
      </trkpt>
      <trkpt lat="45.22831" lon="5.57012">
        <ele>1421.5999755859</ele>
        <time>2016-12-16T13:27:32Z</time>
      </trkpt>
      <trkpt lat="45.22832" lon="5.57011">
        <ele>1422</ele>
        <time>2016-12-16T13:27:33Z</time>
      </trkpt>
      <trkpt lat="45.22834" lon="5.57011">
        <ele>1422.5999755859</ele>
        <time>2016-12-16T13:27:34Z</time>
      </trkpt>
      <trkpt lat="45.22838" lon="5.5701">
        <ele>1422.5999755859</ele>
        <time>2016-12-16T13:27:39Z</time>
      </trkpt>
      <trkpt lat="45.22843" lon="5.57008">
        <ele>1423</ele>
        <time>2016-12-16T13:27:44Z</time>
      </trkpt>
      <trkpt lat="45.22845" lon="5.57007">
        <ele>1423.4000244141</ele>
        <time>2016-12-16T13:27:45Z</time>
      </trkpt>
      <trkpt lat="45.22846" lon="5.57006">
        <ele>1423.8000488281</ele>
        <time>2016-12-16T13:27:46Z</time>
      </trkpt>
      <trkpt lat="45.22847" lon="5.57005">
        <ele>1424.1999511719</ele>
        <time>2016-12-16T13:27:47Z</time>
      </trkpt>
      <trkpt lat="45.22848" lon="5.57004">
        <ele>1424.5999755859</ele>
        <time>2016-12-16T13:27:48Z</time>
      </trkpt>
      <trkpt lat="45.22852" lon="5.57006">
        <ele>1424.5999755859</ele>
        <time>2016-12-16T13:27:51Z</time>
      </trkpt>
      <trkpt lat="45.22856" lon="5.5701">
        <ele>1425</ele>
        <time>2016-12-16T13:27:55Z</time>
      </trkpt>
      <trkpt lat="45.22857" lon="5.5701">
        <ele>1425.5999755859</ele>
        <time>2016-12-16T13:27:56Z</time>
      </trkpt>
      <trkpt lat="45.22857" lon="5.57011">
        <ele>1426</ele>
        <time>2016-12-16T13:27:57Z</time>
      </trkpt>
      <trkpt lat="45.22858" lon="5.57012">
        <ele>1426.8000488281</ele>
        <time>2016-12-16T13:28:02Z</time>
      </trkpt>
      <trkpt lat="45.22859" lon="5.57014">
        <ele>1426.8000488281</ele>
        <time>2016-12-16T13:28:07Z</time>
      </trkpt>
      <trkpt lat="45.22865" lon="5.57014">
        <ele>1426.8000488281</ele>
        <time>2016-12-16T13:28:37Z</time>
      </trkpt>
      <trkpt lat="45.2287" lon="5.5702">
        <ele>1426.8000488281</ele>
        <time>2016-12-16T13:28:43Z</time>
      </trkpt>
      <trkpt lat="45.22876" lon="5.57026">
        <ele>1426.8000488281</ele>
        <time>2016-12-16T13:28:48Z</time>
      </trkpt>
      <trkpt lat="45.22877" lon="5.57027">
        <ele>1426.8000488281</ele>
        <time>2016-12-16T13:28:49Z</time>
      </trkpt>
      <trkpt lat="45.22878" lon="5.57031">
        <ele>1427.4000244141</ele>
        <time>2016-12-16T13:28:52Z</time>
      </trkpt>
      <trkpt lat="45.22878" lon="5.57033">
        <ele>1427.8000488281</ele>
        <time>2016-12-16T13:28:53Z</time>
      </trkpt>
      <trkpt lat="45.22878" lon="5.57035">
        <ele>1428.1999511719</ele>
        <time>2016-12-16T13:28:54Z</time>
      </trkpt>
      <trkpt lat="45.22878" lon="5.57038">
        <ele>1428.5999755859</ele>
        <time>2016-12-16T13:28:55Z</time>
      </trkpt>
      <trkpt lat="45.22879" lon="5.5704">
        <ele>1429.1999511719</ele>
        <time>2016-12-16T13:28:56Z</time>
      </trkpt>
      <trkpt lat="45.22881" lon="5.57048">
        <ele>1429.1999511719</ele>
        <time>2016-12-16T13:29:01Z</time>
      </trkpt>
      <trkpt lat="45.22883" lon="5.57052">
        <ele>1429.5999755859</ele>
        <time>2016-12-16T13:29:03Z</time>
      </trkpt>
      <trkpt lat="45.22883" lon="5.57054">
        <ele>1430</ele>
        <time>2016-12-16T13:29:04Z</time>
      </trkpt>
      <trkpt lat="45.22884" lon="5.57055">
        <ele>1430.4000244141</ele>
        <time>2016-12-16T13:29:05Z</time>
      </trkpt>
      <trkpt lat="45.22885" lon="5.57058">
        <ele>1430.8000488281</ele>
        <time>2016-12-16T13:29:06Z</time>
      </trkpt>
      <trkpt lat="45.22886" lon="5.57059">
        <ele>1431.1999511719</ele>
        <time>2016-12-16T13:29:07Z</time>
      </trkpt>
      <trkpt lat="45.22889" lon="5.57069">
        <ele>1431.8000488281</ele>
        <time>2016-12-16T13:29:14Z</time>
      </trkpt>
      <trkpt lat="45.2289" lon="5.57071">
        <ele>1432.1999511719</ele>
        <time>2016-12-16T13:29:15Z</time>
      </trkpt>
      <trkpt lat="45.22891" lon="5.57073">
        <ele>1432.5999755859</ele>
        <time>2016-12-16T13:29:16Z</time>
      </trkpt>
      <trkpt lat="45.22892" lon="5.57075">
        <ele>1433</ele>
        <time>2016-12-16T13:29:17Z</time>
      </trkpt>
      <trkpt lat="45.22893" lon="5.57076">
        <ele>1433.5999755859</ele>
        <time>2016-12-16T13:29:18Z</time>
      </trkpt>
      <trkpt lat="45.22894" lon="5.57078">
        <ele>1433.5999755859</ele>
        <time>2016-12-16T13:29:19Z</time>
      </trkpt>
      <trkpt lat="45.229" lon="5.57087">
        <ele>1434</ele>
        <time>2016-12-16T13:29:25Z</time>
      </trkpt>
      <trkpt lat="45.22901" lon="5.57088">
        <ele>1434.4000244141</ele>
        <time>2016-12-16T13:29:26Z</time>
      </trkpt>
      <trkpt lat="45.22902" lon="5.57089">
        <ele>1434.8000488281</ele>
        <time>2016-12-16T13:29:27Z</time>
      </trkpt>
      <trkpt lat="45.22904" lon="5.57091">
        <ele>1435.1999511719</ele>
        <time>2016-12-16T13:29:28Z</time>
      </trkpt>
      <trkpt lat="45.22905" lon="5.57093">
        <ele>1435.5999755859</ele>
        <time>2016-12-16T13:29:29Z</time>
      </trkpt>
      <trkpt lat="45.22908" lon="5.57099">
        <ele>1435.5999755859</ele>
        <time>2016-12-16T13:29:33Z</time>
      </trkpt>
      <trkpt lat="45.22912" lon="5.5711">
        <ele>1436</ele>
        <time>2016-12-16T13:29:39Z</time>
      </trkpt>
      <trkpt lat="45.22913" lon="5.57111">
        <ele>1436.4000244141</ele>
        <time>2016-12-16T13:29:40Z</time>
      </trkpt>
      <trkpt lat="45.22914" lon="5.57113">
        <ele>1436.8000488281</ele>
        <time>2016-12-16T13:29:41Z</time>
      </trkpt>
      <trkpt lat="45.22914" lon="5.57114">
        <ele>1437.1999511719</ele>
        <time>2016-12-16T13:29:42Z</time>
      </trkpt>
      <trkpt lat="45.22915" lon="5.57115">
        <ele>1437.5999755859</ele>
        <time>2016-12-16T13:29:43Z</time>
      </trkpt>
      <trkpt lat="45.22916" lon="5.5712">
        <ele>1438</ele>
        <time>2016-12-16T13:29:46Z</time>
      </trkpt>
      <trkpt lat="45.22916" lon="5.57122">
        <ele>1438.5999755859</ele>
        <time>2016-12-16T13:29:47Z</time>
      </trkpt>
      <trkpt lat="45.22916" lon="5.57123">
        <ele>1439</ele>
        <time>2016-12-16T13:29:48Z</time>
      </trkpt>
      <trkpt lat="45.22916" lon="5.57124">
        <ele>1439.4000244141</ele>
        <time>2016-12-16T13:29:49Z</time>
      </trkpt>
      <trkpt lat="45.22917" lon="5.57125">
        <ele>1439.8000488281</ele>
        <time>2016-12-16T13:29:50Z</time>
      </trkpt>
      <trkpt lat="45.22918" lon="5.57128">
        <ele>1439.8000488281</ele>
        <time>2016-12-16T13:29:53Z</time>
      </trkpt>
      <trkpt lat="45.22919" lon="5.57132">
        <ele>1440.1999511719</ele>
        <time>2016-12-16T13:29:55Z</time>
      </trkpt>
      <trkpt lat="45.2292" lon="5.57133">
        <ele>1440.5999755859</ele>
        <time>2016-12-16T13:29:56Z</time>
      </trkpt>
      <trkpt lat="45.2292" lon="5.57134">
        <ele>1441</ele>
        <time>2016-12-16T13:29:57Z</time>
      </trkpt>
      <trkpt lat="45.22922" lon="5.57135">
        <ele>1441.4000244141</ele>
        <time>2016-12-16T13:29:58Z</time>
      </trkpt>
      <trkpt lat="45.22922" lon="5.57137">
        <ele>1441.8000488281</ele>
        <time>2016-12-16T13:29:59Z</time>
      </trkpt>
      <trkpt lat="45.22927" lon="5.57147">
        <ele>1441.8000488281</ele>
        <time>2016-12-16T13:30:04Z</time>
      </trkpt>
      <trkpt lat="45.22928" lon="5.57151">
        <ele>1442.4000244141</ele>
        <time>2016-12-16T13:30:07Z</time>
      </trkpt>
      <trkpt lat="45.2293" lon="5.57152">
        <ele>1442.8000488281</ele>
        <time>2016-12-16T13:30:08Z</time>
      </trkpt>
      <trkpt lat="45.2293" lon="5.57153">
        <ele>1443.1999511719</ele>
        <time>2016-12-16T13:30:09Z</time>
      </trkpt>
      <trkpt lat="45.22932" lon="5.57155">
        <ele>1443.8000488281</ele>
        <time>2016-12-16T13:30:10Z</time>
      </trkpt>
      <trkpt lat="45.22933" lon="5.57156">
        <ele>1444.1999511719</ele>
        <time>2016-12-16T13:30:11Z</time>
      </trkpt>
      <trkpt lat="45.22934" lon="5.57158">
        <ele>1444.5999755859</ele>
        <time>2016-12-16T13:30:12Z</time>
      </trkpt>
      <trkpt lat="45.22934" lon="5.5716">
        <ele>1445</ele>
        <time>2016-12-16T13:30:13Z</time>
      </trkpt>
      <trkpt lat="45.22936" lon="5.57161">
        <ele>1445.5999755859</ele>
        <time>2016-12-16T13:30:14Z</time>
      </trkpt>
      <trkpt lat="45.22937" lon="5.57162">
        <ele>1446</ele>
        <time>2016-12-16T13:30:15Z</time>
      </trkpt>
      <trkpt lat="45.22937" lon="5.57162">
        <ele>1446.4000244141</ele>
        <time>2016-12-16T13:30:16Z</time>
      </trkpt>
      <trkpt lat="45.22939" lon="5.57165">
        <ele>1446.4000244141</ele>
        <time>2016-12-16T13:30:18Z</time>
      </trkpt>
      <trkpt lat="45.22942" lon="5.57167">
        <ele>1446.8000488281</ele>
        <time>2016-12-16T13:30:21Z</time>
      </trkpt>
      <trkpt lat="45.22943" lon="5.57169">
        <ele>1447.4000244141</ele>
        <time>2016-12-16T13:30:22Z</time>
      </trkpt>
      <trkpt lat="45.22944" lon="5.5717">
        <ele>1447.8000488281</ele>
        <time>2016-12-16T13:30:23Z</time>
      </trkpt>
      <trkpt lat="45.22945" lon="5.57171">
        <ele>1448.1999511719</ele>
        <time>2016-12-16T13:30:24Z</time>
      </trkpt>
      <trkpt lat="45.22946" lon="5.57173">
        <ele>1448.5999755859</ele>
        <time>2016-12-16T13:30:25Z</time>
      </trkpt>
      <trkpt lat="45.22948" lon="5.57175">
        <ele>1448.5999755859</ele>
        <time>2016-12-16T13:30:26Z</time>
      </trkpt>
      <trkpt lat="45.22951" lon="5.57178">
        <ele>1449</ele>
        <time>2016-12-16T13:30:30Z</time>
      </trkpt>
      <trkpt lat="45.22952" lon="5.5718">
        <ele>1449.4000244141</ele>
        <time>2016-12-16T13:30:31Z</time>
      </trkpt>
      <trkpt lat="45.22953" lon="5.57182">
        <ele>1449.8000488281</ele>
        <time>2016-12-16T13:30:32Z</time>
      </trkpt>
      <trkpt lat="45.22954" lon="5.57185">
        <ele>1450.1999511719</ele>
        <time>2016-12-16T13:30:33Z</time>
      </trkpt>
      <trkpt lat="45.22954" lon="5.57187">
        <ele>1450.5999755859</ele>
        <time>2016-12-16T13:30:34Z</time>
      </trkpt>
      <trkpt lat="45.22956" lon="5.57192">
        <ele>1450.5999755859</ele>
        <time>2016-12-16T13:30:36Z</time>
      </trkpt>
      <trkpt lat="45.22958" lon="5.57197">
        <ele>1450.5999755859</ele>
        <time>2016-12-16T13:30:39Z</time>
      </trkpt>
      <trkpt lat="45.2296" lon="5.572">
        <ele>1450.5999755859</ele>
        <time>2016-12-16T13:30:41Z</time>
      </trkpt>
      <trkpt lat="45.22963" lon="5.57205">
        <ele>1450.5999755859</ele>
        <time>2016-12-16T13:30:44Z</time>
      </trkpt>
      <trkpt lat="45.22968" lon="5.57217">
        <ele>1451</ele>
        <time>2016-12-16T13:30:51Z</time>
      </trkpt>
      <trkpt lat="45.22969" lon="5.57218">
        <ele>1451.5999755859</ele>
        <time>2016-12-16T13:30:52Z</time>
      </trkpt>
      <trkpt lat="45.22969" lon="5.57221">
        <ele>1452</ele>
        <time>2016-12-16T13:30:53Z</time>
      </trkpt>
      <trkpt lat="45.22969" lon="5.57223">
        <ele>1452.4000244141</ele>
        <time>2016-12-16T13:30:54Z</time>
      </trkpt>
      <trkpt lat="45.2297" lon="5.57225">
        <ele>1452.8000488281</ele>
        <time>2016-12-16T13:30:55Z</time>
      </trkpt>
      <trkpt lat="45.22972" lon="5.57232">
        <ele>1452.8000488281</ele>
        <time>2016-12-16T13:30:59Z</time>
      </trkpt>
      <trkpt lat="45.22977" lon="5.57242">
        <ele>1452.8000488281</ele>
        <time>2016-12-16T13:31:06Z</time>
      </trkpt>
      <trkpt lat="45.22979" lon="5.57243">
        <ele>1452.8000488281</ele>
        <time>2016-12-16T13:31:11Z</time>
      </trkpt>
      <trkpt lat="45.22979" lon="5.57243">
        <ele>1452.8000488281</ele>
        <time>2016-12-16T13:31:50Z</time>
      </trkpt>
      <trkpt lat="45.22979" lon="5.57243">
        <ele>1452.8000488281</ele>
        <time>2016-12-16T13:32:16Z</time>
      </trkpt>
      <trkpt lat="45.22979" lon="5.57243">
        <ele>1452.8000488281</ele>
        <time>2016-12-16T13:32:41Z</time>
      </trkpt>
      <trkpt lat="45.22979" lon="5.57243">
        <ele>1452.8000488281</ele>
        <time>2016-12-16T13:32:51Z</time>
      </trkpt>
      <trkpt lat="45.22979" lon="5.57246">
        <ele>1452.8000488281</ele>
        <time>2016-12-16T13:33:09Z</time>
      </trkpt>
      <trkpt lat="45.22981" lon="5.57249">
        <ele>1452.8000488281</ele>
        <time>2016-12-16T13:33:10Z</time>
      </trkpt>
      <trkpt lat="45.22988" lon="5.57272">
        <ele>1452.1999511719</ele>
        <time>2016-12-16T13:33:13Z</time>
      </trkpt>
      <trkpt lat="45.22989" lon="5.5728">
        <ele>1451.5999755859</ele>
        <time>2016-12-16T13:33:14Z</time>
      </trkpt>
      <trkpt lat="45.22989" lon="5.57286">
        <ele>1451.1999511719</ele>
        <time>2016-12-16T13:33:15Z</time>
      </trkpt>
      <trkpt lat="45.22989" lon="5.57293">
        <ele>1450.5999755859</ele>
        <time>2016-12-16T13:33:16Z</time>
      </trkpt>
      <trkpt lat="45.22991" lon="5.573">
        <ele>1450.1999511719</ele>
        <time>2016-12-16T13:33:17Z</time>
      </trkpt>
      <trkpt lat="45.22995" lon="5.57311">
        <ele>1449.5999755859</ele>
        <time>2016-12-16T13:33:18Z</time>
      </trkpt>
      <trkpt lat="45.23" lon="5.57321">
        <ele>1449</ele>
        <time>2016-12-16T13:33:19Z</time>
      </trkpt>
      <trkpt lat="45.23006" lon="5.57332">
        <ele>1448.1999511719</ele>
        <time>2016-12-16T13:33:20Z</time>
      </trkpt>
      <trkpt lat="45.23014" lon="5.57341">
        <ele>1447.4000244141</ele>
        <time>2016-12-16T13:33:21Z</time>
      </trkpt>
      <trkpt lat="45.23022" lon="5.5735">
        <ele>1446.1999511719</ele>
        <time>2016-12-16T13:33:22Z</time>
      </trkpt>
      <trkpt lat="45.23029" lon="5.57353">
        <ele>1445</ele>
        <time>2016-12-16T13:33:23Z</time>
      </trkpt>
      <trkpt lat="45.23037" lon="5.57358">
        <ele>1443.8000488281</ele>
        <time>2016-12-16T13:33:24Z</time>
      </trkpt>
      <trkpt lat="45.23044" lon="5.57364">
        <ele>1442.4000244141</ele>
        <time>2016-12-16T13:33:25Z</time>
      </trkpt>
      <trkpt lat="45.23049" lon="5.57368">
        <ele>1441.1999511719</ele>
        <time>2016-12-16T13:33:26Z</time>
      </trkpt>
      <trkpt lat="45.23054" lon="5.57371">
        <ele>1441.1999511719</ele>
        <time>2016-12-16T13:33:27Z</time>
      </trkpt>
      <trkpt lat="45.23058" lon="5.57378">
        <ele>1441.1999511719</ele>
        <time>2016-12-16T13:33:30Z</time>
      </trkpt>
      <trkpt lat="45.23068" lon="5.57395">
        <ele>1441.1999511719</ele>
        <time>2016-12-16T13:33:34Z</time>
      </trkpt>
      <trkpt lat="45.23073" lon="5.57402">
        <ele>1441.1999511719</ele>
        <time>2016-12-16T13:33:38Z</time>
      </trkpt>
      <trkpt lat="45.23074" lon="5.57402">
        <ele>1441.1999511719</ele>
        <time>2016-12-16T13:33:39Z</time>
      </trkpt>
      <trkpt lat="45.23079" lon="5.57407">
        <ele>1441.1999511719</ele>
        <time>2016-12-16T13:33:43Z</time>
      </trkpt>
      <trkpt lat="45.23084" lon="5.57413">
        <ele>1441.1999511719</ele>
        <time>2016-12-16T13:33:46Z</time>
      </trkpt>
      <trkpt lat="45.23087" lon="5.57417">
        <ele>1441.1999511719</ele>
        <time>2016-12-16T13:33:47Z</time>
      </trkpt>
      <trkpt lat="45.23091" lon="5.57427">
        <ele>1441.1999511719</ele>
        <time>2016-12-16T13:33:50Z</time>
      </trkpt>
      <trkpt lat="45.23091" lon="5.57429">
        <ele>1441.1999511719</ele>
        <time>2016-12-16T13:33:51Z</time>
      </trkpt>
      <trkpt lat="45.23089" lon="5.57435">
        <ele>1441.1999511719</ele>
        <time>2016-12-16T13:33:54Z</time>
      </trkpt>
      <trkpt lat="45.23084" lon="5.57437">
        <ele>1441.1999511719</ele>
        <time>2016-12-16T13:33:56Z</time>
      </trkpt>
      <trkpt lat="45.23076" lon="5.57431">
        <ele>1440.8000488281</ele>
        <time>2016-12-16T13:33:59Z</time>
      </trkpt>
      <trkpt lat="45.23074" lon="5.57429">
        <ele>1440.1999511719</ele>
        <time>2016-12-16T13:34:00Z</time>
      </trkpt>
      <trkpt lat="45.23072" lon="5.57427">
        <ele>1439.8000488281</ele>
        <time>2016-12-16T13:34:01Z</time>
      </trkpt>
      <trkpt lat="45.2307" lon="5.57427">
        <ele>1439.1999511719</ele>
        <time>2016-12-16T13:34:02Z</time>
      </trkpt>
      <trkpt lat="45.2307" lon="5.5743">
        <ele>1438.5999755859</ele>
        <time>2016-12-16T13:34:03Z</time>
      </trkpt>
      <trkpt lat="45.23071" lon="5.57433">
        <ele>1438</ele>
        <time>2016-12-16T13:34:04Z</time>
      </trkpt>
      <trkpt lat="45.23071" lon="5.57436">
        <ele>1437.4000244141</ele>
        <time>2016-12-16T13:34:05Z</time>
      </trkpt>
      <trkpt lat="45.23071" lon="5.57438">
        <ele>1436.8000488281</ele>
        <time>2016-12-16T13:34:06Z</time>
      </trkpt>
      <trkpt lat="45.23076" lon="5.57448">
        <ele>1436.8000488281</ele>
        <time>2016-12-16T13:34:10Z</time>
      </trkpt>
      <trkpt lat="45.23081" lon="5.57458">
        <ele>1436.8000488281</ele>
        <time>2016-12-16T13:34:15Z</time>
      </trkpt>
      <trkpt lat="45.23087" lon="5.57472">
        <ele>1436.8000488281</ele>
        <time>2016-12-16T13:34:21Z</time>
      </trkpt>
      <trkpt lat="45.23088" lon="5.57475">
        <ele>1436.8000488281</ele>
        <time>2016-12-16T13:34:22Z</time>
      </trkpt>
      <trkpt lat="45.23092" lon="5.57487">
        <ele>1437.1999511719</ele>
        <time>2016-12-16T13:34:27Z</time>
      </trkpt>
      <trkpt lat="45.23093" lon="5.5749">
        <ele>1437.5999755859</ele>
        <time>2016-12-16T13:34:28Z</time>
      </trkpt>
      <trkpt lat="45.23093" lon="5.57492">
        <ele>1438</ele>
        <time>2016-12-16T13:34:29Z</time>
      </trkpt>
      <trkpt lat="45.23094" lon="5.57495">
        <ele>1438.5999755859</ele>
        <time>2016-12-16T13:34:30Z</time>
      </trkpt>
      <trkpt lat="45.23094" lon="5.57499">
        <ele>1439</ele>
        <time>2016-12-16T13:34:31Z</time>
      </trkpt>
      <trkpt lat="45.23095" lon="5.57505">
        <ele>1439</ele>
        <time>2016-12-16T13:34:33Z</time>
      </trkpt>
      <trkpt lat="45.23098" lon="5.57522">
        <ele>1439</ele>
        <time>2016-12-16T13:34:39Z</time>
      </trkpt>
      <trkpt lat="45.23097" lon="5.5754">
        <ele>1439</ele>
        <time>2016-12-16T13:34:45Z</time>
      </trkpt>
      <trkpt lat="45.23098" lon="5.57545">
        <ele>1439.4000244141</ele>
        <time>2016-12-16T13:34:47Z</time>
      </trkpt>
      <trkpt lat="45.23097" lon="5.57547">
        <ele>1439.8000488281</ele>
        <time>2016-12-16T13:34:48Z</time>
      </trkpt>
      <trkpt lat="45.23096" lon="5.5755">
        <ele>1440.1999511719</ele>
        <time>2016-12-16T13:34:49Z</time>
      </trkpt>
      <trkpt lat="45.23096" lon="5.57552">
        <ele>1440.5999755859</ele>
        <time>2016-12-16T13:34:50Z</time>
      </trkpt>
      <trkpt lat="45.23096" lon="5.57555">
        <ele>1441.1999511719</ele>
        <time>2016-12-16T13:34:51Z</time>
      </trkpt>
      <trkpt lat="45.23096" lon="5.57567">
        <ele>1441.1999511719</ele>
        <time>2016-12-16T13:34:56Z</time>
      </trkpt>
      <trkpt lat="45.23096" lon="5.57572">
        <ele>1441.1999511719</ele>
        <time>2016-12-16T13:34:58Z</time>
      </trkpt>
      <trkpt lat="45.23095" lon="5.57582">
        <ele>1441.1999511719</ele>
        <time>2016-12-16T13:35:02Z</time>
      </trkpt>
      <trkpt lat="45.23095" lon="5.57585">
        <ele>1441.5999755859</ele>
        <time>2016-12-16T13:35:03Z</time>
      </trkpt>
      <trkpt lat="45.23095" lon="5.57587">
        <ele>1442</ele>
        <time>2016-12-16T13:35:04Z</time>
      </trkpt>
      <trkpt lat="45.23095" lon="5.57588">
        <ele>1442.4000244141</ele>
        <time>2016-12-16T13:35:05Z</time>
      </trkpt>
      <trkpt lat="45.23095" lon="5.5759">
        <ele>1443</ele>
        <time>2016-12-16T13:35:06Z</time>
      </trkpt>
      <trkpt lat="45.23095" lon="5.57593">
        <ele>1443.4000244141</ele>
        <time>2016-12-16T13:35:07Z</time>
      </trkpt>
      <trkpt lat="45.23095" lon="5.57595">
        <ele>1443.4000244141</ele>
        <time>2016-12-16T13:35:08Z</time>
      </trkpt>
      <trkpt lat="45.23095" lon="5.57608">
        <ele>1443.4000244141</ele>
        <time>2016-12-16T13:35:14Z</time>
      </trkpt>
      <trkpt lat="45.23096" lon="5.57613">
        <ele>1443.8000488281</ele>
        <time>2016-12-16T13:35:17Z</time>
      </trkpt>
      <trkpt lat="45.23096" lon="5.57615">
        <ele>1444.1999511719</ele>
        <time>2016-12-16T13:35:18Z</time>
      </trkpt>
      <trkpt lat="45.23097" lon="5.57616">
        <ele>1444.5999755859</ele>
        <time>2016-12-16T13:35:19Z</time>
      </trkpt>
      <trkpt lat="45.23098" lon="5.57617">
        <ele>1445</ele>
        <time>2016-12-16T13:35:20Z</time>
      </trkpt>
      <trkpt lat="45.23099" lon="5.57618">
        <ele>1445.4000244141</ele>
        <time>2016-12-16T13:35:21Z</time>
      </trkpt>
      <trkpt lat="45.23103" lon="5.57622">
        <ele>1445.4000244141</ele>
        <time>2016-12-16T13:35:25Z</time>
      </trkpt>
      <trkpt lat="45.23105" lon="5.57623">
        <ele>1445.8000488281</ele>
        <time>2016-12-16T13:35:27Z</time>
      </trkpt>
      <trkpt lat="45.23106" lon="5.57624">
        <ele>1446.1999511719</ele>
        <time>2016-12-16T13:35:28Z</time>
      </trkpt>
      <trkpt lat="45.23107" lon="5.57625">
        <ele>1446.5999755859</ele>
        <time>2016-12-16T13:35:29Z</time>
      </trkpt>
      <trkpt lat="45.23108" lon="5.57626">
        <ele>1447</ele>
        <time>2016-12-16T13:35:30Z</time>
      </trkpt>
      <trkpt lat="45.23109" lon="5.57626">
        <ele>1447.4000244141</ele>
        <time>2016-12-16T13:35:31Z</time>
      </trkpt>
      <trkpt lat="45.2311" lon="5.57626">
        <ele>1447.4000244141</ele>
        <time>2016-12-16T13:35:32Z</time>
      </trkpt>
      <trkpt lat="45.23115" lon="5.57623">
        <ele>1448</ele>
        <time>2016-12-16T13:35:37Z</time>
      </trkpt>
      <trkpt lat="45.23116" lon="5.57622">
        <ele>1448.4000244141</ele>
        <time>2016-12-16T13:35:38Z</time>
      </trkpt>
      <trkpt lat="45.23116" lon="5.57622">
        <ele>1448.8000488281</ele>
        <time>2016-12-16T13:35:39Z</time>
      </trkpt>
      <trkpt lat="45.23117" lon="5.57621">
        <ele>1449.1999511719</ele>
        <time>2016-12-16T13:35:40Z</time>
      </trkpt>
      <trkpt lat="45.23118" lon="5.57621">
        <ele>1449.5999755859</ele>
        <time>2016-12-16T13:35:41Z</time>
      </trkpt>
      <trkpt lat="45.2312" lon="5.5762">
        <ele>1449.5999755859</ele>
        <time>2016-12-16T13:35:43Z</time>
      </trkpt>
      <trkpt lat="45.23123" lon="5.57615">
        <ele>1450</ele>
        <time>2016-12-16T13:35:46Z</time>
      </trkpt>
      <trkpt lat="45.23124" lon="5.57614">
        <ele>1450.4000244141</ele>
        <time>2016-12-16T13:35:47Z</time>
      </trkpt>
      <trkpt lat="45.23125" lon="5.57612">
        <ele>1450.8000488281</ele>
        <time>2016-12-16T13:35:48Z</time>
      </trkpt>
      <trkpt lat="45.23126" lon="5.5761">
        <ele>1451.1999511719</ele>
        <time>2016-12-16T13:35:49Z</time>
      </trkpt>
      <trkpt lat="45.23126" lon="5.57608">
        <ele>1451.8000488281</ele>
        <time>2016-12-16T13:35:50Z</time>
      </trkpt>
      <trkpt lat="45.23127" lon="5.57603">
        <ele>1451.8000488281</ele>
        <time>2016-12-16T13:35:53Z</time>
      </trkpt>
      <trkpt lat="45.23127" lon="5.57601">
        <ele>1451.8000488281</ele>
        <time>2016-12-16T13:35:54Z</time>
      </trkpt>
      <trkpt lat="45.23134" lon="5.57584">
        <ele>1451.8000488281</ele>
        <time>2016-12-16T13:36:02Z</time>
      </trkpt>
      <trkpt lat="45.23141" lon="5.57567">
        <ele>1451.8000488281</ele>
        <time>2016-12-16T13:36:09Z</time>
      </trkpt>
      <trkpt lat="45.23142" lon="5.57564">
        <ele>1452.1999511719</ele>
        <time>2016-12-16T13:36:10Z</time>
      </trkpt>
      <trkpt lat="45.23143" lon="5.57562">
        <ele>1452.5999755859</ele>
        <time>2016-12-16T13:36:11Z</time>
      </trkpt>
      <trkpt lat="45.23145" lon="5.57559">
        <ele>1453</ele>
        <time>2016-12-16T13:36:12Z</time>
      </trkpt>
      <trkpt lat="45.23146" lon="5.57557">
        <ele>1453.4000244141</ele>
        <time>2016-12-16T13:36:13Z</time>
      </trkpt>
      <trkpt lat="45.23148" lon="5.57554">
        <ele>1453.8000488281</ele>
        <time>2016-12-16T13:36:14Z</time>
      </trkpt>
      <trkpt lat="45.2315" lon="5.57549">
        <ele>1453.8000488281</ele>
        <time>2016-12-16T13:36:16Z</time>
      </trkpt>
      <trkpt lat="45.23154" lon="5.57544">
        <ele>1453.8000488281</ele>
        <time>2016-12-16T13:36:19Z</time>
      </trkpt>
      <trkpt lat="45.23158" lon="5.57541">
        <ele>1453.8000488281</ele>
        <time>2016-12-16T13:36:21Z</time>
      </trkpt>
      <trkpt lat="45.23173" lon="5.57524">
        <ele>1453.8000488281</ele>
        <time>2016-12-16T13:36:30Z</time>
      </trkpt>
      <trkpt lat="45.23183" lon="5.57514">
        <ele>1453.8000488281</ele>
        <time>2016-12-16T13:36:37Z</time>
      </trkpt>
      <trkpt lat="45.2319" lon="5.57509">
        <ele>1454.1999511719</ele>
        <time>2016-12-16T13:36:41Z</time>
      </trkpt>
      <trkpt lat="45.23193" lon="5.57508">
        <ele>1454.5999755859</ele>
        <time>2016-12-16T13:36:42Z</time>
      </trkpt>
      <trkpt lat="45.23194" lon="5.57506">
        <ele>1455</ele>
        <time>2016-12-16T13:36:43Z</time>
      </trkpt>
      <trkpt lat="45.23196" lon="5.57504">
        <ele>1455.4000244141</ele>
        <time>2016-12-16T13:36:44Z</time>
      </trkpt>
      <trkpt lat="45.23198" lon="5.57503">
        <ele>1455.8000488281</ele>
        <time>2016-12-16T13:36:45Z</time>
      </trkpt>
      <trkpt lat="45.23205" lon="5.57496">
        <ele>1455.8000488281</ele>
        <time>2016-12-16T13:36:49Z</time>
      </trkpt>
      <trkpt lat="45.23212" lon="5.57485">
        <ele>1455.8000488281</ele>
        <time>2016-12-16T13:36:55Z</time>
      </trkpt>
      <trkpt lat="45.2322" lon="5.57478">
        <ele>1456.4000244141</ele>
        <time>2016-12-16T13:37:00Z</time>
      </trkpt>
      <trkpt lat="45.23221" lon="5.57477">
        <ele>1456.8000488281</ele>
        <time>2016-12-16T13:37:01Z</time>
      </trkpt>
      <trkpt lat="45.23222" lon="5.57475">
        <ele>1457.1999511719</ele>
        <time>2016-12-16T13:37:02Z</time>
      </trkpt>
      <trkpt lat="45.23223" lon="5.57473">
        <ele>1457.5999755859</ele>
        <time>2016-12-16T13:37:03Z</time>
      </trkpt>
      <trkpt lat="45.23225" lon="5.57472">
        <ele>1458</ele>
        <time>2016-12-16T13:37:04Z</time>
      </trkpt>
      <trkpt lat="45.23231" lon="5.57468">
        <ele>1458</ele>
        <time>2016-12-16T13:37:07Z</time>
      </trkpt>
      <trkpt lat="45.23233" lon="5.57469">
        <ele>1458</ele>
        <time>2016-12-16T13:37:08Z</time>
      </trkpt>
      <trkpt lat="45.2324" lon="5.5747">
        <ele>1458</ele>
        <time>2016-12-16T13:37:12Z</time>
      </trkpt>
      <trkpt lat="45.23241" lon="5.5747">
        <ele>1458.4000244141</ele>
        <time>2016-12-16T13:37:13Z</time>
      </trkpt>
      <trkpt lat="45.23243" lon="5.57471">
        <ele>1458.8000488281</ele>
        <time>2016-12-16T13:37:14Z</time>
      </trkpt>
      <trkpt lat="45.23245" lon="5.57471">
        <ele>1459.1999511719</ele>
        <time>2016-12-16T13:37:15Z</time>
      </trkpt>
      <trkpt lat="45.23247" lon="5.57472">
        <ele>1459.8000488281</ele>
        <time>2016-12-16T13:37:16Z</time>
      </trkpt>
      <trkpt lat="45.23249" lon="5.57473">
        <ele>1460.1999511719</ele>
        <time>2016-12-16T13:37:17Z</time>
      </trkpt>
      <trkpt lat="45.23251" lon="5.57474">
        <ele>1460.1999511719</ele>
        <time>2016-12-16T13:37:18Z</time>
      </trkpt>
      <trkpt lat="45.23263" lon="5.57477">
        <ele>1460.1999511719</ele>
        <time>2016-12-16T13:37:23Z</time>
      </trkpt>
      <trkpt lat="45.2327" lon="5.5748">
        <ele>1460.1999511719</ele>
        <time>2016-12-16T13:37:26Z</time>
      </trkpt>
      <trkpt lat="45.23287" lon="5.57486">
        <ele>1460.1999511719</ele>
        <time>2016-12-16T13:37:32Z</time>
      </trkpt>
      <trkpt lat="45.23304" lon="5.57495">
        <ele>1460.1999511719</ele>
        <time>2016-12-16T13:37:38Z</time>
      </trkpt>
      <trkpt lat="45.23321" lon="5.57507">
        <ele>1460.1999511719</ele>
        <time>2016-12-16T13:37:44Z</time>
      </trkpt>
      <trkpt lat="45.23337" lon="5.57523">
        <ele>1460.1999511719</ele>
        <time>2016-12-16T13:37:52Z</time>
      </trkpt>
      <trkpt lat="45.23339" lon="5.57538">
        <ele>1460.1999511719</ele>
        <time>2016-12-16T13:37:57Z</time>
      </trkpt>
      <trkpt lat="45.2334" lon="5.5756">
        <ele>1460.1999511719</ele>
        <time>2016-12-16T13:38:03Z</time>
      </trkpt>
      <trkpt lat="45.2334" lon="5.57585">
        <ele>1460.1999511719</ele>
        <time>2016-12-16T13:38:08Z</time>
      </trkpt>
      <trkpt lat="45.23346" lon="5.57602">
        <ele>1460.1999511719</ele>
        <time>2016-12-16T13:38:13Z</time>
      </trkpt>
      <trkpt lat="45.23348" lon="5.57605">
        <ele>1460.5999755859</ele>
        <time>2016-12-16T13:38:14Z</time>
      </trkpt>
      <trkpt lat="45.23351" lon="5.57607">
        <ele>1461</ele>
        <time>2016-12-16T13:38:15Z</time>
      </trkpt>
      <trkpt lat="45.23352" lon="5.57608">
        <ele>1461.4000244141</ele>
        <time>2016-12-16T13:38:16Z</time>
      </trkpt>
      <trkpt lat="45.23354" lon="5.57609">
        <ele>1461.8000488281</ele>
        <time>2016-12-16T13:38:17Z</time>
      </trkpt>
      <trkpt lat="45.23355" lon="5.57611">
        <ele>1462.1999511719</ele>
        <time>2016-12-16T13:38:18Z</time>
      </trkpt>
      <trkpt lat="45.23357" lon="5.57612">
        <ele>1462.1999511719</ele>
        <time>2016-12-16T13:38:19Z</time>
      </trkpt>
      <trkpt lat="45.23362" lon="5.5761">
        <ele>1462.1999511719</ele>
        <time>2016-12-16T13:38:24Z</time>
      </trkpt>
      <trkpt lat="45.23366" lon="5.57611">
        <ele>1462.8000488281</ele>
        <time>2016-12-16T13:38:28Z</time>
      </trkpt>
      <trkpt lat="45.23367" lon="5.57611">
        <ele>1463.1999511719</ele>
        <time>2016-12-16T13:38:29Z</time>
      </trkpt>
      <trkpt lat="45.23369" lon="5.57611">
        <ele>1463.5999755859</ele>
        <time>2016-12-16T13:38:30Z</time>
      </trkpt>
      <trkpt lat="45.2337" lon="5.5761">
        <ele>1464.1999511719</ele>
        <time>2016-12-16T13:38:31Z</time>
      </trkpt>
      <trkpt lat="45.23371" lon="5.57609">
        <ele>1464.5999755859</ele>
        <time>2016-12-16T13:38:32Z</time>
      </trkpt>
      <trkpt lat="45.23376" lon="5.57608">
        <ele>1465</ele>
        <time>2016-12-16T13:38:35Z</time>
      </trkpt>
      <trkpt lat="45.23377" lon="5.57607">
        <ele>1465.4000244141</ele>
        <time>2016-12-16T13:38:36Z</time>
      </trkpt>
      <trkpt lat="45.23378" lon="5.57606">
        <ele>1466</ele>
        <time>2016-12-16T13:38:37Z</time>
      </trkpt>
      <trkpt lat="45.2338" lon="5.57606">
        <ele>1466.4000244141</ele>
        <time>2016-12-16T13:38:38Z</time>
      </trkpt>
      <trkpt lat="45.23381" lon="5.57606">
        <ele>1466.8000488281</ele>
        <time>2016-12-16T13:38:39Z</time>
      </trkpt>
      <trkpt lat="45.23383" lon="5.57607">
        <ele>1466.8000488281</ele>
        <time>2016-12-16T13:38:41Z</time>
      </trkpt>
      <trkpt lat="45.23385" lon="5.57608">
        <ele>1467.1999511719</ele>
        <time>2016-12-16T13:38:42Z</time>
      </trkpt>
      <trkpt lat="45.23386" lon="5.57609">
        <ele>1467.8000488281</ele>
        <time>2016-12-16T13:38:43Z</time>
      </trkpt>
      <trkpt lat="45.23387" lon="5.57609">
        <ele>1468.1999511719</ele>
        <time>2016-12-16T13:38:44Z</time>
      </trkpt>
      <trkpt lat="45.23389" lon="5.5761">
        <ele>1468.5999755859</ele>
        <time>2016-12-16T13:38:45Z</time>
      </trkpt>
      <trkpt lat="45.2339" lon="5.57611">
        <ele>1469.1999511719</ele>
        <time>2016-12-16T13:38:46Z</time>
      </trkpt>
      <trkpt lat="45.23392" lon="5.57612">
        <ele>1469.1999511719</ele>
        <time>2016-12-16T13:38:47Z</time>
      </trkpt>
      <trkpt lat="45.23394" lon="5.57614">
        <ele>1469.5999755859</ele>
        <time>2016-12-16T13:38:49Z</time>
      </trkpt>
      <trkpt lat="45.23395" lon="5.57615">
        <ele>1470</ele>
        <time>2016-12-16T13:38:50Z</time>
      </trkpt>
      <trkpt lat="45.23397" lon="5.57615">
        <ele>1470.4000244141</ele>
        <time>2016-12-16T13:38:51Z</time>
      </trkpt>
      <trkpt lat="45.23398" lon="5.57616">
        <ele>1470.8000488281</ele>
        <time>2016-12-16T13:38:52Z</time>
      </trkpt>
      <trkpt lat="45.23399" lon="5.57616">
        <ele>1471.1999511719</ele>
        <time>2016-12-16T13:38:53Z</time>
      </trkpt>
      <trkpt lat="45.23401" lon="5.57616">
        <ele>1471.1999511719</ele>
        <time>2016-12-16T13:38:54Z</time>
      </trkpt>
      <trkpt lat="45.23408" lon="5.57618">
        <ele>1471.5999755859</ele>
        <time>2016-12-16T13:38:59Z</time>
      </trkpt>
      <trkpt lat="45.23409" lon="5.57619">
        <ele>1472</ele>
        <time>2016-12-16T13:39:00Z</time>
      </trkpt>
      <trkpt lat="45.23411" lon="5.57619">
        <ele>1472.5999755859</ele>
        <time>2016-12-16T13:39:01Z</time>
      </trkpt>
      <trkpt lat="45.23412" lon="5.57619">
        <ele>1473</ele>
        <time>2016-12-16T13:39:02Z</time>
      </trkpt>
      <trkpt lat="45.23414" lon="5.5762">
        <ele>1473.4000244141</ele>
        <time>2016-12-16T13:39:03Z</time>
      </trkpt>
      <trkpt lat="45.23415" lon="5.57621">
        <ele>1473.4000244141</ele>
        <time>2016-12-16T13:39:04Z</time>
      </trkpt>
      <trkpt lat="45.23418" lon="5.57627">
        <ele>1473.8000488281</ele>
        <time>2016-12-16T13:39:08Z</time>
      </trkpt>
      <trkpt lat="45.23419" lon="5.57629">
        <ele>1474.1999511719</ele>
        <time>2016-12-16T13:39:09Z</time>
      </trkpt>
      <trkpt lat="45.23419" lon="5.5763">
        <ele>1474.8000488281</ele>
        <time>2016-12-16T13:39:10Z</time>
      </trkpt>
      <trkpt lat="45.23419" lon="5.57632">
        <ele>1475.1999511719</ele>
        <time>2016-12-16T13:39:11Z</time>
      </trkpt>
      <trkpt lat="45.2342" lon="5.57633">
        <ele>1475.5999755859</ele>
        <time>2016-12-16T13:39:12Z</time>
      </trkpt>
      <trkpt lat="45.2342" lon="5.57638">
        <ele>1475.5999755859</ele>
        <time>2016-12-16T13:39:14Z</time>
      </trkpt>
      <trkpt lat="45.2342" lon="5.57642">
        <ele>1476</ele>
        <time>2016-12-16T13:39:16Z</time>
      </trkpt>
      <trkpt lat="45.23421" lon="5.57644">
        <ele>1476.4000244141</ele>
        <time>2016-12-16T13:39:17Z</time>
      </trkpt>
      <trkpt lat="45.23421" lon="5.57646">
        <ele>1476.8000488281</ele>
        <time>2016-12-16T13:39:18Z</time>
      </trkpt>
      <trkpt lat="45.23422" lon="5.57648">
        <ele>1477.4000244141</ele>
        <time>2016-12-16T13:39:19Z</time>
      </trkpt>
      <trkpt lat="45.23423" lon="5.57651">
        <ele>1477.8000488281</ele>
        <time>2016-12-16T13:39:20Z</time>
      </trkpt>
      <trkpt lat="45.23424" lon="5.57652">
        <ele>1477.8000488281</ele>
        <time>2016-12-16T13:39:21Z</time>
      </trkpt>
      <trkpt lat="45.23428" lon="5.57657">
        <ele>1478.1999511719</ele>
        <time>2016-12-16T13:39:25Z</time>
      </trkpt>
      <trkpt lat="45.23429" lon="5.57659">
        <ele>1478.5999755859</ele>
        <time>2016-12-16T13:39:26Z</time>
      </trkpt>
      <trkpt lat="45.2343" lon="5.57661">
        <ele>1479</ele>
        <time>2016-12-16T13:39:27Z</time>
      </trkpt>
      <trkpt lat="45.23431" lon="5.57662">
        <ele>1479.4000244141</ele>
        <time>2016-12-16T13:39:28Z</time>
      </trkpt>
      <trkpt lat="45.23432" lon="5.57664">
        <ele>1479.8000488281</ele>
        <time>2016-12-16T13:39:29Z</time>
      </trkpt>
      <trkpt lat="45.23435" lon="5.57671">
        <ele>1480.1999511719</ele>
        <time>2016-12-16T13:39:34Z</time>
      </trkpt>
      <trkpt lat="45.23436" lon="5.57673">
        <ele>1480.5999755859</ele>
        <time>2016-12-16T13:39:35Z</time>
      </trkpt>
      <trkpt lat="45.23437" lon="5.57674">
        <ele>1481.1999511719</ele>
        <time>2016-12-16T13:39:36Z</time>
      </trkpt>
      <trkpt lat="45.23438" lon="5.57676">
        <ele>1481.5999755859</ele>
        <time>2016-12-16T13:39:37Z</time>
      </trkpt>
      <trkpt lat="45.23438" lon="5.57677">
        <ele>1482</ele>
        <time>2016-12-16T13:39:38Z</time>
      </trkpt>
      <trkpt lat="45.2344" lon="5.57677">
        <ele>1482</ele>
        <time>2016-12-16T13:39:39Z</time>
      </trkpt>
      <trkpt lat="45.2344" lon="5.57677">
        <ele>1482</ele>
        <time>2016-12-16T13:39:41Z</time>
      </trkpt>
      <trkpt lat="45.2344" lon="5.57678">
        <ele>1482</ele>
        <time>2016-12-16T13:39:47Z</time>
      </trkpt>
      <trkpt lat="45.2344" lon="5.57677">
        <ele>1482</ele>
        <time>2016-12-16T13:40:30Z</time>
      </trkpt>
      <trkpt lat="45.2344" lon="5.57677">
        <ele>1482</ele>
        <time>2016-12-16T13:40:56Z</time>
      </trkpt>
      <trkpt lat="45.2344" lon="5.57677">
        <ele>1482</ele>
        <time>2016-12-16T13:41:08Z</time>
      </trkpt>
      <trkpt lat="45.23442" lon="5.57676">
        <ele>1482</ele>
        <time>2016-12-16T13:41:21Z</time>
      </trkpt>
      <trkpt lat="45.23447" lon="5.57663">
        <ele>1482</ele>
        <time>2016-12-16T13:41:26Z</time>
      </trkpt>
      <trkpt lat="45.23459" lon="5.57654">
        <ele>1482</ele>
        <time>2016-12-16T13:41:31Z</time>
      </trkpt>
      <trkpt lat="45.23462" lon="5.57653">
        <ele>1482.4000244141</ele>
        <time>2016-12-16T13:41:33Z</time>
      </trkpt>
      <trkpt lat="45.23464" lon="5.57652">
        <ele>1482.8000488281</ele>
        <time>2016-12-16T13:41:34Z</time>
      </trkpt>
      <trkpt lat="45.23466" lon="5.57652">
        <ele>1483.4000244141</ele>
        <time>2016-12-16T13:41:35Z</time>
      </trkpt>
      <trkpt lat="45.23468" lon="5.57652">
        <ele>1483.8000488281</ele>
        <time>2016-12-16T13:41:36Z</time>
      </trkpt>
      <trkpt lat="45.2347" lon="5.57651">
        <ele>1484.1999511719</ele>
        <time>2016-12-16T13:41:37Z</time>
      </trkpt>
      <trkpt lat="45.23471" lon="5.57652">
        <ele>1484.1999511719</ele>
        <time>2016-12-16T13:41:38Z</time>
      </trkpt>
      <trkpt lat="45.23479" lon="5.57653">
        <ele>1484.5999755859</ele>
        <time>2016-12-16T13:41:43Z</time>
      </trkpt>
      <trkpt lat="45.23481" lon="5.57654">
        <ele>1485</ele>
        <time>2016-12-16T13:41:44Z</time>
      </trkpt>
      <trkpt lat="45.23483" lon="5.57654">
        <ele>1485.4000244141</ele>
        <time>2016-12-16T13:41:45Z</time>
      </trkpt>
      <trkpt lat="45.23485" lon="5.57654">
        <ele>1485.8000488281</ele>
        <time>2016-12-16T13:41:46Z</time>
      </trkpt>
      <trkpt lat="45.23486" lon="5.57653">
        <ele>1486.1999511719</ele>
        <time>2016-12-16T13:41:47Z</time>
      </trkpt>
      <trkpt lat="45.23492" lon="5.57653">
        <ele>1486.1999511719</ele>
        <time>2016-12-16T13:41:51Z</time>
      </trkpt>
      <trkpt lat="45.23499" lon="5.57653">
        <ele>1486.5999755859</ele>
        <time>2016-12-16T13:41:56Z</time>
      </trkpt>
      <trkpt lat="45.235" lon="5.57653">
        <ele>1487.1999511719</ele>
        <time>2016-12-16T13:41:57Z</time>
      </trkpt>
      <trkpt lat="45.23502" lon="5.57653">
        <ele>1487.5999755859</ele>
        <time>2016-12-16T13:41:58Z</time>
      </trkpt>
      <trkpt lat="45.23504" lon="5.57652">
        <ele>1488</ele>
        <time>2016-12-16T13:41:59Z</time>
      </trkpt>
      <trkpt lat="45.23507" lon="5.57652">
        <ele>1488.4000244141</ele>
        <time>2016-12-16T13:42:00Z</time>
      </trkpt>
      <trkpt lat="45.23511" lon="5.57652">
        <ele>1488.4000244141</ele>
        <time>2016-12-16T13:42:02Z</time>
      </trkpt>
      <trkpt lat="45.2352" lon="5.57649">
        <ele>1488.4000244141</ele>
        <time>2016-12-16T13:42:07Z</time>
      </trkpt>
      <trkpt lat="45.23522" lon="5.57648">
        <ele>1488.4000244141</ele>
        <time>2016-12-16T13:42:08Z</time>
      </trkpt>
      <trkpt lat="45.23527" lon="5.57648">
        <ele>1488.8000488281</ele>
        <time>2016-12-16T13:42:12Z</time>
      </trkpt>
      <trkpt lat="45.23529" lon="5.57648">
        <ele>1489.1999511719</ele>
        <time>2016-12-16T13:42:13Z</time>
      </trkpt>
      <trkpt lat="45.2353" lon="5.57649">
        <ele>1489.5999755859</ele>
        <time>2016-12-16T13:42:14Z</time>
      </trkpt>
      <trkpt lat="45.23532" lon="5.57649">
        <ele>1490.1999511719</ele>
        <time>2016-12-16T13:42:15Z</time>
      </trkpt>
      <trkpt lat="45.23534" lon="5.5765">
        <ele>1490.5999755859</ele>
        <time>2016-12-16T13:42:16Z</time>
      </trkpt>
      <trkpt lat="45.2354" lon="5.57654">
        <ele>1490.5999755859</ele>
        <time>2016-12-16T13:42:20Z</time>
      </trkpt>
      <trkpt lat="45.23552" lon="5.57659">
        <ele>1490.5999755859</ele>
        <time>2016-12-16T13:42:27Z</time>
      </trkpt>
      <trkpt lat="45.23565" lon="5.57662">
        <ele>1490.5999755859</ele>
        <time>2016-12-16T13:42:34Z</time>
      </trkpt>
      <trkpt lat="45.23571" lon="5.57663">
        <ele>1491</ele>
        <time>2016-12-16T13:42:37Z</time>
      </trkpt>
      <trkpt lat="45.23572" lon="5.57664">
        <ele>1491.4000244141</ele>
        <time>2016-12-16T13:42:38Z</time>
      </trkpt>
      <trkpt lat="45.23573" lon="5.57665">
        <ele>1491.8000488281</ele>
        <time>2016-12-16T13:42:39Z</time>
      </trkpt>
      <trkpt lat="45.23575" lon="5.57665">
        <ele>1492.4000244141</ele>
        <time>2016-12-16T13:42:40Z</time>
      </trkpt>
      <trkpt lat="45.23576" lon="5.57666">
        <ele>1492.8000488281</ele>
        <time>2016-12-16T13:42:41Z</time>
      </trkpt>
      <trkpt lat="45.23578" lon="5.57667">
        <ele>1493.1999511719</ele>
        <time>2016-12-16T13:42:43Z</time>
      </trkpt>
      <trkpt lat="45.23579" lon="5.57669">
        <ele>1493.5999755859</ele>
        <time>2016-12-16T13:42:44Z</time>
      </trkpt>
      <trkpt lat="45.23581" lon="5.5767">
        <ele>1494</ele>
        <time>2016-12-16T13:42:45Z</time>
      </trkpt>
      <trkpt lat="45.23582" lon="5.57671">
        <ele>1494.4000244141</ele>
        <time>2016-12-16T13:42:46Z</time>
      </trkpt>
      <trkpt lat="45.23583" lon="5.57672">
        <ele>1494.8000488281</ele>
        <time>2016-12-16T13:42:47Z</time>
      </trkpt>
      <trkpt lat="45.23585" lon="5.57673">
        <ele>1494.8000488281</ele>
        <time>2016-12-16T13:42:48Z</time>
      </trkpt>
      <trkpt lat="45.23589" lon="5.57676">
        <ele>1495.1999511719</ele>
        <time>2016-12-16T13:42:51Z</time>
      </trkpt>
      <trkpt lat="45.23591" lon="5.57677">
        <ele>1495.5999755859</ele>
        <time>2016-12-16T13:42:52Z</time>
      </trkpt>
      <trkpt lat="45.23592" lon="5.57678">
        <ele>1496</ele>
        <time>2016-12-16T13:42:53Z</time>
      </trkpt>
      <trkpt lat="45.23594" lon="5.57679">
        <ele>1496.4000244141</ele>
        <time>2016-12-16T13:42:54Z</time>
      </trkpt>
      <trkpt lat="45.23595" lon="5.57681">
        <ele>1496.8000488281</ele>
        <time>2016-12-16T13:42:55Z</time>
      </trkpt>
      <trkpt lat="45.23596" lon="5.57682">
        <ele>1497.5999755859</ele>
        <time>2016-12-16T13:42:56Z</time>
      </trkpt>
      <trkpt lat="45.23597" lon="5.57683">
        <ele>1498.1999511719</ele>
        <time>2016-12-16T13:42:57Z</time>
      </trkpt>
      <trkpt lat="45.23597" lon="5.57686">
        <ele>1498.5999755859</ele>
        <time>2016-12-16T13:42:58Z</time>
      </trkpt>
      <trkpt lat="45.23598" lon="5.57687">
        <ele>1499</ele>
        <time>2016-12-16T13:42:59Z</time>
      </trkpt>
      <trkpt lat="45.23601" lon="5.57688">
        <ele>1499</ele>
        <time>2016-12-16T13:43:01Z</time>
      </trkpt>
      <trkpt lat="45.23603" lon="5.57691">
        <ele>1499.4000244141</ele>
        <time>2016-12-16T13:43:04Z</time>
      </trkpt>
      <trkpt lat="45.23604" lon="5.57691">
        <ele>1499.8000488281</ele>
        <time>2016-12-16T13:43:05Z</time>
      </trkpt>
      <trkpt lat="45.23605" lon="5.57693">
        <ele>1500.1999511719</ele>
        <time>2016-12-16T13:43:06Z</time>
      </trkpt>
      <trkpt lat="45.23605" lon="5.57694">
        <ele>1500.5999755859</ele>
        <time>2016-12-16T13:43:07Z</time>
      </trkpt>
      <trkpt lat="45.23606" lon="5.57695">
        <ele>1501.1999511719</ele>
        <time>2016-12-16T13:43:08Z</time>
      </trkpt>
      <trkpt lat="45.23606" lon="5.57695">
        <ele>1501.1999511719</ele>
        <time>2016-12-16T13:43:09Z</time>
      </trkpt>
      <trkpt lat="45.23616" lon="5.57703">
        <ele>1501.1999511719</ele>
        <time>2016-12-16T13:43:16Z</time>
      </trkpt>
      <trkpt lat="45.23628" lon="5.57711">
        <ele>1501.1999511719</ele>
        <time>2016-12-16T13:43:19Z</time>
      </trkpt>
      <trkpt lat="45.23637" lon="5.57705">
        <ele>1501.1999511719</ele>
        <time>2016-12-16T13:43:22Z</time>
      </trkpt>
      <trkpt lat="45.23643" lon="5.57701">
        <ele>1501.1999511719</ele>
        <time>2016-12-16T13:43:26Z</time>
      </trkpt>
      <trkpt lat="45.23645" lon="5.577">
        <ele>1501.1999511719</ele>
        <time>2016-12-16T13:43:27Z</time>
      </trkpt>
      <trkpt lat="45.23651" lon="5.57694">
        <ele>1501.5999755859</ele>
        <time>2016-12-16T13:43:31Z</time>
      </trkpt>
      <trkpt lat="45.23652" lon="5.57694">
        <ele>1502</ele>
        <time>2016-12-16T13:43:32Z</time>
      </trkpt>
      <trkpt lat="45.23652" lon="5.57695">
        <ele>1502.4000244141</ele>
        <time>2016-12-16T13:43:33Z</time>
      </trkpt>
      <trkpt lat="45.23653" lon="5.57695">
        <ele>1502.8000488281</ele>
        <time>2016-12-16T13:43:34Z</time>
      </trkpt>
      <trkpt lat="45.23653" lon="5.57695">
        <ele>1503.1999511719</ele>
        <time>2016-12-16T13:43:35Z</time>
      </trkpt>
      <trkpt lat="45.23655" lon="5.57695">
        <ele>1503.1999511719</ele>
        <time>2016-12-16T13:43:36Z</time>
      </trkpt>
      <trkpt lat="45.23661" lon="5.57695">
        <ele>1503.1999511719</ele>
        <time>2016-12-16T13:43:39Z</time>
      </trkpt>
      <trkpt lat="45.23675" lon="5.57694">
        <ele>1503.1999511719</ele>
        <time>2016-12-16T13:43:43Z</time>
      </trkpt>
      <trkpt lat="45.23695" lon="5.57693">
        <ele>1503.1999511719</ele>
        <time>2016-12-16T13:43:49Z</time>
      </trkpt>
      <trkpt lat="45.23704" lon="5.57695">
        <ele>1503.1999511719</ele>
        <time>2016-12-16T13:43:52Z</time>
      </trkpt>
      <trkpt lat="45.23706" lon="5.57697">
        <ele>1503.1999511719</ele>
        <time>2016-12-16T13:43:53Z</time>
      </trkpt>
      <trkpt lat="45.23712" lon="5.57703">
        <ele>1503.1999511719</ele>
        <time>2016-12-16T13:43:57Z</time>
      </trkpt>
      <trkpt lat="45.2372" lon="5.57706">
        <ele>1503.5999755859</ele>
        <time>2016-12-16T13:44:01Z</time>
      </trkpt>
      <trkpt lat="45.23722" lon="5.57707">
        <ele>1504.1999511719</ele>
        <time>2016-12-16T13:44:02Z</time>
      </trkpt>
      <trkpt lat="45.23724" lon="5.57708">
        <ele>1504.5999755859</ele>
        <time>2016-12-16T13:44:03Z</time>
      </trkpt>
      <trkpt lat="45.23725" lon="5.57708">
        <ele>1505.1999511719</ele>
        <time>2016-12-16T13:44:04Z</time>
      </trkpt>
      <trkpt lat="45.23727" lon="5.57708">
        <ele>1505.5999755859</ele>
        <time>2016-12-16T13:44:05Z</time>
      </trkpt>
      <trkpt lat="45.2373" lon="5.57709">
        <ele>1506</ele>
        <time>2016-12-16T13:44:07Z</time>
      </trkpt>
      <trkpt lat="45.23731" lon="5.57709">
        <ele>1506.4000244141</ele>
        <time>2016-12-16T13:44:08Z</time>
      </trkpt>
      <trkpt lat="45.23732" lon="5.57709">
        <ele>1506.8000488281</ele>
        <time>2016-12-16T13:44:09Z</time>
      </trkpt>
      <trkpt lat="45.23733" lon="5.5771">
        <ele>1507.4000244141</ele>
        <time>2016-12-16T13:44:10Z</time>
      </trkpt>
      <trkpt lat="45.23734" lon="5.5771">
        <ele>1507.8000488281</ele>
        <time>2016-12-16T13:44:11Z</time>
      </trkpt>
      <trkpt lat="45.23737" lon="5.57712">
        <ele>1507.8000488281</ele>
        <time>2016-12-16T13:44:14Z</time>
      </trkpt>
      <trkpt lat="45.23738" lon="5.57715">
        <ele>1507.8000488281</ele>
        <time>2016-12-16T13:44:17Z</time>
      </trkpt>
      <trkpt lat="45.2374" lon="5.57717">
        <ele>1507.8000488281</ele>
        <time>2016-12-16T13:44:20Z</time>
      </trkpt>
      <trkpt lat="45.23743" lon="5.57717">
        <ele>1507.8000488281</ele>
        <time>2016-12-16T13:44:22Z</time>
      </trkpt>
      <trkpt lat="45.23745" lon="5.57719">
        <ele>1507.8000488281</ele>
        <time>2016-12-16T13:44:25Z</time>
      </trkpt>
      <trkpt lat="45.23746" lon="5.57719">
        <ele>1507.8000488281</ele>
        <time>2016-12-16T13:44:26Z</time>
      </trkpt>
      <trkpt lat="45.23749" lon="5.57721">
        <ele>1508.1999511719</ele>
        <time>2016-12-16T13:44:29Z</time>
      </trkpt>
      <trkpt lat="45.2375" lon="5.57721">
        <ele>1508.5999755859</ele>
        <time>2016-12-16T13:44:30Z</time>
      </trkpt>
      <trkpt lat="45.23752" lon="5.57722">
        <ele>1509</ele>
        <time>2016-12-16T13:44:31Z</time>
      </trkpt>
      <trkpt lat="45.23755" lon="5.57723">
        <ele>1509.4000244141</ele>
        <time>2016-12-16T13:44:32Z</time>
      </trkpt>
      <trkpt lat="45.23757" lon="5.57724">
        <ele>1509.8000488281</ele>
        <time>2016-12-16T13:44:33Z</time>
      </trkpt>
      <trkpt lat="45.23767" lon="5.57731">
        <ele>1509.8000488281</ele>
        <time>2016-12-16T13:44:39Z</time>
      </trkpt>
      <trkpt lat="45.2377" lon="5.57731">
        <ele>1509.8000488281</ele>
        <time>2016-12-16T13:44:41Z</time>
      </trkpt>
      <trkpt lat="45.23774" lon="5.57729">
        <ele>1510.1999511719</ele>
        <time>2016-12-16T13:44:44Z</time>
      </trkpt>
      <trkpt lat="45.23775" lon="5.57728">
        <ele>1510.8000488281</ele>
        <time>2016-12-16T13:44:45Z</time>
      </trkpt>
      <trkpt lat="45.23776" lon="5.57728">
        <ele>1511.1999511719</ele>
        <time>2016-12-16T13:44:46Z</time>
      </trkpt>
      <trkpt lat="45.23778" lon="5.57728">
        <ele>1511.5999755859</ele>
        <time>2016-12-16T13:44:47Z</time>
      </trkpt>
      <trkpt lat="45.23779" lon="5.57727">
        <ele>1512</ele>
        <time>2016-12-16T13:44:48Z</time>
      </trkpt>
      <trkpt lat="45.23783" lon="5.57726">
        <ele>1512</ele>
        <time>2016-12-16T13:44:51Z</time>
      </trkpt>
      <trkpt lat="45.23784" lon="5.57726">
        <ele>1512</ele>
        <time>2016-12-16T13:44:52Z</time>
      </trkpt>
      <trkpt lat="45.23794" lon="5.5773">
        <ele>1512</ele>
        <time>2016-12-16T13:44:57Z</time>
      </trkpt>
      <trkpt lat="45.23809" lon="5.57738">
        <ele>1512</ele>
        <time>2016-12-16T13:45:03Z</time>
      </trkpt>
      <trkpt lat="45.23819" lon="5.57744">
        <ele>1512</ele>
        <time>2016-12-16T13:45:08Z</time>
      </trkpt>
      <trkpt lat="45.23839" lon="5.57754">
        <ele>1512</ele>
        <time>2016-12-16T13:45:15Z</time>
      </trkpt>
      <trkpt lat="45.23842" lon="5.57755">
        <ele>1512</ele>
        <time>2016-12-16T13:45:16Z</time>
      </trkpt>
      <trkpt lat="45.23852" lon="5.57759">
        <ele>1512</ele>
        <time>2016-12-16T13:45:22Z</time>
      </trkpt>
      <trkpt lat="45.23865" lon="5.57762">
        <ele>1512</ele>
        <time>2016-12-16T13:45:26Z</time>
      </trkpt>
      <trkpt lat="45.23872" lon="5.57768">
        <ele>1512</ele>
        <time>2016-12-16T13:45:30Z</time>
      </trkpt>
      <trkpt lat="45.23874" lon="5.57776">
        <ele>1511.5999755859</ele>
        <time>2016-12-16T13:45:32Z</time>
      </trkpt>
      <trkpt lat="45.23875" lon="5.57779">
        <ele>1511.1999511719</ele>
        <time>2016-12-16T13:45:33Z</time>
      </trkpt>
      <trkpt lat="45.23876" lon="5.57783">
        <ele>1510.8000488281</ele>
        <time>2016-12-16T13:45:34Z</time>
      </trkpt>
      <trkpt lat="45.23878" lon="5.57788">
        <ele>1510.1999511719</ele>
        <time>2016-12-16T13:45:35Z</time>
      </trkpt>
      <trkpt lat="45.23879" lon="5.57791">
        <ele>1509.8000488281</ele>
        <time>2016-12-16T13:45:36Z</time>
      </trkpt>
      <trkpt lat="45.23882" lon="5.57796">
        <ele>1509.8000488281</ele>
        <time>2016-12-16T13:45:37Z</time>
      </trkpt>
      <trkpt lat="45.23886" lon="5.57799">
        <ele>1509.4000244141</ele>
        <time>2016-12-16T13:45:38Z</time>
      </trkpt>
      <trkpt lat="45.23891" lon="5.57803">
        <ele>1508.8000488281</ele>
        <time>2016-12-16T13:45:39Z</time>
      </trkpt>
      <trkpt lat="45.23897" lon="5.57806">
        <ele>1508.4000244141</ele>
        <time>2016-12-16T13:45:40Z</time>
      </trkpt>
      <trkpt lat="45.23903" lon="5.57808">
        <ele>1507.5999755859</ele>
        <time>2016-12-16T13:45:41Z</time>
      </trkpt>
      <trkpt lat="45.23908" lon="5.57809">
        <ele>1507</ele>
        <time>2016-12-16T13:45:42Z</time>
      </trkpt>
      <trkpt lat="45.23914" lon="5.5781">
        <ele>1506.4000244141</ele>
        <time>2016-12-16T13:45:43Z</time>
      </trkpt>
      <trkpt lat="45.23921" lon="5.5781">
        <ele>1505.8000488281</ele>
        <time>2016-12-16T13:45:44Z</time>
      </trkpt>
      <trkpt lat="45.23926" lon="5.5781">
        <ele>1505.1999511719</ele>
        <time>2016-12-16T13:45:45Z</time>
      </trkpt>
      <trkpt lat="45.23937" lon="5.57808">
        <ele>1505.1999511719</ele>
        <time>2016-12-16T13:45:47Z</time>
      </trkpt>
      <trkpt lat="45.23942" lon="5.57805">
        <ele>1505.1999511719</ele>
        <time>2016-12-16T13:45:48Z</time>
      </trkpt>
      <trkpt lat="45.23946" lon="5.57803">
        <ele>1504.1999511719</ele>
        <time>2016-12-16T13:45:49Z</time>
      </trkpt>
      <trkpt lat="45.23949" lon="5.57801">
        <ele>1503.8000488281</ele>
        <time>2016-12-16T13:45:50Z</time>
      </trkpt>
      <trkpt lat="45.23952" lon="5.57799">
        <ele>1503.4000244141</ele>
        <time>2016-12-16T13:45:51Z</time>
      </trkpt>
      <trkpt lat="45.23955" lon="5.57797">
        <ele>1503</ele>
        <time>2016-12-16T13:45:52Z</time>
      </trkpt>
      <trkpt lat="45.23963" lon="5.5779">
        <ele>1503.4000244141</ele>
        <time>2016-12-16T13:45:56Z</time>
      </trkpt>
      <trkpt lat="45.23965" lon="5.57789">
        <ele>1503.8000488281</ele>
        <time>2016-12-16T13:45:57Z</time>
      </trkpt>
      <trkpt lat="45.23966" lon="5.57787">
        <ele>1504.1999511719</ele>
        <time>2016-12-16T13:45:58Z</time>
      </trkpt>
      <trkpt lat="45.23968" lon="5.57785">
        <ele>1504.5999755859</ele>
        <time>2016-12-16T13:45:59Z</time>
      </trkpt>
      <trkpt lat="45.23969" lon="5.57783">
        <ele>1505</ele>
        <time>2016-12-16T13:46:00Z</time>
      </trkpt>
      <trkpt lat="45.23976" lon="5.57776">
        <ele>1505</ele>
        <time>2016-12-16T13:46:04Z</time>
      </trkpt>
      <trkpt lat="45.23986" lon="5.57765">
        <ele>1505</ele>
        <time>2016-12-16T13:46:10Z</time>
      </trkpt>
      <trkpt lat="45.23993" lon="5.57758">
        <ele>1506</ele>
        <time>2016-12-16T13:46:14Z</time>
      </trkpt>
      <trkpt lat="45.23995" lon="5.57757">
        <ele>1506.5999755859</ele>
        <time>2016-12-16T13:46:15Z</time>
      </trkpt>
      <trkpt lat="45.23996" lon="5.57756">
        <ele>1507</ele>
        <time>2016-12-16T13:46:16Z</time>
      </trkpt>
      <trkpt lat="45.23997" lon="5.57756">
        <ele>1507.4000244141</ele>
        <time>2016-12-16T13:46:17Z</time>
      </trkpt>
      <trkpt lat="45.23998" lon="5.57755">
        <ele>1507.4000244141</ele>
        <time>2016-12-16T13:46:18Z</time>
      </trkpt>
      <trkpt lat="45.23999" lon="5.57754">
        <ele>1507.4000244141</ele>
        <time>2016-12-16T13:46:20Z</time>
      </trkpt>
      <trkpt lat="45.23999" lon="5.57755">
        <ele>1507.4000244141</ele>
        <time>2016-12-16T13:46:26Z</time>
      </trkpt>
      <trkpt lat="45.23999" lon="5.57755">
        <ele>1507.4000244141</ele>
        <time>2016-12-16T13:46:56Z</time>
      </trkpt>
      <trkpt lat="45.23999" lon="5.57755">
        <ele>1507.4000244141</ele>
        <time>2016-12-16T13:47:18Z</time>
      </trkpt>
      <trkpt lat="45.23999" lon="5.57756">
        <ele>1507.4000244141</ele>
        <time>2016-12-16T13:47:27Z</time>
      </trkpt>
      <trkpt lat="45.24005" lon="5.57752">
        <ele>1507.4000244141</ele>
        <time>2016-12-16T13:47:34Z</time>
      </trkpt>
      <trkpt lat="45.24008" lon="5.5775">
        <ele>1507.8000488281</ele>
        <time>2016-12-16T13:47:36Z</time>
      </trkpt>
      <trkpt lat="45.24011" lon="5.5775">
        <ele>1508.1999511719</ele>
        <time>2016-12-16T13:47:37Z</time>
      </trkpt>
      <trkpt lat="45.24013" lon="5.57751">
        <ele>1508.8000488281</ele>
        <time>2016-12-16T13:47:38Z</time>
      </trkpt>
      <trkpt lat="45.24017" lon="5.57753">
        <ele>1509.1999511719</ele>
        <time>2016-12-16T13:47:39Z</time>
      </trkpt>
      <trkpt lat="45.2402" lon="5.57756">
        <ele>1509.5999755859</ele>
        <time>2016-12-16T13:47:40Z</time>
      </trkpt>
      <trkpt lat="45.2403" lon="5.57766">
        <ele>1509</ele>
        <time>2016-12-16T13:47:42Z</time>
      </trkpt>
      <trkpt lat="45.24036" lon="5.57771">
        <ele>1508.5999755859</ele>
        <time>2016-12-16T13:47:43Z</time>
      </trkpt>
      <trkpt lat="45.24041" lon="5.57775">
        <ele>1508</ele>
        <time>2016-12-16T13:47:44Z</time>
      </trkpt>
      <trkpt lat="45.24047" lon="5.57777">
        <ele>1507.4000244141</ele>
        <time>2016-12-16T13:47:45Z</time>
      </trkpt>
      <trkpt lat="45.24052" lon="5.5778">
        <ele>1507</ele>
        <time>2016-12-16T13:47:46Z</time>
      </trkpt>
      <trkpt lat="45.24061" lon="5.57786">
        <ele>1507</ele>
        <time>2016-12-16T13:47:48Z</time>
      </trkpt>
      <trkpt lat="45.24069" lon="5.57794">
        <ele>1507</ele>
        <time>2016-12-16T13:47:50Z</time>
      </trkpt>
      <trkpt lat="45.24072" lon="5.57799">
        <ele>1506.5999755859</ele>
        <time>2016-12-16T13:47:51Z</time>
      </trkpt>
      <trkpt lat="45.24077" lon="5.57803">
        <ele>1506</ele>
        <time>2016-12-16T13:47:52Z</time>
      </trkpt>
      <trkpt lat="45.24081" lon="5.57808">
        <ele>1505.1999511719</ele>
        <time>2016-12-16T13:47:53Z</time>
      </trkpt>
      <trkpt lat="45.24086" lon="5.57812">
        <ele>1504.8000488281</ele>
        <time>2016-12-16T13:47:54Z</time>
      </trkpt>
      <trkpt lat="45.24091" lon="5.57816">
        <ele>1504.8000488281</ele>
        <time>2016-12-16T13:47:55Z</time>
      </trkpt>
      <trkpt lat="45.24116" lon="5.57837">
        <ele>1504.1999511719</ele>
        <time>2016-12-16T13:48:01Z</time>
      </trkpt>
      <trkpt lat="45.24122" lon="5.57843">
        <ele>1503.8000488281</ele>
        <time>2016-12-16T13:48:02Z</time>
      </trkpt>
      <trkpt lat="45.24127" lon="5.5785">
        <ele>1503.4000244141</ele>
        <time>2016-12-16T13:48:03Z</time>
      </trkpt>
      <trkpt lat="45.24133" lon="5.57858">
        <ele>1503</ele>
        <time>2016-12-16T13:48:04Z</time>
      </trkpt>
      <trkpt lat="45.24139" lon="5.57867">
        <ele>1502.4000244141</ele>
        <time>2016-12-16T13:48:05Z</time>
      </trkpt>
      <trkpt lat="45.24145" lon="5.57875">
        <ele>1501.8000488281</ele>
        <time>2016-12-16T13:48:06Z</time>
      </trkpt>
      <trkpt lat="45.24152" lon="5.57883">
        <ele>1501.1999511719</ele>
        <time>2016-12-16T13:48:07Z</time>
      </trkpt>
      <trkpt lat="45.24157" lon="5.5789">
        <ele>1500.4000244141</ele>
        <time>2016-12-16T13:48:08Z</time>
      </trkpt>
      <trkpt lat="45.24162" lon="5.57894">
        <ele>1499.8000488281</ele>
        <time>2016-12-16T13:48:09Z</time>
      </trkpt>
      <trkpt lat="45.24165" lon="5.57896">
        <ele>1499</ele>
        <time>2016-12-16T13:48:10Z</time>
      </trkpt>
      <trkpt lat="45.24168" lon="5.57898">
        <ele>1499.1999511719</ele>
        <time>2016-12-16T13:48:11Z</time>
      </trkpt>
      <trkpt lat="45.2417" lon="5.57899">
        <ele>1499.4000244141</ele>
        <time>2016-12-16T13:48:12Z</time>
      </trkpt>
      <trkpt lat="45.24172" lon="5.579">
        <ele>1499.4000244141</ele>
        <time>2016-12-16T13:48:13Z</time>
      </trkpt>
      <trkpt lat="45.24174" lon="5.57902">
        <ele>1499.5999755859</ele>
        <time>2016-12-16T13:48:14Z</time>
      </trkpt>
      <trkpt lat="45.24176" lon="5.57904">
        <ele>1499.8000488281</ele>
        <time>2016-12-16T13:48:15Z</time>
      </trkpt>
      <trkpt lat="45.24179" lon="5.57908">
        <ele>1499.8000488281</ele>
        <time>2016-12-16T13:48:17Z</time>
      </trkpt>
      <trkpt lat="45.24184" lon="5.57925">
        <ele>1499.8000488281</ele>
        <time>2016-12-16T13:48:22Z</time>
      </trkpt>
      <trkpt lat="45.24184" lon="5.57928">
        <ele>1499.8000488281</ele>
        <time>2016-12-16T13:48:23Z</time>
      </trkpt>
      <trkpt lat="45.24186" lon="5.57938">
        <ele>1500.1999511719</ele>
        <time>2016-12-16T13:48:26Z</time>
      </trkpt>
      <trkpt lat="45.24186" lon="5.57942">
        <ele>1500.5999755859</ele>
        <time>2016-12-16T13:48:27Z</time>
      </trkpt>
      <trkpt lat="45.24186" lon="5.57945">
        <ele>1501</ele>
        <time>2016-12-16T13:48:28Z</time>
      </trkpt>
      <trkpt lat="45.24185" lon="5.57949">
        <ele>1501.4000244141</ele>
        <time>2016-12-16T13:48:29Z</time>
      </trkpt>
      <trkpt lat="45.24185" lon="5.57953">
        <ele>1502</ele>
        <time>2016-12-16T13:48:30Z</time>
      </trkpt>
      <trkpt lat="45.24182" lon="5.57961">
        <ele>1502</ele>
        <time>2016-12-16T13:48:32Z</time>
      </trkpt>
      <trkpt lat="45.24178" lon="5.57984">
        <ele>1502</ele>
        <time>2016-12-16T13:48:37Z</time>
      </trkpt>
      <trkpt lat="45.24174" lon="5.58001">
        <ele>1502</ele>
        <time>2016-12-16T13:48:43Z</time>
      </trkpt>
      <trkpt lat="45.24172" lon="5.58009">
        <ele>1502.4000244141</ele>
        <time>2016-12-16T13:48:46Z</time>
      </trkpt>
      <trkpt lat="45.24172" lon="5.58011">
        <ele>1502.8000488281</ele>
        <time>2016-12-16T13:48:47Z</time>
      </trkpt>
      <trkpt lat="45.24172" lon="5.58014">
        <ele>1503.1999511719</ele>
        <time>2016-12-16T13:48:48Z</time>
      </trkpt>
      <trkpt lat="45.24171" lon="5.58017">
        <ele>1503.5999755859</ele>
        <time>2016-12-16T13:48:49Z</time>
      </trkpt>
      <trkpt lat="45.24171" lon="5.5802">
        <ele>1504.1999511719</ele>
        <time>2016-12-16T13:48:50Z</time>
      </trkpt>
      <trkpt lat="45.24168" lon="5.58035">
        <ele>1504.1999511719</ele>
        <time>2016-12-16T13:48:55Z</time>
      </trkpt>
      <trkpt lat="45.24167" lon="5.58042">
        <ele>1504.5999755859</ele>
        <time>2016-12-16T13:48:58Z</time>
      </trkpt>
      <trkpt lat="45.24167" lon="5.58045">
        <ele>1505</ele>
        <time>2016-12-16T13:48:59Z</time>
      </trkpt>
      <trkpt lat="45.24168" lon="5.58047">
        <ele>1505.4000244141</ele>
        <time>2016-12-16T13:49:00Z</time>
      </trkpt>
      <trkpt lat="45.24167" lon="5.5805">
        <ele>1505.8000488281</ele>
        <time>2016-12-16T13:49:01Z</time>
      </trkpt>
      <trkpt lat="45.24167" lon="5.58052">
        <ele>1506.1999511719</ele>
        <time>2016-12-16T13:49:02Z</time>
      </trkpt>
      <trkpt lat="45.24163" lon="5.58067">
        <ele>1506.1999511719</ele>
        <time>2016-12-16T13:49:06Z</time>
      </trkpt>
      <trkpt lat="45.24152" lon="5.58087">
        <ele>1506.1999511719</ele>
        <time>2016-12-16T13:49:09Z</time>
      </trkpt>
      <trkpt lat="45.24144" lon="5.58115">
        <ele>1506.1999511719</ele>
        <time>2016-12-16T13:49:13Z</time>
      </trkpt>
      <trkpt lat="45.2414" lon="5.58139">
        <ele>1506.1999511719</ele>
        <time>2016-12-16T13:49:17Z</time>
      </trkpt>
      <trkpt lat="45.24137" lon="5.58146">
        <ele>1506.1999511719</ele>
        <time>2016-12-16T13:49:18Z</time>
      </trkpt>
      <trkpt lat="45.24127" lon="5.5817">
        <ele>1506.1999511719</ele>
        <time>2016-12-16T13:49:21Z</time>
      </trkpt>
      <trkpt lat="45.24125" lon="5.58178">
        <ele>1505.8000488281</ele>
        <time>2016-12-16T13:49:22Z</time>
      </trkpt>
      <trkpt lat="45.24123" lon="5.58185">
        <ele>1505.4000244141</ele>
        <time>2016-12-16T13:49:23Z</time>
      </trkpt>
      <trkpt lat="45.24123" lon="5.58191">
        <ele>1505</ele>
        <time>2016-12-16T13:49:24Z</time>
      </trkpt>
      <trkpt lat="45.24123" lon="5.58196">
        <ele>1504.5999755859</ele>
        <time>2016-12-16T13:49:25Z</time>
      </trkpt>
      <trkpt lat="45.24124" lon="5.582">
        <ele>1504.8000488281</ele>
        <time>2016-12-16T13:49:26Z</time>
      </trkpt>
      <trkpt lat="45.24125" lon="5.58205">
        <ele>1505.1999511719</ele>
        <time>2016-12-16T13:49:27Z</time>
      </trkpt>
      <trkpt lat="45.24125" lon="5.58209">
        <ele>1505.4000244141</ele>
        <time>2016-12-16T13:49:28Z</time>
      </trkpt>
      <trkpt lat="45.24125" lon="5.58214">
        <ele>1505.8000488281</ele>
        <time>2016-12-16T13:49:29Z</time>
      </trkpt>
      <trkpt lat="45.24126" lon="5.58218">
        <ele>1506.1999511719</ele>
        <time>2016-12-16T13:49:30Z</time>
      </trkpt>
      <trkpt lat="45.24127" lon="5.58233">
        <ele>1506.1999511719</ele>
        <time>2016-12-16T13:49:33Z</time>
      </trkpt>
      <trkpt lat="45.24128" lon="5.58237">
        <ele>1506.5999755859</ele>
        <time>2016-12-16T13:49:34Z</time>
      </trkpt>
      <trkpt lat="45.24128" lon="5.58241">
        <ele>1507</ele>
        <time>2016-12-16T13:49:35Z</time>
      </trkpt>
      <trkpt lat="45.24128" lon="5.58244">
        <ele>1507.4000244141</ele>
        <time>2016-12-16T13:49:36Z</time>
      </trkpt>
      <trkpt lat="45.24128" lon="5.58246">
        <ele>1507.8000488281</ele>
        <time>2016-12-16T13:49:37Z</time>
      </trkpt>
      <trkpt lat="45.24128" lon="5.58248">
        <ele>1508.1999511719</ele>
        <time>2016-12-16T13:49:38Z</time>
      </trkpt>
      <trkpt lat="45.24126" lon="5.58261">
        <ele>1508.1999511719</ele>
        <time>2016-12-16T13:49:42Z</time>
      </trkpt>
      <trkpt lat="45.24125" lon="5.58274">
        <ele>1508.1999511719</ele>
        <time>2016-12-16T13:49:44Z</time>
      </trkpt>
      <trkpt lat="45.24125" lon="5.58282">
        <ele>1508.1999511719</ele>
        <time>2016-12-16T13:49:45Z</time>
      </trkpt>
      <trkpt lat="45.24125" lon="5.58302">
        <ele>1508.1999511719</ele>
        <time>2016-12-16T13:49:48Z</time>
      </trkpt>
      <trkpt lat="45.24125" lon="5.58306">
        <ele>1508.1999511719</ele>
        <time>2016-12-16T13:49:49Z</time>
      </trkpt>
      <trkpt lat="45.24131" lon="5.58329">
        <ele>1508.1999511719</ele>
        <time>2016-12-16T13:49:55Z</time>
      </trkpt>
      <trkpt lat="45.24134" lon="5.5834">
        <ele>1508.1999511719</ele>
        <time>2016-12-16T13:49:57Z</time>
      </trkpt>
      <trkpt lat="45.2414" lon="5.58352">
        <ele>1507.8000488281</ele>
        <time>2016-12-16T13:49:59Z</time>
      </trkpt>
      <trkpt lat="45.24143" lon="5.58358">
        <ele>1507.4000244141</ele>
        <time>2016-12-16T13:50:00Z</time>
      </trkpt>
      <trkpt lat="45.24145" lon="5.58366">
        <ele>1507</ele>
        <time>2016-12-16T13:50:01Z</time>
      </trkpt>
      <trkpt lat="45.24146" lon="5.58375">
        <ele>1506.4000244141</ele>
        <time>2016-12-16T13:50:02Z</time>
      </trkpt>
      <trkpt lat="45.24146" lon="5.58385">
        <ele>1506</ele>
        <time>2016-12-16T13:50:03Z</time>
      </trkpt>
      <trkpt lat="45.24146" lon="5.58397">
        <ele>1505.4000244141</ele>
        <time>2016-12-16T13:50:04Z</time>
      </trkpt>
      <trkpt lat="45.24146" lon="5.58408">
        <ele>1505</ele>
        <time>2016-12-16T13:50:05Z</time>
      </trkpt>
      <trkpt lat="45.24144" lon="5.5842">
        <ele>1504.5999755859</ele>
        <time>2016-12-16T13:50:06Z</time>
      </trkpt>
      <trkpt lat="45.24142" lon="5.5843">
        <ele>1504</ele>
        <time>2016-12-16T13:50:07Z</time>
      </trkpt>
      <trkpt lat="45.24138" lon="5.5844">
        <ele>1503.4000244141</ele>
        <time>2016-12-16T13:50:08Z</time>
      </trkpt>
      <trkpt lat="45.24134" lon="5.58451">
        <ele>1503</ele>
        <time>2016-12-16T13:50:09Z</time>
      </trkpt>
      <trkpt lat="45.24129" lon="5.58464">
        <ele>1502.4000244141</ele>
        <time>2016-12-16T13:50:10Z</time>
      </trkpt>
      <trkpt lat="45.24126" lon="5.58474">
        <ele>1501.5999755859</ele>
        <time>2016-12-16T13:50:11Z</time>
      </trkpt>
      <trkpt lat="45.24122" lon="5.58483">
        <ele>1501</ele>
        <time>2016-12-16T13:50:12Z</time>
      </trkpt>
      <trkpt lat="45.24118" lon="5.58489">
        <ele>1500.1999511719</ele>
        <time>2016-12-16T13:50:13Z</time>
      </trkpt>
      <trkpt lat="45.24113" lon="5.58494">
        <ele>1499.4000244141</ele>
        <time>2016-12-16T13:50:14Z</time>
      </trkpt>
      <trkpt lat="45.24108" lon="5.58498">
        <ele>1498.8000488281</ele>
        <time>2016-12-16T13:50:15Z</time>
      </trkpt>
      <trkpt lat="45.24101" lon="5.58501">
        <ele>1498.8000488281</ele>
        <time>2016-12-16T13:50:16Z</time>
      </trkpt>
      <trkpt lat="45.24086" lon="5.58507">
        <ele>1498.8000488281</ele>
        <time>2016-12-16T13:50:18Z</time>
      </trkpt>
      <trkpt lat="45.24078" lon="5.58509">
        <ele>1498.4000244141</ele>
        <time>2016-12-16T13:50:19Z</time>
      </trkpt>
      <trkpt lat="45.24071" lon="5.58511">
        <ele>1498</ele>
        <time>2016-12-16T13:50:20Z</time>
      </trkpt>
      <trkpt lat="45.24064" lon="5.58511">
        <ele>1497.5999755859</ele>
        <time>2016-12-16T13:50:21Z</time>
      </trkpt>
      <trkpt lat="45.24059" lon="5.58512">
        <ele>1496.5999755859</ele>
        <time>2016-12-16T13:50:22Z</time>
      </trkpt>
      <trkpt lat="45.24054" lon="5.58512">
        <ele>1496.5999755859</ele>
        <time>2016-12-16T13:50:23Z</time>
      </trkpt>
      <trkpt lat="45.24026" lon="5.58507">
        <ele>1496.5999755859</ele>
        <time>2016-12-16T13:50:29Z</time>
      </trkpt>
      <trkpt lat="45.24015" lon="5.58508">
        <ele>1496.5999755859</ele>
        <time>2016-12-16T13:50:31Z</time>
      </trkpt>
      <trkpt lat="45.24005" lon="5.58511">
        <ele>1496.5999755859</ele>
        <time>2016-12-16T13:50:33Z</time>
      </trkpt>
      <trkpt lat="45.2399" lon="5.5852">
        <ele>1496.5999755859</ele>
        <time>2016-12-16T13:50:36Z</time>
      </trkpt>
      <trkpt lat="45.23986" lon="5.58523">
        <ele>1496.5999755859</ele>
        <time>2016-12-16T13:50:37Z</time>
      </trkpt>
      <trkpt lat="45.23983" lon="5.58525">
        <ele>1496.5999755859</ele>
        <time>2016-12-16T13:50:39Z</time>
      </trkpt>
      <trkpt lat="45.23979" lon="5.58529">
        <ele>1496.5999755859</ele>
        <time>2016-12-16T13:50:44Z</time>
      </trkpt>
      <trkpt lat="45.23967" lon="5.58538">
        <ele>1496.5999755859</ele>
        <time>2016-12-16T13:50:48Z</time>
      </trkpt>
      <trkpt lat="45.23953" lon="5.5855">
        <ele>1496.5999755859</ele>
        <time>2016-12-16T13:50:53Z</time>
      </trkpt>
      <trkpt lat="45.23943" lon="5.5856">
        <ele>1496.5999755859</ele>
        <time>2016-12-16T13:50:58Z</time>
      </trkpt>
      <trkpt lat="45.23935" lon="5.58568">
        <ele>1497.1999511719</ele>
        <time>2016-12-16T13:51:03Z</time>
      </trkpt>
      <trkpt lat="45.23933" lon="5.58568">
        <ele>1497.5999755859</ele>
        <time>2016-12-16T13:51:04Z</time>
      </trkpt>
      <trkpt lat="45.23931" lon="5.5857">
        <ele>1498</ele>
        <time>2016-12-16T13:51:05Z</time>
      </trkpt>
      <trkpt lat="45.2393" lon="5.58571">
        <ele>1498.4000244141</ele>
        <time>2016-12-16T13:51:06Z</time>
      </trkpt>
      <trkpt lat="45.23928" lon="5.58572">
        <ele>1498.8000488281</ele>
        <time>2016-12-16T13:51:07Z</time>
      </trkpt>
      <trkpt lat="45.23922" lon="5.58576">
        <ele>1498.8000488281</ele>
        <time>2016-12-16T13:51:11Z</time>
      </trkpt>
      <trkpt lat="45.23909" lon="5.58585">
        <ele>1498.8000488281</ele>
        <time>2016-12-16T13:51:16Z</time>
      </trkpt>
      <trkpt lat="45.2389" lon="5.586">
        <ele>1498.8000488281</ele>
        <time>2016-12-16T13:51:23Z</time>
      </trkpt>
      <trkpt lat="45.23874" lon="5.58605">
        <ele>1498.8000488281</ele>
        <time>2016-12-16T13:51:28Z</time>
      </trkpt>
      <trkpt lat="45.23855" lon="5.58606">
        <ele>1498.8000488281</ele>
        <time>2016-12-16T13:51:33Z</time>
      </trkpt>
      <trkpt lat="45.23834" lon="5.58612">
        <ele>1499.4000244141</ele>
        <time>2016-12-16T13:51:40Z</time>
      </trkpt>
      <trkpt lat="45.23831" lon="5.58614">
        <ele>1499.8000488281</ele>
        <time>2016-12-16T13:51:41Z</time>
      </trkpt>
      <trkpt lat="45.23828" lon="5.58615">
        <ele>1500.4000244141</ele>
        <time>2016-12-16T13:51:42Z</time>
      </trkpt>
      <trkpt lat="45.23826" lon="5.58617">
        <ele>1500.8000488281</ele>
        <time>2016-12-16T13:51:43Z</time>
      </trkpt>
      <trkpt lat="45.23825" lon="5.58619">
        <ele>1501.4000244141</ele>
        <time>2016-12-16T13:51:44Z</time>
      </trkpt>
      <trkpt lat="45.23824" lon="5.58621">
        <ele>1501.8000488281</ele>
        <time>2016-12-16T13:51:45Z</time>
      </trkpt>
      <trkpt lat="45.23823" lon="5.58622">
        <ele>1502.1999511719</ele>
        <time>2016-12-16T13:51:46Z</time>
      </trkpt>
      <trkpt lat="45.23822" lon="5.58624">
        <ele>1502.5999755859</ele>
        <time>2016-12-16T13:51:47Z</time>
      </trkpt>
      <trkpt lat="45.23821" lon="5.58625">
        <ele>1503</ele>
        <time>2016-12-16T13:51:48Z</time>
      </trkpt>
      <trkpt lat="45.2382" lon="5.58626">
        <ele>1503.5999755859</ele>
        <time>2016-12-16T13:51:49Z</time>
      </trkpt>
      <trkpt lat="45.23816" lon="5.58629">
        <ele>1503.5999755859</ele>
        <time>2016-12-16T13:51:51Z</time>
      </trkpt>
      <trkpt lat="45.23805" lon="5.58641">
        <ele>1503.5999755859</ele>
        <time>2016-12-16T13:51:57Z</time>
      </trkpt>
      <trkpt lat="45.23796" lon="5.58653">
        <ele>1503.5999755859</ele>
        <time>2016-12-16T13:52:03Z</time>
      </trkpt>
      <trkpt lat="45.23789" lon="5.5866">
        <ele>1504</ele>
        <time>2016-12-16T13:52:08Z</time>
      </trkpt>
      <trkpt lat="45.23788" lon="5.58662">
        <ele>1504.4000244141</ele>
        <time>2016-12-16T13:52:09Z</time>
      </trkpt>
      <trkpt lat="45.23786" lon="5.58664">
        <ele>1504.8000488281</ele>
        <time>2016-12-16T13:52:10Z</time>
      </trkpt>
      <trkpt lat="45.23785" lon="5.58665">
        <ele>1505.4000244141</ele>
        <time>2016-12-16T13:52:11Z</time>
      </trkpt>
      <trkpt lat="45.23784" lon="5.58667">
        <ele>1505.8000488281</ele>
        <time>2016-12-16T13:52:12Z</time>
      </trkpt>
      <trkpt lat="45.23781" lon="5.58671">
        <ele>1505.8000488281</ele>
        <time>2016-12-16T13:52:15Z</time>
      </trkpt>
      <trkpt lat="45.23779" lon="5.58674">
        <ele>1506.1999511719</ele>
        <time>2016-12-16T13:52:17Z</time>
      </trkpt>
      <trkpt lat="45.23778" lon="5.58676">
        <ele>1506.5999755859</ele>
        <time>2016-12-16T13:52:18Z</time>
      </trkpt>
      <trkpt lat="45.23778" lon="5.58679">
        <ele>1507.1999511719</ele>
        <time>2016-12-16T13:52:19Z</time>
      </trkpt>
      <trkpt lat="45.23776" lon="5.5868">
        <ele>1507.5999755859</ele>
        <time>2016-12-16T13:52:20Z</time>
      </trkpt>
      <trkpt lat="45.23775" lon="5.58682">
        <ele>1508</ele>
        <time>2016-12-16T13:52:21Z</time>
      </trkpt>
      <trkpt lat="45.23775" lon="5.58683">
        <ele>1508</ele>
        <time>2016-12-16T13:52:22Z</time>
      </trkpt>
      <trkpt lat="45.23774" lon="5.58687">
        <ele>1508.4000244141</ele>
        <time>2016-12-16T13:52:24Z</time>
      </trkpt>
      <trkpt lat="45.23774" lon="5.58689">
        <ele>1508.8000488281</ele>
        <time>2016-12-16T13:52:25Z</time>
      </trkpt>
      <trkpt lat="45.23773" lon="5.58691">
        <ele>1509.1999511719</ele>
        <time>2016-12-16T13:52:26Z</time>
      </trkpt>
      <trkpt lat="45.23773" lon="5.58693">
        <ele>1509.5999755859</ele>
        <time>2016-12-16T13:52:27Z</time>
      </trkpt>
      <trkpt lat="45.23772" lon="5.58695">
        <ele>1510</ele>
        <time>2016-12-16T13:52:28Z</time>
      </trkpt>
      <trkpt lat="45.2377" lon="5.587">
        <ele>1510.4000244141</ele>
        <time>2016-12-16T13:52:30Z</time>
      </trkpt>
      <trkpt lat="45.2377" lon="5.58701">
        <ele>1511</ele>
        <time>2016-12-16T13:52:31Z</time>
      </trkpt>
      <trkpt lat="45.23769" lon="5.58703">
        <ele>1511.4000244141</ele>
        <time>2016-12-16T13:52:32Z</time>
      </trkpt>
      <trkpt lat="45.23768" lon="5.58704">
        <ele>1511.8000488281</ele>
        <time>2016-12-16T13:52:33Z</time>
      </trkpt>
      <trkpt lat="45.23768" lon="5.58705">
        <ele>1512.1999511719</ele>
        <time>2016-12-16T13:52:34Z</time>
      </trkpt>
      <trkpt lat="45.23768" lon="5.58706">
        <ele>1512.1999511719</ele>
        <time>2016-12-16T13:52:35Z</time>
      </trkpt>
      <trkpt lat="45.23766" lon="5.58709">
        <ele>1512.5999755859</ele>
        <time>2016-12-16T13:52:37Z</time>
      </trkpt>
      <trkpt lat="45.23765" lon="5.58711">
        <ele>1513</ele>
        <time>2016-12-16T13:52:38Z</time>
      </trkpt>
      <trkpt lat="45.23765" lon="5.58713">
        <ele>1513.4000244141</ele>
        <time>2016-12-16T13:52:39Z</time>
      </trkpt>
      <trkpt lat="45.23764" lon="5.58715">
        <ele>1513.8000488281</ele>
        <time>2016-12-16T13:52:40Z</time>
      </trkpt>
      <trkpt lat="45.23764" lon="5.58717">
        <ele>1514.4000244141</ele>
        <time>2016-12-16T13:52:41Z</time>
      </trkpt>
      <trkpt lat="45.23763" lon="5.58719">
        <ele>1514.4000244141</ele>
        <time>2016-12-16T13:52:42Z</time>
      </trkpt>
      <trkpt lat="45.23762" lon="5.58725">
        <ele>1514.8000488281</ele>
        <time>2016-12-16T13:52:47Z</time>
      </trkpt>
      <trkpt lat="45.23761" lon="5.58726">
        <ele>1515.1999511719</ele>
        <time>2016-12-16T13:52:48Z</time>
      </trkpt>
      <trkpt lat="45.23761" lon="5.58727">
        <ele>1516.1999511719</ele>
        <time>2016-12-16T13:52:49Z</time>
      </trkpt>
      <trkpt lat="45.2376" lon="5.58729">
        <ele>1516.5999755859</ele>
        <time>2016-12-16T13:52:50Z</time>
      </trkpt>
      <trkpt lat="45.23761" lon="5.58738">
        <ele>1516.5999755859</ele>
        <time>2016-12-16T13:52:57Z</time>
      </trkpt>
      <trkpt lat="45.23761" lon="5.58752">
        <ele>1516.5999755859</ele>
        <time>2016-12-16T13:53:05Z</time>
      </trkpt>
      <trkpt lat="45.23761" lon="5.58753">
        <ele>1517</ele>
        <time>2016-12-16T13:53:06Z</time>
      </trkpt>
      <trkpt lat="45.2376" lon="5.58755">
        <ele>1517.4000244141</ele>
        <time>2016-12-16T13:53:07Z</time>
      </trkpt>
      <trkpt lat="45.2376" lon="5.58757">
        <ele>1517.8000488281</ele>
        <time>2016-12-16T13:53:08Z</time>
      </trkpt>
      <trkpt lat="45.23759" lon="5.58759">
        <ele>1518.1999511719</ele>
        <time>2016-12-16T13:53:09Z</time>
      </trkpt>
      <trkpt lat="45.23758" lon="5.5876">
        <ele>1518.5999755859</ele>
        <time>2016-12-16T13:53:10Z</time>
      </trkpt>
      <trkpt lat="45.23758" lon="5.58761">
        <ele>1518.5999755859</ele>
        <time>2016-12-16T13:53:11Z</time>
      </trkpt>
      <trkpt lat="45.23757" lon="5.58768">
        <ele>1518.5999755859</ele>
        <time>2016-12-16T13:53:15Z</time>
      </trkpt>
      <trkpt lat="45.23756" lon="5.58772">
        <ele>1518.5999755859</ele>
        <time>2016-12-16T13:53:18Z</time>
      </trkpt>
      <trkpt lat="45.23755" lon="5.58781">
        <ele>1519</ele>
        <time>2016-12-16T13:53:23Z</time>
      </trkpt>
      <trkpt lat="45.23755" lon="5.58784">
        <ele>1519.4000244141</ele>
        <time>2016-12-16T13:53:24Z</time>
      </trkpt>
      <trkpt lat="45.23755" lon="5.58787">
        <ele>1519.8000488281</ele>
        <time>2016-12-16T13:53:25Z</time>
      </trkpt>
      <trkpt lat="45.23755" lon="5.58789">
        <ele>1520.1999511719</ele>
        <time>2016-12-16T13:53:26Z</time>
      </trkpt>
      <trkpt lat="45.23755" lon="5.58792">
        <ele>1520.5999755859</ele>
        <time>2016-12-16T13:53:27Z</time>
      </trkpt>
      <trkpt lat="45.23755" lon="5.58801">
        <ele>1520.5999755859</ele>
        <time>2016-12-16T13:53:32Z</time>
      </trkpt>
      <trkpt lat="45.23758" lon="5.58814">
        <ele>1521.4000244141</ele>
        <time>2016-12-16T13:53:39Z</time>
      </trkpt>
      <trkpt lat="45.23758" lon="5.58815">
        <ele>1521.8000488281</ele>
        <time>2016-12-16T13:53:40Z</time>
      </trkpt>
      <trkpt lat="45.23758" lon="5.58817">
        <ele>1522.1999511719</ele>
        <time>2016-12-16T13:53:41Z</time>
      </trkpt>
      <trkpt lat="45.23759" lon="5.58819">
        <ele>1522.5999755859</ele>
        <time>2016-12-16T13:53:42Z</time>
      </trkpt>
      <trkpt lat="45.2376" lon="5.5882">
        <ele>1522.5999755859</ele>
        <time>2016-12-16T13:53:43Z</time>
      </trkpt>
      <trkpt lat="45.23761" lon="5.58822">
        <ele>1522.5999755859</ele>
        <time>2016-12-16T13:53:44Z</time>
      </trkpt>
      <trkpt lat="45.23764" lon="5.58836">
        <ele>1522.5999755859</ele>
        <time>2016-12-16T13:53:51Z</time>
      </trkpt>
      <trkpt lat="45.23764" lon="5.58838">
        <ele>1522.5999755859</ele>
        <time>2016-12-16T13:53:52Z</time>
      </trkpt>
      <trkpt lat="45.23766" lon="5.58849">
        <ele>1522.5999755859</ele>
        <time>2016-12-16T13:53:57Z</time>
      </trkpt>
      <trkpt lat="45.23766" lon="5.58863">
        <ele>1522.5999755859</ele>
        <time>2016-12-16T13:54:02Z</time>
      </trkpt>
      <trkpt lat="45.23766" lon="5.58864">
        <ele>1522.5999755859</ele>
        <time>2016-12-16T13:54:03Z</time>
      </trkpt>
      <trkpt lat="45.23765" lon="5.58872">
        <ele>1522.5999755859</ele>
        <time>2016-12-16T13:54:07Z</time>
      </trkpt>
      <trkpt lat="45.23765" lon="5.58874">
        <ele>1522.5999755859</ele>
        <time>2016-12-16T13:54:08Z</time>
      </trkpt>
      <trkpt lat="45.23763" lon="5.58878">
        <ele>1523.1999511719</ele>
        <time>2016-12-16T13:54:11Z</time>
      </trkpt>
      <trkpt lat="45.23762" lon="5.5888">
        <ele>1523.5999755859</ele>
        <time>2016-12-16T13:54:12Z</time>
      </trkpt>
      <trkpt lat="45.23761" lon="5.58881">
        <ele>1524.1999511719</ele>
        <time>2016-12-16T13:54:13Z</time>
      </trkpt>
      <trkpt lat="45.2376" lon="5.58883">
        <ele>1524.5999755859</ele>
        <time>2016-12-16T13:54:14Z</time>
      </trkpt>
      <trkpt lat="45.23759" lon="5.58884">
        <ele>1525</ele>
        <time>2016-12-16T13:54:15Z</time>
      </trkpt>
      <trkpt lat="45.23755" lon="5.58895">
        <ele>1525.4000244141</ele>
        <time>2016-12-16T13:54:20Z</time>
      </trkpt>
      <trkpt lat="45.23753" lon="5.58896">
        <ele>1526</ele>
        <time>2016-12-16T13:54:21Z</time>
      </trkpt>
      <trkpt lat="45.23753" lon="5.58899">
        <ele>1526.4000244141</ele>
        <time>2016-12-16T13:54:22Z</time>
      </trkpt>
      <trkpt lat="45.23752" lon="5.58901">
        <ele>1526.8000488281</ele>
        <time>2016-12-16T13:54:23Z</time>
      </trkpt>
      <trkpt lat="45.23751" lon="5.58903">
        <ele>1527.1999511719</ele>
        <time>2016-12-16T13:54:24Z</time>
      </trkpt>
      <trkpt lat="45.23748" lon="5.58908">
        <ele>1528</ele>
        <time>2016-12-16T13:54:28Z</time>
      </trkpt>
      <trkpt lat="45.23747" lon="5.5891">
        <ele>1528.4000244141</ele>
        <time>2016-12-16T13:54:29Z</time>
      </trkpt>
      <trkpt lat="45.23746" lon="5.58911">
        <ele>1528.8000488281</ele>
        <time>2016-12-16T13:54:30Z</time>
      </trkpt>
      <trkpt lat="45.23745" lon="5.58912">
        <ele>1529.1999511719</ele>
        <time>2016-12-16T13:54:31Z</time>
      </trkpt>
      <trkpt lat="45.2374" lon="5.58917">
        <ele>1529.1999511719</ele>
        <time>2016-12-16T13:54:35Z</time>
      </trkpt>
      <trkpt lat="45.23732" lon="5.58925">
        <ele>1529.1999511719</ele>
        <time>2016-12-16T13:54:42Z</time>
      </trkpt>
      <trkpt lat="45.23721" lon="5.58935">
        <ele>1529.1999511719</ele>
        <time>2016-12-16T13:54:49Z</time>
      </trkpt>
      <trkpt lat="45.23705" lon="5.58955">
        <ele>1529.1999511719</ele>
        <time>2016-12-16T13:54:56Z</time>
      </trkpt>
      <trkpt lat="45.23692" lon="5.5897">
        <ele>1529.1999511719</ele>
        <time>2016-12-16T13:55:03Z</time>
      </trkpt>
      <trkpt lat="45.23681" lon="5.58981">
        <ele>1529.1999511719</ele>
        <time>2016-12-16T13:55:09Z</time>
      </trkpt>
      <trkpt lat="45.23669" lon="5.58991">
        <ele>1529.1999511719</ele>
        <time>2016-12-16T13:55:16Z</time>
      </trkpt>
      <trkpt lat="45.23655" lon="5.59003">
        <ele>1529.1999511719</ele>
        <time>2016-12-16T13:55:23Z</time>
      </trkpt>
      <trkpt lat="45.23648" lon="5.59012">
        <ele>1529.8000488281</ele>
        <time>2016-12-16T13:55:28Z</time>
      </trkpt>
      <trkpt lat="45.23647" lon="5.59013">
        <ele>1530.1999511719</ele>
        <time>2016-12-16T13:55:29Z</time>
      </trkpt>
      <trkpt lat="45.23646" lon="5.59015">
        <ele>1530.5999755859</ele>
        <time>2016-12-16T13:55:30Z</time>
      </trkpt>
      <trkpt lat="45.23645" lon="5.59016">
        <ele>1531</ele>
        <time>2016-12-16T13:55:31Z</time>
      </trkpt>
      <trkpt lat="45.23644" lon="5.59018">
        <ele>1531.4000244141</ele>
        <time>2016-12-16T13:55:32Z</time>
      </trkpt>
      <trkpt lat="45.23643" lon="5.59021">
        <ele>1531.4000244141</ele>
        <time>2016-12-16T13:55:34Z</time>
      </trkpt>
      <trkpt lat="45.23643" lon="5.59022">
        <ele>1531.4000244141</ele>
        <time>2016-12-16T13:55:35Z</time>
      </trkpt>
      <trkpt lat="45.23642" lon="5.59023">
        <ele>1531.4000244141</ele>
        <time>2016-12-16T13:55:41Z</time>
      </trkpt>
      <trkpt lat="45.23642" lon="5.59022">
        <ele>1531.4000244141</ele>
        <time>2016-12-16T13:56:19Z</time>
      </trkpt>
      <trkpt lat="45.23642" lon="5.59024">
        <ele>1531.4000244141</ele>
        <time>2016-12-16T13:56:42Z</time>
      </trkpt>
      <trkpt lat="45.23633" lon="5.59033">
        <ele>1531.4000244141</ele>
        <time>2016-12-16T13:56:48Z</time>
      </trkpt>
      <trkpt lat="45.23617" lon="5.59041">
        <ele>1531.4000244141</ele>
        <time>2016-12-16T13:56:55Z</time>
      </trkpt>
      <trkpt lat="45.236" lon="5.59052">
        <ele>1531.4000244141</ele>
        <time>2016-12-16T13:57:00Z</time>
      </trkpt>
      <trkpt lat="45.23589" lon="5.59067">
        <ele>1531.4000244141</ele>
        <time>2016-12-16T13:57:05Z</time>
      </trkpt>
      <trkpt lat="45.23582" lon="5.59077">
        <ele>1531.4000244141</ele>
        <time>2016-12-16T13:57:10Z</time>
      </trkpt>
      <trkpt lat="45.23579" lon="5.59087">
        <ele>1531.8000488281</ele>
        <time>2016-12-16T13:57:14Z</time>
      </trkpt>
      <trkpt lat="45.23579" lon="5.59089">
        <ele>1532.1999511719</ele>
        <time>2016-12-16T13:57:15Z</time>
      </trkpt>
      <trkpt lat="45.23579" lon="5.59092">
        <ele>1532.5999755859</ele>
        <time>2016-12-16T13:57:16Z</time>
      </trkpt>
      <trkpt lat="45.2358" lon="5.59094">
        <ele>1533</ele>
        <time>2016-12-16T13:57:17Z</time>
      </trkpt>
      <trkpt lat="45.23582" lon="5.59096">
        <ele>1533.4000244141</ele>
        <time>2016-12-16T13:57:18Z</time>
      </trkpt>
      <trkpt lat="45.23585" lon="5.59097">
        <ele>1533.4000244141</ele>
        <time>2016-12-16T13:57:20Z</time>
      </trkpt>
      <trkpt lat="45.23587" lon="5.59096">
        <ele>1534</ele>
        <time>2016-12-16T13:57:21Z</time>
      </trkpt>
      <trkpt lat="45.23589" lon="5.59096">
        <ele>1534.4000244141</ele>
        <time>2016-12-16T13:57:22Z</time>
      </trkpt>
      <trkpt lat="45.2359" lon="5.59095">
        <ele>1534.8000488281</ele>
        <time>2016-12-16T13:57:23Z</time>
      </trkpt>
      <trkpt lat="45.23592" lon="5.59095">
        <ele>1535.1999511719</ele>
        <time>2016-12-16T13:57:24Z</time>
      </trkpt>
      <trkpt lat="45.23593" lon="5.59095">
        <ele>1535.5999755859</ele>
        <time>2016-12-16T13:57:25Z</time>
      </trkpt>
      <trkpt lat="45.23594" lon="5.59094">
        <ele>1535.5999755859</ele>
        <time>2016-12-16T13:57:26Z</time>
      </trkpt>
      <trkpt lat="45.23595" lon="5.59093">
        <ele>1535.5999755859</ele>
        <time>2016-12-16T13:57:27Z</time>
      </trkpt>
      <trkpt lat="45.236" lon="5.59089">
        <ele>1535.5999755859</ele>
        <time>2016-12-16T13:57:31Z</time>
      </trkpt>
      <trkpt lat="45.23601" lon="5.59089">
        <ele>1535.5999755859</ele>
        <time>2016-12-16T13:57:32Z</time>
      </trkpt>
      <trkpt lat="45.23614" lon="5.59088">
        <ele>1535.5999755859</ele>
        <time>2016-12-16T13:57:39Z</time>
      </trkpt>
      <trkpt lat="45.23616" lon="5.59089">
        <ele>1536</ele>
        <time>2016-12-16T13:57:40Z</time>
      </trkpt>
      <trkpt lat="45.23618" lon="5.59089">
        <ele>1536.4000244141</ele>
        <time>2016-12-16T13:57:41Z</time>
      </trkpt>
      <trkpt lat="45.2362" lon="5.5909">
        <ele>1536.8000488281</ele>
        <time>2016-12-16T13:57:42Z</time>
      </trkpt>
      <trkpt lat="45.23622" lon="5.5909">
        <ele>1537.1999511719</ele>
        <time>2016-12-16T13:57:43Z</time>
      </trkpt>
      <trkpt lat="45.23623" lon="5.5909">
        <ele>1537.5999755859</ele>
        <time>2016-12-16T13:57:44Z</time>
      </trkpt>
      <trkpt lat="45.23625" lon="5.59089">
        <ele>1537.5999755859</ele>
        <time>2016-12-16T13:57:45Z</time>
      </trkpt>
      <trkpt lat="45.23626" lon="5.59089">
        <ele>1538.1999511719</ele>
        <time>2016-12-16T13:57:46Z</time>
      </trkpt>
      <trkpt lat="45.23628" lon="5.59088">
        <ele>1538.5999755859</ele>
        <time>2016-12-16T13:57:47Z</time>
      </trkpt>
      <trkpt lat="45.23629" lon="5.59088">
        <ele>1539</ele>
        <time>2016-12-16T13:57:48Z</time>
      </trkpt>
      <trkpt lat="45.23631" lon="5.59089">
        <ele>1539.4000244141</ele>
        <time>2016-12-16T13:57:49Z</time>
      </trkpt>
      <trkpt lat="45.23632" lon="5.59089">
        <ele>1539.8000488281</ele>
        <time>2016-12-16T13:57:50Z</time>
      </trkpt>
      <trkpt lat="45.23635" lon="5.59091">
        <ele>1539.8000488281</ele>
        <time>2016-12-16T13:57:52Z</time>
      </trkpt>
      <trkpt lat="45.2364" lon="5.59099">
        <ele>1540.1999511719</ele>
        <time>2016-12-16T13:57:57Z</time>
      </trkpt>
      <trkpt lat="45.2364" lon="5.59101">
        <ele>1540.5999755859</ele>
        <time>2016-12-16T13:57:58Z</time>
      </trkpt>
      <trkpt lat="45.2364" lon="5.59103">
        <ele>1541</ele>
        <time>2016-12-16T13:57:59Z</time>
      </trkpt>
      <trkpt lat="45.23641" lon="5.59104">
        <ele>1541.4000244141</ele>
        <time>2016-12-16T13:58:00Z</time>
      </trkpt>
      <trkpt lat="45.2364" lon="5.59106">
        <ele>1542</ele>
        <time>2016-12-16T13:58:01Z</time>
      </trkpt>
      <trkpt lat="45.2364" lon="5.59108">
        <ele>1542</ele>
        <time>2016-12-16T13:58:02Z</time>
      </trkpt>
      <trkpt lat="45.23638" lon="5.59112">
        <ele>1542</ele>
        <time>2016-12-16T13:58:05Z</time>
      </trkpt>
      <trkpt lat="45.23637" lon="5.59114">
        <ele>1542.4000244141</ele>
        <time>2016-12-16T13:58:06Z</time>
      </trkpt>
      <trkpt lat="45.23637" lon="5.59115">
        <ele>1542.8000488281</ele>
        <time>2016-12-16T13:58:07Z</time>
      </trkpt>
      <trkpt lat="45.23636" lon="5.59116">
        <ele>1543.1999511719</ele>
        <time>2016-12-16T13:58:08Z</time>
      </trkpt>
      <trkpt lat="45.23636" lon="5.59117">
        <ele>1543.5999755859</ele>
        <time>2016-12-16T13:58:09Z</time>
      </trkpt>
      <trkpt lat="45.23635" lon="5.59119">
        <ele>1544</ele>
        <time>2016-12-16T13:58:10Z</time>
      </trkpt>
      <trkpt lat="45.23634" lon="5.59119">
        <ele>1544</ele>
        <time>2016-12-16T13:58:11Z</time>
      </trkpt>
      <trkpt lat="45.23624" lon="5.59123">
        <ele>1544</ele>
        <time>2016-12-16T13:58:15Z</time>
      </trkpt>
      <trkpt lat="45.23615" lon="5.59128">
        <ele>1544</ele>
        <time>2016-12-16T13:58:21Z</time>
      </trkpt>
      <trkpt lat="45.23613" lon="5.59128">
        <ele>1544.5999755859</ele>
        <time>2016-12-16T13:58:22Z</time>
      </trkpt>
      <trkpt lat="45.23612" lon="5.59128">
        <ele>1545</ele>
        <time>2016-12-16T13:58:23Z</time>
      </trkpt>
      <trkpt lat="45.2361" lon="5.59129">
        <ele>1545.4000244141</ele>
        <time>2016-12-16T13:58:24Z</time>
      </trkpt>
      <trkpt lat="45.23608" lon="5.59131">
        <ele>1545.8000488281</ele>
        <time>2016-12-16T13:58:25Z</time>
      </trkpt>
      <trkpt lat="45.23606" lon="5.59133">
        <ele>1546.1999511719</ele>
        <time>2016-12-16T13:58:26Z</time>
      </trkpt>
      <trkpt lat="45.236" lon="5.59138">
        <ele>1546.1999511719</ele>
        <time>2016-12-16T13:58:29Z</time>
      </trkpt>
      <trkpt lat="45.23597" lon="5.59142">
        <ele>1546.1999511719</ele>
        <time>2016-12-16T13:58:31Z</time>
      </trkpt>
      <trkpt lat="45.23589" lon="5.59153">
        <ele>1546.1999511719</ele>
        <time>2016-12-16T13:58:37Z</time>
      </trkpt>
      <trkpt lat="45.23583" lon="5.5916">
        <ele>1546.5999755859</ele>
        <time>2016-12-16T13:58:41Z</time>
      </trkpt>
      <trkpt lat="45.23582" lon="5.59161">
        <ele>1547</ele>
        <time>2016-12-16T13:58:42Z</time>
      </trkpt>
      <trkpt lat="45.2358" lon="5.59162">
        <ele>1547.4000244141</ele>
        <time>2016-12-16T13:58:43Z</time>
      </trkpt>
      <trkpt lat="45.23579" lon="5.59163">
        <ele>1547.8000488281</ele>
        <time>2016-12-16T13:58:44Z</time>
      </trkpt>
      <trkpt lat="45.23578" lon="5.59164">
        <ele>1548.1999511719</ele>
        <time>2016-12-16T13:58:45Z</time>
      </trkpt>
      <trkpt lat="45.23573" lon="5.59169">
        <ele>1548.1999511719</ele>
        <time>2016-12-16T13:58:49Z</time>
      </trkpt>
      <trkpt lat="45.23569" lon="5.59172">
        <ele>1548.1999511719</ele>
        <time>2016-12-16T13:58:52Z</time>
      </trkpt>
      <trkpt lat="45.23568" lon="5.59175">
        <ele>1548.1999511719</ele>
        <time>2016-12-16T13:58:54Z</time>
      </trkpt>
      <trkpt lat="45.23568" lon="5.59177">
        <ele>1548.5999755859</ele>
        <time>2016-12-16T13:58:55Z</time>
      </trkpt>
      <trkpt lat="45.23568" lon="5.5918">
        <ele>1549</ele>
        <time>2016-12-16T13:58:56Z</time>
      </trkpt>
      <trkpt lat="45.23568" lon="5.59182">
        <ele>1549.4000244141</ele>
        <time>2016-12-16T13:58:57Z</time>
      </trkpt>
      <trkpt lat="45.23569" lon="5.59185">
        <ele>1550</ele>
        <time>2016-12-16T13:58:58Z</time>
      </trkpt>
      <trkpt lat="45.2357" lon="5.59186">
        <ele>1550.4000244141</ele>
        <time>2016-12-16T13:58:59Z</time>
      </trkpt>
      <trkpt lat="45.23572" lon="5.59187">
        <ele>1550.4000244141</ele>
        <time>2016-12-16T13:59:00Z</time>
      </trkpt>
      <trkpt lat="45.2358" lon="5.59189">
        <ele>1550.8000488281</ele>
        <time>2016-12-16T13:59:05Z</time>
      </trkpt>
      <trkpt lat="45.23581" lon="5.59189">
        <ele>1551.1999511719</ele>
        <time>2016-12-16T13:59:06Z</time>
      </trkpt>
      <trkpt lat="45.23582" lon="5.5919">
        <ele>1551.8000488281</ele>
        <time>2016-12-16T13:59:07Z</time>
      </trkpt>
      <trkpt lat="45.23583" lon="5.59192">
        <ele>1552.1999511719</ele>
        <time>2016-12-16T13:59:08Z</time>
      </trkpt>
      <trkpt lat="45.23585" lon="5.59193">
        <ele>1552.5999755859</ele>
        <time>2016-12-16T13:59:09Z</time>
      </trkpt>
      <trkpt lat="45.23585" lon="5.59195">
        <ele>1552.5999755859</ele>
        <time>2016-12-16T13:59:10Z</time>
      </trkpt>
      <trkpt lat="45.23585" lon="5.592">
        <ele>1553.1999511719</ele>
        <time>2016-12-16T13:59:12Z</time>
      </trkpt>
      <trkpt lat="45.23585" lon="5.59202">
        <ele>1553.5999755859</ele>
        <time>2016-12-16T13:59:13Z</time>
      </trkpt>
      <trkpt lat="45.23585" lon="5.59203">
        <ele>1554</ele>
        <time>2016-12-16T13:59:14Z</time>
      </trkpt>
      <trkpt lat="45.23585" lon="5.59204">
        <ele>1554.5999755859</ele>
        <time>2016-12-16T13:59:15Z</time>
      </trkpt>
      <trkpt lat="45.23585" lon="5.59206">
        <ele>1555</ele>
        <time>2016-12-16T13:59:16Z</time>
      </trkpt>
      <trkpt lat="45.23584" lon="5.59207">
        <ele>1555</ele>
        <time>2016-12-16T13:59:17Z</time>
      </trkpt>
      <trkpt lat="45.23582" lon="5.59214">
        <ele>1555</ele>
        <time>2016-12-16T13:59:21Z</time>
      </trkpt>
      <trkpt lat="45.23579" lon="5.59219">
        <ele>1555</ele>
        <time>2016-12-16T13:59:24Z</time>
      </trkpt>
      <trkpt lat="45.23575" lon="5.59226">
        <ele>1555</ele>
        <time>2016-12-16T13:59:28Z</time>
      </trkpt>
      <trkpt lat="45.23571" lon="5.59232">
        <ele>1555.4000244141</ele>
        <time>2016-12-16T13:59:33Z</time>
      </trkpt>
      <trkpt lat="45.2357" lon="5.59233">
        <ele>1555.8000488281</ele>
        <time>2016-12-16T13:59:34Z</time>
      </trkpt>
      <trkpt lat="45.23569" lon="5.59234">
        <ele>1556.1999511719</ele>
        <time>2016-12-16T13:59:35Z</time>
      </trkpt>
      <trkpt lat="45.23568" lon="5.59235">
        <ele>1556.5999755859</ele>
        <time>2016-12-16T13:59:36Z</time>
      </trkpt>
      <trkpt lat="45.23567" lon="5.59236">
        <ele>1557.1999511719</ele>
        <time>2016-12-16T13:59:37Z</time>
      </trkpt>
      <trkpt lat="45.23563" lon="5.59238">
        <ele>1557.1999511719</ele>
        <time>2016-12-16T13:59:40Z</time>
      </trkpt>
      <trkpt lat="45.23552" lon="5.59244">
        <ele>1557.1999511719</ele>
        <time>2016-12-16T13:59:47Z</time>
      </trkpt>
      <trkpt lat="45.2354" lon="5.59243">
        <ele>1557.1999511719</ele>
        <time>2016-12-16T13:59:54Z</time>
      </trkpt>
      <trkpt lat="45.23538" lon="5.59243">
        <ele>1557.5999755859</ele>
        <time>2016-12-16T13:59:55Z</time>
      </trkpt>
      <trkpt lat="45.23537" lon="5.59243">
        <ele>1558</ele>
        <time>2016-12-16T13:59:56Z</time>
      </trkpt>
      <trkpt lat="45.23535" lon="5.59243">
        <ele>1558.4000244141</ele>
        <time>2016-12-16T13:59:57Z</time>
      </trkpt>
      <trkpt lat="45.23533" lon="5.59243">
        <ele>1558.8000488281</ele>
        <time>2016-12-16T13:59:58Z</time>
      </trkpt>
      <trkpt lat="45.23532" lon="5.59242">
        <ele>1559.1999511719</ele>
        <time>2016-12-16T13:59:59Z</time>
      </trkpt>
      <trkpt lat="45.2353" lon="5.59242">
        <ele>1559.1999511719</ele>
        <time>2016-12-16T14:00:00Z</time>
      </trkpt>
      <trkpt lat="45.23528" lon="5.59243">
        <ele>1559.1999511719</ele>
        <time>2016-12-16T14:00:01Z</time>
      </trkpt>
      <trkpt lat="45.23522" lon="5.59246">
        <ele>1559.1999511719</ele>
        <time>2016-12-16T14:00:05Z</time>
      </trkpt>
      <trkpt lat="45.23518" lon="5.5925">
        <ele>1559.5999755859</ele>
        <time>2016-12-16T14:00:08Z</time>
      </trkpt>
      <trkpt lat="45.23517" lon="5.59251">
        <ele>1560</ele>
        <time>2016-12-16T14:00:09Z</time>
      </trkpt>
      <trkpt lat="45.23516" lon="5.59252">
        <ele>1560.4000244141</ele>
        <time>2016-12-16T14:00:10Z</time>
      </trkpt>
      <trkpt lat="45.23514" lon="5.59253">
        <ele>1561</ele>
        <time>2016-12-16T14:00:11Z</time>
      </trkpt>
      <trkpt lat="45.23513" lon="5.59254">
        <ele>1561.4000244141</ele>
        <time>2016-12-16T14:00:12Z</time>
      </trkpt>
      <trkpt lat="45.23505" lon="5.59262">
        <ele>1561.4000244141</ele>
        <time>2016-12-16T14:00:17Z</time>
      </trkpt>
      <trkpt lat="45.23499" lon="5.59266">
        <ele>1561.8000488281</ele>
        <time>2016-12-16T14:00:21Z</time>
      </trkpt>
      <trkpt lat="45.23498" lon="5.59267">
        <ele>1562.1999511719</ele>
        <time>2016-12-16T14:00:22Z</time>
      </trkpt>
      <trkpt lat="45.23496" lon="5.59267">
        <ele>1562.5999755859</ele>
        <time>2016-12-16T14:00:23Z</time>
      </trkpt>
      <trkpt lat="45.23495" lon="5.59267">
        <ele>1563</ele>
        <time>2016-12-16T14:00:24Z</time>
      </trkpt>
      <trkpt lat="45.23494" lon="5.59266">
        <ele>1563.4000244141</ele>
        <time>2016-12-16T14:00:25Z</time>
      </trkpt>
      <trkpt lat="45.2349" lon="5.59264">
        <ele>1563.4000244141</ele>
        <time>2016-12-16T14:00:28Z</time>
      </trkpt>
      <trkpt lat="45.23478" lon="5.59261">
        <ele>1563.4000244141</ele>
        <time>2016-12-16T14:00:35Z</time>
      </trkpt>
      <trkpt lat="45.23468" lon="5.59261">
        <ele>1563.4000244141</ele>
        <time>2016-12-16T14:00:40Z</time>
      </trkpt>
      <trkpt lat="45.23467" lon="5.59261">
        <ele>1563.4000244141</ele>
        <time>2016-12-16T14:00:45Z</time>
      </trkpt>
      <trkpt lat="45.23464" lon="5.59261">
        <ele>1563.4000244141</ele>
        <time>2016-12-16T14:00:55Z</time>
      </trkpt>
      <trkpt lat="45.23456" lon="5.59261">
        <ele>1563.4000244141</ele>
        <time>2016-12-16T14:01:00Z</time>
      </trkpt>
      <trkpt lat="45.23454" lon="5.59262">
        <ele>1563.8000488281</ele>
        <time>2016-12-16T14:01:01Z</time>
      </trkpt>
      <trkpt lat="45.23453" lon="5.59263">
        <ele>1564.1999511719</ele>
        <time>2016-12-16T14:01:02Z</time>
      </trkpt>
      <trkpt lat="45.23451" lon="5.59264">
        <ele>1564.5999755859</ele>
        <time>2016-12-16T14:01:03Z</time>
      </trkpt>
      <trkpt lat="45.2345" lon="5.59264">
        <ele>1565</ele>
        <time>2016-12-16T14:01:04Z</time>
      </trkpt>
      <trkpt lat="45.23448" lon="5.59265">
        <ele>1565.5999755859</ele>
        <time>2016-12-16T14:01:05Z</time>
      </trkpt>
      <trkpt lat="45.23447" lon="5.59267">
        <ele>1565.5999755859</ele>
        <time>2016-12-16T14:01:06Z</time>
      </trkpt>
      <trkpt lat="45.23443" lon="5.59273">
        <ele>1566</ele>
        <time>2016-12-16T14:01:10Z</time>
      </trkpt>
      <trkpt lat="45.23441" lon="5.59275">
        <ele>1566.4000244141</ele>
        <time>2016-12-16T14:01:11Z</time>
      </trkpt>
      <trkpt lat="45.23441" lon="5.59277">
        <ele>1566.8000488281</ele>
        <time>2016-12-16T14:01:12Z</time>
      </trkpt>
      <trkpt lat="45.23439" lon="5.59279">
        <ele>1567.1999511719</ele>
        <time>2016-12-16T14:01:13Z</time>
      </trkpt>
      <trkpt lat="45.23438" lon="5.59281">
        <ele>1567.5999755859</ele>
        <time>2016-12-16T14:01:14Z</time>
      </trkpt>
      <trkpt lat="45.23434" lon="5.59292">
        <ele>1567.5999755859</ele>
        <time>2016-12-16T14:01:18Z</time>
      </trkpt>
      <trkpt lat="45.23437" lon="5.59305">
        <ele>1567.5999755859</ele>
        <time>2016-12-16T14:01:23Z</time>
      </trkpt>
      <trkpt lat="45.23445" lon="5.59321">
        <ele>1567.5999755859</ele>
        <time>2016-12-16T14:01:28Z</time>
      </trkpt>
      <trkpt lat="45.23449" lon="5.59327">
        <ele>1567.5999755859</ele>
        <time>2016-12-16T14:01:29Z</time>
      </trkpt>
      <trkpt lat="45.23461" lon="5.5934">
        <ele>1567.5999755859</ele>
        <time>2016-12-16T14:01:33Z</time>
      </trkpt>
      <trkpt lat="45.23467" lon="5.59348">
        <ele>1568.1999511719</ele>
        <time>2016-12-16T14:01:38Z</time>
      </trkpt>
      <trkpt lat="45.23469" lon="5.5935">
        <ele>1568.5999755859</ele>
        <time>2016-12-16T14:01:39Z</time>
      </trkpt>
      <trkpt lat="45.2347" lon="5.59352">
        <ele>1569</ele>
        <time>2016-12-16T14:01:40Z</time>
      </trkpt>
      <trkpt lat="45.23471" lon="5.59353">
        <ele>1569.4000244141</ele>
        <time>2016-12-16T14:01:41Z</time>
      </trkpt>
      <trkpt lat="45.23472" lon="5.59355">
        <ele>1569.8000488281</ele>
        <time>2016-12-16T14:01:42Z</time>
      </trkpt>
      <trkpt lat="45.23478" lon="5.59361">
        <ele>1570.1999511719</ele>
        <time>2016-12-16T14:01:46Z</time>
      </trkpt>
      <trkpt lat="45.23479" lon="5.59362">
        <ele>1570.5999755859</ele>
        <time>2016-12-16T14:01:47Z</time>
      </trkpt>
      <trkpt lat="45.23481" lon="5.59364">
        <ele>1571.1999511719</ele>
        <time>2016-12-16T14:01:48Z</time>
      </trkpt>
      <trkpt lat="45.23482" lon="5.59365">
        <ele>1571.5999755859</ele>
        <time>2016-12-16T14:01:49Z</time>
      </trkpt>
      <trkpt lat="45.23484" lon="5.59366">
        <ele>1572</ele>
        <time>2016-12-16T14:01:50Z</time>
      </trkpt>
      <trkpt lat="45.23489" lon="5.59372">
        <ele>1572</ele>
        <time>2016-12-16T14:01:54Z</time>
      </trkpt>
      <trkpt lat="45.23498" lon="5.59381">
        <ele>1572</ele>
        <time>2016-12-16T14:02:01Z</time>
      </trkpt>
      <trkpt lat="45.23503" lon="5.59388">
        <ele>1572.4000244141</ele>
        <time>2016-12-16T14:02:05Z</time>
      </trkpt>
      <trkpt lat="45.23505" lon="5.5939">
        <ele>1572.8000488281</ele>
        <time>2016-12-16T14:02:06Z</time>
      </trkpt>
      <trkpt lat="45.23506" lon="5.59391">
        <ele>1573.1999511719</ele>
        <time>2016-12-16T14:02:07Z</time>
      </trkpt>
      <trkpt lat="45.23508" lon="5.59393">
        <ele>1573.5999755859</ele>
        <time>2016-12-16T14:02:08Z</time>
      </trkpt>
      <trkpt lat="45.23509" lon="5.59394">
        <ele>1574</ele>
        <time>2016-12-16T14:02:09Z</time>
      </trkpt>
      <trkpt lat="45.23518" lon="5.59404">
        <ele>1574.4000244141</ele>
        <time>2016-12-16T14:02:15Z</time>
      </trkpt>
      <trkpt lat="45.23519" lon="5.59405">
        <ele>1575</ele>
        <time>2016-12-16T14:02:16Z</time>
      </trkpt>
      <trkpt lat="45.23521" lon="5.59406">
        <ele>1575.4000244141</ele>
        <time>2016-12-16T14:02:17Z</time>
      </trkpt>
      <trkpt lat="45.23522" lon="5.59407">
        <ele>1575.8000488281</ele>
        <time>2016-12-16T14:02:18Z</time>
      </trkpt>
      <trkpt lat="45.23524" lon="5.59409">
        <ele>1576.1999511719</ele>
        <time>2016-12-16T14:02:19Z</time>
      </trkpt>
      <trkpt lat="45.23528" lon="5.59413">
        <ele>1576.1999511719</ele>
        <time>2016-12-16T14:02:22Z</time>
      </trkpt>
      <trkpt lat="45.23529" lon="5.59415">
        <ele>1576.1999511719</ele>
        <time>2016-12-16T14:02:23Z</time>
      </trkpt>
      <trkpt lat="45.23531" lon="5.59417">
        <ele>1576.5999755859</ele>
        <time>2016-12-16T14:02:25Z</time>
      </trkpt>
      <trkpt lat="45.23533" lon="5.59418">
        <ele>1577</ele>
        <time>2016-12-16T14:02:26Z</time>
      </trkpt>
      <trkpt lat="45.23534" lon="5.59419">
        <ele>1577.4000244141</ele>
        <time>2016-12-16T14:02:27Z</time>
      </trkpt>
      <trkpt lat="45.23535" lon="5.59421">
        <ele>1577.8000488281</ele>
        <time>2016-12-16T14:02:28Z</time>
      </trkpt>
      <trkpt lat="45.23536" lon="5.59423">
        <ele>1578.4000244141</ele>
        <time>2016-12-16T14:02:29Z</time>
      </trkpt>
      <trkpt lat="45.23538" lon="5.59428">
        <ele>1578.4000244141</ele>
        <time>2016-12-16T14:02:32Z</time>
      </trkpt>
      <trkpt lat="45.2354" lon="5.59431">
        <ele>1578.4000244141</ele>
        <time>2016-12-16T14:02:34Z</time>
      </trkpt>
      <trkpt lat="45.2354" lon="5.59432">
        <ele>1578.8000488281</ele>
        <time>2016-12-16T14:02:35Z</time>
      </trkpt>
      <trkpt lat="45.23541" lon="5.59434">
        <ele>1579.1999511719</ele>
        <time>2016-12-16T14:02:36Z</time>
      </trkpt>
      <trkpt lat="45.23541" lon="5.59436">
        <ele>1579.5999755859</ele>
        <time>2016-12-16T14:02:37Z</time>
      </trkpt>
      <trkpt lat="45.23542" lon="5.59437">
        <ele>1580</ele>
        <time>2016-12-16T14:02:38Z</time>
      </trkpt>
      <trkpt lat="45.23543" lon="5.59439">
        <ele>1580.5999755859</ele>
        <time>2016-12-16T14:02:39Z</time>
      </trkpt>
      <trkpt lat="45.23547" lon="5.59446">
        <ele>1580.5999755859</ele>
        <time>2016-12-16T14:02:43Z</time>
      </trkpt>
      <trkpt lat="45.23549" lon="5.59449">
        <ele>1581</ele>
        <time>2016-12-16T14:02:45Z</time>
      </trkpt>
      <trkpt lat="45.2355" lon="5.59451">
        <ele>1581.4000244141</ele>
        <time>2016-12-16T14:02:46Z</time>
      </trkpt>
      <trkpt lat="45.23551" lon="5.59453">
        <ele>1581.8000488281</ele>
        <time>2016-12-16T14:02:47Z</time>
      </trkpt>
      <trkpt lat="45.23552" lon="5.59455">
        <ele>1582.8000488281</ele>
        <time>2016-12-16T14:02:48Z</time>
      </trkpt>
      <trkpt lat="45.23553" lon="5.59456">
        <ele>1582.8000488281</ele>
        <time>2016-12-16T14:02:49Z</time>
      </trkpt>
      <trkpt lat="45.23555" lon="5.5946">
        <ele>1583.1999511719</ele>
        <time>2016-12-16T14:02:51Z</time>
      </trkpt>
      <trkpt lat="45.23557" lon="5.59462">
        <ele>1583.5999755859</ele>
        <time>2016-12-16T14:02:52Z</time>
      </trkpt>
      <trkpt lat="45.23557" lon="5.59462">
        <ele>1584</ele>
        <time>2016-12-16T14:02:53Z</time>
      </trkpt>
      <trkpt lat="45.23557" lon="5.59463">
        <ele>1584.4000244141</ele>
        <time>2016-12-16T14:02:54Z</time>
      </trkpt>
      <trkpt lat="45.23557" lon="5.59463">
        <ele>1584.8000488281</ele>
        <time>2016-12-16T14:03:34Z</time>
      </trkpt>
      <trkpt lat="45.23557" lon="5.59463">
        <ele>1584.8000488281</ele>
        <time>2016-12-16T14:03:51Z</time>
      </trkpt>
      <trkpt lat="45.23557" lon="5.59463">
        <ele>1584.8000488281</ele>
        <time>2016-12-16T14:04:25Z</time>
      </trkpt>
      <trkpt lat="45.23558" lon="5.59462">
        <ele>1584.8000488281</ele>
        <time>2016-12-16T14:05:08Z</time>
      </trkpt>
      <trkpt lat="45.23558" lon="5.59462">
        <ele>1584.8000488281</ele>
        <time>2016-12-16T14:05:24Z</time>
      </trkpt>
      <trkpt lat="45.23557" lon="5.59463">
        <ele>1584.8000488281</ele>
        <time>2016-12-16T14:05:43Z</time>
      </trkpt>
      <trkpt lat="45.23557" lon="5.59463">
        <ele>1584.8000488281</ele>
        <time>2016-12-16T14:06:24Z</time>
      </trkpt>
      <trkpt lat="45.23557" lon="5.59463">
        <ele>1584.8000488281</ele>
        <time>2016-12-16T14:06:49Z</time>
      </trkpt>
      <trkpt lat="45.23557" lon="5.59463">
        <ele>1584.8000488281</ele>
        <time>2016-12-16T14:06:58Z</time>
      </trkpt>
      <trkpt lat="45.23556" lon="5.59464">
        <ele>1584.8000488281</ele>
        <time>2016-12-16T14:07:07Z</time>
      </trkpt>
      <trkpt lat="45.23557" lon="5.59467">
        <ele>1584.8000488281</ele>
        <time>2016-12-16T14:07:09Z</time>
      </trkpt>
      <trkpt lat="45.23556" lon="5.59474">
        <ele>1584.8000488281</ele>
        <time>2016-12-16T14:07:14Z</time>
      </trkpt>
      <trkpt lat="45.23555" lon="5.59476">
        <ele>1585.1999511719</ele>
        <time>2016-12-16T14:07:15Z</time>
      </trkpt>
      <trkpt lat="45.23554" lon="5.59477">
        <ele>1585.5999755859</ele>
        <time>2016-12-16T14:07:16Z</time>
      </trkpt>
      <trkpt lat="45.23553" lon="5.59479">
        <ele>1586</ele>
        <time>2016-12-16T14:07:17Z</time>
      </trkpt>
      <trkpt lat="45.23551" lon="5.5948">
        <ele>1586.4000244141</ele>
        <time>2016-12-16T14:07:18Z</time>
      </trkpt>
      <trkpt lat="45.2355" lon="5.59481">
        <ele>1586.8000488281</ele>
        <time>2016-12-16T14:07:19Z</time>
      </trkpt>
      <trkpt lat="45.23549" lon="5.59481">
        <ele>1586.8000488281</ele>
        <time>2016-12-16T14:07:20Z</time>
      </trkpt>
      <trkpt lat="45.23547" lon="5.59481">
        <ele>1587.1999511719</ele>
        <time>2016-12-16T14:07:21Z</time>
      </trkpt>
      <trkpt lat="45.23546" lon="5.59482">
        <ele>1587.8000488281</ele>
        <time>2016-12-16T14:07:22Z</time>
      </trkpt>
      <trkpt lat="45.23545" lon="5.59482">
        <ele>1588.1999511719</ele>
        <time>2016-12-16T14:07:23Z</time>
      </trkpt>
      <trkpt lat="45.23544" lon="5.59483">
        <ele>1588.5999755859</ele>
        <time>2016-12-16T14:07:24Z</time>
      </trkpt>
      <trkpt lat="45.23543" lon="5.59484">
        <ele>1589</ele>
        <time>2016-12-16T14:07:25Z</time>
      </trkpt>
      <trkpt lat="45.23542" lon="5.59485">
        <ele>1589</ele>
        <time>2016-12-16T14:07:26Z</time>
      </trkpt>
      <trkpt lat="45.23538" lon="5.59487">
        <ele>1589.4000244141</ele>
        <time>2016-12-16T14:07:29Z</time>
      </trkpt>
      <trkpt lat="45.23537" lon="5.59488">
        <ele>1589.8000488281</ele>
        <time>2016-12-16T14:07:30Z</time>
      </trkpt>
      <trkpt lat="45.23536" lon="5.59488">
        <ele>1590.1999511719</ele>
        <time>2016-12-16T14:07:31Z</time>
      </trkpt>
      <trkpt lat="45.23535" lon="5.59489">
        <ele>1590.8000488281</ele>
        <time>2016-12-16T14:07:32Z</time>
      </trkpt>
      <trkpt lat="45.23534" lon="5.5949">
        <ele>1591.1999511719</ele>
        <time>2016-12-16T14:07:33Z</time>
      </trkpt>
      <trkpt lat="45.23526" lon="5.59492">
        <ele>1592</ele>
        <time>2016-12-16T14:07:38Z</time>
      </trkpt>
      <trkpt lat="45.23524" lon="5.59493">
        <ele>1592.4000244141</ele>
        <time>2016-12-16T14:07:39Z</time>
      </trkpt>
      <trkpt lat="45.23523" lon="5.59493">
        <ele>1592.8000488281</ele>
        <time>2016-12-16T14:07:40Z</time>
      </trkpt>
      <trkpt lat="45.23521" lon="5.59494">
        <ele>1593.1999511719</ele>
        <time>2016-12-16T14:07:41Z</time>
      </trkpt>
      <trkpt lat="45.23515" lon="5.59494">
        <ele>1593.5999755859</ele>
        <time>2016-12-16T14:07:45Z</time>
      </trkpt>
      <trkpt lat="45.23514" lon="5.59495">
        <ele>1594.1999511719</ele>
        <time>2016-12-16T14:07:46Z</time>
      </trkpt>
      <trkpt lat="45.23513" lon="5.59495">
        <ele>1594.5999755859</ele>
        <time>2016-12-16T14:07:47Z</time>
      </trkpt>
      <trkpt lat="45.23512" lon="5.59497">
        <ele>1595</ele>
        <time>2016-12-16T14:07:48Z</time>
      </trkpt>
      <trkpt lat="45.23511" lon="5.59497">
        <ele>1595.4000244141</ele>
        <time>2016-12-16T14:07:49Z</time>
      </trkpt>
      <trkpt lat="45.23509" lon="5.59497">
        <ele>1595.4000244141</ele>
        <time>2016-12-16T14:07:51Z</time>
      </trkpt>
      <trkpt lat="45.23507" lon="5.59497">
        <ele>1595.4000244141</ele>
        <time>2016-12-16T14:07:53Z</time>
      </trkpt>
      <trkpt lat="45.23502" lon="5.59498">
        <ele>1595.4000244141</ele>
        <time>2016-12-16T14:07:59Z</time>
      </trkpt>
      <trkpt lat="45.235" lon="5.59498">
        <ele>1595.4000244141</ele>
        <time>2016-12-16T14:08:09Z</time>
      </trkpt>
      <trkpt lat="45.23495" lon="5.59492">
        <ele>1595.4000244141</ele>
        <time>2016-12-16T14:08:14Z</time>
      </trkpt>
      <trkpt lat="45.2348" lon="5.59481">
        <ele>1595.4000244141</ele>
        <time>2016-12-16T14:08:18Z</time>
      </trkpt>
      <trkpt lat="45.23472" lon="5.59477">
        <ele>1595</ele>
        <time>2016-12-16T14:08:20Z</time>
      </trkpt>
      <trkpt lat="45.23469" lon="5.59476">
        <ele>1594.5999755859</ele>
        <time>2016-12-16T14:08:21Z</time>
      </trkpt>
      <trkpt lat="45.23466" lon="5.59475">
        <ele>1594</ele>
        <time>2016-12-16T14:08:22Z</time>
      </trkpt>
      <trkpt lat="45.23462" lon="5.59474">
        <ele>1593.5999755859</ele>
        <time>2016-12-16T14:08:23Z</time>
      </trkpt>
      <trkpt lat="45.23459" lon="5.59474">
        <ele>1593.1999511719</ele>
        <time>2016-12-16T14:08:24Z</time>
      </trkpt>
      <trkpt lat="45.23454" lon="5.59479">
        <ele>1593.1999511719</ele>
        <time>2016-12-16T14:08:26Z</time>
      </trkpt>
      <trkpt lat="45.23452" lon="5.59481">
        <ele>1593.1999511719</ele>
        <time>2016-12-16T14:08:27Z</time>
      </trkpt>
      <trkpt lat="45.23443" lon="5.59489">
        <ele>1593.5999755859</ele>
        <time>2016-12-16T14:08:32Z</time>
      </trkpt>
      <trkpt lat="45.23442" lon="5.5949">
        <ele>1594</ele>
        <time>2016-12-16T14:08:33Z</time>
      </trkpt>
      <trkpt lat="45.2344" lon="5.59492">
        <ele>1594.5999755859</ele>
        <time>2016-12-16T14:08:34Z</time>
      </trkpt>
      <trkpt lat="45.23439" lon="5.59492">
        <ele>1595</ele>
        <time>2016-12-16T14:08:35Z</time>
      </trkpt>
      <trkpt lat="45.23438" lon="5.59493">
        <ele>1595.4000244141</ele>
        <time>2016-12-16T14:08:36Z</time>
      </trkpt>
      <trkpt lat="45.23434" lon="5.59497">
        <ele>1595.8000488281</ele>
        <time>2016-12-16T14:08:39Z</time>
      </trkpt>
      <trkpt lat="45.23433" lon="5.59498">
        <ele>1596.1999511719</ele>
        <time>2016-12-16T14:08:40Z</time>
      </trkpt>
      <trkpt lat="45.23431" lon="5.59498">
        <ele>1596.5999755859</ele>
        <time>2016-12-16T14:08:41Z</time>
      </trkpt>
      <trkpt lat="45.2343" lon="5.595">
        <ele>1597</ele>
        <time>2016-12-16T14:08:42Z</time>
      </trkpt>
      <trkpt lat="45.23429" lon="5.59501">
        <ele>1597.4000244141</ele>
        <time>2016-12-16T14:08:43Z</time>
      </trkpt>
      <trkpt lat="45.23427" lon="5.59506">
        <ele>1597.4000244141</ele>
        <time>2016-12-16T14:08:45Z</time>
      </trkpt>
      <trkpt lat="45.23421" lon="5.59516">
        <ele>1597.4000244141</ele>
        <time>2016-12-16T14:08:51Z</time>
      </trkpt>
      <trkpt lat="45.23415" lon="5.59522">
        <ele>1598</ele>
        <time>2016-12-16T14:08:55Z</time>
      </trkpt>
      <trkpt lat="45.23414" lon="5.59523">
        <ele>1598.4000244141</ele>
        <time>2016-12-16T14:08:56Z</time>
      </trkpt>
      <trkpt lat="45.23413" lon="5.59524">
        <ele>1598.8000488281</ele>
        <time>2016-12-16T14:08:57Z</time>
      </trkpt>
      <trkpt lat="45.23412" lon="5.59526">
        <ele>1599.1999511719</ele>
        <time>2016-12-16T14:08:58Z</time>
      </trkpt>
      <trkpt lat="45.23411" lon="5.59527">
        <ele>1599.5999755859</ele>
        <time>2016-12-16T14:08:59Z</time>
      </trkpt>
      <trkpt lat="45.23408" lon="5.59533">
        <ele>1600</ele>
        <time>2016-12-16T14:09:03Z</time>
      </trkpt>
      <trkpt lat="45.23407" lon="5.59534">
        <ele>1600.4000244141</ele>
        <time>2016-12-16T14:09:04Z</time>
      </trkpt>
      <trkpt lat="45.23407" lon="5.59534">
        <ele>1600.8000488281</ele>
        <time>2016-12-16T14:09:05Z</time>
      </trkpt>
      <trkpt lat="45.23406" lon="5.59535">
        <ele>1601.4000244141</ele>
        <time>2016-12-16T14:09:06Z</time>
      </trkpt>
      <trkpt lat="45.23404" lon="5.59535">
        <ele>1601.8000488281</ele>
        <time>2016-12-16T14:09:07Z</time>
      </trkpt>
      <trkpt lat="45.23399" lon="5.59541">
        <ele>1601.8000488281</ele>
        <time>2016-12-16T14:09:13Z</time>
      </trkpt>
      <trkpt lat="45.23388" lon="5.59543">
        <ele>1601.8000488281</ele>
        <time>2016-12-16T14:09:20Z</time>
      </trkpt>
      <trkpt lat="45.23378" lon="5.59539">
        <ele>1601.8000488281</ele>
        <time>2016-12-16T14:09:26Z</time>
      </trkpt>
      <trkpt lat="45.2337" lon="5.59537">
        <ele>1602.1999511719</ele>
        <time>2016-12-16T14:09:30Z</time>
      </trkpt>
      <trkpt lat="45.23369" lon="5.59537">
        <ele>1602.5999755859</ele>
        <time>2016-12-16T14:09:31Z</time>
      </trkpt>
      <trkpt lat="45.23367" lon="5.59536">
        <ele>1603</ele>
        <time>2016-12-16T14:09:32Z</time>
      </trkpt>
      <trkpt lat="45.23366" lon="5.59536">
        <ele>1603.4000244141</ele>
        <time>2016-12-16T14:09:33Z</time>
      </trkpt>
      <trkpt lat="45.23363" lon="5.59536">
        <ele>1603.8000488281</ele>
        <time>2016-12-16T14:09:34Z</time>
      </trkpt>
      <trkpt lat="45.23355" lon="5.5954">
        <ele>1603.8000488281</ele>
        <time>2016-12-16T14:09:39Z</time>
      </trkpt>
      <trkpt lat="45.23351" lon="5.59542">
        <ele>1604.5999755859</ele>
        <time>2016-12-16T14:09:42Z</time>
      </trkpt>
      <trkpt lat="45.2335" lon="5.59543">
        <ele>1605</ele>
        <time>2016-12-16T14:09:43Z</time>
      </trkpt>
      <trkpt lat="45.23349" lon="5.59545">
        <ele>1605.4000244141</ele>
        <time>2016-12-16T14:09:44Z</time>
      </trkpt>
      <trkpt lat="45.23347" lon="5.59547">
        <ele>1605.8000488281</ele>
        <time>2016-12-16T14:09:45Z</time>
      </trkpt>
      <trkpt lat="45.23346" lon="5.59548">
        <ele>1606.1999511719</ele>
        <time>2016-12-16T14:09:46Z</time>
      </trkpt>
      <trkpt lat="45.23345" lon="5.59548">
        <ele>1606.8000488281</ele>
        <time>2016-12-16T14:09:47Z</time>
      </trkpt>
      <trkpt lat="45.23343" lon="5.59549">
        <ele>1607.1999511719</ele>
        <time>2016-12-16T14:09:48Z</time>
      </trkpt>
      <trkpt lat="45.23342" lon="5.59549">
        <ele>1607.5999755859</ele>
        <time>2016-12-16T14:09:49Z</time>
      </trkpt>
      <trkpt lat="45.23341" lon="5.59549">
        <ele>1608.1999511719</ele>
        <time>2016-12-16T14:09:50Z</time>
      </trkpt>
      <trkpt lat="45.2334" lon="5.59549">
        <ele>1608.1999511719</ele>
        <time>2016-12-16T14:09:51Z</time>
      </trkpt>
      <trkpt lat="45.23334" lon="5.59546">
        <ele>1608.1999511719</ele>
        <time>2016-12-16T14:09:56Z</time>
      </trkpt>
      <trkpt lat="45.23333" lon="5.59544">
        <ele>1608.1999511719</ele>
        <time>2016-12-16T14:09:57Z</time>
      </trkpt>
      <trkpt lat="45.23325" lon="5.59535">
        <ele>1608.1999511719</ele>
        <time>2016-12-16T14:10:04Z</time>
      </trkpt>
      <trkpt lat="45.23322" lon="5.59533">
        <ele>1608.1999511719</ele>
        <time>2016-12-16T14:10:06Z</time>
      </trkpt>
      <trkpt lat="45.23319" lon="5.59526">
        <ele>1608.1999511719</ele>
        <time>2016-12-16T14:10:10Z</time>
      </trkpt>
      <trkpt lat="45.23305" lon="5.59515">
        <ele>1608.1999511719</ele>
        <time>2016-12-16T14:10:15Z</time>
      </trkpt>
      <trkpt lat="45.23286" lon="5.59503">
        <ele>1608.1999511719</ele>
        <time>2016-12-16T14:10:19Z</time>
      </trkpt>
      <trkpt lat="45.23282" lon="5.59502">
        <ele>1608.1999511719</ele>
        <time>2016-12-16T14:10:20Z</time>
      </trkpt>
      <trkpt lat="45.23277" lon="5.59503">
        <ele>1608.1999511719</ele>
        <time>2016-12-16T14:10:23Z</time>
      </trkpt>
      <trkpt lat="45.23276" lon="5.59502">
        <ele>1608.1999511719</ele>
        <time>2016-12-16T14:10:24Z</time>
      </trkpt>
      <trkpt lat="45.23271" lon="5.59503">
        <ele>1608.1999511719</ele>
        <time>2016-12-16T14:10:27Z</time>
      </trkpt>
      <trkpt lat="45.23269" lon="5.59503">
        <ele>1608.1999511719</ele>
        <time>2016-12-16T14:10:28Z</time>
      </trkpt>
      <trkpt lat="45.23261" lon="5.59511">
        <ele>1608.1999511719</ele>
        <time>2016-12-16T14:10:32Z</time>
      </trkpt>
      <trkpt lat="45.23259" lon="5.59513">
        <ele>1608.1999511719</ele>
        <time>2016-12-16T14:10:33Z</time>
      </trkpt>
      <trkpt lat="45.23254" lon="5.59521">
        <ele>1608.1999511719</ele>
        <time>2016-12-16T14:10:37Z</time>
      </trkpt>
      <trkpt lat="45.23253" lon="5.59521">
        <ele>1608.5999755859</ele>
        <time>2016-12-16T14:10:38Z</time>
      </trkpt>
      <trkpt lat="45.23251" lon="5.59522">
        <ele>1609</ele>
        <time>2016-12-16T14:10:39Z</time>
      </trkpt>
      <trkpt lat="45.23249" lon="5.59523">
        <ele>1609.4000244141</ele>
        <time>2016-12-16T14:10:40Z</time>
      </trkpt>
      <trkpt lat="45.23247" lon="5.59523">
        <ele>1609.8000488281</ele>
        <time>2016-12-16T14:10:41Z</time>
      </trkpt>
      <trkpt lat="45.23245" lon="5.59523">
        <ele>1610.1999511719</ele>
        <time>2016-12-16T14:10:42Z</time>
      </trkpt>
      <trkpt lat="45.23236" lon="5.59524">
        <ele>1610.1999511719</ele>
        <time>2016-12-16T14:10:44Z</time>
      </trkpt>
      <trkpt lat="45.23231" lon="5.59527">
        <ele>1609.8000488281</ele>
        <time>2016-12-16T14:10:45Z</time>
      </trkpt>
      <trkpt lat="45.23228" lon="5.59531">
        <ele>1609.4000244141</ele>
        <time>2016-12-16T14:10:46Z</time>
      </trkpt>
      <trkpt lat="45.23225" lon="5.59537">
        <ele>1609</ele>
        <time>2016-12-16T14:10:47Z</time>
      </trkpt>
      <trkpt lat="45.2322" lon="5.59545">
        <ele>1608.4000244141</ele>
        <time>2016-12-16T14:10:48Z</time>
      </trkpt>
      <trkpt lat="45.23215" lon="5.59549">
        <ele>1607.8000488281</ele>
        <time>2016-12-16T14:10:49Z</time>
      </trkpt>
      <trkpt lat="45.23211" lon="5.59551">
        <ele>1607.1999511719</ele>
        <time>2016-12-16T14:10:50Z</time>
      </trkpt>
      <trkpt lat="45.23206" lon="5.59552">
        <ele>1606.8000488281</ele>
        <time>2016-12-16T14:10:51Z</time>
      </trkpt>
      <trkpt lat="45.23202" lon="5.59552">
        <ele>1606.1999511719</ele>
        <time>2016-12-16T14:10:52Z</time>
      </trkpt>
      <trkpt lat="45.23199" lon="5.5955">
        <ele>1605.5999755859</ele>
        <time>2016-12-16T14:10:53Z</time>
      </trkpt>
      <trkpt lat="45.23199" lon="5.59547">
        <ele>1605</ele>
        <time>2016-12-16T14:10:54Z</time>
      </trkpt>
      <trkpt lat="45.23198" lon="5.59545">
        <ele>1604.5999755859</ele>
        <time>2016-12-16T14:10:55Z</time>
      </trkpt>
      <trkpt lat="45.23197" lon="5.59544">
        <ele>1604</ele>
        <time>2016-12-16T14:10:56Z</time>
      </trkpt>
      <trkpt lat="45.2319" lon="5.5954">
        <ele>1604</ele>
        <time>2016-12-16T14:11:00Z</time>
      </trkpt>
      <trkpt lat="45.23186" lon="5.59539">
        <ele>1604</ele>
        <time>2016-12-16T14:11:02Z</time>
      </trkpt>
      <trkpt lat="45.23179" lon="5.59536">
        <ele>1604</ele>
        <time>2016-12-16T14:11:05Z</time>
      </trkpt>
      <trkpt lat="45.23166" lon="5.59526">
        <ele>1604</ele>
        <time>2016-12-16T14:11:11Z</time>
      </trkpt>
      <trkpt lat="45.23156" lon="5.59509">
        <ele>1604</ele>
        <time>2016-12-16T14:11:16Z</time>
      </trkpt>
      <trkpt lat="45.23146" lon="5.59487">
        <ele>1604</ele>
        <time>2016-12-16T14:11:22Z</time>
      </trkpt>
      <trkpt lat="45.23138" lon="5.59468">
        <ele>1604</ele>
        <time>2016-12-16T14:11:28Z</time>
      </trkpt>
      <trkpt lat="45.23126" lon="5.59445">
        <ele>1604</ele>
        <time>2016-12-16T14:11:34Z</time>
      </trkpt>
      <trkpt lat="45.23117" lon="5.59434">
        <ele>1603.4000244141</ele>
        <time>2016-12-16T14:11:37Z</time>
      </trkpt>
      <trkpt lat="45.23114" lon="5.5943">
        <ele>1603</ele>
        <time>2016-12-16T14:11:38Z</time>
      </trkpt>
      <trkpt lat="45.2311" lon="5.59427">
        <ele>1602.5999755859</ele>
        <time>2016-12-16T14:11:39Z</time>
      </trkpt>
      <trkpt lat="45.23106" lon="5.59424">
        <ele>1602</ele>
        <time>2016-12-16T14:11:40Z</time>
      </trkpt>
      <trkpt lat="45.23102" lon="5.59422">
        <ele>1601.5999755859</ele>
        <time>2016-12-16T14:11:41Z</time>
      </trkpt>
      <trkpt lat="45.2309" lon="5.59415">
        <ele>1601.5999755859</ele>
        <time>2016-12-16T14:11:44Z</time>
      </trkpt>
      <trkpt lat="45.23085" lon="5.59412">
        <ele>1601.5999755859</ele>
        <time>2016-12-16T14:11:45Z</time>
      </trkpt>
      <trkpt lat="45.23071" lon="5.59407">
        <ele>1601.5999755859</ele>
        <time>2016-12-16T14:11:49Z</time>
      </trkpt>
      <trkpt lat="45.23057" lon="5.59407">
        <ele>1601.5999755859</ele>
        <time>2016-12-16T14:11:54Z</time>
      </trkpt>
      <trkpt lat="45.23044" lon="5.59405">
        <ele>1601.5999755859</ele>
        <time>2016-12-16T14:11:59Z</time>
      </trkpt>
      <trkpt lat="45.23037" lon="5.59393">
        <ele>1602</ele>
        <time>2016-12-16T14:12:04Z</time>
      </trkpt>
      <trkpt lat="45.23035" lon="5.59391">
        <ele>1602.4000244141</ele>
        <time>2016-12-16T14:12:05Z</time>
      </trkpt>
      <trkpt lat="45.23033" lon="5.5939">
        <ele>1602.8000488281</ele>
        <time>2016-12-16T14:12:06Z</time>
      </trkpt>
      <trkpt lat="45.2303" lon="5.59388">
        <ele>1603.1999511719</ele>
        <time>2016-12-16T14:12:07Z</time>
      </trkpt>
      <trkpt lat="45.23029" lon="5.59387">
        <ele>1603.5999755859</ele>
        <time>2016-12-16T14:12:08Z</time>
      </trkpt>
      <trkpt lat="45.23027" lon="5.59387">
        <ele>1603.5999755859</ele>
        <time>2016-12-16T14:12:09Z</time>
      </trkpt>
      <trkpt lat="45.23016" lon="5.59385">
        <ele>1603.5999755859</ele>
        <time>2016-12-16T14:12:14Z</time>
      </trkpt>
      <trkpt lat="45.23008" lon="5.5938">
        <ele>1603.5999755859</ele>
        <time>2016-12-16T14:12:17Z</time>
      </trkpt>
      <trkpt lat="45.23005" lon="5.59374">
        <ele>1603.5999755859</ele>
        <time>2016-12-16T14:12:19Z</time>
      </trkpt>
      <trkpt lat="45.22999" lon="5.59363">
        <ele>1603.5999755859</ele>
        <time>2016-12-16T14:12:24Z</time>
      </trkpt>
      <trkpt lat="45.2299" lon="5.59361">
        <ele>1603.5999755859</ele>
        <time>2016-12-16T14:12:28Z</time>
      </trkpt>
      <trkpt lat="45.22979" lon="5.59365">
        <ele>1604</ele>
        <time>2016-12-16T14:12:33Z</time>
      </trkpt>
      <trkpt lat="45.22977" lon="5.59366">
        <ele>1604.5999755859</ele>
        <time>2016-12-16T14:12:34Z</time>
      </trkpt>
      <trkpt lat="45.22975" lon="5.59366">
        <ele>1605</ele>
        <time>2016-12-16T14:12:35Z</time>
      </trkpt>
      <trkpt lat="45.22974" lon="5.59365">
        <ele>1606</ele>
        <time>2016-12-16T14:12:36Z</time>
      </trkpt>
      <trkpt lat="45.22967" lon="5.59362">
        <ele>1606</ele>
        <time>2016-12-16T14:12:39Z</time>
      </trkpt>
      <trkpt lat="45.22953" lon="5.59353">
        <ele>1606</ele>
        <time>2016-12-16T14:12:46Z</time>
      </trkpt>
      <trkpt lat="45.22941" lon="5.59358">
        <ele>1606</ele>
        <time>2016-12-16T14:12:51Z</time>
      </trkpt>
      <trkpt lat="45.22939" lon="5.59359">
        <ele>1606.4000244141</ele>
        <time>2016-12-16T14:12:52Z</time>
      </trkpt>
      <trkpt lat="45.22938" lon="5.59359">
        <ele>1606.8000488281</ele>
        <time>2016-12-16T14:12:53Z</time>
      </trkpt>
      <trkpt lat="45.22936" lon="5.5936">
        <ele>1607.1999511719</ele>
        <time>2016-12-16T14:12:54Z</time>
      </trkpt>
      <trkpt lat="45.22934" lon="5.59361">
        <ele>1607.8000488281</ele>
        <time>2016-12-16T14:12:55Z</time>
      </trkpt>
      <trkpt lat="45.22932" lon="5.59362">
        <ele>1608.1999511719</ele>
        <time>2016-12-16T14:12:56Z</time>
      </trkpt>
      <trkpt lat="45.22929" lon="5.59364">
        <ele>1608.1999511719</ele>
        <time>2016-12-16T14:12:57Z</time>
      </trkpt>
      <trkpt lat="45.22914" lon="5.59373">
        <ele>1608.1999511719</ele>
        <time>2016-12-16T14:13:04Z</time>
      </trkpt>
      <trkpt lat="45.22899" lon="5.59382">
        <ele>1608.1999511719</ele>
        <time>2016-12-16T14:13:10Z</time>
      </trkpt>
      <trkpt lat="45.22881" lon="5.59387">
        <ele>1608.1999511719</ele>
        <time>2016-12-16T14:13:16Z</time>
      </trkpt>
      <trkpt lat="45.22865" lon="5.59387">
        <ele>1608.1999511719</ele>
        <time>2016-12-16T14:13:22Z</time>
      </trkpt>
      <trkpt lat="45.2286" lon="5.5939">
        <ele>1608.1999511719</ele>
        <time>2016-12-16T14:13:26Z</time>
      </trkpt>
      <trkpt lat="45.22859" lon="5.59391">
        <ele>1608.1999511719</ele>
        <time>2016-12-16T14:13:30Z</time>
      </trkpt>
      <trkpt lat="45.22857" lon="5.59392">
        <ele>1608.1999511719</ele>
        <time>2016-12-16T14:13:32Z</time>
      </trkpt>
      <trkpt lat="45.22858" lon="5.59393">
        <ele>1608.1999511719</ele>
        <time>2016-12-16T14:13:35Z</time>
      </trkpt>
      <trkpt lat="45.22858" lon="5.59393">
        <ele>1608.1999511719</ele>
        <time>2016-12-16T14:14:22Z</time>
      </trkpt>
      <trkpt lat="45.22858" lon="5.59393">
        <ele>1608.1999511719</ele>
        <time>2016-12-16T14:14:55Z</time>
      </trkpt>
      <trkpt lat="45.22858" lon="5.59393">
        <ele>1608.1999511719</ele>
        <time>2016-12-16T14:15:39Z</time>
      </trkpt>
      <trkpt lat="45.22858" lon="5.59393">
        <ele>1608.1999511719</ele>
        <time>2016-12-16T14:15:46Z</time>
      </trkpt>
      <trkpt lat="45.22858" lon="5.59393">
        <ele>1608.1999511719</ele>
        <time>2016-12-16T14:16:19Z</time>
      </trkpt>
      <trkpt lat="45.22858" lon="5.59393">
        <ele>1608.1999511719</ele>
        <time>2016-12-16T14:17:08Z</time>
      </trkpt>
      <trkpt lat="45.22858" lon="5.59393">
        <ele>1608.1999511719</ele>
        <time>2016-12-16T14:17:26Z</time>
      </trkpt>
      <trkpt lat="45.22859" lon="5.59394">
        <ele>1608.1999511719</ele>
        <time>2016-12-16T14:17:43Z</time>
      </trkpt>
      <trkpt lat="45.22859" lon="5.59393">
        <ele>1608.1999511719</ele>
        <time>2016-12-16T14:18:19Z</time>
      </trkpt>
      <trkpt lat="45.22859" lon="5.59393">
        <ele>1608.1999511719</ele>
        <time>2016-12-16T14:18:36Z</time>
      </trkpt>
      <trkpt lat="45.22857" lon="5.59387">
        <ele>1608.1999511719</ele>
        <time>2016-12-16T14:18:41Z</time>
      </trkpt>
      <trkpt lat="45.22854" lon="5.59384">
        <ele>1608.1999511719</ele>
        <time>2016-12-16T14:18:44Z</time>
      </trkpt>
      <trkpt lat="45.22849" lon="5.59382">
        <ele>1608.1999511719</ele>
        <time>2016-12-16T14:18:46Z</time>
      </trkpt>
      <trkpt lat="45.22841" lon="5.59378">
        <ele>1607.8000488281</ele>
        <time>2016-12-16T14:18:49Z</time>
      </trkpt>
      <trkpt lat="45.22839" lon="5.59376">
        <ele>1607.4000244141</ele>
        <time>2016-12-16T14:18:50Z</time>
      </trkpt>
      <trkpt lat="45.22836" lon="5.59374">
        <ele>1607</ele>
        <time>2016-12-16T14:18:51Z</time>
      </trkpt>
      <trkpt lat="45.22834" lon="5.59372">
        <ele>1606.5999755859</ele>
        <time>2016-12-16T14:18:52Z</time>
      </trkpt>
      <trkpt lat="45.22831" lon="5.59371">
        <ele>1606.1999511719</ele>
        <time>2016-12-16T14:18:53Z</time>
      </trkpt>
      <trkpt lat="45.22825" lon="5.5937">
        <ele>1606.1999511719</ele>
        <time>2016-12-16T14:18:55Z</time>
      </trkpt>
      <trkpt lat="45.22809" lon="5.59371">
        <ele>1606.1999511719</ele>
        <time>2016-12-16T14:18:59Z</time>
      </trkpt>
      <trkpt lat="45.22804" lon="5.59371">
        <ele>1606.1999511719</ele>
        <time>2016-12-16T14:19:00Z</time>
      </trkpt>
      <trkpt lat="45.22788" lon="5.59373">
        <ele>1606.1999511719</ele>
        <time>2016-12-16T14:19:05Z</time>
      </trkpt>
      <trkpt lat="45.22772" lon="5.59376">
        <ele>1606.1999511719</ele>
        <time>2016-12-16T14:19:09Z</time>
      </trkpt>
      <trkpt lat="45.22766" lon="5.59379">
        <ele>1605.5999755859</ele>
        <time>2016-12-16T14:19:10Z</time>
      </trkpt>
      <trkpt lat="45.22761" lon="5.59382">
        <ele>1604.8000488281</ele>
        <time>2016-12-16T14:19:11Z</time>
      </trkpt>
      <trkpt lat="45.22756" lon="5.59385">
        <ele>1604.4000244141</ele>
        <time>2016-12-16T14:19:12Z</time>
      </trkpt>
      <trkpt lat="45.22751" lon="5.59388">
        <ele>1603.8000488281</ele>
        <time>2016-12-16T14:19:13Z</time>
      </trkpt>
      <trkpt lat="45.22747" lon="5.59391">
        <ele>1603.8000488281</ele>
        <time>2016-12-16T14:19:14Z</time>
      </trkpt>
      <trkpt lat="45.22743" lon="5.59395">
        <ele>1603.8000488281</ele>
        <time>2016-12-16T14:19:15Z</time>
      </trkpt>
      <trkpt lat="45.22736" lon="5.59402">
        <ele>1603.8000488281</ele>
        <time>2016-12-16T14:19:17Z</time>
      </trkpt>
      <trkpt lat="45.22726" lon="5.59403">
        <ele>1603.8000488281</ele>
        <time>2016-12-16T14:19:19Z</time>
      </trkpt>
      <trkpt lat="45.22715" lon="5.594">
        <ele>1603.8000488281</ele>
        <time>2016-12-16T14:19:21Z</time>
      </trkpt>
      <trkpt lat="45.22705" lon="5.59392">
        <ele>1603.8000488281</ele>
        <time>2016-12-16T14:19:23Z</time>
      </trkpt>
      <trkpt lat="45.2269" lon="5.59383">
        <ele>1603.8000488281</ele>
        <time>2016-12-16T14:19:27Z</time>
      </trkpt>
      <trkpt lat="45.22672" lon="5.59384">
        <ele>1603.8000488281</ele>
        <time>2016-12-16T14:19:32Z</time>
      </trkpt>
      <trkpt lat="45.22654" lon="5.59396">
        <ele>1603.8000488281</ele>
        <time>2016-12-16T14:19:37Z</time>
      </trkpt>
      <trkpt lat="45.22646" lon="5.59395">
        <ele>1603.8000488281</ele>
        <time>2016-12-16T14:19:39Z</time>
      </trkpt>
      <trkpt lat="45.22638" lon="5.59393">
        <ele>1603.8000488281</ele>
        <time>2016-12-16T14:19:41Z</time>
      </trkpt>
      <trkpt lat="45.22625" lon="5.59394">
        <ele>1603.8000488281</ele>
        <time>2016-12-16T14:19:45Z</time>
      </trkpt>
      <trkpt lat="45.22598" lon="5.59391">
        <ele>1603.8000488281</ele>
        <time>2016-12-16T14:19:52Z</time>
      </trkpt>
      <trkpt lat="45.22579" lon="5.59388">
        <ele>1603.8000488281</ele>
        <time>2016-12-16T14:19:57Z</time>
      </trkpt>
      <trkpt lat="45.22575" lon="5.59389">
        <ele>1603.8000488281</ele>
        <time>2016-12-16T14:19:58Z</time>
      </trkpt>
      <trkpt lat="45.22552" lon="5.59396">
        <ele>1603.8000488281</ele>
        <time>2016-12-16T14:20:03Z</time>
      </trkpt>
      <trkpt lat="45.22539" lon="5.59396">
        <ele>1603.8000488281</ele>
        <time>2016-12-16T14:20:07Z</time>
      </trkpt>
      <trkpt lat="45.22523" lon="5.59392">
        <ele>1603.8000488281</ele>
        <time>2016-12-16T14:20:12Z</time>
      </trkpt>
      <trkpt lat="45.22504" lon="5.59387">
        <ele>1603.8000488281</ele>
        <time>2016-12-16T14:20:18Z</time>
      </trkpt>
      <trkpt lat="45.22485" lon="5.59385">
        <ele>1603.8000488281</ele>
        <time>2016-12-16T14:20:24Z</time>
      </trkpt>
      <trkpt lat="45.22483" lon="5.59384">
        <ele>1604.5999755859</ele>
        <time>2016-12-16T14:20:25Z</time>
      </trkpt>
      <trkpt lat="45.2248" lon="5.59384">
        <ele>1605</ele>
        <time>2016-12-16T14:20:26Z</time>
      </trkpt>
      <trkpt lat="45.22477" lon="5.59384">
        <ele>1605.4000244141</ele>
        <time>2016-12-16T14:20:27Z</time>
      </trkpt>
      <trkpt lat="45.22474" lon="5.59384">
        <ele>1605.8000488281</ele>
        <time>2016-12-16T14:20:28Z</time>
      </trkpt>
      <trkpt lat="45.22469" lon="5.59383">
        <ele>1605.8000488281</ele>
        <time>2016-12-16T14:20:30Z</time>
      </trkpt>
      <trkpt lat="45.22454" lon="5.59384">
        <ele>1605.8000488281</ele>
        <time>2016-12-16T14:20:35Z</time>
      </trkpt>
      <trkpt lat="45.22434" lon="5.5938">
        <ele>1605.8000488281</ele>
        <time>2016-12-16T14:20:41Z</time>
      </trkpt>
      <trkpt lat="45.22414" lon="5.59375">
        <ele>1605.8000488281</ele>
        <time>2016-12-16T14:20:47Z</time>
      </trkpt>
      <trkpt lat="45.22392" lon="5.59369">
        <ele>1605.8000488281</ele>
        <time>2016-12-16T14:20:54Z</time>
      </trkpt>
      <trkpt lat="45.22376" lon="5.59373">
        <ele>1605.8000488281</ele>
        <time>2016-12-16T14:20:59Z</time>
      </trkpt>
      <trkpt lat="45.22367" lon="5.59376">
        <ele>1606.1999511719</ele>
        <time>2016-12-16T14:21:02Z</time>
      </trkpt>
      <trkpt lat="45.22364" lon="5.59377">
        <ele>1606.5999755859</ele>
        <time>2016-12-16T14:21:03Z</time>
      </trkpt>
      <trkpt lat="45.22361" lon="5.59378">
        <ele>1607</ele>
        <time>2016-12-16T14:21:04Z</time>
      </trkpt>
      <trkpt lat="45.22358" lon="5.59379">
        <ele>1607.4000244141</ele>
        <time>2016-12-16T14:21:05Z</time>
      </trkpt>
      <trkpt lat="45.22355" lon="5.5938">
        <ele>1608</ele>
        <time>2016-12-16T14:21:06Z</time>
      </trkpt>
      <trkpt lat="45.22344" lon="5.59379">
        <ele>1608</ele>
        <time>2016-12-16T14:21:10Z</time>
      </trkpt>
      <trkpt lat="45.2233" lon="5.59371">
        <ele>1608</ele>
        <time>2016-12-16T14:21:16Z</time>
      </trkpt>
      <trkpt lat="45.22327" lon="5.5937">
        <ele>1608.4000244141</ele>
        <time>2016-12-16T14:21:17Z</time>
      </trkpt>
      <trkpt lat="45.22325" lon="5.59369">
        <ele>1608.8000488281</ele>
        <time>2016-12-16T14:21:18Z</time>
      </trkpt>
      <trkpt lat="45.22323" lon="5.59369">
        <ele>1609.1999511719</ele>
        <time>2016-12-16T14:21:19Z</time>
      </trkpt>
      <trkpt lat="45.2232" lon="5.59368">
        <ele>1609.5999755859</ele>
        <time>2016-12-16T14:21:20Z</time>
      </trkpt>
      <trkpt lat="45.22318" lon="5.59367">
        <ele>1610</ele>
        <time>2016-12-16T14:21:21Z</time>
      </trkpt>
      <trkpt lat="45.22311" lon="5.59363">
        <ele>1610</ele>
        <time>2016-12-16T14:21:24Z</time>
      </trkpt>
      <trkpt lat="45.223" lon="5.5936">
        <ele>1610</ele>
        <time>2016-12-16T14:21:29Z</time>
      </trkpt>
      <trkpt lat="45.22289" lon="5.5935">
        <ele>1610</ele>
        <time>2016-12-16T14:21:35Z</time>
      </trkpt>
      <trkpt lat="45.22286" lon="5.59348">
        <ele>1610.5999755859</ele>
        <time>2016-12-16T14:21:37Z</time>
      </trkpt>
      <trkpt lat="45.22285" lon="5.59346">
        <ele>1611</ele>
        <time>2016-12-16T14:21:38Z</time>
      </trkpt>
      <trkpt lat="45.22282" lon="5.59345">
        <ele>1611.8000488281</ele>
        <time>2016-12-16T14:21:39Z</time>
      </trkpt>
      <trkpt lat="45.2228" lon="5.59343">
        <ele>1612.1999511719</ele>
        <time>2016-12-16T14:21:40Z</time>
      </trkpt>
      <trkpt lat="45.22278" lon="5.59341">
        <ele>1612.1999511719</ele>
        <time>2016-12-16T14:21:41Z</time>
      </trkpt>
      <trkpt lat="45.22266" lon="5.59326">
        <ele>1612.1999511719</ele>
        <time>2016-12-16T14:21:47Z</time>
      </trkpt>
      <trkpt lat="45.22258" lon="5.59317">
        <ele>1612.1999511719</ele>
        <time>2016-12-16T14:21:49Z</time>
      </trkpt>
      <trkpt lat="45.22252" lon="5.59307">
        <ele>1611.5999755859</ele>
        <time>2016-12-16T14:21:51Z</time>
      </trkpt>
      <trkpt lat="45.22248" lon="5.59301">
        <ele>1611.1999511719</ele>
        <time>2016-12-16T14:21:52Z</time>
      </trkpt>
      <trkpt lat="45.22244" lon="5.59295">
        <ele>1610.8000488281</ele>
        <time>2016-12-16T14:21:53Z</time>
      </trkpt>
      <trkpt lat="45.2224" lon="5.59289">
        <ele>1610.4000244141</ele>
        <time>2016-12-16T14:21:54Z</time>
      </trkpt>
      <trkpt lat="45.22236" lon="5.59284">
        <ele>1609.8000488281</ele>
        <time>2016-12-16T14:21:55Z</time>
      </trkpt>
      <trkpt lat="45.22233" lon="5.59279">
        <ele>1609.4000244141</ele>
        <time>2016-12-16T14:21:56Z</time>
      </trkpt>
      <trkpt lat="45.22229" lon="5.59274">
        <ele>1608.8000488281</ele>
        <time>2016-12-16T14:21:57Z</time>
      </trkpt>
      <trkpt lat="45.22224" lon="5.59269">
        <ele>1608.4000244141</ele>
        <time>2016-12-16T14:21:58Z</time>
      </trkpt>
      <trkpt lat="45.2222" lon="5.59263">
        <ele>1607.5999755859</ele>
        <time>2016-12-16T14:21:59Z</time>
      </trkpt>
      <trkpt lat="45.22214" lon="5.59257">
        <ele>1607</ele>
        <time>2016-12-16T14:22:00Z</time>
      </trkpt>
      <trkpt lat="45.22209" lon="5.5925">
        <ele>1606.4000244141</ele>
        <time>2016-12-16T14:22:01Z</time>
      </trkpt>
      <trkpt lat="45.22203" lon="5.59243">
        <ele>1605.4000244141</ele>
        <time>2016-12-16T14:22:02Z</time>
      </trkpt>
      <trkpt lat="45.22198" lon="5.59238">
        <ele>1604.5999755859</ele>
        <time>2016-12-16T14:22:03Z</time>
      </trkpt>
      <trkpt lat="45.22192" lon="5.59234">
        <ele>1602.4000244141</ele>
        <time>2016-12-16T14:22:04Z</time>
      </trkpt>
      <trkpt lat="45.22187" lon="5.59231">
        <ele>1601.1999511719</ele>
        <time>2016-12-16T14:22:05Z</time>
      </trkpt>
      <trkpt lat="45.2218" lon="5.5923">
        <ele>1600.4000244141</ele>
        <time>2016-12-16T14:22:06Z</time>
      </trkpt>
      <trkpt lat="45.22174" lon="5.59231">
        <ele>1599.4000244141</ele>
        <time>2016-12-16T14:22:07Z</time>
      </trkpt>
      <trkpt lat="45.22168" lon="5.59233">
        <ele>1598.5999755859</ele>
        <time>2016-12-16T14:22:08Z</time>
      </trkpt>
      <trkpt lat="45.22161" lon="5.59235">
        <ele>1597.5999755859</ele>
        <time>2016-12-16T14:22:09Z</time>
      </trkpt>
      <trkpt lat="45.22154" lon="5.59238">
        <ele>1596.8000488281</ele>
        <time>2016-12-16T14:22:10Z</time>
      </trkpt>
      <trkpt lat="45.22127" lon="5.59246">
        <ele>1596.4000244141</ele>
        <time>2016-12-16T14:22:14Z</time>
      </trkpt>
      <trkpt lat="45.22121" lon="5.59247">
        <ele>1596</ele>
        <time>2016-12-16T14:22:15Z</time>
      </trkpt>
      <trkpt lat="45.22114" lon="5.59247">
        <ele>1595.5999755859</ele>
        <time>2016-12-16T14:22:16Z</time>
      </trkpt>
      <trkpt lat="45.22107" lon="5.59247">
        <ele>1595.1999511719</ele>
        <time>2016-12-16T14:22:17Z</time>
      </trkpt>
      <trkpt lat="45.221" lon="5.59247">
        <ele>1594.8000488281</ele>
        <time>2016-12-16T14:22:18Z</time>
      </trkpt>
      <trkpt lat="45.22094" lon="5.59247">
        <ele>1594.8000488281</ele>
        <time>2016-12-16T14:22:19Z</time>
      </trkpt>
      <trkpt lat="45.22087" lon="5.59246">
        <ele>1594.8000488281</ele>
        <time>2016-12-16T14:22:20Z</time>
      </trkpt>
      <trkpt lat="45.2207" lon="5.59239">
        <ele>1594.8000488281</ele>
        <time>2016-12-16T14:22:23Z</time>
      </trkpt>
      <trkpt lat="45.22065" lon="5.59238">
        <ele>1594.8000488281</ele>
        <time>2016-12-16T14:22:24Z</time>
      </trkpt>
      <trkpt lat="45.22054" lon="5.59238">
        <ele>1594.8000488281</ele>
        <time>2016-12-16T14:22:26Z</time>
      </trkpt>
      <trkpt lat="45.22049" lon="5.59239">
        <ele>1594.8000488281</ele>
        <time>2016-12-16T14:22:27Z</time>
      </trkpt>
      <trkpt lat="45.22019" lon="5.59251">
        <ele>1594.8000488281</ele>
        <time>2016-12-16T14:22:33Z</time>
      </trkpt>
      <trkpt lat="45.22013" lon="5.59253">
        <ele>1594.8000488281</ele>
        <time>2016-12-16T14:22:34Z</time>
      </trkpt>
      <trkpt lat="45.22007" lon="5.59254">
        <ele>1594.1999511719</ele>
        <time>2016-12-16T14:22:35Z</time>
      </trkpt>
      <trkpt lat="45.22001" lon="5.59256">
        <ele>1593.8000488281</ele>
        <time>2016-12-16T14:22:36Z</time>
      </trkpt>
      <trkpt lat="45.21994" lon="5.59257">
        <ele>1593.1999511719</ele>
        <time>2016-12-16T14:22:37Z</time>
      </trkpt>
      <trkpt lat="45.21987" lon="5.59258">
        <ele>1592.8000488281</ele>
        <time>2016-12-16T14:22:38Z</time>
      </trkpt>
      <trkpt lat="45.2198" lon="5.59259">
        <ele>1592.4000244141</ele>
        <time>2016-12-16T14:22:39Z</time>
      </trkpt>
      <trkpt lat="45.21968" lon="5.5926">
        <ele>1592.4000244141</ele>
        <time>2016-12-16T14:22:41Z</time>
      </trkpt>
      <trkpt lat="45.21958" lon="5.59257">
        <ele>1592.4000244141</ele>
        <time>2016-12-16T14:22:43Z</time>
      </trkpt>
      <trkpt lat="45.21941" lon="5.59253">
        <ele>1592.4000244141</ele>
        <time>2016-12-16T14:22:46Z</time>
      </trkpt>
      <trkpt lat="45.21935" lon="5.59254">
        <ele>1592.4000244141</ele>
        <time>2016-12-16T14:22:47Z</time>
      </trkpt>
      <trkpt lat="45.21919" lon="5.59263">
        <ele>1591.8000488281</ele>
        <time>2016-12-16T14:22:50Z</time>
      </trkpt>
      <trkpt lat="45.21913" lon="5.59265">
        <ele>1591.4000244141</ele>
        <time>2016-12-16T14:22:51Z</time>
      </trkpt>
      <trkpt lat="45.21906" lon="5.59266">
        <ele>1591</ele>
        <time>2016-12-16T14:22:52Z</time>
      </trkpt>
      <trkpt lat="45.219" lon="5.59266">
        <ele>1590.1999511719</ele>
        <time>2016-12-16T14:22:53Z</time>
      </trkpt>
      <trkpt lat="45.21895" lon="5.59266">
        <ele>1590.1999511719</ele>
        <time>2016-12-16T14:22:54Z</time>
      </trkpt>
      <trkpt lat="45.21885" lon="5.59267">
        <ele>1590.1999511719</ele>
        <time>2016-12-16T14:22:57Z</time>
      </trkpt>
      <trkpt lat="45.21868" lon="5.59269">
        <ele>1590.1999511719</ele>
        <time>2016-12-16T14:23:01Z</time>
      </trkpt>
      <trkpt lat="45.21863" lon="5.59268">
        <ele>1590.1999511719</ele>
        <time>2016-12-16T14:23:02Z</time>
      </trkpt>
      <trkpt lat="45.21847" lon="5.59267">
        <ele>1590.1999511719</ele>
        <time>2016-12-16T14:23:06Z</time>
      </trkpt>
      <trkpt lat="45.21829" lon="5.59266">
        <ele>1590.1999511719</ele>
        <time>2016-12-16T14:23:11Z</time>
      </trkpt>
      <trkpt lat="45.21816" lon="5.59275">
        <ele>1590.1999511719</ele>
        <time>2016-12-16T14:23:15Z</time>
      </trkpt>
      <trkpt lat="45.2181" lon="5.59284">
        <ele>1590.1999511719</ele>
        <time>2016-12-16T14:23:17Z</time>
      </trkpt>
      <trkpt lat="45.21801" lon="5.593">
        <ele>1590.1999511719</ele>
        <time>2016-12-16T14:23:20Z</time>
      </trkpt>
      <trkpt lat="45.21799" lon="5.59305">
        <ele>1589.8000488281</ele>
        <time>2016-12-16T14:23:21Z</time>
      </trkpt>
      <trkpt lat="45.21797" lon="5.59311">
        <ele>1589.4000244141</ele>
        <time>2016-12-16T14:23:22Z</time>
      </trkpt>
      <trkpt lat="45.21795" lon="5.59318">
        <ele>1588.5999755859</ele>
        <time>2016-12-16T14:23:23Z</time>
      </trkpt>
      <trkpt lat="45.21793" lon="5.59325">
        <ele>1587.8000488281</ele>
        <time>2016-12-16T14:23:24Z</time>
      </trkpt>
      <trkpt lat="45.2179" lon="5.59332">
        <ele>1587.1999511719</ele>
        <time>2016-12-16T14:23:25Z</time>
      </trkpt>
      <trkpt lat="45.21786" lon="5.59339">
        <ele>1586.1999511719</ele>
        <time>2016-12-16T14:23:26Z</time>
      </trkpt>
      <trkpt lat="45.21782" lon="5.59345">
        <ele>1585.4000244141</ele>
        <time>2016-12-16T14:23:27Z</time>
      </trkpt>
      <trkpt lat="45.21778" lon="5.59352">
        <ele>1584.4000244141</ele>
        <time>2016-12-16T14:23:28Z</time>
      </trkpt>
      <trkpt lat="45.21774" lon="5.59359">
        <ele>1583.5999755859</ele>
        <time>2016-12-16T14:23:29Z</time>
      </trkpt>
      <trkpt lat="45.21768" lon="5.5937">
        <ele>1582.5999755859</ele>
        <time>2016-12-16T14:23:30Z</time>
      </trkpt>
      <trkpt lat="45.21761" lon="5.59381">
        <ele>1581.5999755859</ele>
        <time>2016-12-16T14:23:31Z</time>
      </trkpt>
      <trkpt lat="45.21755" lon="5.59391">
        <ele>1580.8000488281</ele>
        <time>2016-12-16T14:23:32Z</time>
      </trkpt>
      <trkpt lat="45.21748" lon="5.59398">
        <ele>1579.5999755859</ele>
        <time>2016-12-16T14:23:33Z</time>
      </trkpt>
      <trkpt lat="45.2174" lon="5.59401">
        <ele>1578.5999755859</ele>
        <time>2016-12-16T14:23:34Z</time>
      </trkpt>
      <trkpt lat="45.21732" lon="5.59402">
        <ele>1577.4000244141</ele>
        <time>2016-12-16T14:23:35Z</time>
      </trkpt>
      <trkpt lat="45.21725" lon="5.59402">
        <ele>1576.4000244141</ele>
        <time>2016-12-16T14:23:36Z</time>
      </trkpt>
      <trkpt lat="45.21718" lon="5.59402">
        <ele>1575.1999511719</ele>
        <time>2016-12-16T14:23:37Z</time>
      </trkpt>
      <trkpt lat="45.21711" lon="5.59403">
        <ele>1575.1999511719</ele>
        <time>2016-12-16T14:23:38Z</time>
      </trkpt>
      <trkpt lat="45.21693" lon="5.59405">
        <ele>1575.1999511719</ele>
        <time>2016-12-16T14:23:42Z</time>
      </trkpt>
      <trkpt lat="45.21684" lon="5.59407">
        <ele>1575.5999755859</ele>
        <time>2016-12-16T14:23:47Z</time>
      </trkpt>
      <trkpt lat="45.21683" lon="5.59407">
        <ele>1576</ele>
        <time>2016-12-16T14:23:48Z</time>
      </trkpt>
      <trkpt lat="45.21681" lon="5.59406">
        <ele>1576.4000244141</ele>
        <time>2016-12-16T14:23:49Z</time>
      </trkpt>
      <trkpt lat="45.2168" lon="5.59406">
        <ele>1577</ele>
        <time>2016-12-16T14:23:50Z</time>
      </trkpt>
      <trkpt lat="45.21678" lon="5.59405">
        <ele>1577.4000244141</ele>
        <time>2016-12-16T14:23:51Z</time>
      </trkpt>
      <trkpt lat="45.21677" lon="5.59403">
        <ele>1577.8000488281</ele>
        <time>2016-12-16T14:23:52Z</time>
      </trkpt>
      <trkpt lat="45.21676" lon="5.59402">
        <ele>1578.1999511719</ele>
        <time>2016-12-16T14:23:53Z</time>
      </trkpt>
      <trkpt lat="45.21675" lon="5.59401">
        <ele>1578.5999755859</ele>
        <time>2016-12-16T14:23:54Z</time>
      </trkpt>
      <trkpt lat="45.21674" lon="5.594">
        <ele>1579</ele>
        <time>2016-12-16T14:23:55Z</time>
      </trkpt>
      <trkpt lat="45.21673" lon="5.59399">
        <ele>1579.4000244141</ele>
        <time>2016-12-16T14:23:56Z</time>
      </trkpt>
      <trkpt lat="45.21672" lon="5.59398">
        <ele>1579.8000488281</ele>
        <time>2016-12-16T14:23:57Z</time>
      </trkpt>
      <trkpt lat="45.2167" lon="5.59396">
        <ele>1580.4000244141</ele>
        <time>2016-12-16T14:23:58Z</time>
      </trkpt>
      <trkpt lat="45.21669" lon="5.59395">
        <ele>1580.8000488281</ele>
        <time>2016-12-16T14:23:59Z</time>
      </trkpt>
      <trkpt lat="45.21668" lon="5.59394">
        <ele>1581.1999511719</ele>
        <time>2016-12-16T14:24:00Z</time>
      </trkpt>
      <trkpt lat="45.21667" lon="5.59393">
        <ele>1581.8000488281</ele>
        <time>2016-12-16T14:24:01Z</time>
      </trkpt>
      <trkpt lat="45.21665" lon="5.59389">
        <ele>1581.8000488281</ele>
        <time>2016-12-16T14:24:03Z</time>
      </trkpt>
      <trkpt lat="45.21664" lon="5.59386">
        <ele>1582.1999511719</ele>
        <time>2016-12-16T14:24:05Z</time>
      </trkpt>
      <trkpt lat="45.21663" lon="5.59385">
        <ele>1582.5999755859</ele>
        <time>2016-12-16T14:24:06Z</time>
      </trkpt>
      <trkpt lat="45.21662" lon="5.59384">
        <ele>1583.1999511719</ele>
        <time>2016-12-16T14:24:07Z</time>
      </trkpt>
      <trkpt lat="45.21662" lon="5.59383">
        <ele>1584</ele>
        <time>2016-12-16T14:24:08Z</time>
      </trkpt>
      <trkpt lat="45.21663" lon="5.59377">
        <ele>1584</ele>
        <time>2016-12-16T14:24:11Z</time>
      </trkpt>
      <trkpt lat="45.21663" lon="5.59367">
        <ele>1584</ele>
        <time>2016-12-16T14:24:15Z</time>
      </trkpt>
      <trkpt lat="45.21662" lon="5.59356">
        <ele>1584.4000244141</ele>
        <time>2016-12-16T14:24:20Z</time>
      </trkpt>
      <trkpt lat="45.21662" lon="5.59354">
        <ele>1584.8000488281</ele>
        <time>2016-12-16T14:24:21Z</time>
      </trkpt>
      <trkpt lat="45.21661" lon="5.59352">
        <ele>1585.1999511719</ele>
        <time>2016-12-16T14:24:22Z</time>
      </trkpt>
      <trkpt lat="45.21661" lon="5.5935">
        <ele>1585.5999755859</ele>
        <time>2016-12-16T14:24:23Z</time>
      </trkpt>
      <trkpt lat="45.21661" lon="5.59348">
        <ele>1586</ele>
        <time>2016-12-16T14:24:24Z</time>
      </trkpt>
      <trkpt lat="45.21661" lon="5.59344">
        <ele>1586</ele>
        <time>2016-12-16T14:24:26Z</time>
      </trkpt>
      <trkpt lat="45.21661" lon="5.59342">
        <ele>1586</ele>
        <time>2016-12-16T14:24:27Z</time>
      </trkpt>
      <trkpt lat="45.2166" lon="5.59336">
        <ele>1586.4000244141</ele>
        <time>2016-12-16T14:24:30Z</time>
      </trkpt>
      <trkpt lat="45.2166" lon="5.59334">
        <ele>1586.8000488281</ele>
        <time>2016-12-16T14:24:31Z</time>
      </trkpt>
      <trkpt lat="45.2166" lon="5.59331">
        <ele>1587.4000244141</ele>
        <time>2016-12-16T14:24:32Z</time>
      </trkpt>
      <trkpt lat="45.2166" lon="5.59329">
        <ele>1588.1999511719</ele>
        <time>2016-12-16T14:24:33Z</time>
      </trkpt>
      <trkpt lat="45.2166" lon="5.59326">
        <ele>1588.1999511719</ele>
        <time>2016-12-16T14:24:34Z</time>
      </trkpt>
      <trkpt lat="45.21661" lon="5.59323">
        <ele>1588.1999511719</ele>
        <time>2016-12-16T14:24:36Z</time>
      </trkpt>
      <trkpt lat="45.2166" lon="5.59312">
        <ele>1588.1999511719</ele>
        <time>2016-12-16T14:24:41Z</time>
      </trkpt>
      <trkpt lat="45.21658" lon="5.59301">
        <ele>1588.5999755859</ele>
        <time>2016-12-16T14:24:46Z</time>
      </trkpt>
      <trkpt lat="45.21658" lon="5.59299">
        <ele>1589</ele>
        <time>2016-12-16T14:24:47Z</time>
      </trkpt>
      <trkpt lat="45.21658" lon="5.59297">
        <ele>1589.4000244141</ele>
        <time>2016-12-16T14:24:48Z</time>
      </trkpt>
      <trkpt lat="45.21657" lon="5.59295">
        <ele>1589.8000488281</ele>
        <time>2016-12-16T14:24:49Z</time>
      </trkpt>
      <trkpt lat="45.21657" lon="5.59293">
        <ele>1590.1999511719</ele>
        <time>2016-12-16T14:24:50Z</time>
      </trkpt>
      <trkpt lat="45.21653" lon="5.59282">
        <ele>1590.1999511719</ele>
        <time>2016-12-16T14:24:55Z</time>
      </trkpt>
      <trkpt lat="45.21644" lon="5.59266">
        <ele>1590.1999511719</ele>
        <time>2016-12-16T14:25:04Z</time>
      </trkpt>
      <trkpt lat="45.21641" lon="5.59257">
        <ele>1590.5999755859</ele>
        <time>2016-12-16T14:25:08Z</time>
      </trkpt>
      <trkpt lat="45.2164" lon="5.59255">
        <ele>1591</ele>
        <time>2016-12-16T14:25:09Z</time>
      </trkpt>
      <trkpt lat="45.2164" lon="5.59253">
        <ele>1591.4000244141</ele>
        <time>2016-12-16T14:25:10Z</time>
      </trkpt>
      <trkpt lat="45.21639" lon="5.59251">
        <ele>1591.8000488281</ele>
        <time>2016-12-16T14:25:11Z</time>
      </trkpt>
      <trkpt lat="45.21638" lon="5.59249">
        <ele>1592.1999511719</ele>
        <time>2016-12-16T14:25:12Z</time>
      </trkpt>
      <trkpt lat="45.21631" lon="5.59234">
        <ele>1592.1999511719</ele>
        <time>2016-12-16T14:25:19Z</time>
      </trkpt>
      <trkpt lat="45.2162" lon="5.59218">
        <ele>1592.1999511719</ele>
        <time>2016-12-16T14:25:26Z</time>
      </trkpt>
      <trkpt lat="45.21612" lon="5.59209">
        <ele>1592.1999511719</ele>
        <time>2016-12-16T14:25:31Z</time>
      </trkpt>
      <trkpt lat="45.216" lon="5.59197">
        <ele>1592.1999511719</ele>
        <time>2016-12-16T14:25:37Z</time>
      </trkpt>
      <trkpt lat="45.21594" lon="5.59185">
        <ele>1592.1999511719</ele>
        <time>2016-12-16T14:25:41Z</time>
      </trkpt>
      <trkpt lat="45.21586" lon="5.59173">
        <ele>1592.1999511719</ele>
        <time>2016-12-16T14:25:46Z</time>
      </trkpt>
      <trkpt lat="45.21571" lon="5.59162">
        <ele>1592.1999511719</ele>
        <time>2016-12-16T14:25:52Z</time>
      </trkpt>
      <trkpt lat="45.21561" lon="5.59159">
        <ele>1592.1999511719</ele>
        <time>2016-12-16T14:25:57Z</time>
      </trkpt>
      <trkpt lat="45.21559" lon="5.5916">
        <ele>1592.5999755859</ele>
        <time>2016-12-16T14:25:58Z</time>
      </trkpt>
      <trkpt lat="45.21557" lon="5.5916">
        <ele>1593</ele>
        <time>2016-12-16T14:25:59Z</time>
      </trkpt>
      <trkpt lat="45.21555" lon="5.59161">
        <ele>1593.4000244141</ele>
        <time>2016-12-16T14:26:00Z</time>
      </trkpt>
      <trkpt lat="45.21552" lon="5.59161">
        <ele>1593.8000488281</ele>
        <time>2016-12-16T14:26:01Z</time>
      </trkpt>
      <trkpt lat="45.21551" lon="5.59161">
        <ele>1594.4000244141</ele>
        <time>2016-12-16T14:26:02Z</time>
      </trkpt>
      <trkpt lat="45.21549" lon="5.59162">
        <ele>1594.4000244141</ele>
        <time>2016-12-16T14:26:03Z</time>
      </trkpt>
      <trkpt lat="45.21537" lon="5.5916">
        <ele>1594.4000244141</ele>
        <time>2016-12-16T14:26:09Z</time>
      </trkpt>
      <trkpt lat="45.21533" lon="5.59159">
        <ele>1594.8000488281</ele>
        <time>2016-12-16T14:26:11Z</time>
      </trkpt>
      <trkpt lat="45.21532" lon="5.59158">
        <ele>1595.5999755859</ele>
        <time>2016-12-16T14:26:12Z</time>
      </trkpt>
      <trkpt lat="45.2153" lon="5.59157">
        <ele>1596</ele>
        <time>2016-12-16T14:26:13Z</time>
      </trkpt>
      <trkpt lat="45.21528" lon="5.59156">
        <ele>1596.4000244141</ele>
        <time>2016-12-16T14:26:14Z</time>
      </trkpt>
      <trkpt lat="45.21523" lon="5.59154">
        <ele>1596.4000244141</ele>
        <time>2016-12-16T14:26:17Z</time>
      </trkpt>
      <trkpt lat="45.2151" lon="5.59154">
        <ele>1596.4000244141</ele>
        <time>2016-12-16T14:26:24Z</time>
      </trkpt>
      <trkpt lat="45.21508" lon="5.59154">
        <ele>1596.8000488281</ele>
        <time>2016-12-16T14:26:25Z</time>
      </trkpt>
      <trkpt lat="45.21506" lon="5.59155">
        <ele>1597.1999511719</ele>
        <time>2016-12-16T14:26:26Z</time>
      </trkpt>
      <trkpt lat="45.21505" lon="5.59156">
        <ele>1597.5999755859</ele>
        <time>2016-12-16T14:26:27Z</time>
      </trkpt>
      <trkpt lat="45.21503" lon="5.59157">
        <ele>1598</ele>
        <time>2016-12-16T14:26:28Z</time>
      </trkpt>
      <trkpt lat="45.21502" lon="5.59159">
        <ele>1598.4000244141</ele>
        <time>2016-12-16T14:26:29Z</time>
      </trkpt>
      <trkpt lat="45.21499" lon="5.59163">
        <ele>1598.8000488281</ele>
        <time>2016-12-16T14:26:32Z</time>
      </trkpt>
      <trkpt lat="45.21497" lon="5.59164">
        <ele>1599.1999511719</ele>
        <time>2016-12-16T14:26:33Z</time>
      </trkpt>
      <trkpt lat="45.21496" lon="5.59165">
        <ele>1599.5999755859</ele>
        <time>2016-12-16T14:26:34Z</time>
      </trkpt>
      <trkpt lat="45.21495" lon="5.59165">
        <ele>1600</ele>
        <time>2016-12-16T14:26:35Z</time>
      </trkpt>
      <trkpt lat="45.21493" lon="5.59165">
        <ele>1600.4000244141</ele>
        <time>2016-12-16T14:26:36Z</time>
      </trkpt>
      <trkpt lat="45.21488" lon="5.59165">
        <ele>1600.8000488281</ele>
        <time>2016-12-16T14:26:39Z</time>
      </trkpt>
      <trkpt lat="45.21487" lon="5.59165">
        <ele>1601.1999511719</ele>
        <time>2016-12-16T14:26:40Z</time>
      </trkpt>
      <trkpt lat="45.21485" lon="5.59164">
        <ele>1601.8000488281</ele>
        <time>2016-12-16T14:26:41Z</time>
      </trkpt>
      <trkpt lat="45.21483" lon="5.59163">
        <ele>1602.1999511719</ele>
        <time>2016-12-16T14:26:42Z</time>
      </trkpt>
      <trkpt lat="45.21482" lon="5.59163">
        <ele>1602.5999755859</ele>
        <time>2016-12-16T14:26:43Z</time>
      </trkpt>
      <trkpt lat="45.21478" lon="5.59159">
        <ele>1603</ele>
        <time>2016-12-16T14:26:46Z</time>
      </trkpt>
      <trkpt lat="45.21477" lon="5.59158">
        <ele>1603.4000244141</ele>
        <time>2016-12-16T14:26:47Z</time>
      </trkpt>
      <trkpt lat="45.21475" lon="5.59157">
        <ele>1603.8000488281</ele>
        <time>2016-12-16T14:26:48Z</time>
      </trkpt>
      <trkpt lat="45.21474" lon="5.59156">
        <ele>1604.1999511719</ele>
        <time>2016-12-16T14:26:49Z</time>
      </trkpt>
      <trkpt lat="45.21473" lon="5.59154">
        <ele>1604.8000488281</ele>
        <time>2016-12-16T14:26:50Z</time>
      </trkpt>
      <trkpt lat="45.21468" lon="5.59149">
        <ele>1605.1999511719</ele>
        <time>2016-12-16T14:26:55Z</time>
      </trkpt>
      <trkpt lat="45.21467" lon="5.59148">
        <ele>1605.5999755859</ele>
        <time>2016-12-16T14:26:56Z</time>
      </trkpt>
      <trkpt lat="45.21466" lon="5.59146">
        <ele>1606</ele>
        <time>2016-12-16T14:26:57Z</time>
      </trkpt>
      <trkpt lat="45.21465" lon="5.59144">
        <ele>1606.4000244141</ele>
        <time>2016-12-16T14:26:58Z</time>
      </trkpt>
      <trkpt lat="45.21464" lon="5.59143">
        <ele>1606.8000488281</ele>
        <time>2016-12-16T14:26:59Z</time>
      </trkpt>
      <trkpt lat="45.21463" lon="5.59141">
        <ele>1606.8000488281</ele>
        <time>2016-12-16T14:27:00Z</time>
      </trkpt>
      <trkpt lat="45.21462" lon="5.59138">
        <ele>1606.8000488281</ele>
        <time>2016-12-16T14:27:02Z</time>
      </trkpt>
      <trkpt lat="45.21454" lon="5.59128">
        <ele>1606.8000488281</ele>
        <time>2016-12-16T14:27:09Z</time>
      </trkpt>
      <trkpt lat="45.21453" lon="5.59127">
        <ele>1606.8000488281</ele>
        <time>2016-12-16T14:27:10Z</time>
      </trkpt>
      <trkpt lat="45.21451" lon="5.59123">
        <ele>1607.1999511719</ele>
        <time>2016-12-16T14:27:13Z</time>
      </trkpt>
      <trkpt lat="45.2145" lon="5.59122">
        <ele>1607.8000488281</ele>
        <time>2016-12-16T14:27:14Z</time>
      </trkpt>
      <trkpt lat="45.21449" lon="5.5912">
        <ele>1608.1999511719</ele>
        <time>2016-12-16T14:27:15Z</time>
      </trkpt>
      <trkpt lat="45.21448" lon="5.59119">
        <ele>1608.5999755859</ele>
        <time>2016-12-16T14:27:16Z</time>
      </trkpt>
      <trkpt lat="45.21447" lon="5.59118">
        <ele>1609</ele>
        <time>2016-12-16T14:27:17Z</time>
      </trkpt>
      <trkpt lat="45.21444" lon="5.59113">
        <ele>1609</ele>
        <time>2016-12-16T14:27:21Z</time>
      </trkpt>
      <trkpt lat="45.21442" lon="5.59108">
        <ele>1609</ele>
        <time>2016-12-16T14:27:24Z</time>
      </trkpt>
      <trkpt lat="45.21439" lon="5.59102">
        <ele>1609.4000244141</ele>
        <time>2016-12-16T14:27:28Z</time>
      </trkpt>
      <trkpt lat="45.21439" lon="5.59099">
        <ele>1609.8000488281</ele>
        <time>2016-12-16T14:27:29Z</time>
      </trkpt>
      <trkpt lat="45.21439" lon="5.59097">
        <ele>1610.1999511719</ele>
        <time>2016-12-16T14:27:30Z</time>
      </trkpt>
      <trkpt lat="45.21439" lon="5.59095">
        <ele>1610.5999755859</ele>
        <time>2016-12-16T14:27:31Z</time>
      </trkpt>
      <trkpt lat="45.21438" lon="5.59094">
        <ele>1611</ele>
        <time>2016-12-16T14:27:32Z</time>
      </trkpt>
      <trkpt lat="45.21439" lon="5.59092">
        <ele>1611</ele>
        <time>2016-12-16T14:27:35Z</time>
      </trkpt>
      <trkpt lat="45.21439" lon="5.59092">
        <ele>1611</ele>
        <time>2016-12-16T14:28:24Z</time>
      </trkpt>
      <trkpt lat="45.21439" lon="5.59092">
        <ele>1611</ele>
        <time>2016-12-16T14:28:53Z</time>
      </trkpt>
      <trkpt lat="45.21437" lon="5.59091">
        <ele>1611</ele>
        <time>2016-12-16T14:29:00Z</time>
      </trkpt>
      <trkpt lat="45.21428" lon="5.59082">
        <ele>1611</ele>
        <time>2016-12-16T14:29:05Z</time>
      </trkpt>
      <trkpt lat="45.21425" lon="5.59081">
        <ele>1611.4000244141</ele>
        <time>2016-12-16T14:29:06Z</time>
      </trkpt>
      <trkpt lat="45.21422" lon="5.5908">
        <ele>1611.8000488281</ele>
        <time>2016-12-16T14:29:07Z</time>
      </trkpt>
      <trkpt lat="45.21419" lon="5.59079">
        <ele>1612.4000244141</ele>
        <time>2016-12-16T14:29:08Z</time>
      </trkpt>
      <trkpt lat="45.21415" lon="5.59077">
        <ele>1612.8000488281</ele>
        <time>2016-12-16T14:29:09Z</time>
      </trkpt>
      <trkpt lat="45.21412" lon="5.59076">
        <ele>1613.1999511719</ele>
        <time>2016-12-16T14:29:10Z</time>
      </trkpt>
      <trkpt lat="45.21406" lon="5.59072">
        <ele>1613.1999511719</ele>
        <time>2016-12-16T14:29:12Z</time>
      </trkpt>
      <trkpt lat="45.21402" lon="5.5907">
        <ele>1613.5999755859</ele>
        <time>2016-12-16T14:29:13Z</time>
      </trkpt>
      <trkpt lat="45.21399" lon="5.59067">
        <ele>1614.1999511719</ele>
        <time>2016-12-16T14:29:14Z</time>
      </trkpt>
      <trkpt lat="45.21396" lon="5.59064">
        <ele>1614.5999755859</ele>
        <time>2016-12-16T14:29:15Z</time>
      </trkpt>
      <trkpt lat="45.21393" lon="5.59062">
        <ele>1615</ele>
        <time>2016-12-16T14:29:16Z</time>
      </trkpt>
      <trkpt lat="45.2139" lon="5.59059">
        <ele>1615.5999755859</ele>
        <time>2016-12-16T14:29:17Z</time>
      </trkpt>
      <trkpt lat="45.21386" lon="5.59057">
        <ele>1616</ele>
        <time>2016-12-16T14:29:18Z</time>
      </trkpt>
      <trkpt lat="45.21383" lon="5.59055">
        <ele>1616.4000244141</ele>
        <time>2016-12-16T14:29:19Z</time>
      </trkpt>
      <trkpt lat="45.2138" lon="5.59052">
        <ele>1616.8000488281</ele>
        <time>2016-12-16T14:29:20Z</time>
      </trkpt>
      <trkpt lat="45.21377" lon="5.59049">
        <ele>1617.1999511719</ele>
        <time>2016-12-16T14:29:21Z</time>
      </trkpt>
      <trkpt lat="45.21374" lon="5.59047">
        <ele>1617.5999755859</ele>
        <time>2016-12-16T14:29:22Z</time>
      </trkpt>
      <trkpt lat="45.21372" lon="5.59044">
        <ele>1617.5999755859</ele>
        <time>2016-12-16T14:29:23Z</time>
      </trkpt>
      <trkpt lat="45.21369" lon="5.59041">
        <ele>1618</ele>
        <time>2016-12-16T14:29:24Z</time>
      </trkpt>
      <trkpt lat="45.21366" lon="5.59039">
        <ele>1618.4000244141</ele>
        <time>2016-12-16T14:29:25Z</time>
      </trkpt>
      <trkpt lat="45.21364" lon="5.59038">
        <ele>1618.8000488281</ele>
        <time>2016-12-16T14:29:26Z</time>
      </trkpt>
      <trkpt lat="45.21361" lon="5.59036">
        <ele>1619.1999511719</ele>
        <time>2016-12-16T14:29:27Z</time>
      </trkpt>
      <trkpt lat="45.21359" lon="5.59034">
        <ele>1619.5999755859</ele>
        <time>2016-12-16T14:29:28Z</time>
      </trkpt>
      <trkpt lat="45.21357" lon="5.59032">
        <ele>1619.5999755859</ele>
        <time>2016-12-16T14:29:29Z</time>
      </trkpt>
      <trkpt lat="45.21352" lon="5.59029">
        <ele>1620</ele>
        <time>2016-12-16T14:29:31Z</time>
      </trkpt>
      <trkpt lat="45.2135" lon="5.59027">
        <ele>1620.4000244141</ele>
        <time>2016-12-16T14:29:32Z</time>
      </trkpt>
      <trkpt lat="45.21348" lon="5.59025">
        <ele>1620.8000488281</ele>
        <time>2016-12-16T14:29:33Z</time>
      </trkpt>
      <trkpt lat="45.21346" lon="5.59023">
        <ele>1621.1999511719</ele>
        <time>2016-12-16T14:29:34Z</time>
      </trkpt>
      <trkpt lat="45.21345" lon="5.59022">
        <ele>1621.5999755859</ele>
        <time>2016-12-16T14:29:35Z</time>
      </trkpt>
      <trkpt lat="45.21338" lon="5.59013">
        <ele>1621.5999755859</ele>
        <time>2016-12-16T14:29:39Z</time>
      </trkpt>
      <trkpt lat="45.21325" lon="5.59001">
        <ele>1621.5999755859</ele>
        <time>2016-12-16T14:29:45Z</time>
      </trkpt>
      <trkpt lat="45.21323" lon="5.58999">
        <ele>1622</ele>
        <time>2016-12-16T14:29:46Z</time>
      </trkpt>
      <trkpt lat="45.21322" lon="5.58998">
        <ele>1622.5999755859</ele>
        <time>2016-12-16T14:29:47Z</time>
      </trkpt>
      <trkpt lat="45.21319" lon="5.58998">
        <ele>1623</ele>
        <time>2016-12-16T14:29:48Z</time>
      </trkpt>
      <trkpt lat="45.21317" lon="5.58998">
        <ele>1623.4000244141</ele>
        <time>2016-12-16T14:29:49Z</time>
      </trkpt>
      <trkpt lat="45.21315" lon="5.58998">
        <ele>1623.8000488281</ele>
        <time>2016-12-16T14:29:50Z</time>
      </trkpt>
      <trkpt lat="45.21305" lon="5.59001">
        <ele>1623.8000488281</ele>
        <time>2016-12-16T14:29:54Z</time>
      </trkpt>
      <trkpt lat="45.21293" lon="5.59005">
        <ele>1624.1999511719</ele>
        <time>2016-12-16T14:29:59Z</time>
      </trkpt>
      <trkpt lat="45.21291" lon="5.59007">
        <ele>1624.5999755859</ele>
        <time>2016-12-16T14:30:00Z</time>
      </trkpt>
      <trkpt lat="45.21289" lon="5.59009">
        <ele>1625.1999511719</ele>
        <time>2016-12-16T14:30:01Z</time>
      </trkpt>
      <trkpt lat="45.21287" lon="5.59011">
        <ele>1625.5999755859</ele>
        <time>2016-12-16T14:30:02Z</time>
      </trkpt>
      <trkpt lat="45.21285" lon="5.59012">
        <ele>1626</ele>
        <time>2016-12-16T14:30:03Z</time>
      </trkpt>
      <trkpt lat="45.21278" lon="5.59015">
        <ele>1626</ele>
        <time>2016-12-16T14:30:06Z</time>
      </trkpt>
      <trkpt lat="45.21262" lon="5.59021">
        <ele>1626.4000244141</ele>
        <time>2016-12-16T14:30:12Z</time>
      </trkpt>
      <trkpt lat="45.2126" lon="5.59021">
        <ele>1626.8000488281</ele>
        <time>2016-12-16T14:30:13Z</time>
      </trkpt>
      <trkpt lat="45.21257" lon="5.59022">
        <ele>1627.1999511719</ele>
        <time>2016-12-16T14:30:14Z</time>
      </trkpt>
      <trkpt lat="45.21254" lon="5.59023">
        <ele>1627.5999755859</ele>
        <time>2016-12-16T14:30:15Z</time>
      </trkpt>
      <trkpt lat="45.21251" lon="5.59023">
        <ele>1628</ele>
        <time>2016-12-16T14:30:16Z</time>
      </trkpt>
      <trkpt lat="45.21243" lon="5.59026">
        <ele>1628</ele>
        <time>2016-12-16T14:30:19Z</time>
      </trkpt>
      <trkpt lat="45.21225" lon="5.59034">
        <ele>1628</ele>
        <time>2016-12-16T14:30:25Z</time>
      </trkpt>
      <trkpt lat="45.21212" lon="5.59034">
        <ele>1628</ele>
        <time>2016-12-16T14:30:31Z</time>
      </trkpt>
      <trkpt lat="45.21201" lon="5.5903">
        <ele>1628</ele>
        <time>2016-12-16T14:30:36Z</time>
      </trkpt>
      <trkpt lat="45.21189" lon="5.59029">
        <ele>1628</ele>
        <time>2016-12-16T14:30:41Z</time>
      </trkpt>
      <trkpt lat="45.21187" lon="5.5903">
        <ele>1628</ele>
        <time>2016-12-16T14:30:42Z</time>
      </trkpt>
      <trkpt lat="45.21171" lon="5.59027">
        <ele>1628</ele>
        <time>2016-12-16T14:30:48Z</time>
      </trkpt>
      <trkpt lat="45.21155" lon="5.5902">
        <ele>1628</ele>
        <time>2016-12-16T14:30:55Z</time>
      </trkpt>
      <trkpt lat="45.21136" lon="5.59009">
        <ele>1628</ele>
        <time>2016-12-16T14:31:01Z</time>
      </trkpt>
      <trkpt lat="45.21128" lon="5.59">
        <ele>1627.5999755859</ele>
        <time>2016-12-16T14:31:03Z</time>
      </trkpt>
      <trkpt lat="45.21124" lon="5.58994">
        <ele>1627</ele>
        <time>2016-12-16T14:31:04Z</time>
      </trkpt>
      <trkpt lat="45.21121" lon="5.58987">
        <ele>1626.5999755859</ele>
        <time>2016-12-16T14:31:05Z</time>
      </trkpt>
      <trkpt lat="45.21118" lon="5.58979">
        <ele>1626</ele>
        <time>2016-12-16T14:31:06Z</time>
      </trkpt>
      <trkpt lat="45.21116" lon="5.5897">
        <ele>1625.5999755859</ele>
        <time>2016-12-16T14:31:07Z</time>
      </trkpt>
      <trkpt lat="45.21115" lon="5.58961">
        <ele>1625</ele>
        <time>2016-12-16T14:31:08Z</time>
      </trkpt>
      <trkpt lat="45.21114" lon="5.58954">
        <ele>1623.8000488281</ele>
        <time>2016-12-16T14:31:09Z</time>
      </trkpt>
      <trkpt lat="45.21111" lon="5.5895">
        <ele>1623.4000244141</ele>
        <time>2016-12-16T14:31:10Z</time>
      </trkpt>
      <trkpt lat="45.21107" lon="5.58949">
        <ele>1623.4000244141</ele>
        <time>2016-12-16T14:31:11Z</time>
      </trkpt>
      <trkpt lat="45.21104" lon="5.58949">
        <ele>1622.8000488281</ele>
        <time>2016-12-16T14:31:12Z</time>
      </trkpt>
      <trkpt lat="45.21101" lon="5.58952">
        <ele>1622.4000244141</ele>
        <time>2016-12-16T14:31:13Z</time>
      </trkpt>
      <trkpt lat="45.21097" lon="5.58956">
        <ele>1621.4000244141</ele>
        <time>2016-12-16T14:31:14Z</time>
      </trkpt>
      <trkpt lat="45.21093" lon="5.58962">
        <ele>1620.5999755859</ele>
        <time>2016-12-16T14:31:15Z</time>
      </trkpt>
      <trkpt lat="45.21088" lon="5.58972">
        <ele>1619.5999755859</ele>
        <time>2016-12-16T14:31:16Z</time>
      </trkpt>
      <trkpt lat="45.21083" lon="5.58983">
        <ele>1618.4000244141</ele>
        <time>2016-12-16T14:31:17Z</time>
      </trkpt>
      <trkpt lat="45.21078" lon="5.58996">
        <ele>1617.4000244141</ele>
        <time>2016-12-16T14:31:18Z</time>
      </trkpt>
      <trkpt lat="45.21073" lon="5.59008">
        <ele>1616.4000244141</ele>
        <time>2016-12-16T14:31:19Z</time>
      </trkpt>
      <trkpt lat="45.21068" lon="5.59019">
        <ele>1615.1999511719</ele>
        <time>2016-12-16T14:31:20Z</time>
      </trkpt>
      <trkpt lat="45.21063" lon="5.59028">
        <ele>1614</ele>
        <time>2016-12-16T14:31:21Z</time>
      </trkpt>
      <trkpt lat="45.21059" lon="5.59036">
        <ele>1613</ele>
        <time>2016-12-16T14:31:22Z</time>
      </trkpt>
      <trkpt lat="45.21055" lon="5.59044">
        <ele>1611.8000488281</ele>
        <time>2016-12-16T14:31:23Z</time>
      </trkpt>
      <trkpt lat="45.21051" lon="5.59049">
        <ele>1610.8000488281</ele>
        <time>2016-12-16T14:31:24Z</time>
      </trkpt>
      <trkpt lat="45.21047" lon="5.59053">
        <ele>1610.8000488281</ele>
        <time>2016-12-16T14:31:25Z</time>
      </trkpt>
      <trkpt lat="45.21038" lon="5.59057">
        <ele>1610.8000488281</ele>
        <time>2016-12-16T14:31:27Z</time>
      </trkpt>
      <trkpt lat="45.21029" lon="5.59061">
        <ele>1610.8000488281</ele>
        <time>2016-12-16T14:31:29Z</time>
      </trkpt>
      <trkpt lat="45.21017" lon="5.59076">
        <ele>1610.8000488281</ele>
        <time>2016-12-16T14:31:32Z</time>
      </trkpt>
      <trkpt lat="45.21011" lon="5.59089">
        <ele>1610.8000488281</ele>
        <time>2016-12-16T14:31:34Z</time>
      </trkpt>
      <trkpt lat="45.21009" lon="5.59096">
        <ele>1610.8000488281</ele>
        <time>2016-12-16T14:31:35Z</time>
      </trkpt>
      <trkpt lat="45.21007" lon="5.59102">
        <ele>1610.8000488281</ele>
        <time>2016-12-16T14:31:36Z</time>
      </trkpt>
      <trkpt lat="45.20999" lon="5.59141">
        <ele>1610.8000488281</ele>
        <time>2016-12-16T14:31:42Z</time>
      </trkpt>
      <trkpt lat="45.20999" lon="5.59168">
        <ele>1610.8000488281</ele>
        <time>2016-12-16T14:31:48Z</time>
      </trkpt>
      <trkpt lat="45.20998" lon="5.59179">
        <ele>1610.8000488281</ele>
        <time>2016-12-16T14:31:50Z</time>
      </trkpt>
      <trkpt lat="45.20993" lon="5.59187">
        <ele>1610.8000488281</ele>
        <time>2016-12-16T14:31:52Z</time>
      </trkpt>
      <trkpt lat="45.2098" lon="5.5919">
        <ele>1610.8000488281</ele>
        <time>2016-12-16T14:31:56Z</time>
      </trkpt>
      <trkpt lat="45.20956" lon="5.59189">
        <ele>1610.8000488281</ele>
        <time>2016-12-16T14:32:02Z</time>
      </trkpt>
      <trkpt lat="45.20944" lon="5.59188">
        <ele>1610.8000488281</ele>
        <time>2016-12-16T14:32:05Z</time>
      </trkpt>
      <trkpt lat="45.2094" lon="5.59185">
        <ele>1610.8000488281</ele>
        <time>2016-12-16T14:32:06Z</time>
      </trkpt>
      <trkpt lat="45.20925" lon="5.59168">
        <ele>1610.8000488281</ele>
        <time>2016-12-16T14:32:10Z</time>
      </trkpt>
      <trkpt lat="45.20922" lon="5.59164">
        <ele>1610.8000488281</ele>
        <time>2016-12-16T14:32:11Z</time>
      </trkpt>
      <trkpt lat="45.2091" lon="5.59148">
        <ele>1610.8000488281</ele>
        <time>2016-12-16T14:32:14Z</time>
      </trkpt>
      <trkpt lat="45.209" lon="5.59136">
        <ele>1610.8000488281</ele>
        <time>2016-12-16T14:32:16Z</time>
      </trkpt>
      <trkpt lat="45.20895" lon="5.59131">
        <ele>1610.1999511719</ele>
        <time>2016-12-16T14:32:17Z</time>
      </trkpt>
      <trkpt lat="45.20889" lon="5.59128">
        <ele>1609.8000488281</ele>
        <time>2016-12-16T14:32:18Z</time>
      </trkpt>
      <trkpt lat="45.20883" lon="5.59126">
        <ele>1609.1999511719</ele>
        <time>2016-12-16T14:32:19Z</time>
      </trkpt>
      <trkpt lat="45.20876" lon="5.59123">
        <ele>1608.8000488281</ele>
        <time>2016-12-16T14:32:20Z</time>
      </trkpt>
      <trkpt lat="45.20871" lon="5.5912">
        <ele>1608.1999511719</ele>
        <time>2016-12-16T14:32:21Z</time>
      </trkpt>
      <trkpt lat="45.20865" lon="5.59117">
        <ele>1608.1999511719</ele>
        <time>2016-12-16T14:32:22Z</time>
      </trkpt>
      <trkpt lat="45.20854" lon="5.59113">
        <ele>1608.1999511719</ele>
        <time>2016-12-16T14:32:24Z</time>
      </trkpt>
      <trkpt lat="45.20836" lon="5.59111">
        <ele>1608.1999511719</ele>
        <time>2016-12-16T14:32:27Z</time>
      </trkpt>
      <trkpt lat="45.20829" lon="5.59113">
        <ele>1607.8000488281</ele>
        <time>2016-12-16T14:32:28Z</time>
      </trkpt>
      <trkpt lat="45.20823" lon="5.59115">
        <ele>1607.4000244141</ele>
        <time>2016-12-16T14:32:29Z</time>
      </trkpt>
      <trkpt lat="45.20817" lon="5.59117">
        <ele>1606.8000488281</ele>
        <time>2016-12-16T14:32:30Z</time>
      </trkpt>
      <trkpt lat="45.20811" lon="5.59121">
        <ele>1606.4000244141</ele>
        <time>2016-12-16T14:32:31Z</time>
      </trkpt>
      <trkpt lat="45.20805" lon="5.59124">
        <ele>1606</ele>
        <time>2016-12-16T14:32:32Z</time>
      </trkpt>
      <trkpt lat="45.20793" lon="5.59131">
        <ele>1606</ele>
        <time>2016-12-16T14:32:34Z</time>
      </trkpt>
      <trkpt lat="45.20775" lon="5.59142">
        <ele>1606</ele>
        <time>2016-12-16T14:32:38Z</time>
      </trkpt>
      <trkpt lat="45.20767" lon="5.59147">
        <ele>1606.4000244141</ele>
        <time>2016-12-16T14:32:40Z</time>
      </trkpt>
      <trkpt lat="45.20763" lon="5.59149">
        <ele>1606.8000488281</ele>
        <time>2016-12-16T14:32:41Z</time>
      </trkpt>
      <trkpt lat="45.20759" lon="5.59151">
        <ele>1607.1999511719</ele>
        <time>2016-12-16T14:32:42Z</time>
      </trkpt>
      <trkpt lat="45.20755" lon="5.59152">
        <ele>1607.8000488281</ele>
        <time>2016-12-16T14:32:43Z</time>
      </trkpt>
      <trkpt lat="45.20751" lon="5.59154">
        <ele>1608.1999511719</ele>
        <time>2016-12-16T14:32:44Z</time>
      </trkpt>
      <trkpt lat="45.20735" lon="5.59163">
        <ele>1607.5999755859</ele>
        <time>2016-12-16T14:32:47Z</time>
      </trkpt>
      <trkpt lat="45.2073" lon="5.59171">
        <ele>1606.5999755859</ele>
        <time>2016-12-16T14:32:48Z</time>
      </trkpt>
      <trkpt lat="45.20725" lon="5.5918">
        <ele>1606</ele>
        <time>2016-12-16T14:32:49Z</time>
      </trkpt>
      <trkpt lat="45.20721" lon="5.5919">
        <ele>1605.4000244141</ele>
        <time>2016-12-16T14:32:50Z</time>
      </trkpt>
      <trkpt lat="45.20717" lon="5.59199">
        <ele>1604.8000488281</ele>
        <time>2016-12-16T14:32:51Z</time>
      </trkpt>
      <trkpt lat="45.20714" lon="5.59206">
        <ele>1604</ele>
        <time>2016-12-16T14:32:52Z</time>
      </trkpt>
      <trkpt lat="45.2071" lon="5.59213">
        <ele>1603.4000244141</ele>
        <time>2016-12-16T14:32:53Z</time>
      </trkpt>
      <trkpt lat="45.20702" lon="5.59219">
        <ele>1603.4000244141</ele>
        <time>2016-12-16T14:32:55Z</time>
      </trkpt>
      <trkpt lat="45.20693" lon="5.59219">
        <ele>1603.4000244141</ele>
        <time>2016-12-16T14:32:57Z</time>
      </trkpt>
      <trkpt lat="45.20681" lon="5.5922">
        <ele>1603.4000244141</ele>
        <time>2016-12-16T14:33:00Z</time>
      </trkpt>
      <trkpt lat="45.2067" lon="5.59218">
        <ele>1604</ele>
        <time>2016-12-16T14:33:03Z</time>
      </trkpt>
      <trkpt lat="45.20668" lon="5.59217">
        <ele>1604.4000244141</ele>
        <time>2016-12-16T14:33:04Z</time>
      </trkpt>
      <trkpt lat="45.20665" lon="5.59217">
        <ele>1604.8000488281</ele>
        <time>2016-12-16T14:33:05Z</time>
      </trkpt>
      <trkpt lat="45.20662" lon="5.59217">
        <ele>1605.1999511719</ele>
        <time>2016-12-16T14:33:06Z</time>
      </trkpt>
      <trkpt lat="45.20659" lon="5.59217">
        <ele>1605.8000488281</ele>
        <time>2016-12-16T14:33:07Z</time>
      </trkpt>
      <trkpt lat="45.20649" lon="5.59215">
        <ele>1605.8000488281</ele>
        <time>2016-12-16T14:33:11Z</time>
      </trkpt>
      <trkpt lat="45.20643" lon="5.59213">
        <ele>1606.5999755859</ele>
        <time>2016-12-16T14:33:13Z</time>
      </trkpt>
      <trkpt lat="45.2064" lon="5.59213">
        <ele>1607</ele>
        <time>2016-12-16T14:33:14Z</time>
      </trkpt>
      <trkpt lat="45.20637" lon="5.59214">
        <ele>1607.4000244141</ele>
        <time>2016-12-16T14:33:15Z</time>
      </trkpt>
      <trkpt lat="45.20634" lon="5.59214">
        <ele>1607.8000488281</ele>
        <time>2016-12-16T14:33:16Z</time>
      </trkpt>
      <trkpt lat="45.20616" lon="5.59216">
        <ele>1607.8000488281</ele>
        <time>2016-12-16T14:33:23Z</time>
      </trkpt>
      <trkpt lat="45.20607" lon="5.59221">
        <ele>1608.1999511719</ele>
        <time>2016-12-16T14:33:27Z</time>
      </trkpt>
      <trkpt lat="45.20605" lon="5.59223">
        <ele>1608.5999755859</ele>
        <time>2016-12-16T14:33:28Z</time>
      </trkpt>
      <trkpt lat="45.20603" lon="5.59225">
        <ele>1609</ele>
        <time>2016-12-16T14:33:29Z</time>
      </trkpt>
      <trkpt lat="45.206" lon="5.59227">
        <ele>1609.4000244141</ele>
        <time>2016-12-16T14:33:30Z</time>
      </trkpt>
      <trkpt lat="45.20597" lon="5.59229">
        <ele>1609.8000488281</ele>
        <time>2016-12-16T14:33:31Z</time>
      </trkpt>
      <trkpt lat="45.20594" lon="5.59231">
        <ele>1609.8000488281</ele>
        <time>2016-12-16T14:33:32Z</time>
      </trkpt>
      <trkpt lat="45.20583" lon="5.59239">
        <ele>1609.8000488281</ele>
        <time>2016-12-16T14:33:37Z</time>
      </trkpt>
      <trkpt lat="45.20569" lon="5.59248">
        <ele>1609.8000488281</ele>
        <time>2016-12-16T14:33:42Z</time>
      </trkpt>
      <trkpt lat="45.20567" lon="5.5925">
        <ele>1609.8000488281</ele>
        <time>2016-12-16T14:33:44Z</time>
      </trkpt>
      <trkpt lat="45.20561" lon="5.59257">
        <ele>1609.8000488281</ele>
        <time>2016-12-16T14:33:47Z</time>
      </trkpt>
      <trkpt lat="45.20558" lon="5.59259">
        <ele>1609.8000488281</ele>
        <time>2016-12-16T14:33:48Z</time>
      </trkpt>
      <trkpt lat="45.20539" lon="5.59269">
        <ele>1609.8000488281</ele>
        <time>2016-12-16T14:33:52Z</time>
      </trkpt>
      <trkpt lat="45.20526" lon="5.5928">
        <ele>1609.8000488281</ele>
        <time>2016-12-16T14:33:55Z</time>
      </trkpt>
      <trkpt lat="45.20514" lon="5.59289">
        <ele>1609.8000488281</ele>
        <time>2016-12-16T14:33:58Z</time>
      </trkpt>
      <trkpt lat="45.20496" lon="5.59302">
        <ele>1609.8000488281</ele>
        <time>2016-12-16T14:34:04Z</time>
      </trkpt>
      <trkpt lat="45.2049" lon="5.59307">
        <ele>1610.1999511719</ele>
        <time>2016-12-16T14:34:07Z</time>
      </trkpt>
      <trkpt lat="45.20487" lon="5.59309">
        <ele>1610.5999755859</ele>
        <time>2016-12-16T14:34:08Z</time>
      </trkpt>
      <trkpt lat="45.20484" lon="5.5931">
        <ele>1611.1999511719</ele>
        <time>2016-12-16T14:34:09Z</time>
      </trkpt>
      <trkpt lat="45.20482" lon="5.59312">
        <ele>1611.5999755859</ele>
        <time>2016-12-16T14:34:10Z</time>
      </trkpt>
      <trkpt lat="45.20479" lon="5.59313">
        <ele>1612</ele>
        <time>2016-12-16T14:34:11Z</time>
      </trkpt>
      <trkpt lat="45.2047" lon="5.59317">
        <ele>1612</ele>
        <time>2016-12-16T14:34:15Z</time>
      </trkpt>
      <trkpt lat="45.20457" lon="5.59314">
        <ele>1612.4000244141</ele>
        <time>2016-12-16T14:34:20Z</time>
      </trkpt>
      <trkpt lat="45.20455" lon="5.59312">
        <ele>1612.8000488281</ele>
        <time>2016-12-16T14:34:21Z</time>
      </trkpt>
      <trkpt lat="45.20453" lon="5.59311">
        <ele>1613.1999511719</ele>
        <time>2016-12-16T14:34:22Z</time>
      </trkpt>
      <trkpt lat="45.2045" lon="5.5931">
        <ele>1613.8000488281</ele>
        <time>2016-12-16T14:34:23Z</time>
      </trkpt>
      <trkpt lat="45.20448" lon="5.5931">
        <ele>1614.1999511719</ele>
        <time>2016-12-16T14:34:24Z</time>
      </trkpt>
      <trkpt lat="45.20443" lon="5.5931">
        <ele>1615</ele>
        <time>2016-12-16T14:34:26Z</time>
      </trkpt>
      <trkpt lat="45.20441" lon="5.59311">
        <ele>1615.4000244141</ele>
        <time>2016-12-16T14:34:27Z</time>
      </trkpt>
      <trkpt lat="45.20438" lon="5.59311">
        <ele>1615.8000488281</ele>
        <time>2016-12-16T14:34:28Z</time>
      </trkpt>
      <trkpt lat="45.20436" lon="5.59312">
        <ele>1616.1999511719</ele>
        <time>2016-12-16T14:34:29Z</time>
      </trkpt>
      <trkpt lat="45.20431" lon="5.59312">
        <ele>1616.5999755859</ele>
        <time>2016-12-16T14:34:32Z</time>
      </trkpt>
      <trkpt lat="45.20429" lon="5.59312">
        <ele>1617.1999511719</ele>
        <time>2016-12-16T14:34:33Z</time>
      </trkpt>
      <trkpt lat="45.20427" lon="5.59311">
        <ele>1617.5999755859</ele>
        <time>2016-12-16T14:34:34Z</time>
      </trkpt>
      <trkpt lat="45.20425" lon="5.59311">
        <ele>1618</ele>
        <time>2016-12-16T14:34:35Z</time>
      </trkpt>
      <trkpt lat="45.20422" lon="5.59311">
        <ele>1618.4000244141</ele>
        <time>2016-12-16T14:34:36Z</time>
      </trkpt>
      <trkpt lat="45.20412" lon="5.59311">
        <ele>1618.4000244141</ele>
        <time>2016-12-16T14:34:40Z</time>
      </trkpt>
      <trkpt lat="45.20392" lon="5.59308">
        <ele>1618.4000244141</ele>
        <time>2016-12-16T14:34:47Z</time>
      </trkpt>
      <trkpt lat="45.20379" lon="5.59305">
        <ele>1618.4000244141</ele>
        <time>2016-12-16T14:34:53Z</time>
      </trkpt>
      <trkpt lat="45.20377" lon="5.59305">
        <ele>1618.8000488281</ele>
        <time>2016-12-16T14:34:54Z</time>
      </trkpt>
      <trkpt lat="45.20375" lon="5.59304">
        <ele>1619.4000244141</ele>
        <time>2016-12-16T14:34:55Z</time>
      </trkpt>
      <trkpt lat="45.20372" lon="5.59304">
        <ele>1619.8000488281</ele>
        <time>2016-12-16T14:34:56Z</time>
      </trkpt>
      <trkpt lat="45.20371" lon="5.59303">
        <ele>1620.1999511719</ele>
        <time>2016-12-16T14:34:57Z</time>
      </trkpt>
      <trkpt lat="45.20369" lon="5.59302">
        <ele>1620.5999755859</ele>
        <time>2016-12-16T14:34:58Z</time>
      </trkpt>
      <trkpt lat="45.20365" lon="5.593">
        <ele>1620.5999755859</ele>
        <time>2016-12-16T14:35:00Z</time>
      </trkpt>
      <trkpt lat="45.20355" lon="5.59296">
        <ele>1621</ele>
        <time>2016-12-16T14:35:05Z</time>
      </trkpt>
      <trkpt lat="45.20353" lon="5.59295">
        <ele>1621.4000244141</ele>
        <time>2016-12-16T14:35:06Z</time>
      </trkpt>
      <trkpt lat="45.20351" lon="5.59295">
        <ele>1621.8000488281</ele>
        <time>2016-12-16T14:35:07Z</time>
      </trkpt>
      <trkpt lat="45.20349" lon="5.59294">
        <ele>1622.1999511719</ele>
        <time>2016-12-16T14:35:08Z</time>
      </trkpt>
      <trkpt lat="45.20347" lon="5.59293">
        <ele>1622.5999755859</ele>
        <time>2016-12-16T14:35:09Z</time>
      </trkpt>
      <trkpt lat="45.20339" lon="5.59291">
        <ele>1622.5999755859</ele>
        <time>2016-12-16T14:35:13Z</time>
      </trkpt>
      <trkpt lat="45.20327" lon="5.59287">
        <ele>1622.5999755859</ele>
        <time>2016-12-16T14:35:19Z</time>
      </trkpt>
      <trkpt lat="45.20312" lon="5.59284">
        <ele>1622.5999755859</ele>
        <time>2016-12-16T14:35:26Z</time>
      </trkpt>
      <trkpt lat="45.20292" lon="5.59278">
        <ele>1622.5999755859</ele>
        <time>2016-12-16T14:35:34Z</time>
      </trkpt>
      <trkpt lat="45.20273" lon="5.59271">
        <ele>1622.5999755859</ele>
        <time>2016-12-16T14:35:41Z</time>
      </trkpt>
      <trkpt lat="45.2025" lon="5.59264">
        <ele>1622.5999755859</ele>
        <time>2016-12-16T14:35:49Z</time>
      </trkpt>
      <trkpt lat="45.20229" lon="5.59256">
        <ele>1622.5999755859</ele>
        <time>2016-12-16T14:35:56Z</time>
      </trkpt>
      <trkpt lat="45.20226" lon="5.59254">
        <ele>1623</ele>
        <time>2016-12-16T14:35:57Z</time>
      </trkpt>
      <trkpt lat="45.20222" lon="5.59253">
        <ele>1623.4000244141</ele>
        <time>2016-12-16T14:35:58Z</time>
      </trkpt>
      <trkpt lat="45.20219" lon="5.59251">
        <ele>1623.8000488281</ele>
        <time>2016-12-16T14:35:59Z</time>
      </trkpt>
      <trkpt lat="45.20216" lon="5.5925">
        <ele>1624.1999511719</ele>
        <time>2016-12-16T14:36:00Z</time>
      </trkpt>
      <trkpt lat="45.20213" lon="5.59249">
        <ele>1624.5999755859</ele>
        <time>2016-12-16T14:36:01Z</time>
      </trkpt>
      <trkpt lat="45.20202" lon="5.59247">
        <ele>1624.5999755859</ele>
        <time>2016-12-16T14:36:04Z</time>
      </trkpt>
      <trkpt lat="45.20182" lon="5.59241">
        <ele>1624.5999755859</ele>
        <time>2016-12-16T14:36:10Z</time>
      </trkpt>
      <trkpt lat="45.2016" lon="5.59237">
        <ele>1624.5999755859</ele>
        <time>2016-12-16T14:36:16Z</time>
      </trkpt>
      <trkpt lat="45.20156" lon="5.59235">
        <ele>1624.5999755859</ele>
        <time>2016-12-16T14:36:17Z</time>
      </trkpt>
      <trkpt lat="45.20141" lon="5.59231">
        <ele>1624.5999755859</ele>
        <time>2016-12-16T14:36:20Z</time>
      </trkpt>
      <trkpt lat="45.20136" lon="5.5923">
        <ele>1624.5999755859</ele>
        <time>2016-12-16T14:36:21Z</time>
      </trkpt>
      <trkpt lat="45.20116" lon="5.59226">
        <ele>1624.5999755859</ele>
        <time>2016-12-16T14:36:26Z</time>
      </trkpt>
      <trkpt lat="45.20093" lon="5.59225">
        <ele>1624.5999755859</ele>
        <time>2016-12-16T14:36:32Z</time>
      </trkpt>
      <trkpt lat="45.20069" lon="5.59222">
        <ele>1624.5999755859</ele>
        <time>2016-12-16T14:36:39Z</time>
      </trkpt>
      <trkpt lat="45.20044" lon="5.59212">
        <ele>1624.5999755859</ele>
        <time>2016-12-16T14:36:46Z</time>
      </trkpt>
      <trkpt lat="45.20024" lon="5.59207">
        <ele>1624.5999755859</ele>
        <time>2016-12-16T14:36:52Z</time>
      </trkpt>
      <trkpt lat="45.19992" lon="5.59196">
        <ele>1624.5999755859</ele>
        <time>2016-12-16T14:37:01Z</time>
      </trkpt>
      <trkpt lat="45.19968" lon="5.59193">
        <ele>1624.5999755859</ele>
        <time>2016-12-16T14:37:08Z</time>
      </trkpt>
      <trkpt lat="45.19942" lon="5.59193">
        <ele>1624.5999755859</ele>
        <time>2016-12-16T14:37:14Z</time>
      </trkpt>
      <trkpt lat="45.19912" lon="5.59189">
        <ele>1624.5999755859</ele>
        <time>2016-12-16T14:37:21Z</time>
      </trkpt>
      <trkpt lat="45.19879" lon="5.59184">
        <ele>1624.5999755859</ele>
        <time>2016-12-16T14:37:29Z</time>
      </trkpt>
      <trkpt lat="45.1987" lon="5.59185">
        <ele>1624.5999755859</ele>
        <time>2016-12-16T14:37:31Z</time>
      </trkpt>
      <trkpt lat="45.19862" lon="5.59189">
        <ele>1624.5999755859</ele>
        <time>2016-12-16T14:37:33Z</time>
      </trkpt>
      <trkpt lat="45.19854" lon="5.59193">
        <ele>1624.5999755859</ele>
        <time>2016-12-16T14:37:35Z</time>
      </trkpt>
      <trkpt lat="45.19835" lon="5.59196">
        <ele>1624.5999755859</ele>
        <time>2016-12-16T14:37:40Z</time>
      </trkpt>
      <trkpt lat="45.1982" lon="5.59189">
        <ele>1624.5999755859</ele>
        <time>2016-12-16T14:37:45Z</time>
      </trkpt>
      <trkpt lat="45.19806" lon="5.59187">
        <ele>1624.5999755859</ele>
        <time>2016-12-16T14:37:50Z</time>
      </trkpt>
      <trkpt lat="45.19792" lon="5.59196">
        <ele>1624.5999755859</ele>
        <time>2016-12-16T14:37:56Z</time>
      </trkpt>
      <trkpt lat="45.19779" lon="5.59201">
        <ele>1624.5999755859</ele>
        <time>2016-12-16T14:38:02Z</time>
      </trkpt>
      <trkpt lat="45.19774" lon="5.592">
        <ele>1624.5999755859</ele>
        <time>2016-12-16T14:38:04Z</time>
      </trkpt>
      <trkpt lat="45.1977" lon="5.59198">
        <ele>1624.5999755859</ele>
        <time>2016-12-16T14:38:06Z</time>
      </trkpt>
      <trkpt lat="45.19763" lon="5.59197">
        <ele>1625</ele>
        <time>2016-12-16T14:38:10Z</time>
      </trkpt>
      <trkpt lat="45.19761" lon="5.59196">
        <ele>1625.4000244141</ele>
        <time>2016-12-16T14:38:11Z</time>
      </trkpt>
      <trkpt lat="45.19759" lon="5.59196">
        <ele>1625.8000488281</ele>
        <time>2016-12-16T14:38:12Z</time>
      </trkpt>
      <trkpt lat="45.19757" lon="5.59195">
        <ele>1626.1999511719</ele>
        <time>2016-12-16T14:38:13Z</time>
      </trkpt>
      <trkpt lat="45.19755" lon="5.59195">
        <ele>1626.8000488281</ele>
        <time>2016-12-16T14:38:14Z</time>
      </trkpt>
      <trkpt lat="45.19745" lon="5.59193">
        <ele>1626.8000488281</ele>
        <time>2016-12-16T14:38:20Z</time>
      </trkpt>
      <trkpt lat="45.19738" lon="5.59191">
        <ele>1627.1999511719</ele>
        <time>2016-12-16T14:38:25Z</time>
      </trkpt>
      <trkpt lat="45.19736" lon="5.59191">
        <ele>1627.5999755859</ele>
        <time>2016-12-16T14:38:26Z</time>
      </trkpt>
      <trkpt lat="45.19735" lon="5.59191">
        <ele>1628</ele>
        <time>2016-12-16T14:38:27Z</time>
      </trkpt>
      <trkpt lat="45.19733" lon="5.59191">
        <ele>1628.4000244141</ele>
        <time>2016-12-16T14:38:28Z</time>
      </trkpt>
      <trkpt lat="45.19732" lon="5.5919">
        <ele>1628.8000488281</ele>
        <time>2016-12-16T14:38:29Z</time>
      </trkpt>
      <trkpt lat="45.19723" lon="5.59187">
        <ele>1629.1999511719</ele>
        <time>2016-12-16T14:38:35Z</time>
      </trkpt>
      <trkpt lat="45.19721" lon="5.59187">
        <ele>1629.5999755859</ele>
        <time>2016-12-16T14:38:36Z</time>
      </trkpt>
      <trkpt lat="45.1972" lon="5.59186">
        <ele>1630</ele>
        <time>2016-12-16T14:38:37Z</time>
      </trkpt>
      <trkpt lat="45.19718" lon="5.59186">
        <ele>1630.5999755859</ele>
        <time>2016-12-16T14:38:38Z</time>
      </trkpt>
      <trkpt lat="45.19717" lon="5.59185">
        <ele>1631</ele>
        <time>2016-12-16T14:38:39Z</time>
      </trkpt>
      <trkpt lat="45.19711" lon="5.59183">
        <ele>1631.4000244141</ele>
        <time>2016-12-16T14:38:43Z</time>
      </trkpt>
      <trkpt lat="45.1971" lon="5.59182">
        <ele>1631.8000488281</ele>
        <time>2016-12-16T14:38:44Z</time>
      </trkpt>
      <trkpt lat="45.19709" lon="5.5918">
        <ele>1632.1999511719</ele>
        <time>2016-12-16T14:38:45Z</time>
      </trkpt>
      <trkpt lat="45.19707" lon="5.59179">
        <ele>1632.8000488281</ele>
        <time>2016-12-16T14:38:46Z</time>
      </trkpt>
      <trkpt lat="45.19706" lon="5.59178">
        <ele>1633.1999511719</ele>
        <time>2016-12-16T14:38:47Z</time>
      </trkpt>
      <trkpt lat="45.19703" lon="5.59175">
        <ele>1633.5999755859</ele>
        <time>2016-12-16T14:38:50Z</time>
      </trkpt>
      <trkpt lat="45.19702" lon="5.59174">
        <ele>1634</ele>
        <time>2016-12-16T14:38:51Z</time>
      </trkpt>
      <trkpt lat="45.19701" lon="5.59174">
        <ele>1634.4000244141</ele>
        <time>2016-12-16T14:38:52Z</time>
      </trkpt>
      <trkpt lat="45.19699" lon="5.59173">
        <ele>1635</ele>
        <time>2016-12-16T14:38:53Z</time>
      </trkpt>
      <trkpt lat="45.19698" lon="5.59172">
        <ele>1635.4000244141</ele>
        <time>2016-12-16T14:38:54Z</time>
      </trkpt>
      <trkpt lat="45.19695" lon="5.59172">
        <ele>1635.8000488281</ele>
        <time>2016-12-16T14:38:56Z</time>
      </trkpt>
      <trkpt lat="45.19694" lon="5.59171">
        <ele>1636.1999511719</ele>
        <time>2016-12-16T14:38:57Z</time>
      </trkpt>
      <trkpt lat="45.19693" lon="5.5917">
        <ele>1636.5999755859</ele>
        <time>2016-12-16T14:38:58Z</time>
      </trkpt>
      <trkpt lat="45.19692" lon="5.5917">
        <ele>1637.4000244141</ele>
        <time>2016-12-16T14:38:59Z</time>
      </trkpt>
      <trkpt lat="45.1969" lon="5.59169">
        <ele>1638</ele>
        <time>2016-12-16T14:39:01Z</time>
      </trkpt>
      <trkpt lat="45.19688" lon="5.59169">
        <ele>1638.4000244141</ele>
        <time>2016-12-16T14:39:02Z</time>
      </trkpt>
      <trkpt lat="45.19688" lon="5.59169">
        <ele>1639</ele>
        <time>2016-12-16T14:39:03Z</time>
      </trkpt>
      <trkpt lat="45.19686" lon="5.59168">
        <ele>1639.4000244141</ele>
        <time>2016-12-16T14:39:04Z</time>
      </trkpt>
      <trkpt lat="45.19685" lon="5.59167">
        <ele>1639.8000488281</ele>
        <time>2016-12-16T14:39:05Z</time>
      </trkpt>
      <trkpt lat="45.19684" lon="5.59165">
        <ele>1640.4000244141</ele>
        <time>2016-12-16T14:39:07Z</time>
      </trkpt>
      <trkpt lat="45.19683" lon="5.59164">
        <ele>1640.8000488281</ele>
        <time>2016-12-16T14:39:08Z</time>
      </trkpt>
      <trkpt lat="45.19682" lon="5.59164">
        <ele>1641.1999511719</ele>
        <time>2016-12-16T14:39:09Z</time>
      </trkpt>
      <trkpt lat="45.19681" lon="5.59163">
        <ele>1641.5999755859</ele>
        <time>2016-12-16T14:39:10Z</time>
      </trkpt>
      <trkpt lat="45.1968" lon="5.59163">
        <ele>1642</ele>
        <time>2016-12-16T14:39:11Z</time>
      </trkpt>
      <trkpt lat="45.19676" lon="5.59162">
        <ele>1642</ele>
        <time>2016-12-16T14:39:16Z</time>
      </trkpt>
      <trkpt lat="45.1967" lon="5.59161">
        <ele>1642.5999755859</ele>
        <time>2016-12-16T14:39:21Z</time>
      </trkpt>
      <trkpt lat="45.19668" lon="5.59161">
        <ele>1643</ele>
        <time>2016-12-16T14:39:22Z</time>
      </trkpt>
      <trkpt lat="45.19667" lon="5.5916">
        <ele>1643.8000488281</ele>
        <time>2016-12-16T14:39:23Z</time>
      </trkpt>
      <trkpt lat="45.19665" lon="5.5916">
        <ele>1644.1999511719</ele>
        <time>2016-12-16T14:39:24Z</time>
      </trkpt>
      <trkpt lat="45.19655" lon="5.5916">
        <ele>1644.1999511719</ele>
        <time>2016-12-16T14:39:28Z</time>
      </trkpt>
      <trkpt lat="45.19645" lon="5.59163">
        <ele>1644.1999511719</ele>
        <time>2016-12-16T14:39:34Z</time>
      </trkpt>
      <trkpt lat="45.19633" lon="5.59166">
        <ele>1644.1999511719</ele>
        <time>2016-12-16T14:39:40Z</time>
      </trkpt>
      <trkpt lat="45.19623" lon="5.5917">
        <ele>1644.1999511719</ele>
        <time>2016-12-16T14:39:45Z</time>
      </trkpt>
      <trkpt lat="45.19615" lon="5.59172">
        <ele>1644.1999511719</ele>
        <time>2016-12-16T14:39:51Z</time>
      </trkpt>
      <trkpt lat="45.19602" lon="5.59175">
        <ele>1644.1999511719</ele>
        <time>2016-12-16T14:39:57Z</time>
      </trkpt>
      <trkpt lat="45.19589" lon="5.59182">
        <ele>1644.1999511719</ele>
        <time>2016-12-16T14:40:03Z</time>
      </trkpt>
      <trkpt lat="45.19573" lon="5.59188">
        <ele>1644.1999511719</ele>
        <time>2016-12-16T14:40:09Z</time>
      </trkpt>
      <trkpt lat="45.19562" lon="5.59189">
        <ele>1644.5999755859</ele>
        <time>2016-12-16T14:40:12Z</time>
      </trkpt>
      <trkpt lat="45.19559" lon="5.59189">
        <ele>1645.4000244141</ele>
        <time>2016-12-16T14:40:13Z</time>
      </trkpt>
      <trkpt lat="45.19555" lon="5.59189">
        <ele>1645.8000488281</ele>
        <time>2016-12-16T14:40:14Z</time>
      </trkpt>
      <trkpt lat="45.19552" lon="5.59189">
        <ele>1646.1999511719</ele>
        <time>2016-12-16T14:40:15Z</time>
      </trkpt>
      <trkpt lat="45.19548" lon="5.59188">
        <ele>1646.1999511719</ele>
        <time>2016-12-16T14:40:16Z</time>
      </trkpt>
      <trkpt lat="45.19533" lon="5.59194">
        <ele>1646.1999511719</ele>
        <time>2016-12-16T14:40:21Z</time>
      </trkpt>
      <trkpt lat="45.19516" lon="5.59204">
        <ele>1646.1999511719</ele>
        <time>2016-12-16T14:40:28Z</time>
      </trkpt>
      <trkpt lat="45.19501" lon="5.59207">
        <ele>1646.1999511719</ele>
        <time>2016-12-16T14:40:33Z</time>
      </trkpt>
      <trkpt lat="45.1948" lon="5.5921">
        <ele>1646.1999511719</ele>
        <time>2016-12-16T14:40:40Z</time>
      </trkpt>
      <trkpt lat="45.19459" lon="5.5922">
        <ele>1646.1999511719</ele>
        <time>2016-12-16T14:40:47Z</time>
      </trkpt>
      <trkpt lat="45.1944" lon="5.59235">
        <ele>1646.1999511719</ele>
        <time>2016-12-16T14:40:54Z</time>
      </trkpt>
      <trkpt lat="45.19425" lon="5.59244">
        <ele>1646.1999511719</ele>
        <time>2016-12-16T14:40:59Z</time>
      </trkpt>
      <trkpt lat="45.19401" lon="5.59248">
        <ele>1646.1999511719</ele>
        <time>2016-12-16T14:41:05Z</time>
      </trkpt>
      <trkpt lat="45.19386" lon="5.59251">
        <ele>1646.1999511719</ele>
        <time>2016-12-16T14:41:10Z</time>
      </trkpt>
      <trkpt lat="45.19367" lon="5.59248">
        <ele>1646.1999511719</ele>
        <time>2016-12-16T14:41:17Z</time>
      </trkpt>
      <trkpt lat="45.19347" lon="5.59243">
        <ele>1646.1999511719</ele>
        <time>2016-12-16T14:41:23Z</time>
      </trkpt>
      <trkpt lat="45.19329" lon="5.5924">
        <ele>1646.1999511719</ele>
        <time>2016-12-16T14:41:29Z</time>
      </trkpt>
      <trkpt lat="45.19314" lon="5.59235">
        <ele>1646.1999511719</ele>
        <time>2016-12-16T14:41:34Z</time>
      </trkpt>
      <trkpt lat="45.193" lon="5.5923">
        <ele>1645.8000488281</ele>
        <time>2016-12-16T14:41:39Z</time>
      </trkpt>
      <trkpt lat="45.19296" lon="5.59229">
        <ele>1645.4000244141</ele>
        <time>2016-12-16T14:41:40Z</time>
      </trkpt>
      <trkpt lat="45.19291" lon="5.59228">
        <ele>1645</ele>
        <time>2016-12-16T14:41:41Z</time>
      </trkpt>
      <trkpt lat="45.19286" lon="5.59226">
        <ele>1644.4000244141</ele>
        <time>2016-12-16T14:41:42Z</time>
      </trkpt>
      <trkpt lat="45.19282" lon="5.59225">
        <ele>1644</ele>
        <time>2016-12-16T14:41:43Z</time>
      </trkpt>
      <trkpt lat="45.19277" lon="5.59224">
        <ele>1644</ele>
        <time>2016-12-16T14:41:44Z</time>
      </trkpt>
      <trkpt lat="45.19272" lon="5.59223">
        <ele>1644</ele>
        <time>2016-12-16T14:41:45Z</time>
      </trkpt>
      <trkpt lat="45.19253" lon="5.59217">
        <ele>1643.5999755859</ele>
        <time>2016-12-16T14:41:48Z</time>
      </trkpt>
      <trkpt lat="45.19245" lon="5.59215">
        <ele>1643</ele>
        <time>2016-12-16T14:41:49Z</time>
      </trkpt>
      <trkpt lat="45.19238" lon="5.59213">
        <ele>1642.4000244141</ele>
        <time>2016-12-16T14:41:50Z</time>
      </trkpt>
      <trkpt lat="45.19231" lon="5.59212">
        <ele>1641.5999755859</ele>
        <time>2016-12-16T14:41:51Z</time>
      </trkpt>
      <trkpt lat="45.19226" lon="5.59211">
        <ele>1640.1999511719</ele>
        <time>2016-12-16T14:41:52Z</time>
      </trkpt>
      <trkpt lat="45.19223" lon="5.59209">
        <ele>1639.4000244141</ele>
        <time>2016-12-16T14:41:53Z</time>
      </trkpt>
      <trkpt lat="45.19218" lon="5.59206">
        <ele>1639.8000488281</ele>
        <time>2016-12-16T14:41:56Z</time>
      </trkpt>
      <trkpt lat="45.19217" lon="5.59206">
        <ele>1640.1999511719</ele>
        <time>2016-12-16T14:41:57Z</time>
      </trkpt>
      <trkpt lat="45.19215" lon="5.59205">
        <ele>1640.5999755859</ele>
        <time>2016-12-16T14:41:58Z</time>
      </trkpt>
      <trkpt lat="45.19213" lon="5.59204">
        <ele>1641.1999511719</ele>
        <time>2016-12-16T14:41:59Z</time>
      </trkpt>
      <trkpt lat="45.19211" lon="5.59205">
        <ele>1641.5999755859</ele>
        <time>2016-12-16T14:42:00Z</time>
      </trkpt>
      <trkpt lat="45.19209" lon="5.59206">
        <ele>1642</ele>
        <time>2016-12-16T14:42:02Z</time>
      </trkpt>
      <trkpt lat="45.19208" lon="5.59207">
        <ele>1642.4000244141</ele>
        <time>2016-12-16T14:42:03Z</time>
      </trkpt>
      <trkpt lat="45.19207" lon="5.59207">
        <ele>1643</ele>
        <time>2016-12-16T14:42:04Z</time>
      </trkpt>
      <trkpt lat="45.19206" lon="5.59208">
        <ele>1643.4000244141</ele>
        <time>2016-12-16T14:42:05Z</time>
      </trkpt>
      <trkpt lat="45.19204" lon="5.59208">
        <ele>1644</ele>
        <time>2016-12-16T14:42:06Z</time>
      </trkpt>
      <trkpt lat="45.19201" lon="5.59205">
        <ele>1644.4000244141</ele>
        <time>2016-12-16T14:42:09Z</time>
      </trkpt>
      <trkpt lat="45.19199" lon="5.59204">
        <ele>1644.8000488281</ele>
        <time>2016-12-16T14:42:10Z</time>
      </trkpt>
      <trkpt lat="45.19198" lon="5.59204">
        <ele>1645.1999511719</ele>
        <time>2016-12-16T14:42:11Z</time>
      </trkpt>
      <trkpt lat="45.19196" lon="5.59204">
        <ele>1645.5999755859</ele>
        <time>2016-12-16T14:42:12Z</time>
      </trkpt>
      <trkpt lat="45.19195" lon="5.59203">
        <ele>1646</ele>
        <time>2016-12-16T14:42:13Z</time>
      </trkpt>
      <trkpt lat="45.19191" lon="5.59203">
        <ele>1646.4000244141</ele>
        <time>2016-12-16T14:42:16Z</time>
      </trkpt>
      <trkpt lat="45.19189" lon="5.59202">
        <ele>1646.8000488281</ele>
        <time>2016-12-16T14:42:17Z</time>
      </trkpt>
      <trkpt lat="45.19188" lon="5.59202">
        <ele>1647.1999511719</ele>
        <time>2016-12-16T14:42:18Z</time>
      </trkpt>
      <trkpt lat="45.19187" lon="5.59202">
        <ele>1647.5999755859</ele>
        <time>2016-12-16T14:42:19Z</time>
      </trkpt>
      <trkpt lat="45.19185" lon="5.59201">
        <ele>1648</ele>
        <time>2016-12-16T14:42:20Z</time>
      </trkpt>
      <trkpt lat="45.19181" lon="5.59199">
        <ele>1648.4000244141</ele>
        <time>2016-12-16T14:42:23Z</time>
      </trkpt>
      <trkpt lat="45.1918" lon="5.59199">
        <ele>1648.8000488281</ele>
        <time>2016-12-16T14:42:24Z</time>
      </trkpt>
      <trkpt lat="45.19179" lon="5.59198">
        <ele>1649.4000244141</ele>
        <time>2016-12-16T14:42:25Z</time>
      </trkpt>
      <trkpt lat="45.19178" lon="5.59198">
        <ele>1649.8000488281</ele>
        <time>2016-12-16T14:42:26Z</time>
      </trkpt>
      <trkpt lat="45.19176" lon="5.59198">
        <ele>1650.1999511719</ele>
        <time>2016-12-16T14:42:27Z</time>
      </trkpt>
      <trkpt lat="45.19174" lon="5.59197">
        <ele>1650.1999511719</ele>
        <time>2016-12-16T14:42:29Z</time>
      </trkpt>
      <trkpt lat="45.19172" lon="5.59197">
        <ele>1650.1999511719</ele>
        <time>2016-12-16T14:42:31Z</time>
      </trkpt>
      <trkpt lat="45.19171" lon="5.59196">
        <ele>1650.1999511719</ele>
        <time>2016-12-16T14:42:32Z</time>
      </trkpt>
      <trkpt lat="45.19166" lon="5.59195">
        <ele>1650.5999755859</ele>
        <time>2016-12-16T14:42:36Z</time>
      </trkpt>
      <trkpt lat="45.19165" lon="5.59195">
        <ele>1651</ele>
        <time>2016-12-16T14:42:37Z</time>
      </trkpt>
      <trkpt lat="45.19163" lon="5.59194">
        <ele>1651.4000244141</ele>
        <time>2016-12-16T14:42:38Z</time>
      </trkpt>
      <trkpt lat="45.19162" lon="5.59194">
        <ele>1652</ele>
        <time>2016-12-16T14:42:39Z</time>
      </trkpt>
      <trkpt lat="45.19161" lon="5.59194">
        <ele>1652.4000244141</ele>
        <time>2016-12-16T14:42:40Z</time>
      </trkpt>
      <trkpt lat="45.19156" lon="5.59193">
        <ele>1652.8000488281</ele>
        <time>2016-12-16T14:42:45Z</time>
      </trkpt>
      <trkpt lat="45.19155" lon="5.59193">
        <ele>1653.1999511719</ele>
        <time>2016-12-16T14:42:46Z</time>
      </trkpt>
      <trkpt lat="45.19154" lon="5.59192">
        <ele>1653.5999755859</ele>
        <time>2016-12-16T14:42:47Z</time>
      </trkpt>
      <trkpt lat="45.19153" lon="5.59192">
        <ele>1654</ele>
        <time>2016-12-16T14:42:48Z</time>
      </trkpt>
      <trkpt lat="45.19152" lon="5.59192">
        <ele>1654.4000244141</ele>
        <time>2016-12-16T14:42:49Z</time>
      </trkpt>
      <trkpt lat="45.19146" lon="5.59191">
        <ele>1654.4000244141</ele>
        <time>2016-12-16T14:42:54Z</time>
      </trkpt>
      <trkpt lat="45.19142" lon="5.5919">
        <ele>1654.8000488281</ele>
        <time>2016-12-16T14:42:58Z</time>
      </trkpt>
      <trkpt lat="45.19141" lon="5.5919">
        <ele>1655.1999511719</ele>
        <time>2016-12-16T14:42:59Z</time>
      </trkpt>
      <trkpt lat="45.1914" lon="5.5919">
        <ele>1655.5999755859</ele>
        <time>2016-12-16T14:43:00Z</time>
      </trkpt>
      <trkpt lat="45.19139" lon="5.59189">
        <ele>1656</ele>
        <time>2016-12-16T14:43:01Z</time>
      </trkpt>
      <trkpt lat="45.19138" lon="5.59188">
        <ele>1656.4000244141</ele>
        <time>2016-12-16T14:43:02Z</time>
      </trkpt>
      <trkpt lat="45.19137" lon="5.59186">
        <ele>1656.4000244141</ele>
        <time>2016-12-16T14:43:03Z</time>
      </trkpt>
      <trkpt lat="45.19131" lon="5.59182">
        <ele>1656.8000488281</ele>
        <time>2016-12-16T14:43:08Z</time>
      </trkpt>
      <trkpt lat="45.1913" lon="5.59182">
        <ele>1657.1999511719</ele>
        <time>2016-12-16T14:43:09Z</time>
      </trkpt>
      <trkpt lat="45.19129" lon="5.59181">
        <ele>1657.8000488281</ele>
        <time>2016-12-16T14:43:10Z</time>
      </trkpt>
      <trkpt lat="45.19128" lon="5.59181">
        <ele>1658.1999511719</ele>
        <time>2016-12-16T14:43:11Z</time>
      </trkpt>
      <trkpt lat="45.19127" lon="5.5918">
        <ele>1658.5999755859</ele>
        <time>2016-12-16T14:43:12Z</time>
      </trkpt>
      <trkpt lat="45.19122" lon="5.59178">
        <ele>1658.5999755859</ele>
        <time>2016-12-16T14:43:16Z</time>
      </trkpt>
      <trkpt lat="45.19116" lon="5.59173">
        <ele>1659</ele>
        <time>2016-12-16T14:43:21Z</time>
      </trkpt>
      <trkpt lat="45.19115" lon="5.59172">
        <ele>1659.4000244141</ele>
        <time>2016-12-16T14:43:22Z</time>
      </trkpt>
      <trkpt lat="45.19114" lon="5.59171">
        <ele>1659.8000488281</ele>
        <time>2016-12-16T14:43:23Z</time>
      </trkpt>
      <trkpt lat="45.19113" lon="5.59169">
        <ele>1660.1999511719</ele>
        <time>2016-12-16T14:43:24Z</time>
      </trkpt>
      <trkpt lat="45.19111" lon="5.59169">
        <ele>1660.8000488281</ele>
        <time>2016-12-16T14:43:25Z</time>
      </trkpt>
      <trkpt lat="45.19107" lon="5.59168">
        <ele>1660.8000488281</ele>
        <time>2016-12-16T14:43:28Z</time>
      </trkpt>
      <trkpt lat="45.19106" lon="5.59169">
        <ele>1661.1999511719</ele>
        <time>2016-12-16T14:43:29Z</time>
      </trkpt>
      <trkpt lat="45.19104" lon="5.5917">
        <ele>1661.5999755859</ele>
        <time>2016-12-16T14:43:30Z</time>
      </trkpt>
      <trkpt lat="45.19103" lon="5.5917">
        <ele>1662.4000244141</ele>
        <time>2016-12-16T14:43:31Z</time>
      </trkpt>
      <trkpt lat="45.19102" lon="5.5917">
        <ele>1662.8000488281</ele>
        <time>2016-12-16T14:43:32Z</time>
      </trkpt>
      <trkpt lat="45.19101" lon="5.59169">
        <ele>1662.8000488281</ele>
        <time>2016-12-16T14:43:33Z</time>
      </trkpt>
      <trkpt lat="45.19099" lon="5.59169">
        <ele>1662.8000488281</ele>
        <time>2016-12-16T14:43:35Z</time>
      </trkpt>
      <trkpt lat="45.19095" lon="5.59169">
        <ele>1663.1999511719</ele>
        <time>2016-12-16T14:43:38Z</time>
      </trkpt>
      <trkpt lat="45.19094" lon="5.59169">
        <ele>1663.5999755859</ele>
        <time>2016-12-16T14:43:39Z</time>
      </trkpt>
      <trkpt lat="45.19092" lon="5.59168">
        <ele>1664.1999511719</ele>
        <time>2016-12-16T14:43:40Z</time>
      </trkpt>
      <trkpt lat="45.19091" lon="5.59168">
        <ele>1664.5999755859</ele>
        <time>2016-12-16T14:43:41Z</time>
      </trkpt>
      <trkpt lat="45.19088" lon="5.59168">
        <ele>1665</ele>
        <time>2016-12-16T14:43:42Z</time>
      </trkpt>
      <trkpt lat="45.19082" lon="5.59165">
        <ele>1665</ele>
        <time>2016-12-16T14:43:46Z</time>
      </trkpt>
      <trkpt lat="45.19078" lon="5.59162">
        <ele>1665</ele>
        <time>2016-12-16T14:43:50Z</time>
      </trkpt>
      <trkpt lat="45.19076" lon="5.5916">
        <ele>1665</ele>
        <time>2016-12-16T14:43:52Z</time>
      </trkpt>
      <trkpt lat="45.19074" lon="5.59159">
        <ele>1665.4000244141</ele>
        <time>2016-12-16T14:43:54Z</time>
      </trkpt>
      <trkpt lat="45.19072" lon="5.59157">
        <ele>1665.8000488281</ele>
        <time>2016-12-16T14:43:55Z</time>
      </trkpt>
      <trkpt lat="45.19071" lon="5.59157">
        <ele>1666.5999755859</ele>
        <time>2016-12-16T14:43:56Z</time>
      </trkpt>
      <trkpt lat="45.19069" lon="5.59156">
        <ele>1667</ele>
        <time>2016-12-16T14:43:57Z</time>
      </trkpt>
      <trkpt lat="45.19067" lon="5.59155">
        <ele>1667</ele>
        <time>2016-12-16T14:43:59Z</time>
      </trkpt>
      <trkpt lat="45.1906" lon="5.59153">
        <ele>1667.5999755859</ele>
        <time>2016-12-16T14:44:05Z</time>
      </trkpt>
      <trkpt lat="45.19058" lon="5.59153">
        <ele>1668</ele>
        <time>2016-12-16T14:44:06Z</time>
      </trkpt>
      <trkpt lat="45.19057" lon="5.59152">
        <ele>1668.4000244141</ele>
        <time>2016-12-16T14:44:07Z</time>
      </trkpt>
      <trkpt lat="45.19056" lon="5.59151">
        <ele>1668.8000488281</ele>
        <time>2016-12-16T14:44:08Z</time>
      </trkpt>
      <trkpt lat="45.19055" lon="5.59149">
        <ele>1669.1999511719</ele>
        <time>2016-12-16T14:44:09Z</time>
      </trkpt>
      <trkpt lat="45.19053" lon="5.59148">
        <ele>1669.1999511719</ele>
        <time>2016-12-16T14:44:11Z</time>
      </trkpt>
      <trkpt lat="45.19052" lon="5.59147">
        <ele>1669.1999511719</ele>
        <time>2016-12-16T14:44:12Z</time>
      </trkpt>
      <trkpt lat="45.19047" lon="5.59145">
        <ele>1669.1999511719</ele>
        <time>2016-12-16T14:44:16Z</time>
      </trkpt>
      <trkpt lat="45.19044" lon="5.59144">
        <ele>1669.5999755859</ele>
        <time>2016-12-16T14:44:18Z</time>
      </trkpt>
      <trkpt lat="45.19043" lon="5.59144">
        <ele>1670</ele>
        <time>2016-12-16T14:44:19Z</time>
      </trkpt>
      <trkpt lat="45.19041" lon="5.59144">
        <ele>1670.4000244141</ele>
        <time>2016-12-16T14:44:20Z</time>
      </trkpt>
      <trkpt lat="45.1904" lon="5.59144">
        <ele>1671.1999511719</ele>
        <time>2016-12-16T14:44:21Z</time>
      </trkpt>
      <trkpt lat="45.19029" lon="5.59142">
        <ele>1671.8000488281</ele>
        <time>2016-12-16T14:44:27Z</time>
      </trkpt>
      <trkpt lat="45.19028" lon="5.59141">
        <ele>1672.1999511719</ele>
        <time>2016-12-16T14:44:28Z</time>
      </trkpt>
      <trkpt lat="45.19026" lon="5.59141">
        <ele>1672.5999755859</ele>
        <time>2016-12-16T14:44:29Z</time>
      </trkpt>
      <trkpt lat="45.19025" lon="5.5914">
        <ele>1673</ele>
        <time>2016-12-16T14:44:30Z</time>
      </trkpt>
      <trkpt lat="45.19023" lon="5.5914">
        <ele>1673.5999755859</ele>
        <time>2016-12-16T14:44:31Z</time>
      </trkpt>
      <trkpt lat="45.19019" lon="5.59138">
        <ele>1673.5999755859</ele>
        <time>2016-12-16T14:44:34Z</time>
      </trkpt>
      <trkpt lat="45.19012" lon="5.59138">
        <ele>1674</ele>
        <time>2016-12-16T14:44:39Z</time>
      </trkpt>
      <trkpt lat="45.19011" lon="5.59138">
        <ele>1674.4000244141</ele>
        <time>2016-12-16T14:44:40Z</time>
      </trkpt>
      <trkpt lat="45.1901" lon="5.59138">
        <ele>1674.8000488281</ele>
        <time>2016-12-16T14:44:41Z</time>
      </trkpt>
      <trkpt lat="45.19008" lon="5.59139">
        <ele>1675.1999511719</ele>
        <time>2016-12-16T14:44:42Z</time>
      </trkpt>
      <trkpt lat="45.19006" lon="5.59139">
        <ele>1675.8000488281</ele>
        <time>2016-12-16T14:44:43Z</time>
      </trkpt>
      <trkpt lat="45.18996" lon="5.59141">
        <ele>1675.8000488281</ele>
        <time>2016-12-16T14:44:48Z</time>
      </trkpt>
      <trkpt lat="45.18991" lon="5.59141">
        <ele>1676.1999511719</ele>
        <time>2016-12-16T14:44:51Z</time>
      </trkpt>
      <trkpt lat="45.18989" lon="5.59141">
        <ele>1676.5999755859</ele>
        <time>2016-12-16T14:44:52Z</time>
      </trkpt>
      <trkpt lat="45.18987" lon="5.59142">
        <ele>1677</ele>
        <time>2016-12-16T14:44:53Z</time>
      </trkpt>
      <trkpt lat="45.18985" lon="5.59142">
        <ele>1677.4000244141</ele>
        <time>2016-12-16T14:44:54Z</time>
      </trkpt>
      <trkpt lat="45.18984" lon="5.59142">
        <ele>1677.8000488281</ele>
        <time>2016-12-16T14:44:55Z</time>
      </trkpt>
      <trkpt lat="45.18972" lon="5.59139">
        <ele>1677.8000488281</ele>
        <time>2016-12-16T14:45:02Z</time>
      </trkpt>
      <trkpt lat="45.18971" lon="5.59138">
        <ele>1677.8000488281</ele>
        <time>2016-12-16T14:45:03Z</time>
      </trkpt>
      <trkpt lat="45.18969" lon="5.59139">
        <ele>1677.8000488281</ele>
        <time>2016-12-16T14:45:05Z</time>
      </trkpt>
      <trkpt lat="45.18965" lon="5.59139">
        <ele>1677.8000488281</ele>
        <time>2016-12-16T14:45:08Z</time>
      </trkpt>
      <trkpt lat="45.18964" lon="5.59139">
        <ele>1678.1999511719</ele>
        <time>2016-12-16T14:45:09Z</time>
      </trkpt>
      <trkpt lat="45.18963" lon="5.59139">
        <ele>1679</ele>
        <time>2016-12-16T14:45:10Z</time>
      </trkpt>
      <trkpt lat="45.18962" lon="5.59138">
        <ele>1679.4000244141</ele>
        <time>2016-12-16T14:45:11Z</time>
      </trkpt>
      <trkpt lat="45.18961" lon="5.59138">
        <ele>1679.8000488281</ele>
        <time>2016-12-16T14:45:12Z</time>
      </trkpt>
      <trkpt lat="45.18959" lon="5.59138">
        <ele>1679.8000488281</ele>
        <time>2016-12-16T14:45:14Z</time>
      </trkpt>
      <trkpt lat="45.18952" lon="5.59139">
        <ele>1679.8000488281</ele>
        <time>2016-12-16T14:45:20Z</time>
      </trkpt>
      <trkpt lat="45.18948" lon="5.59138">
        <ele>1679.8000488281</ele>
        <time>2016-12-16T14:45:22Z</time>
      </trkpt>
      <trkpt lat="45.18944" lon="5.59138">
        <ele>1680.1999511719</ele>
        <time>2016-12-16T14:45:25Z</time>
      </trkpt>
      <trkpt lat="45.18942" lon="5.59138">
        <ele>1680.5999755859</ele>
        <time>2016-12-16T14:45:26Z</time>
      </trkpt>
      <trkpt lat="45.18941" lon="5.59139">
        <ele>1681.1999511719</ele>
        <time>2016-12-16T14:45:27Z</time>
      </trkpt>
      <trkpt lat="45.18939" lon="5.59139">
        <ele>1681.5999755859</ele>
        <time>2016-12-16T14:45:28Z</time>
      </trkpt>
      <trkpt lat="45.18937" lon="5.59139">
        <ele>1682</ele>
        <time>2016-12-16T14:45:29Z</time>
      </trkpt>
      <trkpt lat="45.18928" lon="5.5914">
        <ele>1682</ele>
        <time>2016-12-16T14:45:36Z</time>
      </trkpt>
      <trkpt lat="45.18927" lon="5.5914">
        <ele>1682.4000244141</ele>
        <time>2016-12-16T14:45:38Z</time>
      </trkpt>
      <trkpt lat="45.18926" lon="5.5914">
        <ele>1682.8000488281</ele>
        <time>2016-12-16T14:45:39Z</time>
      </trkpt>
      <trkpt lat="45.18925" lon="5.5914">
        <ele>1683.1999511719</ele>
        <time>2016-12-16T14:45:40Z</time>
      </trkpt>
      <trkpt lat="45.18923" lon="5.5914">
        <ele>1683.8000488281</ele>
        <time>2016-12-16T14:45:41Z</time>
      </trkpt>
      <trkpt lat="45.18921" lon="5.59141">
        <ele>1684.1999511719</ele>
        <time>2016-12-16T14:45:42Z</time>
      </trkpt>
      <trkpt lat="45.18914" lon="5.59144">
        <ele>1684.1999511719</ele>
        <time>2016-12-16T14:45:47Z</time>
      </trkpt>
      <trkpt lat="45.18912" lon="5.59143">
        <ele>1684.1999511719</ele>
        <time>2016-12-16T14:45:48Z</time>
      </trkpt>
      <trkpt lat="45.18905" lon="5.59144">
        <ele>1684.1999511719</ele>
        <time>2016-12-16T14:45:51Z</time>
      </trkpt>
      <trkpt lat="45.189" lon="5.59145">
        <ele>1684.1999511719</ele>
        <time>2016-12-16T14:45:54Z</time>
      </trkpt>
      <trkpt lat="45.18896" lon="5.59144">
        <ele>1684.5999755859</ele>
        <time>2016-12-16T14:45:57Z</time>
      </trkpt>
      <trkpt lat="45.18895" lon="5.59144">
        <ele>1685</ele>
        <time>2016-12-16T14:45:58Z</time>
      </trkpt>
      <trkpt lat="45.18893" lon="5.59144">
        <ele>1685.4000244141</ele>
        <time>2016-12-16T14:45:59Z</time>
      </trkpt>
      <trkpt lat="45.18891" lon="5.59144">
        <ele>1686.4000244141</ele>
        <time>2016-12-16T14:46:00Z</time>
      </trkpt>
      <trkpt lat="45.18878" lon="5.59144">
        <ele>1686.8000488281</ele>
        <time>2016-12-16T14:46:08Z</time>
      </trkpt>
      <trkpt lat="45.18877" lon="5.59143">
        <ele>1687.1999511719</ele>
        <time>2016-12-16T14:46:09Z</time>
      </trkpt>
      <trkpt lat="45.18875" lon="5.59142">
        <ele>1687.5999755859</ele>
        <time>2016-12-16T14:46:10Z</time>
      </trkpt>
      <trkpt lat="45.18874" lon="5.59142">
        <ele>1688</ele>
        <time>2016-12-16T14:46:11Z</time>
      </trkpt>
      <trkpt lat="45.18872" lon="5.59141">
        <ele>1688.4000244141</ele>
        <time>2016-12-16T14:46:12Z</time>
      </trkpt>
      <trkpt lat="45.18866" lon="5.59139">
        <ele>1688.4000244141</ele>
        <time>2016-12-16T14:46:15Z</time>
      </trkpt>
      <trkpt lat="45.18861" lon="5.59137">
        <ele>1688.4000244141</ele>
        <time>2016-12-16T14:46:18Z</time>
      </trkpt>
      <trkpt lat="45.18858" lon="5.59139">
        <ele>1688.8000488281</ele>
        <time>2016-12-16T14:46:20Z</time>
      </trkpt>
      <trkpt lat="45.18856" lon="5.59139">
        <ele>1689.1999511719</ele>
        <time>2016-12-16T14:46:21Z</time>
      </trkpt>
      <trkpt lat="45.18855" lon="5.5914">
        <ele>1689.5999755859</ele>
        <time>2016-12-16T14:46:22Z</time>
      </trkpt>
      <trkpt lat="45.18853" lon="5.59142">
        <ele>1690.1999511719</ele>
        <time>2016-12-16T14:46:23Z</time>
      </trkpt>
      <trkpt lat="45.18852" lon="5.59143">
        <ele>1690.5999755859</ele>
        <time>2016-12-16T14:46:24Z</time>
      </trkpt>
      <trkpt lat="45.18846" lon="5.59145">
        <ele>1690.5999755859</ele>
        <time>2016-12-16T14:46:27Z</time>
      </trkpt>
      <trkpt lat="45.18839" lon="5.59147">
        <ele>1690.5999755859</ele>
        <time>2016-12-16T14:46:31Z</time>
      </trkpt>
      <trkpt lat="45.18837" lon="5.5915">
        <ele>1690.5999755859</ele>
        <time>2016-12-16T14:46:33Z</time>
      </trkpt>
      <trkpt lat="45.18836" lon="5.5915">
        <ele>1691</ele>
        <time>2016-12-16T14:46:34Z</time>
      </trkpt>
      <trkpt lat="45.18835" lon="5.59151">
        <ele>1691.4000244141</ele>
        <time>2016-12-16T14:46:35Z</time>
      </trkpt>
      <trkpt lat="45.18835" lon="5.5915">
        <ele>1691.8000488281</ele>
        <time>2016-12-16T14:46:36Z</time>
      </trkpt>
      <trkpt lat="45.18835" lon="5.5915">
        <ele>1692.1999511719</ele>
        <time>2016-12-16T14:46:37Z</time>
      </trkpt>
      <trkpt lat="45.18834" lon="5.5915">
        <ele>1692.5999755859</ele>
        <time>2016-12-16T14:46:57Z</time>
      </trkpt>
      <trkpt lat="45.18827" lon="5.59148">
        <ele>1692.5999755859</ele>
        <time>2016-12-16T14:47:03Z</time>
      </trkpt>
      <trkpt lat="45.18814" lon="5.59153">
        <ele>1692.5999755859</ele>
        <time>2016-12-16T14:47:10Z</time>
      </trkpt>
      <trkpt lat="45.18803" lon="5.59167">
        <ele>1692.5999755859</ele>
        <time>2016-12-16T14:47:16Z</time>
      </trkpt>
      <trkpt lat="45.18795" lon="5.59179">
        <ele>1692.5999755859</ele>
        <time>2016-12-16T14:47:21Z</time>
      </trkpt>
      <trkpt lat="45.18785" lon="5.59186">
        <ele>1692.5999755859</ele>
        <time>2016-12-16T14:47:26Z</time>
      </trkpt>
      <trkpt lat="45.18776" lon="5.59193">
        <ele>1692.5999755859</ele>
        <time>2016-12-16T14:47:30Z</time>
      </trkpt>
      <trkpt lat="45.18773" lon="5.59193">
        <ele>1692.5999755859</ele>
        <time>2016-12-16T14:47:31Z</time>
      </trkpt>
      <trkpt lat="45.18765" lon="5.59194">
        <ele>1692.5999755859</ele>
        <time>2016-12-16T14:47:34Z</time>
      </trkpt>
      <trkpt lat="45.1876" lon="5.59196">
        <ele>1692.5999755859</ele>
        <time>2016-12-16T14:47:36Z</time>
      </trkpt>
      <trkpt lat="45.18745" lon="5.59204">
        <ele>1692.5999755859</ele>
        <time>2016-12-16T14:47:42Z</time>
      </trkpt>
      <trkpt lat="45.18738" lon="5.59215">
        <ele>1693</ele>
        <time>2016-12-16T14:47:46Z</time>
      </trkpt>
      <trkpt lat="45.18736" lon="5.59216">
        <ele>1693.4000244141</ele>
        <time>2016-12-16T14:47:47Z</time>
      </trkpt>
      <trkpt lat="45.18734" lon="5.59218">
        <ele>1693.8000488281</ele>
        <time>2016-12-16T14:47:48Z</time>
      </trkpt>
      <trkpt lat="45.18732" lon="5.59219">
        <ele>1694.1999511719</ele>
        <time>2016-12-16T14:47:49Z</time>
      </trkpt>
      <trkpt lat="45.18731" lon="5.59219">
        <ele>1694.5999755859</ele>
        <time>2016-12-16T14:47:50Z</time>
      </trkpt>
      <trkpt lat="45.18725" lon="5.59221">
        <ele>1694.5999755859</ele>
        <time>2016-12-16T14:47:53Z</time>
      </trkpt>
      <trkpt lat="45.18721" lon="5.59227">
        <ele>1694.5999755859</ele>
        <time>2016-12-16T14:47:56Z</time>
      </trkpt>
      <trkpt lat="45.18718" lon="5.59232">
        <ele>1694.5999755859</ele>
        <time>2016-12-16T14:47:58Z</time>
      </trkpt>
      <trkpt lat="45.18714" lon="5.59232">
        <ele>1694.5999755859</ele>
        <time>2016-12-16T14:48:00Z</time>
      </trkpt>
      <trkpt lat="45.1871" lon="5.59234">
        <ele>1694.5999755859</ele>
        <time>2016-12-16T14:48:02Z</time>
      </trkpt>
      <trkpt lat="45.18703" lon="5.59247">
        <ele>1694.5999755859</ele>
        <time>2016-12-16T14:48:07Z</time>
      </trkpt>
      <trkpt lat="45.18693" lon="5.59257">
        <ele>1694.5999755859</ele>
        <time>2016-12-16T14:48:11Z</time>
      </trkpt>
      <trkpt lat="45.1869" lon="5.5926">
        <ele>1694.5999755859</ele>
        <time>2016-12-16T14:48:12Z</time>
      </trkpt>
      <trkpt lat="45.18684" lon="5.59264">
        <ele>1694.5999755859</ele>
        <time>2016-12-16T14:48:14Z</time>
      </trkpt>
      <trkpt lat="45.18678" lon="5.59263">
        <ele>1694.5999755859</ele>
        <time>2016-12-16T14:48:16Z</time>
      </trkpt>
      <trkpt lat="45.18675" lon="5.59262">
        <ele>1695</ele>
        <time>2016-12-16T14:48:17Z</time>
      </trkpt>
      <trkpt lat="45.18672" lon="5.59261">
        <ele>1695.4000244141</ele>
        <time>2016-12-16T14:48:18Z</time>
      </trkpt>
      <trkpt lat="45.1867" lon="5.5926">
        <ele>1696</ele>
        <time>2016-12-16T14:48:19Z</time>
      </trkpt>
      <trkpt lat="45.18667" lon="5.5926">
        <ele>1696.4000244141</ele>
        <time>2016-12-16T14:48:20Z</time>
      </trkpt>
      <trkpt lat="45.18664" lon="5.59259">
        <ele>1696.8000488281</ele>
        <time>2016-12-16T14:48:21Z</time>
      </trkpt>
      <trkpt lat="45.18658" lon="5.59254">
        <ele>1697.1999511719</ele>
        <time>2016-12-16T14:48:24Z</time>
      </trkpt>
      <trkpt lat="45.18656" lon="5.59252">
        <ele>1697.5999755859</ele>
        <time>2016-12-16T14:48:25Z</time>
      </trkpt>
      <trkpt lat="45.18654" lon="5.5925">
        <ele>1698</ele>
        <time>2016-12-16T14:48:26Z</time>
      </trkpt>
      <trkpt lat="45.18652" lon="5.59249">
        <ele>1698.4000244141</ele>
        <time>2016-12-16T14:48:27Z</time>
      </trkpt>
      <trkpt lat="45.1865" lon="5.59248">
        <ele>1698.8000488281</ele>
        <time>2016-12-16T14:48:28Z</time>
      </trkpt>
      <trkpt lat="45.18644" lon="5.59245">
        <ele>1698.8000488281</ele>
        <time>2016-12-16T14:48:32Z</time>
      </trkpt>
      <trkpt lat="45.18644" lon="5.59243">
        <ele>1698.8000488281</ele>
        <time>2016-12-16T14:48:37Z</time>
      </trkpt>
      <trkpt lat="45.18639" lon="5.59239">
        <ele>1698.8000488281</ele>
        <time>2016-12-16T14:48:41Z</time>
      </trkpt>
      <trkpt lat="45.18632" lon="5.59229">
        <ele>1698.8000488281</ele>
        <time>2016-12-16T14:48:46Z</time>
      </trkpt>
      <trkpt lat="45.1863" lon="5.59226">
        <ele>1698.8000488281</ele>
        <time>2016-12-16T14:48:47Z</time>
      </trkpt>
      <trkpt lat="45.18622" lon="5.59212">
        <ele>1698.8000488281</ele>
        <time>2016-12-16T14:48:51Z</time>
      </trkpt>
      <trkpt lat="45.18613" lon="5.59196">
        <ele>1698.8000488281</ele>
        <time>2016-12-16T14:48:56Z</time>
      </trkpt>
      <trkpt lat="45.18601" lon="5.59181">
        <ele>1698.8000488281</ele>
        <time>2016-12-16T14:49:02Z</time>
      </trkpt>
      <trkpt lat="45.18589" lon="5.59171">
        <ele>1698.8000488281</ele>
        <time>2016-12-16T14:49:07Z</time>
      </trkpt>
      <trkpt lat="45.18575" lon="5.59163">
        <ele>1698.8000488281</ele>
        <time>2016-12-16T14:49:11Z</time>
      </trkpt>
      <trkpt lat="45.18571" lon="5.59158">
        <ele>1698.8000488281</ele>
        <time>2016-12-16T14:49:12Z</time>
      </trkpt>
      <trkpt lat="45.18565" lon="5.59139">
        <ele>1698.8000488281</ele>
        <time>2016-12-16T14:49:16Z</time>
      </trkpt>
      <trkpt lat="45.18564" lon="5.59117">
        <ele>1698.8000488281</ele>
        <time>2016-12-16T14:49:21Z</time>
      </trkpt>
      <trkpt lat="45.18552" lon="5.5911">
        <ele>1698.8000488281</ele>
        <time>2016-12-16T14:49:24Z</time>
      </trkpt>
      <trkpt lat="45.18541" lon="5.59104">
        <ele>1698.8000488281</ele>
        <time>2016-12-16T14:49:27Z</time>
      </trkpt>
      <trkpt lat="45.18539" lon="5.59099">
        <ele>1698.8000488281</ele>
        <time>2016-12-16T14:49:28Z</time>
      </trkpt>
      <trkpt lat="45.18525" lon="5.59076">
        <ele>1698.8000488281</ele>
        <time>2016-12-16T14:49:33Z</time>
      </trkpt>
      <trkpt lat="45.18509" lon="5.59058">
        <ele>1698.8000488281</ele>
        <time>2016-12-16T14:49:39Z</time>
      </trkpt>
      <trkpt lat="45.18497" lon="5.5904">
        <ele>1698.4000244141</ele>
        <time>2016-12-16T14:49:44Z</time>
      </trkpt>
      <trkpt lat="45.18493" lon="5.59036">
        <ele>1697.8000488281</ele>
        <time>2016-12-16T14:49:45Z</time>
      </trkpt>
      <trkpt lat="45.18488" lon="5.59032">
        <ele>1697.1999511719</ele>
        <time>2016-12-16T14:49:46Z</time>
      </trkpt>
      <trkpt lat="45.18483" lon="5.59027">
        <ele>1696.8000488281</ele>
        <time>2016-12-16T14:49:47Z</time>
      </trkpt>
      <trkpt lat="45.18481" lon="5.5902">
        <ele>1696.1999511719</ele>
        <time>2016-12-16T14:49:48Z</time>
      </trkpt>
      <trkpt lat="45.18479" lon="5.59012">
        <ele>1695.5999755859</ele>
        <time>2016-12-16T14:49:49Z</time>
      </trkpt>
      <trkpt lat="45.18478" lon="5.59004">
        <ele>1695</ele>
        <time>2016-12-16T14:49:50Z</time>
      </trkpt>
      <trkpt lat="45.18475" lon="5.58997">
        <ele>1694.4000244141</ele>
        <time>2016-12-16T14:49:51Z</time>
      </trkpt>
      <trkpt lat="45.18472" lon="5.58989">
        <ele>1693.8000488281</ele>
        <time>2016-12-16T14:49:52Z</time>
      </trkpt>
      <trkpt lat="45.18468" lon="5.58982">
        <ele>1693.1999511719</ele>
        <time>2016-12-16T14:49:53Z</time>
      </trkpt>
      <trkpt lat="45.18462" lon="5.58976">
        <ele>1692.8000488281</ele>
        <time>2016-12-16T14:49:54Z</time>
      </trkpt>
      <trkpt lat="45.18457" lon="5.5897">
        <ele>1692.1999511719</ele>
        <time>2016-12-16T14:49:55Z</time>
      </trkpt>
      <trkpt lat="45.18451" lon="5.58964">
        <ele>1691.5999755859</ele>
        <time>2016-12-16T14:49:56Z</time>
      </trkpt>
      <trkpt lat="45.18445" lon="5.58958">
        <ele>1691</ele>
        <time>2016-12-16T14:49:57Z</time>
      </trkpt>
      <trkpt lat="45.1844" lon="5.58953">
        <ele>1690.1999511719</ele>
        <time>2016-12-16T14:49:58Z</time>
      </trkpt>
      <trkpt lat="45.18435" lon="5.58947">
        <ele>1689.5999755859</ele>
        <time>2016-12-16T14:49:59Z</time>
      </trkpt>
      <trkpt lat="45.18431" lon="5.58941">
        <ele>1689</ele>
        <time>2016-12-16T14:50:00Z</time>
      </trkpt>
      <trkpt lat="45.18427" lon="5.58935">
        <ele>1688.1999511719</ele>
        <time>2016-12-16T14:50:01Z</time>
      </trkpt>
      <trkpt lat="45.18424" lon="5.58932">
        <ele>1687.5999755859</ele>
        <time>2016-12-16T14:50:02Z</time>
      </trkpt>
      <trkpt lat="45.1842" lon="5.5893">
        <ele>1687</ele>
        <time>2016-12-16T14:50:03Z</time>
      </trkpt>
      <trkpt lat="45.18416" lon="5.58928">
        <ele>1686.4000244141</ele>
        <time>2016-12-16T14:50:04Z</time>
      </trkpt>
      <trkpt lat="45.1841" lon="5.58926">
        <ele>1685.8000488281</ele>
        <time>2016-12-16T14:50:05Z</time>
      </trkpt>
      <trkpt lat="45.18405" lon="5.58921">
        <ele>1685</ele>
        <time>2016-12-16T14:50:06Z</time>
      </trkpt>
      <trkpt lat="45.184" lon="5.58916">
        <ele>1683.4000244141</ele>
        <time>2016-12-16T14:50:07Z</time>
      </trkpt>
      <trkpt lat="45.18397" lon="5.58911">
        <ele>1682.4000244141</ele>
        <time>2016-12-16T14:50:08Z</time>
      </trkpt>
      <trkpt lat="45.18394" lon="5.58906">
        <ele>1681.5999755859</ele>
        <time>2016-12-16T14:50:09Z</time>
      </trkpt>
      <trkpt lat="45.18389" lon="5.58904">
        <ele>1681.1999511719</ele>
        <time>2016-12-16T14:50:10Z</time>
      </trkpt>
      <trkpt lat="45.18384" lon="5.58901">
        <ele>1680.5999755859</ele>
        <time>2016-12-16T14:50:11Z</time>
      </trkpt>
      <trkpt lat="45.18381" lon="5.58896">
        <ele>1680.1999511719</ele>
        <time>2016-12-16T14:50:12Z</time>
      </trkpt>
      <trkpt lat="45.18378" lon="5.58891">
        <ele>1679.5999755859</ele>
        <time>2016-12-16T14:50:13Z</time>
      </trkpt>
      <trkpt lat="45.18374" lon="5.58884">
        <ele>1679.1999511719</ele>
        <time>2016-12-16T14:50:14Z</time>
      </trkpt>
      <trkpt lat="45.18371" lon="5.58878">
        <ele>1678.5999755859</ele>
        <time>2016-12-16T14:50:15Z</time>
      </trkpt>
      <trkpt lat="45.18368" lon="5.58871">
        <ele>1678</ele>
        <time>2016-12-16T14:50:16Z</time>
      </trkpt>
      <trkpt lat="45.18365" lon="5.58864">
        <ele>1677.4000244141</ele>
        <time>2016-12-16T14:50:17Z</time>
      </trkpt>
      <trkpt lat="45.18361" lon="5.58857">
        <ele>1676.8000488281</ele>
        <time>2016-12-16T14:50:18Z</time>
      </trkpt>
      <trkpt lat="45.18358" lon="5.58849">
        <ele>1676.1999511719</ele>
        <time>2016-12-16T14:50:19Z</time>
      </trkpt>
      <trkpt lat="45.18352" lon="5.58844">
        <ele>1675.4000244141</ele>
        <time>2016-12-16T14:50:20Z</time>
      </trkpt>
      <trkpt lat="45.18347" lon="5.58837">
        <ele>1674.8000488281</ele>
        <time>2016-12-16T14:50:21Z</time>
      </trkpt>
      <trkpt lat="45.18341" lon="5.5883">
        <ele>1674.1999511719</ele>
        <time>2016-12-16T14:50:22Z</time>
      </trkpt>
      <trkpt lat="45.18336" lon="5.58825">
        <ele>1673.8000488281</ele>
        <time>2016-12-16T14:50:23Z</time>
      </trkpt>
      <trkpt lat="45.18332" lon="5.5882">
        <ele>1673.1999511719</ele>
        <time>2016-12-16T14:50:24Z</time>
      </trkpt>
      <trkpt lat="45.18328" lon="5.58816">
        <ele>1672.5999755859</ele>
        <time>2016-12-16T14:50:25Z</time>
      </trkpt>
      <trkpt lat="45.18326" lon="5.58813">
        <ele>1672</ele>
        <time>2016-12-16T14:50:26Z</time>
      </trkpt>
      <trkpt lat="45.18325" lon="5.58813">
        <ele>1671.5999755859</ele>
        <time>2016-12-16T14:50:27Z</time>
      </trkpt>
      <trkpt lat="45.18324" lon="5.58812">
        <ele>1671.1999511719</ele>
        <time>2016-12-16T14:50:28Z</time>
      </trkpt>
      <trkpt lat="45.18324" lon="5.58812">
        <ele>1670.5999755859</ele>
        <time>2016-12-16T14:50:29Z</time>
      </trkpt>
      <trkpt lat="45.18324" lon="5.58812">
        <ele>1670.1999511719</ele>
        <time>2016-12-16T14:50:30Z</time>
      </trkpt>
      <trkpt lat="45.18321" lon="5.58811">
        <ele>1669.5999755859</ele>
        <time>2016-12-16T14:50:35Z</time>
      </trkpt>
      <trkpt lat="45.18308" lon="5.58809">
        <ele>1669.5999755859</ele>
        <time>2016-12-16T14:50:40Z</time>
      </trkpt>
      <trkpt lat="45.18295" lon="5.58805">
        <ele>1669.1999511719</ele>
        <time>2016-12-16T14:50:44Z</time>
      </trkpt>
      <trkpt lat="45.18291" lon="5.58802">
        <ele>1668.8000488281</ele>
        <time>2016-12-16T14:50:45Z</time>
      </trkpt>
      <trkpt lat="45.18287" lon="5.588">
        <ele>1668.4000244141</ele>
        <time>2016-12-16T14:50:46Z</time>
      </trkpt>
      <trkpt lat="45.18282" lon="5.58798">
        <ele>1668</ele>
        <time>2016-12-16T14:50:47Z</time>
      </trkpt>
      <trkpt lat="45.18278" lon="5.58797">
        <ele>1667.5999755859</ele>
        <time>2016-12-16T14:50:48Z</time>
      </trkpt>
      <trkpt lat="45.18267" lon="5.58794">
        <ele>1667.1999511719</ele>
        <time>2016-12-16T14:50:50Z</time>
      </trkpt>
      <trkpt lat="45.18262" lon="5.58791">
        <ele>1666.8000488281</ele>
        <time>2016-12-16T14:50:51Z</time>
      </trkpt>
      <trkpt lat="45.18258" lon="5.58788">
        <ele>1666.1999511719</ele>
        <time>2016-12-16T14:50:52Z</time>
      </trkpt>
      <trkpt lat="45.18255" lon="5.58782">
        <ele>1665.8000488281</ele>
        <time>2016-12-16T14:50:53Z</time>
      </trkpt>
      <trkpt lat="45.18253" lon="5.58776">
        <ele>1665.4000244141</ele>
        <time>2016-12-16T14:50:54Z</time>
      </trkpt>
      <trkpt lat="45.18248" lon="5.58765">
        <ele>1664.8000488281</ele>
        <time>2016-12-16T14:50:56Z</time>
      </trkpt>
      <trkpt lat="45.18244" lon="5.58758">
        <ele>1663.4000244141</ele>
        <time>2016-12-16T14:50:57Z</time>
      </trkpt>
      <trkpt lat="45.18238" lon="5.58753">
        <ele>1662.8000488281</ele>
        <time>2016-12-16T14:50:58Z</time>
      </trkpt>
      <trkpt lat="45.18231" lon="5.5875">
        <ele>1662</ele>
        <time>2016-12-16T14:50:59Z</time>
      </trkpt>
      <trkpt lat="45.18224" lon="5.58747">
        <ele>1661.1999511719</ele>
        <time>2016-12-16T14:51:00Z</time>
      </trkpt>
      <trkpt lat="45.18216" lon="5.58744">
        <ele>1660.4000244141</ele>
        <time>2016-12-16T14:51:01Z</time>
      </trkpt>
      <trkpt lat="45.18208" lon="5.58741">
        <ele>1659.5999755859</ele>
        <time>2016-12-16T14:51:02Z</time>
      </trkpt>
      <trkpt lat="45.18201" lon="5.58737">
        <ele>1658.8000488281</ele>
        <time>2016-12-16T14:51:03Z</time>
      </trkpt>
      <trkpt lat="45.18194" lon="5.58731">
        <ele>1658</ele>
        <time>2016-12-16T14:51:04Z</time>
      </trkpt>
      <trkpt lat="45.18187" lon="5.58726">
        <ele>1657</ele>
        <time>2016-12-16T14:51:05Z</time>
      </trkpt>
      <trkpt lat="45.1818" lon="5.58721">
        <ele>1656.5999755859</ele>
        <time>2016-12-16T14:51:06Z</time>
      </trkpt>
      <trkpt lat="45.18173" lon="5.58717">
        <ele>1656</ele>
        <time>2016-12-16T14:51:07Z</time>
      </trkpt>
      <trkpt lat="45.18166" lon="5.58714">
        <ele>1655.4000244141</ele>
        <time>2016-12-16T14:51:08Z</time>
      </trkpt>
      <trkpt lat="45.1816" lon="5.5871">
        <ele>1655</ele>
        <time>2016-12-16T14:51:09Z</time>
      </trkpt>
      <trkpt lat="45.18155" lon="5.58707">
        <ele>1654.4000244141</ele>
        <time>2016-12-16T14:51:10Z</time>
      </trkpt>
      <trkpt lat="45.18149" lon="5.58703">
        <ele>1654.4000244141</ele>
        <time>2016-12-16T14:51:11Z</time>
      </trkpt>
      <trkpt lat="45.18144" lon="5.58699">
        <ele>1654.4000244141</ele>
        <time>2016-12-16T14:51:12Z</time>
      </trkpt>
      <trkpt lat="45.18129" lon="5.58691">
        <ele>1654.4000244141</ele>
        <time>2016-12-16T14:51:15Z</time>
      </trkpt>
      <trkpt lat="45.1811" lon="5.58681">
        <ele>1654.4000244141</ele>
        <time>2016-12-16T14:51:19Z</time>
      </trkpt>
      <trkpt lat="45.18105" lon="5.58678">
        <ele>1654.4000244141</ele>
        <time>2016-12-16T14:51:20Z</time>
      </trkpt>
      <trkpt lat="45.18087" lon="5.58663">
        <ele>1654.4000244141</ele>
        <time>2016-12-16T14:51:25Z</time>
      </trkpt>
      <trkpt lat="45.18085" lon="5.58657">
        <ele>1654.4000244141</ele>
        <time>2016-12-16T14:51:26Z</time>
      </trkpt>
      <trkpt lat="45.18077" lon="5.58652">
        <ele>1653.8000488281</ele>
        <time>2016-12-16T14:51:28Z</time>
      </trkpt>
      <trkpt lat="45.18071" lon="5.58651">
        <ele>1653.4000244141</ele>
        <time>2016-12-16T14:51:29Z</time>
      </trkpt>
      <trkpt lat="45.18065" lon="5.58649">
        <ele>1653</ele>
        <time>2016-12-16T14:51:30Z</time>
      </trkpt>
      <trkpt lat="45.1806" lon="5.58645">
        <ele>1652.4000244141</ele>
        <time>2016-12-16T14:51:31Z</time>
      </trkpt>
      <trkpt lat="45.18055" lon="5.58642">
        <ele>1652</ele>
        <time>2016-12-16T14:51:32Z</time>
      </trkpt>
      <trkpt lat="45.18042" lon="5.58635">
        <ele>1651.4000244141</ele>
        <time>2016-12-16T14:51:34Z</time>
      </trkpt>
      <trkpt lat="45.18035" lon="5.5863">
        <ele>1651</ele>
        <time>2016-12-16T14:51:35Z</time>
      </trkpt>
      <trkpt lat="45.18028" lon="5.58626">
        <ele>1650.5999755859</ele>
        <time>2016-12-16T14:51:36Z</time>
      </trkpt>
      <trkpt lat="45.1802" lon="5.5862">
        <ele>1650.1999511719</ele>
        <time>2016-12-16T14:51:37Z</time>
      </trkpt>
      <trkpt lat="45.18013" lon="5.58616">
        <ele>1649.5999755859</ele>
        <time>2016-12-16T14:51:38Z</time>
      </trkpt>
      <trkpt lat="45.18007" lon="5.5861">
        <ele>1649</ele>
        <time>2016-12-16T14:51:39Z</time>
      </trkpt>
      <trkpt lat="45.18001" lon="5.58605">
        <ele>1648.1999511719</ele>
        <time>2016-12-16T14:51:40Z</time>
      </trkpt>
      <trkpt lat="45.17996" lon="5.58601">
        <ele>1647.5999755859</ele>
        <time>2016-12-16T14:51:41Z</time>
      </trkpt>
      <trkpt lat="45.17991" lon="5.58598">
        <ele>1646.8000488281</ele>
        <time>2016-12-16T14:51:42Z</time>
      </trkpt>
      <trkpt lat="45.17987" lon="5.58594">
        <ele>1645.8000488281</ele>
        <time>2016-12-16T14:51:43Z</time>
      </trkpt>
      <trkpt lat="45.17983" lon="5.58593">
        <ele>1645</ele>
        <time>2016-12-16T14:51:44Z</time>
      </trkpt>
      <trkpt lat="45.17979" lon="5.58593">
        <ele>1644.1999511719</ele>
        <time>2016-12-16T14:51:45Z</time>
      </trkpt>
      <trkpt lat="45.17975" lon="5.58593">
        <ele>1642.4000244141</ele>
        <time>2016-12-16T14:51:46Z</time>
      </trkpt>
      <trkpt lat="45.17971" lon="5.5859">
        <ele>1642.4000244141</ele>
        <time>2016-12-16T14:51:48Z</time>
      </trkpt>
      <trkpt lat="45.17968" lon="5.58592">
        <ele>1642.4000244141</ele>
        <time>2016-12-16T14:51:49Z</time>
      </trkpt>
      <trkpt lat="45.17964" lon="5.58593">
        <ele>1642.4000244141</ele>
        <time>2016-12-16T14:51:51Z</time>
      </trkpt>
      <trkpt lat="45.17955" lon="5.5859">
        <ele>1642.4000244141</ele>
        <time>2016-12-16T14:51:56Z</time>
      </trkpt>
      <trkpt lat="45.1795" lon="5.58587">
        <ele>1642.4000244141</ele>
        <time>2016-12-16T14:52:00Z</time>
      </trkpt>
      <trkpt lat="45.17949" lon="5.58587">
        <ele>1642.4000244141</ele>
        <time>2016-12-16T14:52:01Z</time>
      </trkpt>
      <trkpt lat="45.17946" lon="5.58586">
        <ele>1642.8000488281</ele>
        <time>2016-12-16T14:52:03Z</time>
      </trkpt>
      <trkpt lat="45.17946" lon="5.58586">
        <ele>1643.1999511719</ele>
        <time>2016-12-16T14:52:04Z</time>
      </trkpt>
      <trkpt lat="45.17945" lon="5.58587">
        <ele>1643.5999755859</ele>
        <time>2016-12-16T14:52:05Z</time>
      </trkpt>
      <trkpt lat="45.17945" lon="5.58586">
        <ele>1644</ele>
        <time>2016-12-16T14:52:06Z</time>
      </trkpt>
      <trkpt lat="45.17943" lon="5.58586">
        <ele>1644.4000244141</ele>
        <time>2016-12-16T14:52:07Z</time>
      </trkpt>
      <trkpt lat="45.17937" lon="5.58583">
        <ele>1644.8000488281</ele>
        <time>2016-12-16T14:52:11Z</time>
      </trkpt>
      <trkpt lat="45.17935" lon="5.58582">
        <ele>1645.1999511719</ele>
        <time>2016-12-16T14:52:12Z</time>
      </trkpt>
      <trkpt lat="45.17934" lon="5.58581">
        <ele>1645.8000488281</ele>
        <time>2016-12-16T14:52:13Z</time>
      </trkpt>
      <trkpt lat="45.17932" lon="5.58581">
        <ele>1646.1999511719</ele>
        <time>2016-12-16T14:52:14Z</time>
      </trkpt>
      <trkpt lat="45.17931" lon="5.58579">
        <ele>1646.5999755859</ele>
        <time>2016-12-16T14:52:15Z</time>
      </trkpt>
      <trkpt lat="45.17927" lon="5.58578">
        <ele>1646.5999755859</ele>
        <time>2016-12-16T14:52:18Z</time>
      </trkpt>
      <trkpt lat="45.1792" lon="5.58576">
        <ele>1646.5999755859</ele>
        <time>2016-12-16T14:52:22Z</time>
      </trkpt>
      <trkpt lat="45.17916" lon="5.58574">
        <ele>1647</ele>
        <time>2016-12-16T14:52:24Z</time>
      </trkpt>
      <trkpt lat="45.17914" lon="5.58573">
        <ele>1647.4000244141</ele>
        <time>2016-12-16T14:52:25Z</time>
      </trkpt>
      <trkpt lat="45.17912" lon="5.58572">
        <ele>1647.8000488281</ele>
        <time>2016-12-16T14:52:26Z</time>
      </trkpt>
      <trkpt lat="45.17911" lon="5.58571">
        <ele>1648.1999511719</ele>
        <time>2016-12-16T14:52:27Z</time>
      </trkpt>
      <trkpt lat="45.17908" lon="5.58572">
        <ele>1648.5999755859</ele>
        <time>2016-12-16T14:52:28Z</time>
      </trkpt>
      <trkpt lat="45.17903" lon="5.58574">
        <ele>1648.5999755859</ele>
        <time>2016-12-16T14:52:31Z</time>
      </trkpt>
      <trkpt lat="45.179" lon="5.58574">
        <ele>1648.5999755859</ele>
        <time>2016-12-16T14:52:33Z</time>
      </trkpt>
      <trkpt lat="45.17898" lon="5.58574">
        <ele>1648.5999755859</ele>
        <time>2016-12-16T14:52:34Z</time>
      </trkpt>
      <trkpt lat="45.17895" lon="5.58575">
        <ele>1649</ele>
        <time>2016-12-16T14:52:36Z</time>
      </trkpt>
      <trkpt lat="45.17893" lon="5.58574">
        <ele>1649.4000244141</ele>
        <time>2016-12-16T14:52:37Z</time>
      </trkpt>
      <trkpt lat="45.1789" lon="5.58574">
        <ele>1650</ele>
        <time>2016-12-16T14:52:38Z</time>
      </trkpt>
      <trkpt lat="45.17888" lon="5.58573">
        <ele>1650.4000244141</ele>
        <time>2016-12-16T14:52:39Z</time>
      </trkpt>
      <trkpt lat="45.17886" lon="5.58573">
        <ele>1650.8000488281</ele>
        <time>2016-12-16T14:52:40Z</time>
      </trkpt>
      <trkpt lat="45.17883" lon="5.58571">
        <ele>1650.8000488281</ele>
        <time>2016-12-16T14:52:43Z</time>
      </trkpt>
      <trkpt lat="45.17878" lon="5.58571">
        <ele>1650.8000488281</ele>
        <time>2016-12-16T14:52:46Z</time>
      </trkpt>
      <trkpt lat="45.17875" lon="5.58572">
        <ele>1650.8000488281</ele>
        <time>2016-12-16T14:52:48Z</time>
      </trkpt>
      <trkpt lat="45.17874" lon="5.58573">
        <ele>1650.8000488281</ele>
        <time>2016-12-16T14:52:49Z</time>
      </trkpt>
      <trkpt lat="45.17872" lon="5.58577">
        <ele>1650.8000488281</ele>
        <time>2016-12-16T14:52:51Z</time>
      </trkpt>
      <trkpt lat="45.1787" lon="5.58579">
        <ele>1651.1999511719</ele>
        <time>2016-12-16T14:52:52Z</time>
      </trkpt>
      <trkpt lat="45.1787" lon="5.58581">
        <ele>1651.5999755859</ele>
        <time>2016-12-16T14:52:53Z</time>
      </trkpt>
      <trkpt lat="45.1787" lon="5.58584">
        <ele>1652.1999511719</ele>
        <time>2016-12-16T14:52:54Z</time>
      </trkpt>
      <trkpt lat="45.17868" lon="5.58585">
        <ele>1652.5999755859</ele>
        <time>2016-12-16T14:52:55Z</time>
      </trkpt>
      <trkpt lat="45.17866" lon="5.58586">
        <ele>1653</ele>
        <time>2016-12-16T14:52:56Z</time>
      </trkpt>
      <trkpt lat="45.17862" lon="5.58587">
        <ele>1653</ele>
        <time>2016-12-16T14:52:58Z</time>
      </trkpt>
      <trkpt lat="45.17858" lon="5.58592">
        <ele>1653.4000244141</ele>
        <time>2016-12-16T14:53:01Z</time>
      </trkpt>
      <trkpt lat="45.17857" lon="5.58593">
        <ele>1653.8000488281</ele>
        <time>2016-12-16T14:53:02Z</time>
      </trkpt>
      <trkpt lat="45.17856" lon="5.58595">
        <ele>1654.1999511719</ele>
        <time>2016-12-16T14:53:03Z</time>
      </trkpt>
      <trkpt lat="45.17855" lon="5.58596">
        <ele>1654.8000488281</ele>
        <time>2016-12-16T14:53:04Z</time>
      </trkpt>
      <trkpt lat="45.17855" lon="5.58597">
        <ele>1655.1999511719</ele>
        <time>2016-12-16T14:53:05Z</time>
      </trkpt>
      <trkpt lat="45.17849" lon="5.58602">
        <ele>1655.1999511719</ele>
        <time>2016-12-16T14:53:09Z</time>
      </trkpt>
      <trkpt lat="45.17847" lon="5.58603">
        <ele>1655.5999755859</ele>
        <time>2016-12-16T14:53:11Z</time>
      </trkpt>
      <trkpt lat="45.17846" lon="5.58605">
        <ele>1656</ele>
        <time>2016-12-16T14:53:12Z</time>
      </trkpt>
      <trkpt lat="45.17845" lon="5.58605">
        <ele>1656.4000244141</ele>
        <time>2016-12-16T14:53:13Z</time>
      </trkpt>
      <trkpt lat="45.17844" lon="5.58606">
        <ele>1656.8000488281</ele>
        <time>2016-12-16T14:53:14Z</time>
      </trkpt>
      <trkpt lat="45.17842" lon="5.58606">
        <ele>1657.1999511719</ele>
        <time>2016-12-16T14:53:15Z</time>
      </trkpt>
      <trkpt lat="45.17834" lon="5.58611">
        <ele>1657.1999511719</ele>
        <time>2016-12-16T14:53:21Z</time>
      </trkpt>
      <trkpt lat="45.17833" lon="5.58611">
        <ele>1657.5999755859</ele>
        <time>2016-12-16T14:53:22Z</time>
      </trkpt>
      <trkpt lat="45.17831" lon="5.58612">
        <ele>1658</ele>
        <time>2016-12-16T14:53:23Z</time>
      </trkpt>
      <trkpt lat="45.1783" lon="5.58613">
        <ele>1658.8000488281</ele>
        <time>2016-12-16T14:53:24Z</time>
      </trkpt>
      <trkpt lat="45.17829" lon="5.58613">
        <ele>1659.1999511719</ele>
        <time>2016-12-16T14:53:25Z</time>
      </trkpt>
      <trkpt lat="45.17828" lon="5.58614">
        <ele>1659.1999511719</ele>
        <time>2016-12-16T14:53:26Z</time>
      </trkpt>
      <trkpt lat="45.17827" lon="5.58614">
        <ele>1659.1999511719</ele>
        <time>2016-12-16T14:53:27Z</time>
      </trkpt>
      <trkpt lat="45.17825" lon="5.58614">
        <ele>1659.1999511719</ele>
        <time>2016-12-16T14:53:28Z</time>
      </trkpt>
      <trkpt lat="45.17819" lon="5.58614">
        <ele>1659.1999511719</ele>
        <time>2016-12-16T14:53:32Z</time>
      </trkpt>
      <trkpt lat="45.17816" lon="5.58615">
        <ele>1659.1999511719</ele>
        <time>2016-12-16T14:53:34Z</time>
      </trkpt>
      <trkpt lat="45.17813" lon="5.58617">
        <ele>1659.5999755859</ele>
        <time>2016-12-16T14:53:36Z</time>
      </trkpt>
      <trkpt lat="45.17812" lon="5.58618">
        <ele>1660</ele>
        <time>2016-12-16T14:53:37Z</time>
      </trkpt>
      <trkpt lat="45.1781" lon="5.58619">
        <ele>1660.5999755859</ele>
        <time>2016-12-16T14:53:38Z</time>
      </trkpt>
      <trkpt lat="45.17808" lon="5.5862">
        <ele>1661</ele>
        <time>2016-12-16T14:53:39Z</time>
      </trkpt>
      <trkpt lat="45.17807" lon="5.58621">
        <ele>1661.4000244141</ele>
        <time>2016-12-16T14:53:40Z</time>
      </trkpt>
      <trkpt lat="45.178" lon="5.58625">
        <ele>1661.4000244141</ele>
        <time>2016-12-16T14:53:45Z</time>
      </trkpt>
      <trkpt lat="45.17791" lon="5.5863">
        <ele>1662.1999511719</ele>
        <time>2016-12-16T14:53:50Z</time>
      </trkpt>
      <trkpt lat="45.17789" lon="5.58631">
        <ele>1662.5999755859</ele>
        <time>2016-12-16T14:53:51Z</time>
      </trkpt>
      <trkpt lat="45.17787" lon="5.58632">
        <ele>1663</ele>
        <time>2016-12-16T14:53:52Z</time>
      </trkpt>
      <trkpt lat="45.17787" lon="5.58632">
        <ele>1663.4000244141</ele>
        <time>2016-12-16T14:53:53Z</time>
      </trkpt>
      <trkpt lat="45.17783" lon="5.58635">
        <ele>1663.4000244141</ele>
        <time>2016-12-16T14:53:57Z</time>
      </trkpt>
      <trkpt lat="45.17781" lon="5.58635">
        <ele>1663.4000244141</ele>
        <time>2016-12-16T14:53:58Z</time>
      </trkpt>
      <trkpt lat="45.17776" lon="5.58639">
        <ele>1663.4000244141</ele>
        <time>2016-12-16T14:54:02Z</time>
      </trkpt>
      <trkpt lat="45.17768" lon="5.58636">
        <ele>1663.4000244141</ele>
        <time>2016-12-16T14:54:07Z</time>
      </trkpt>
      <trkpt lat="45.17766" lon="5.58636">
        <ele>1663.4000244141</ele>
        <time>2016-12-16T14:54:08Z</time>
      </trkpt>
      <trkpt lat="45.17764" lon="5.58636">
        <ele>1663.8000488281</ele>
        <time>2016-12-16T14:54:09Z</time>
      </trkpt>
      <trkpt lat="45.17761" lon="5.58636">
        <ele>1664.1999511719</ele>
        <time>2016-12-16T14:54:10Z</time>
      </trkpt>
      <trkpt lat="45.17759" lon="5.58637">
        <ele>1664.5999755859</ele>
        <time>2016-12-16T14:54:11Z</time>
      </trkpt>
      <trkpt lat="45.17757" lon="5.58637">
        <ele>1665</ele>
        <time>2016-12-16T14:54:12Z</time>
      </trkpt>
      <trkpt lat="45.17755" lon="5.58637">
        <ele>1665.4000244141</ele>
        <time>2016-12-16T14:54:13Z</time>
      </trkpt>
      <trkpt lat="45.17744" lon="5.58637">
        <ele>1665.4000244141</ele>
        <time>2016-12-16T14:54:18Z</time>
      </trkpt>
      <trkpt lat="45.17734" lon="5.58642">
        <ele>1665.4000244141</ele>
        <time>2016-12-16T14:54:23Z</time>
      </trkpt>
      <trkpt lat="45.1772" lon="5.58644">
        <ele>1665.4000244141</ele>
        <time>2016-12-16T14:54:29Z</time>
      </trkpt>
      <trkpt lat="45.17709" lon="5.5865">
        <ele>1665.4000244141</ele>
        <time>2016-12-16T14:54:33Z</time>
      </trkpt>
      <trkpt lat="45.17707" lon="5.58649">
        <ele>1665.8000488281</ele>
        <time>2016-12-16T14:54:34Z</time>
      </trkpt>
      <trkpt lat="45.17705" lon="5.58649">
        <ele>1666.4000244141</ele>
        <time>2016-12-16T14:54:35Z</time>
      </trkpt>
      <trkpt lat="45.17703" lon="5.58648">
        <ele>1666.8000488281</ele>
        <time>2016-12-16T14:54:36Z</time>
      </trkpt>
      <trkpt lat="45.17701" lon="5.58649">
        <ele>1667.1999511719</ele>
        <time>2016-12-16T14:54:37Z</time>
      </trkpt>
      <trkpt lat="45.17699" lon="5.58649">
        <ele>1667.5999755859</ele>
        <time>2016-12-16T14:54:38Z</time>
      </trkpt>
      <trkpt lat="45.17692" lon="5.5865">
        <ele>1667.5999755859</ele>
        <time>2016-12-16T14:54:44Z</time>
      </trkpt>
      <trkpt lat="45.17687" lon="5.58649">
        <ele>1667.5999755859</ele>
        <time>2016-12-16T14:54:47Z</time>
      </trkpt>
      <trkpt lat="45.17686" lon="5.5865">
        <ele>1668</ele>
        <time>2016-12-16T14:54:48Z</time>
      </trkpt>
      <trkpt lat="45.17685" lon="5.58649">
        <ele>1668.4000244141</ele>
        <time>2016-12-16T14:54:49Z</time>
      </trkpt>
      <trkpt lat="45.17684" lon="5.58649">
        <ele>1668.8000488281</ele>
        <time>2016-12-16T14:54:50Z</time>
      </trkpt>
      <trkpt lat="45.17683" lon="5.58648">
        <ele>1669.1999511719</ele>
        <time>2016-12-16T14:54:51Z</time>
      </trkpt>
      <trkpt lat="45.17682" lon="5.58647">
        <ele>1669.8000488281</ele>
        <time>2016-12-16T14:54:52Z</time>
      </trkpt>
      <trkpt lat="45.17681" lon="5.58646">
        <ele>1669.8000488281</ele>
        <time>2016-12-16T14:54:55Z</time>
      </trkpt>
      <trkpt lat="45.17679" lon="5.58645">
        <ele>1669.8000488281</ele>
        <time>2016-12-16T14:54:56Z</time>
      </trkpt>
      <trkpt lat="45.17673" lon="5.58645">
        <ele>1670.1999511719</ele>
        <time>2016-12-16T14:54:59Z</time>
      </trkpt>
      <trkpt lat="45.17671" lon="5.58646">
        <ele>1670.5999755859</ele>
        <time>2016-12-16T14:55:00Z</time>
      </trkpt>
      <trkpt lat="45.17669" lon="5.58645">
        <ele>1671</ele>
        <time>2016-12-16T14:55:01Z</time>
      </trkpt>
      <trkpt lat="45.17668" lon="5.58644">
        <ele>1671.4000244141</ele>
        <time>2016-12-16T14:55:02Z</time>
      </trkpt>
      <trkpt lat="45.17667" lon="5.58643">
        <ele>1671.8000488281</ele>
        <time>2016-12-16T14:55:03Z</time>
      </trkpt>
      <trkpt lat="45.17666" lon="5.58642">
        <ele>1671.8000488281</ele>
        <time>2016-12-16T14:55:04Z</time>
      </trkpt>
      <trkpt lat="45.1766" lon="5.58637">
        <ele>1671.8000488281</ele>
        <time>2016-12-16T14:55:07Z</time>
      </trkpt>
      <trkpt lat="45.17658" lon="5.58637">
        <ele>1672.1999511719</ele>
        <time>2016-12-16T14:55:08Z</time>
      </trkpt>
      <trkpt lat="45.17655" lon="5.58636">
        <ele>1672.5999755859</ele>
        <time>2016-12-16T14:55:09Z</time>
      </trkpt>
      <trkpt lat="45.17653" lon="5.58636">
        <ele>1673</ele>
        <time>2016-12-16T14:55:10Z</time>
      </trkpt>
      <trkpt lat="45.17652" lon="5.58634">
        <ele>1673.4000244141</ele>
        <time>2016-12-16T14:55:11Z</time>
      </trkpt>
      <trkpt lat="45.17651" lon="5.58635">
        <ele>1673.8000488281</ele>
        <time>2016-12-16T14:55:12Z</time>
      </trkpt>
      <trkpt lat="45.17648" lon="5.58634">
        <ele>1673.8000488281</ele>
        <time>2016-12-16T14:55:14Z</time>
      </trkpt>
      <trkpt lat="45.17647" lon="5.58633">
        <ele>1673.8000488281</ele>
        <time>2016-12-16T14:55:15Z</time>
      </trkpt>
      <trkpt lat="45.17644" lon="5.58631">
        <ele>1674.1999511719</ele>
        <time>2016-12-16T14:55:17Z</time>
      </trkpt>
      <trkpt lat="45.17643" lon="5.58631">
        <ele>1674.8000488281</ele>
        <time>2016-12-16T14:55:18Z</time>
      </trkpt>
      <trkpt lat="45.17642" lon="5.58629">
        <ele>1675.1999511719</ele>
        <time>2016-12-16T14:55:19Z</time>
      </trkpt>
      <trkpt lat="45.1764" lon="5.58628">
        <ele>1675.5999755859</ele>
        <time>2016-12-16T14:55:20Z</time>
      </trkpt>
      <trkpt lat="45.17639" lon="5.58628">
        <ele>1676</ele>
        <time>2016-12-16T14:55:21Z</time>
      </trkpt>
      <trkpt lat="45.17631" lon="5.58627">
        <ele>1676</ele>
        <time>2016-12-16T14:55:25Z</time>
      </trkpt>
      <trkpt lat="45.17626" lon="5.58624">
        <ele>1677</ele>
        <time>2016-12-16T14:55:28Z</time>
      </trkpt>
      <trkpt lat="45.17625" lon="5.58623">
        <ele>1677.4000244141</ele>
        <time>2016-12-16T14:55:29Z</time>
      </trkpt>
      <trkpt lat="45.17624" lon="5.58622">
        <ele>1677.8000488281</ele>
        <time>2016-12-16T14:55:30Z</time>
      </trkpt>
      <trkpt lat="45.17622" lon="5.58621">
        <ele>1678.1999511719</ele>
        <time>2016-12-16T14:55:31Z</time>
      </trkpt>
      <trkpt lat="45.17614" lon="5.58617">
        <ele>1678.1999511719</ele>
        <time>2016-12-16T14:55:35Z</time>
      </trkpt>
      <trkpt lat="45.17612" lon="5.58615">
        <ele>1678.1999511719</ele>
        <time>2016-12-16T14:55:36Z</time>
      </trkpt>
      <trkpt lat="45.17605" lon="5.58608">
        <ele>1678.1999511719</ele>
        <time>2016-12-16T14:55:40Z</time>
      </trkpt>
      <trkpt lat="45.17601" lon="5.58604">
        <ele>1678.1999511719</ele>
        <time>2016-12-16T14:55:42Z</time>
      </trkpt>
      <trkpt lat="45.17593" lon="5.58598">
        <ele>1678.1999511719</ele>
        <time>2016-12-16T14:55:45Z</time>
      </trkpt>
      <trkpt lat="45.17579" lon="5.58592">
        <ele>1678.1999511719</ele>
        <time>2016-12-16T14:55:49Z</time>
      </trkpt>
      <trkpt lat="45.17554" lon="5.58582">
        <ele>1678.1999511719</ele>
        <time>2016-12-16T14:55:55Z</time>
      </trkpt>
      <trkpt lat="45.17535" lon="5.58577">
        <ele>1678.1999511719</ele>
        <time>2016-12-16T14:56:00Z</time>
      </trkpt>
      <trkpt lat="45.17524" lon="5.58562">
        <ele>1678.1999511719</ele>
        <time>2016-12-16T14:56:04Z</time>
      </trkpt>
      <trkpt lat="45.17502" lon="5.58544">
        <ele>1678.1999511719</ele>
        <time>2016-12-16T14:56:09Z</time>
      </trkpt>
      <trkpt lat="45.17497" lon="5.58546">
        <ele>1677.8000488281</ele>
        <time>2016-12-16T14:56:10Z</time>
      </trkpt>
      <trkpt lat="45.17491" lon="5.58546">
        <ele>1677.1999511719</ele>
        <time>2016-12-16T14:56:11Z</time>
      </trkpt>
      <trkpt lat="45.17486" lon="5.58546">
        <ele>1676.8000488281</ele>
        <time>2016-12-16T14:56:12Z</time>
      </trkpt>
      <trkpt lat="45.17481" lon="5.58546">
        <ele>1676.4000244141</ele>
        <time>2016-12-16T14:56:13Z</time>
      </trkpt>
      <trkpt lat="45.17477" lon="5.58547">
        <ele>1675.8000488281</ele>
        <time>2016-12-16T14:56:14Z</time>
      </trkpt>
      <trkpt lat="45.1747" lon="5.58548">
        <ele>1675.8000488281</ele>
        <time>2016-12-16T14:56:16Z</time>
      </trkpt>
      <trkpt lat="45.17449" lon="5.5854">
        <ele>1675.8000488281</ele>
        <time>2016-12-16T14:56:21Z</time>
      </trkpt>
      <trkpt lat="45.17441" lon="5.58532">
        <ele>1675.4000244141</ele>
        <time>2016-12-16T14:56:23Z</time>
      </trkpt>
      <trkpt lat="45.17437" lon="5.58529">
        <ele>1675</ele>
        <time>2016-12-16T14:56:24Z</time>
      </trkpt>
      <trkpt lat="45.17431" lon="5.58528">
        <ele>1674.5999755859</ele>
        <time>2016-12-16T14:56:25Z</time>
      </trkpt>
      <trkpt lat="45.17426" lon="5.58527">
        <ele>1674.1999511719</ele>
        <time>2016-12-16T14:56:26Z</time>
      </trkpt>
      <trkpt lat="45.17424" lon="5.58525">
        <ele>1673.8000488281</ele>
        <time>2016-12-16T14:56:27Z</time>
      </trkpt>
      <trkpt lat="45.17421" lon="5.58523">
        <ele>1673.8000488281</ele>
        <time>2016-12-16T14:56:29Z</time>
      </trkpt>
      <trkpt lat="45.17421" lon="5.58523">
        <ele>1673.4000244141</ele>
        <time>2016-12-16T14:56:30Z</time>
      </trkpt>
      <trkpt lat="45.17421" lon="5.58523">
        <ele>1671.8000488281</ele>
        <time>2016-12-16T14:56:34Z</time>
      </trkpt>
      <trkpt lat="45.1742" lon="5.58523">
        <ele>1671.8000488281</ele>
        <time>2016-12-16T14:57:19Z</time>
      </trkpt>
      <trkpt lat="45.1742" lon="5.58523">
        <ele>1671.8000488281</ele>
        <time>2016-12-16T14:57:34Z</time>
      </trkpt>
      <trkpt lat="45.17418" lon="5.5852">
        <ele>1671.8000488281</ele>
        <time>2016-12-16T14:57:46Z</time>
      </trkpt>
      <trkpt lat="45.1741" lon="5.5851">
        <ele>1671.8000488281</ele>
        <time>2016-12-16T14:57:49Z</time>
      </trkpt>
      <trkpt lat="45.17402" lon="5.58508">
        <ele>1671.8000488281</ele>
        <time>2016-12-16T14:57:51Z</time>
      </trkpt>
      <trkpt lat="45.17397" lon="5.58506">
        <ele>1671.8000488281</ele>
        <time>2016-12-16T14:57:52Z</time>
      </trkpt>
      <trkpt lat="45.17388" lon="5.58496">
        <ele>1671.8000488281</ele>
        <time>2016-12-16T14:57:54Z</time>
      </trkpt>
      <trkpt lat="45.17383" lon="5.58491">
        <ele>1671.1999511719</ele>
        <time>2016-12-16T14:57:55Z</time>
      </trkpt>
      <trkpt lat="45.17379" lon="5.58488">
        <ele>1670.1999511719</ele>
        <time>2016-12-16T14:57:56Z</time>
      </trkpt>
      <trkpt lat="45.17376" lon="5.58484">
        <ele>1669.5999755859</ele>
        <time>2016-12-16T14:57:57Z</time>
      </trkpt>
      <trkpt lat="45.17373" lon="5.5848">
        <ele>1669.1999511719</ele>
        <time>2016-12-16T14:57:58Z</time>
      </trkpt>
      <trkpt lat="45.1737" lon="5.58475">
        <ele>1668.8000488281</ele>
        <time>2016-12-16T14:57:59Z</time>
      </trkpt>
      <trkpt lat="45.17368" lon="5.58472">
        <ele>1668.4000244141</ele>
        <time>2016-12-16T14:58:00Z</time>
      </trkpt>
      <trkpt lat="45.17364" lon="5.58468">
        <ele>1667.5999755859</ele>
        <time>2016-12-16T14:58:01Z</time>
      </trkpt>
      <trkpt lat="45.17362" lon="5.58466">
        <ele>1667</ele>
        <time>2016-12-16T14:58:02Z</time>
      </trkpt>
      <trkpt lat="45.17359" lon="5.58466">
        <ele>1666.4000244141</ele>
        <time>2016-12-16T14:58:03Z</time>
      </trkpt>
      <trkpt lat="45.17356" lon="5.58467">
        <ele>1665.5999755859</ele>
        <time>2016-12-16T14:58:04Z</time>
      </trkpt>
      <trkpt lat="45.17353" lon="5.58468">
        <ele>1665</ele>
        <time>2016-12-16T14:58:05Z</time>
      </trkpt>
      <trkpt lat="45.1735" lon="5.58468">
        <ele>1664</ele>
        <time>2016-12-16T14:58:06Z</time>
      </trkpt>
      <trkpt lat="45.17347" lon="5.58467">
        <ele>1663.1999511719</ele>
        <time>2016-12-16T14:58:07Z</time>
      </trkpt>
      <trkpt lat="45.17343" lon="5.58465">
        <ele>1662.1999511719</ele>
        <time>2016-12-16T14:58:08Z</time>
      </trkpt>
      <trkpt lat="45.1734" lon="5.58464">
        <ele>1661.4000244141</ele>
        <time>2016-12-16T14:58:09Z</time>
      </trkpt>
      <trkpt lat="45.17337" lon="5.58462">
        <ele>1660.8000488281</ele>
        <time>2016-12-16T14:58:10Z</time>
      </trkpt>
      <trkpt lat="45.17334" lon="5.5846">
        <ele>1660.1999511719</ele>
        <time>2016-12-16T14:58:11Z</time>
      </trkpt>
      <trkpt lat="45.17331" lon="5.58458">
        <ele>1659.4000244141</ele>
        <time>2016-12-16T14:58:12Z</time>
      </trkpt>
      <trkpt lat="45.17328" lon="5.58457">
        <ele>1658.8000488281</ele>
        <time>2016-12-16T14:58:13Z</time>
      </trkpt>
      <trkpt lat="45.17325" lon="5.58455">
        <ele>1658.1999511719</ele>
        <time>2016-12-16T14:58:14Z</time>
      </trkpt>
      <trkpt lat="45.17321" lon="5.58454">
        <ele>1657.5999755859</ele>
        <time>2016-12-16T14:58:15Z</time>
      </trkpt>
      <trkpt lat="45.17319" lon="5.58451">
        <ele>1657</ele>
        <time>2016-12-16T14:58:16Z</time>
      </trkpt>
      <trkpt lat="45.17316" lon="5.58448">
        <ele>1656.1999511719</ele>
        <time>2016-12-16T14:58:17Z</time>
      </trkpt>
      <trkpt lat="45.17315" lon="5.58444">
        <ele>1655.5999755859</ele>
        <time>2016-12-16T14:58:18Z</time>
      </trkpt>
      <trkpt lat="45.17312" lon="5.58439">
        <ele>1654.8000488281</ele>
        <time>2016-12-16T14:58:19Z</time>
      </trkpt>
      <trkpt lat="45.17311" lon="5.58436">
        <ele>1654</ele>
        <time>2016-12-16T14:58:20Z</time>
      </trkpt>
      <trkpt lat="45.17309" lon="5.58431">
        <ele>1652.5999755859</ele>
        <time>2016-12-16T14:58:21Z</time>
      </trkpt>
      <trkpt lat="45.17307" lon="5.58427">
        <ele>1651.8000488281</ele>
        <time>2016-12-16T14:58:22Z</time>
      </trkpt>
      <trkpt lat="45.17306" lon="5.58423">
        <ele>1651.1999511719</ele>
        <time>2016-12-16T14:58:23Z</time>
      </trkpt>
      <trkpt lat="45.17303" lon="5.58419">
        <ele>1650.5999755859</ele>
        <time>2016-12-16T14:58:24Z</time>
      </trkpt>
      <trkpt lat="45.173" lon="5.58415">
        <ele>1649.8000488281</ele>
        <time>2016-12-16T14:58:25Z</time>
      </trkpt>
      <trkpt lat="45.17297" lon="5.58412">
        <ele>1649.1999511719</ele>
        <time>2016-12-16T14:58:26Z</time>
      </trkpt>
      <trkpt lat="45.17294" lon="5.58409">
        <ele>1648.5999755859</ele>
        <time>2016-12-16T14:58:27Z</time>
      </trkpt>
      <trkpt lat="45.17293" lon="5.58408">
        <ele>1647.8000488281</ele>
        <time>2016-12-16T14:58:28Z</time>
      </trkpt>
      <trkpt lat="45.17292" lon="5.58407">
        <ele>1647.1999511719</ele>
        <time>2016-12-16T14:58:29Z</time>
      </trkpt>
      <trkpt lat="45.17291" lon="5.58406">
        <ele>1646.5999755859</ele>
        <time>2016-12-16T14:58:30Z</time>
      </trkpt>
      <trkpt lat="45.17291" lon="5.58405">
        <ele>1646</ele>
        <time>2016-12-16T14:58:34Z</time>
      </trkpt>
      <trkpt lat="45.17291" lon="5.58404">
        <ele>1646</ele>
        <time>2016-12-16T14:58:38Z</time>
      </trkpt>
      <trkpt lat="45.17292" lon="5.584">
        <ele>1646</ele>
        <time>2016-12-16T14:58:40Z</time>
      </trkpt>
      <trkpt lat="45.17294" lon="5.58395">
        <ele>1646</ele>
        <time>2016-12-16T14:58:42Z</time>
      </trkpt>
      <trkpt lat="45.17295" lon="5.58394">
        <ele>1646</ele>
        <time>2016-12-16T14:58:44Z</time>
      </trkpt>
      <trkpt lat="45.17295" lon="5.58394">
        <ele>1644.8000488281</ele>
        <time>2016-12-16T14:59:00Z</time>
      </trkpt>
      <trkpt lat="45.17295" lon="5.58394">
        <ele>1643.8000488281</ele>
        <time>2016-12-16T14:59:20Z</time>
      </trkpt>
      <trkpt lat="45.17296" lon="5.58392">
        <ele>1643.8000488281</ele>
        <time>2016-12-16T14:59:25Z</time>
      </trkpt>
      <trkpt lat="45.17297" lon="5.58391">
        <ele>1643.8000488281</ele>
        <time>2016-12-16T14:59:26Z</time>
      </trkpt>
      <trkpt lat="45.17303" lon="5.58383">
        <ele>1643.8000488281</ele>
        <time>2016-12-16T14:59:30Z</time>
      </trkpt>
      <trkpt lat="45.17317" lon="5.58369">
        <ele>1643.8000488281</ele>
        <time>2016-12-16T14:59:36Z</time>
      </trkpt>
      <trkpt lat="45.17338" lon="5.58345">
        <ele>1643.8000488281</ele>
        <time>2016-12-16T14:59:43Z</time>
      </trkpt>
      <trkpt lat="45.17352" lon="5.5833">
        <ele>1644.1999511719</ele>
        <time>2016-12-16T14:59:48Z</time>
      </trkpt>
      <trkpt lat="45.17355" lon="5.58328">
        <ele>1644.5999755859</ele>
        <time>2016-12-16T14:59:49Z</time>
      </trkpt>
      <trkpt lat="45.17357" lon="5.58325">
        <ele>1645</ele>
        <time>2016-12-16T14:59:50Z</time>
      </trkpt>
      <trkpt lat="45.17359" lon="5.58322">
        <ele>1645.5999755859</ele>
        <time>2016-12-16T14:59:51Z</time>
      </trkpt>
      <trkpt lat="45.1736" lon="5.58319">
        <ele>1646</ele>
        <time>2016-12-16T14:59:52Z</time>
      </trkpt>
      <trkpt lat="45.17363" lon="5.58313">
        <ele>1646</ele>
        <time>2016-12-16T14:59:54Z</time>
      </trkpt>
      <trkpt lat="45.17377" lon="5.5829">
        <ele>1646</ele>
        <time>2016-12-16T14:59:58Z</time>
      </trkpt>
      <trkpt lat="45.17384" lon="5.58278">
        <ele>1645.5999755859</ele>
        <time>2016-12-16T15:00:00Z</time>
      </trkpt>
      <trkpt lat="45.17389" lon="5.58272">
        <ele>1644.5999755859</ele>
        <time>2016-12-16T15:00:01Z</time>
      </trkpt>
      <trkpt lat="45.17392" lon="5.58266">
        <ele>1644.1999511719</ele>
        <time>2016-12-16T15:00:02Z</time>
      </trkpt>
      <trkpt lat="45.17396" lon="5.58259">
        <ele>1643.8000488281</ele>
        <time>2016-12-16T15:00:03Z</time>
      </trkpt>
      <trkpt lat="45.17404" lon="5.58244">
        <ele>1643.1999511719</ele>
        <time>2016-12-16T15:00:05Z</time>
      </trkpt>
      <trkpt lat="45.17408" lon="5.58237">
        <ele>1642.5999755859</ele>
        <time>2016-12-16T15:00:06Z</time>
      </trkpt>
      <trkpt lat="45.17411" lon="5.5823">
        <ele>1641.8000488281</ele>
        <time>2016-12-16T15:00:07Z</time>
      </trkpt>
      <trkpt lat="45.17414" lon="5.58223">
        <ele>1641</ele>
        <time>2016-12-16T15:00:08Z</time>
      </trkpt>
      <trkpt lat="45.17417" lon="5.58215">
        <ele>1640.1999511719</ele>
        <time>2016-12-16T15:00:09Z</time>
      </trkpt>
      <trkpt lat="45.17421" lon="5.58207">
        <ele>1639.4000244141</ele>
        <time>2016-12-16T15:00:10Z</time>
      </trkpt>
      <trkpt lat="45.17424" lon="5.58199">
        <ele>1638.5999755859</ele>
        <time>2016-12-16T15:00:11Z</time>
      </trkpt>
      <trkpt lat="45.17428" lon="5.58193">
        <ele>1637.5999755859</ele>
        <time>2016-12-16T15:00:12Z</time>
      </trkpt>
      <trkpt lat="45.1743" lon="5.58186">
        <ele>1636.4000244141</ele>
        <time>2016-12-16T15:00:13Z</time>
      </trkpt>
      <trkpt lat="45.17433" lon="5.58178">
        <ele>1635.4000244141</ele>
        <time>2016-12-16T15:00:14Z</time>
      </trkpt>
      <trkpt lat="45.17437" lon="5.5817">
        <ele>1634.4000244141</ele>
        <time>2016-12-16T15:00:15Z</time>
      </trkpt>
      <trkpt lat="45.1744" lon="5.58162">
        <ele>1633.1999511719</ele>
        <time>2016-12-16T15:00:16Z</time>
      </trkpt>
      <trkpt lat="45.17444" lon="5.58155">
        <ele>1632</ele>
        <time>2016-12-16T15:00:17Z</time>
      </trkpt>
      <trkpt lat="45.17448" lon="5.58148">
        <ele>1630.8000488281</ele>
        <time>2016-12-16T15:00:18Z</time>
      </trkpt>
      <trkpt lat="45.17453" lon="5.58141">
        <ele>1629.8000488281</ele>
        <time>2016-12-16T15:00:19Z</time>
      </trkpt>
      <trkpt lat="45.17457" lon="5.58134">
        <ele>1629</ele>
        <time>2016-12-16T15:00:20Z</time>
      </trkpt>
      <trkpt lat="45.1746" lon="5.58128">
        <ele>1628</ele>
        <time>2016-12-16T15:00:21Z</time>
      </trkpt>
      <trkpt lat="45.17464" lon="5.58122">
        <ele>1627.1999511719</ele>
        <time>2016-12-16T15:00:22Z</time>
      </trkpt>
      <trkpt lat="45.17467" lon="5.58116">
        <ele>1626.1999511719</ele>
        <time>2016-12-16T15:00:23Z</time>
      </trkpt>
      <trkpt lat="45.1747" lon="5.58111">
        <ele>1625.4000244141</ele>
        <time>2016-12-16T15:00:24Z</time>
      </trkpt>
      <trkpt lat="45.17474" lon="5.58106">
        <ele>1623.8000488281</ele>
        <time>2016-12-16T15:00:25Z</time>
      </trkpt>
      <trkpt lat="45.17478" lon="5.58101">
        <ele>1622.8000488281</ele>
        <time>2016-12-16T15:00:26Z</time>
      </trkpt>
      <trkpt lat="45.17482" lon="5.58096">
        <ele>1622</ele>
        <time>2016-12-16T15:00:27Z</time>
      </trkpt>
      <trkpt lat="45.17487" lon="5.58092">
        <ele>1621</ele>
        <time>2016-12-16T15:00:28Z</time>
      </trkpt>
      <trkpt lat="45.17491" lon="5.5809">
        <ele>1620.1999511719</ele>
        <time>2016-12-16T15:00:29Z</time>
      </trkpt>
      <trkpt lat="45.17495" lon="5.58089">
        <ele>1619.4000244141</ele>
        <time>2016-12-16T15:00:30Z</time>
      </trkpt>
      <trkpt lat="45.17498" lon="5.58088">
        <ele>1618.4000244141</ele>
        <time>2016-12-16T15:00:31Z</time>
      </trkpt>
      <trkpt lat="45.175" lon="5.58086">
        <ele>1617.5999755859</ele>
        <time>2016-12-16T15:00:32Z</time>
      </trkpt>
      <trkpt lat="45.17501" lon="5.58083">
        <ele>1616.8000488281</ele>
        <time>2016-12-16T15:00:33Z</time>
      </trkpt>
      <trkpt lat="45.17502" lon="5.58081">
        <ele>1616.4000244141</ele>
        <time>2016-12-16T15:00:34Z</time>
      </trkpt>
      <trkpt lat="45.17503" lon="5.58076">
        <ele>1616</ele>
        <time>2016-12-16T15:00:35Z</time>
      </trkpt>
      <trkpt lat="45.17504" lon="5.58069">
        <ele>1615.5999755859</ele>
        <time>2016-12-16T15:00:36Z</time>
      </trkpt>
      <trkpt lat="45.17506" lon="5.58063">
        <ele>1614.8000488281</ele>
        <time>2016-12-16T15:00:37Z</time>
      </trkpt>
      <trkpt lat="45.17507" lon="5.58056">
        <ele>1614.1999511719</ele>
        <time>2016-12-16T15:00:38Z</time>
      </trkpt>
      <trkpt lat="45.17509" lon="5.58049">
        <ele>1613.1999511719</ele>
        <time>2016-12-16T15:00:39Z</time>
      </trkpt>
      <trkpt lat="45.1751" lon="5.58041">
        <ele>1612.4000244141</ele>
        <time>2016-12-16T15:00:40Z</time>
      </trkpt>
      <trkpt lat="45.17511" lon="5.58034">
        <ele>1611.1999511719</ele>
        <time>2016-12-16T15:00:41Z</time>
      </trkpt>
      <trkpt lat="45.17509" lon="5.58026">
        <ele>1610.1999511719</ele>
        <time>2016-12-16T15:00:42Z</time>
      </trkpt>
      <trkpt lat="45.17506" lon="5.58019">
        <ele>1609</ele>
        <time>2016-12-16T15:00:43Z</time>
      </trkpt>
      <trkpt lat="45.17504" lon="5.58013">
        <ele>1607.8000488281</ele>
        <time>2016-12-16T15:00:44Z</time>
      </trkpt>
      <trkpt lat="45.17503" lon="5.58007">
        <ele>1606.4000244141</ele>
        <time>2016-12-16T15:00:45Z</time>
      </trkpt>
      <trkpt lat="45.17501" lon="5.58001">
        <ele>1605.1999511719</ele>
        <time>2016-12-16T15:00:46Z</time>
      </trkpt>
      <trkpt lat="45.175" lon="5.57993">
        <ele>1604</ele>
        <time>2016-12-16T15:00:47Z</time>
      </trkpt>
      <trkpt lat="45.175" lon="5.57984">
        <ele>1602.8000488281</ele>
        <time>2016-12-16T15:00:48Z</time>
      </trkpt>
      <trkpt lat="45.17499" lon="5.57975">
        <ele>1601.5999755859</ele>
        <time>2016-12-16T15:00:49Z</time>
      </trkpt>
      <trkpt lat="45.17498" lon="5.57968">
        <ele>1599.4000244141</ele>
        <time>2016-12-16T15:00:50Z</time>
      </trkpt>
      <trkpt lat="45.17496" lon="5.57962">
        <ele>1598.1999511719</ele>
        <time>2016-12-16T15:00:51Z</time>
      </trkpt>
      <trkpt lat="45.17494" lon="5.57957">
        <ele>1596.8000488281</ele>
        <time>2016-12-16T15:00:52Z</time>
      </trkpt>
      <trkpt lat="45.17493" lon="5.57953">
        <ele>1595.8000488281</ele>
        <time>2016-12-16T15:00:53Z</time>
      </trkpt>
      <trkpt lat="45.17493" lon="5.57949">
        <ele>1594.5999755859</ele>
        <time>2016-12-16T15:00:54Z</time>
      </trkpt>
      <trkpt lat="45.17492" lon="5.57946">
        <ele>1593.4000244141</ele>
        <time>2016-12-16T15:00:55Z</time>
      </trkpt>
      <trkpt lat="45.17491" lon="5.57941">
        <ele>1592.1999511719</ele>
        <time>2016-12-16T15:00:56Z</time>
      </trkpt>
      <trkpt lat="45.17491" lon="5.57937">
        <ele>1591.4000244141</ele>
        <time>2016-12-16T15:00:57Z</time>
      </trkpt>
      <trkpt lat="45.17491" lon="5.57934">
        <ele>1590.8000488281</ele>
        <time>2016-12-16T15:00:58Z</time>
      </trkpt>
      <trkpt lat="45.17491" lon="5.57932">
        <ele>1590</ele>
        <time>2016-12-16T15:00:59Z</time>
      </trkpt>
      <trkpt lat="45.17491" lon="5.57929">
        <ele>1589.4000244141</ele>
        <time>2016-12-16T15:01:00Z</time>
      </trkpt>
      <trkpt lat="45.17491" lon="5.57926">
        <ele>1588.8000488281</ele>
        <time>2016-12-16T15:01:01Z</time>
      </trkpt>
      <trkpt lat="45.17491" lon="5.57922">
        <ele>1588.1999511719</ele>
        <time>2016-12-16T15:01:02Z</time>
      </trkpt>
      <trkpt lat="45.17492" lon="5.57917">
        <ele>1587.5999755859</ele>
        <time>2016-12-16T15:01:03Z</time>
      </trkpt>
      <trkpt lat="45.17493" lon="5.57912">
        <ele>1587</ele>
        <time>2016-12-16T15:01:04Z</time>
      </trkpt>
      <trkpt lat="45.17494" lon="5.57908">
        <ele>1586.4000244141</ele>
        <time>2016-12-16T15:01:05Z</time>
      </trkpt>
      <trkpt lat="45.17496" lon="5.57903">
        <ele>1585.8000488281</ele>
        <time>2016-12-16T15:01:06Z</time>
      </trkpt>
      <trkpt lat="45.17498" lon="5.57899">
        <ele>1585.1999511719</ele>
        <time>2016-12-16T15:01:07Z</time>
      </trkpt>
      <trkpt lat="45.175" lon="5.57895">
        <ele>1584.8000488281</ele>
        <time>2016-12-16T15:01:08Z</time>
      </trkpt>
      <trkpt lat="45.17502" lon="5.57892">
        <ele>1584.1999511719</ele>
        <time>2016-12-16T15:01:09Z</time>
      </trkpt>
      <trkpt lat="45.17504" lon="5.5789">
        <ele>1583.5999755859</ele>
        <time>2016-12-16T15:01:10Z</time>
      </trkpt>
      <trkpt lat="45.17504" lon="5.57888">
        <ele>1583</ele>
        <time>2016-12-16T15:01:11Z</time>
      </trkpt>
      <trkpt lat="45.17505" lon="5.57887">
        <ele>1582.4000244141</ele>
        <time>2016-12-16T15:01:12Z</time>
      </trkpt>
      <trkpt lat="45.17506" lon="5.57884">
        <ele>1581.8000488281</ele>
        <time>2016-12-16T15:01:13Z</time>
      </trkpt>
      <trkpt lat="45.17506" lon="5.5788">
        <ele>1581.4000244141</ele>
        <time>2016-12-16T15:01:14Z</time>
      </trkpt>
      <trkpt lat="45.17506" lon="5.57877">
        <ele>1580.5999755859</ele>
        <time>2016-12-16T15:01:15Z</time>
      </trkpt>
      <trkpt lat="45.17506" lon="5.57874">
        <ele>1580</ele>
        <time>2016-12-16T15:01:16Z</time>
      </trkpt>
      <trkpt lat="45.17505" lon="5.57872">
        <ele>1579.4000244141</ele>
        <time>2016-12-16T15:01:17Z</time>
      </trkpt>
      <trkpt lat="45.17503" lon="5.5787">
        <ele>1578.8000488281</ele>
        <time>2016-12-16T15:01:18Z</time>
      </trkpt>
      <trkpt lat="45.17501" lon="5.57868">
        <ele>1578.1999511719</ele>
        <time>2016-12-16T15:01:19Z</time>
      </trkpt>
      <trkpt lat="45.17499" lon="5.57866">
        <ele>1577.5999755859</ele>
        <time>2016-12-16T15:01:20Z</time>
      </trkpt>
      <trkpt lat="45.175" lon="5.57863">
        <ele>1577</ele>
        <time>2016-12-16T15:01:21Z</time>
      </trkpt>
      <trkpt lat="45.17502" lon="5.57861">
        <ele>1576.4000244141</ele>
        <time>2016-12-16T15:01:22Z</time>
      </trkpt>
      <trkpt lat="45.17504" lon="5.57858">
        <ele>1575.8000488281</ele>
        <time>2016-12-16T15:01:23Z</time>
      </trkpt>
      <trkpt lat="45.17507" lon="5.57856">
        <ele>1575.1999511719</ele>
        <time>2016-12-16T15:01:24Z</time>
      </trkpt>
      <trkpt lat="45.17509" lon="5.57854">
        <ele>1574.5999755859</ele>
        <time>2016-12-16T15:01:25Z</time>
      </trkpt>
      <trkpt lat="45.17513" lon="5.57846">
        <ele>1574.1999511719</ele>
        <time>2016-12-16T15:01:27Z</time>
      </trkpt>
      <trkpt lat="45.17516" lon="5.57841">
        <ele>1573.8000488281</ele>
        <time>2016-12-16T15:01:28Z</time>
      </trkpt>
      <trkpt lat="45.17519" lon="5.57835">
        <ele>1573.1999511719</ele>
        <time>2016-12-16T15:01:29Z</time>
      </trkpt>
      <trkpt lat="45.17522" lon="5.57831">
        <ele>1572.5999755859</ele>
        <time>2016-12-16T15:01:30Z</time>
      </trkpt>
      <trkpt lat="45.17526" lon="5.57827">
        <ele>1572</ele>
        <time>2016-12-16T15:01:31Z</time>
      </trkpt>
      <trkpt lat="45.17529" lon="5.57823">
        <ele>1571.4000244141</ele>
        <time>2016-12-16T15:01:32Z</time>
      </trkpt>
      <trkpt lat="45.17532" lon="5.5782">
        <ele>1570.8000488281</ele>
        <time>2016-12-16T15:01:33Z</time>
      </trkpt>
      <trkpt lat="45.17535" lon="5.57816">
        <ele>1570</ele>
        <time>2016-12-16T15:01:34Z</time>
      </trkpt>
      <trkpt lat="45.17538" lon="5.57812">
        <ele>1569.4000244141</ele>
        <time>2016-12-16T15:01:35Z</time>
      </trkpt>
      <trkpt lat="45.17541" lon="5.57808">
        <ele>1568.5999755859</ele>
        <time>2016-12-16T15:01:36Z</time>
      </trkpt>
      <trkpt lat="45.17544" lon="5.57806">
        <ele>1567.8000488281</ele>
        <time>2016-12-16T15:01:37Z</time>
      </trkpt>
      <trkpt lat="45.17546" lon="5.57804">
        <ele>1567</ele>
        <time>2016-12-16T15:01:38Z</time>
      </trkpt>
      <trkpt lat="45.17546" lon="5.57802">
        <ele>1565.5999755859</ele>
        <time>2016-12-16T15:01:39Z</time>
      </trkpt>
      <trkpt lat="45.17545" lon="5.578">
        <ele>1564.8000488281</ele>
        <time>2016-12-16T15:01:40Z</time>
      </trkpt>
      <trkpt lat="45.17542" lon="5.57798">
        <ele>1564</ele>
        <time>2016-12-16T15:01:41Z</time>
      </trkpt>
      <trkpt lat="45.17539" lon="5.57796">
        <ele>1563.4000244141</ele>
        <time>2016-12-16T15:01:42Z</time>
      </trkpt>
      <trkpt lat="45.17536" lon="5.57794">
        <ele>1562.5999755859</ele>
        <time>2016-12-16T15:01:43Z</time>
      </trkpt>
      <trkpt lat="45.17527" lon="5.57788">
        <ele>1561.1999511719</ele>
        <time>2016-12-16T15:01:44Z</time>
      </trkpt>
      <trkpt lat="45.17521" lon="5.57785">
        <ele>1560.4000244141</ele>
        <time>2016-12-16T15:01:46Z</time>
      </trkpt>
      <trkpt lat="45.17514" lon="5.57781">
        <ele>1559.8000488281</ele>
        <time>2016-12-16T15:01:47Z</time>
      </trkpt>
      <trkpt lat="45.17508" lon="5.57777">
        <ele>1559</ele>
        <time>2016-12-16T15:01:48Z</time>
      </trkpt>
      <trkpt lat="45.17503" lon="5.57774">
        <ele>1558.1999511719</ele>
        <time>2016-12-16T15:01:49Z</time>
      </trkpt>
      <trkpt lat="45.17499" lon="5.57768">
        <ele>1557.4000244141</ele>
        <time>2016-12-16T15:01:50Z</time>
      </trkpt>
      <trkpt lat="45.17496" lon="5.57764">
        <ele>1556.5999755859</ele>
        <time>2016-12-16T15:01:51Z</time>
      </trkpt>
      <trkpt lat="45.17494" lon="5.57759">
        <ele>1556</ele>
        <time>2016-12-16T15:01:52Z</time>
      </trkpt>
      <trkpt lat="45.17494" lon="5.57755">
        <ele>1555.1999511719</ele>
        <time>2016-12-16T15:01:53Z</time>
      </trkpt>
      <trkpt lat="45.17495" lon="5.57751">
        <ele>1554.5999755859</ele>
        <time>2016-12-16T15:01:54Z</time>
      </trkpt>
      <trkpt lat="45.17499" lon="5.57748">
        <ele>1553.8000488281</ele>
        <time>2016-12-16T15:01:55Z</time>
      </trkpt>
      <trkpt lat="45.17502" lon="5.57745">
        <ele>1553.1999511719</ele>
        <time>2016-12-16T15:01:56Z</time>
      </trkpt>
      <trkpt lat="45.17505" lon="5.57741">
        <ele>1552.4000244141</ele>
        <time>2016-12-16T15:01:57Z</time>
      </trkpt>
      <trkpt lat="45.17509" lon="5.57738">
        <ele>1551.5999755859</ele>
        <time>2016-12-16T15:01:58Z</time>
      </trkpt>
      <trkpt lat="45.17513" lon="5.57735">
        <ele>1551</ele>
        <time>2016-12-16T15:01:59Z</time>
      </trkpt>
      <trkpt lat="45.17518" lon="5.57734">
        <ele>1550.1999511719</ele>
        <time>2016-12-16T15:02:00Z</time>
      </trkpt>
      <trkpt lat="45.17522" lon="5.57733">
        <ele>1549.1999511719</ele>
        <time>2016-12-16T15:02:01Z</time>
      </trkpt>
      <trkpt lat="45.17526" lon="5.57731">
        <ele>1548.4000244141</ele>
        <time>2016-12-16T15:02:02Z</time>
      </trkpt>
      <trkpt lat="45.17529" lon="5.5773">
        <ele>1547.5999755859</ele>
        <time>2016-12-16T15:02:03Z</time>
      </trkpt>
      <trkpt lat="45.17531" lon="5.57729">
        <ele>1546.8000488281</ele>
        <time>2016-12-16T15:02:04Z</time>
      </trkpt>
      <trkpt lat="45.17534" lon="5.57729">
        <ele>1545.1999511719</ele>
        <time>2016-12-16T15:02:05Z</time>
      </trkpt>
      <trkpt lat="45.17536" lon="5.57727">
        <ele>1544.4000244141</ele>
        <time>2016-12-16T15:02:06Z</time>
      </trkpt>
      <trkpt lat="45.17536" lon="5.57725">
        <ele>1544</ele>
        <time>2016-12-16T15:02:07Z</time>
      </trkpt>
      <trkpt lat="45.17535" lon="5.57724">
        <ele>1543.5999755859</ele>
        <time>2016-12-16T15:02:08Z</time>
      </trkpt>
      <trkpt lat="45.17532" lon="5.57721">
        <ele>1543.1999511719</ele>
        <time>2016-12-16T15:02:09Z</time>
      </trkpt>
      <trkpt lat="45.17529" lon="5.57719">
        <ele>1542.5999755859</ele>
        <time>2016-12-16T15:02:10Z</time>
      </trkpt>
      <trkpt lat="45.17525" lon="5.57715">
        <ele>1541.8000488281</ele>
        <time>2016-12-16T15:02:11Z</time>
      </trkpt>
      <trkpt lat="45.17521" lon="5.57711">
        <ele>1541.1999511719</ele>
        <time>2016-12-16T15:02:12Z</time>
      </trkpt>
      <trkpt lat="45.17518" lon="5.57706">
        <ele>1540.4000244141</ele>
        <time>2016-12-16T15:02:13Z</time>
      </trkpt>
      <trkpt lat="45.17514" lon="5.57701">
        <ele>1539.5999755859</ele>
        <time>2016-12-16T15:02:14Z</time>
      </trkpt>
      <trkpt lat="45.17509" lon="5.57694">
        <ele>1538.5999755859</ele>
        <time>2016-12-16T15:02:15Z</time>
      </trkpt>
      <trkpt lat="45.17506" lon="5.57687">
        <ele>1537.8000488281</ele>
        <time>2016-12-16T15:02:16Z</time>
      </trkpt>
      <trkpt lat="45.17501" lon="5.5768">
        <ele>1536.8000488281</ele>
        <time>2016-12-16T15:02:17Z</time>
      </trkpt>
      <trkpt lat="45.17497" lon="5.57674">
        <ele>1535.8000488281</ele>
        <time>2016-12-16T15:02:18Z</time>
      </trkpt>
      <trkpt lat="45.17491" lon="5.57668">
        <ele>1534.5999755859</ele>
        <time>2016-12-16T15:02:19Z</time>
      </trkpt>
      <trkpt lat="45.17486" lon="5.57661">
        <ele>1533.5999755859</ele>
        <time>2016-12-16T15:02:20Z</time>
      </trkpt>
      <trkpt lat="45.17479" lon="5.57655">
        <ele>1532.5999755859</ele>
        <time>2016-12-16T15:02:21Z</time>
      </trkpt>
      <trkpt lat="45.17473" lon="5.57648">
        <ele>1531.8000488281</ele>
        <time>2016-12-16T15:02:22Z</time>
      </trkpt>
      <trkpt lat="45.17469" lon="5.57642">
        <ele>1531</ele>
        <time>2016-12-16T15:02:23Z</time>
      </trkpt>
      <trkpt lat="45.17464" lon="5.57635">
        <ele>1530.1999511719</ele>
        <time>2016-12-16T15:02:24Z</time>
      </trkpt>
      <trkpt lat="45.1746" lon="5.57629">
        <ele>1529.4000244141</ele>
        <time>2016-12-16T15:02:25Z</time>
      </trkpt>
      <trkpt lat="45.17457" lon="5.57624">
        <ele>1528.5999755859</ele>
        <time>2016-12-16T15:02:26Z</time>
      </trkpt>
      <trkpt lat="45.17454" lon="5.57621">
        <ele>1527.5999755859</ele>
        <time>2016-12-16T15:02:27Z</time>
      </trkpt>
      <trkpt lat="45.17451" lon="5.57619">
        <ele>1526.5999755859</ele>
        <time>2016-12-16T15:02:28Z</time>
      </trkpt>
      <trkpt lat="45.17449" lon="5.57619">
        <ele>1524.5999755859</ele>
        <time>2016-12-16T15:02:29Z</time>
      </trkpt>
      <trkpt lat="45.17447" lon="5.57618">
        <ele>1524</ele>
        <time>2016-12-16T15:02:30Z</time>
      </trkpt>
      <trkpt lat="45.17446" lon="5.57618">
        <ele>1523.4000244141</ele>
        <time>2016-12-16T15:02:31Z</time>
      </trkpt>
      <trkpt lat="45.17444" lon="5.5762">
        <ele>1522.8000488281</ele>
        <time>2016-12-16T15:02:32Z</time>
      </trkpt>
      <trkpt lat="45.17443" lon="5.57622">
        <ele>1522.1999511719</ele>
        <time>2016-12-16T15:02:33Z</time>
      </trkpt>
      <trkpt lat="45.17441" lon="5.57624">
        <ele>1521.5999755859</ele>
        <time>2016-12-16T15:02:34Z</time>
      </trkpt>
      <trkpt lat="45.1744" lon="5.57626">
        <ele>1520.8000488281</ele>
        <time>2016-12-16T15:02:35Z</time>
      </trkpt>
      <trkpt lat="45.17439" lon="5.57628">
        <ele>1520.1999511719</ele>
        <time>2016-12-16T15:02:36Z</time>
      </trkpt>
      <trkpt lat="45.17438" lon="5.57629">
        <ele>1519.4000244141</ele>
        <time>2016-12-16T15:02:37Z</time>
      </trkpt>
      <trkpt lat="45.17438" lon="5.57629">
        <ele>1518.8000488281</ele>
        <time>2016-12-16T15:02:38Z</time>
      </trkpt>
      <trkpt lat="45.17437" lon="5.57632">
        <ele>1518.8000488281</ele>
        <time>2016-12-16T15:02:48Z</time>
      </trkpt>
      <trkpt lat="45.17437" lon="5.57636">
        <ele>1518.8000488281</ele>
        <time>2016-12-16T15:02:49Z</time>
      </trkpt>
      <trkpt lat="45.17437" lon="5.57641">
        <ele>1518.4000244141</ele>
        <time>2016-12-16T15:02:50Z</time>
      </trkpt>
      <trkpt lat="45.17437" lon="5.57647">
        <ele>1518</ele>
        <time>2016-12-16T15:02:51Z</time>
      </trkpt>
      <trkpt lat="45.17437" lon="5.57653">
        <ele>1517.4000244141</ele>
        <time>2016-12-16T15:02:52Z</time>
      </trkpt>
      <trkpt lat="45.17436" lon="5.57659">
        <ele>1517</ele>
        <time>2016-12-16T15:02:53Z</time>
      </trkpt>
      <trkpt lat="45.17436" lon="5.57665">
        <ele>1516.5999755859</ele>
        <time>2016-12-16T15:02:54Z</time>
      </trkpt>
      <trkpt lat="45.17437" lon="5.57686">
        <ele>1516.5999755859</ele>
        <time>2016-12-16T15:02:57Z</time>
      </trkpt>
      <trkpt lat="45.17437" lon="5.577">
        <ele>1516.1999511719</ele>
        <time>2016-12-16T15:02:59Z</time>
      </trkpt>
      <trkpt lat="45.17437" lon="5.57708">
        <ele>1515.5999755859</ele>
        <time>2016-12-16T15:03:00Z</time>
      </trkpt>
      <trkpt lat="45.17436" lon="5.57716">
        <ele>1515.1999511719</ele>
        <time>2016-12-16T15:03:01Z</time>
      </trkpt>
      <trkpt lat="45.17435" lon="5.57724">
        <ele>1514.8000488281</ele>
        <time>2016-12-16T15:03:02Z</time>
      </trkpt>
      <trkpt lat="45.17434" lon="5.57732">
        <ele>1514.4000244141</ele>
        <time>2016-12-16T15:03:03Z</time>
      </trkpt>
      <trkpt lat="45.17432" lon="5.57748">
        <ele>1514</ele>
        <time>2016-12-16T15:03:05Z</time>
      </trkpt>
      <trkpt lat="45.17431" lon="5.57756">
        <ele>1513.4000244141</ele>
        <time>2016-12-16T15:03:06Z</time>
      </trkpt>
      <trkpt lat="45.17429" lon="5.57765">
        <ele>1513</ele>
        <time>2016-12-16T15:03:07Z</time>
      </trkpt>
      <trkpt lat="45.17428" lon="5.57774">
        <ele>1512.5999755859</ele>
        <time>2016-12-16T15:03:08Z</time>
      </trkpt>
      <trkpt lat="45.17426" lon="5.57783">
        <ele>1512.1999511719</ele>
        <time>2016-12-16T15:03:09Z</time>
      </trkpt>
      <trkpt lat="45.17424" lon="5.57791">
        <ele>1512.1999511719</ele>
        <time>2016-12-16T15:03:10Z</time>
      </trkpt>
      <trkpt lat="45.17422" lon="5.57799">
        <ele>1511.5999755859</ele>
        <time>2016-12-16T15:03:11Z</time>
      </trkpt>
      <trkpt lat="45.17419" lon="5.57807">
        <ele>1511.1999511719</ele>
        <time>2016-12-16T15:03:12Z</time>
      </trkpt>
      <trkpt lat="45.17417" lon="5.57815">
        <ele>1510.8000488281</ele>
        <time>2016-12-16T15:03:13Z</time>
      </trkpt>
      <trkpt lat="45.17414" lon="5.57823">
        <ele>1510.4000244141</ele>
        <time>2016-12-16T15:03:14Z</time>
      </trkpt>
      <trkpt lat="45.17412" lon="5.57831">
        <ele>1510</ele>
        <time>2016-12-16T15:03:15Z</time>
      </trkpt>
      <trkpt lat="45.17409" lon="5.57839">
        <ele>1510</ele>
        <time>2016-12-16T15:03:16Z</time>
      </trkpt>
      <trkpt lat="45.17398" lon="5.57873">
        <ele>1509.5999755859</ele>
        <time>2016-12-16T15:03:20Z</time>
      </trkpt>
      <trkpt lat="45.17394" lon="5.57882">
        <ele>1509.1999511719</ele>
        <time>2016-12-16T15:03:21Z</time>
      </trkpt>
      <trkpt lat="45.17391" lon="5.57891">
        <ele>1508.8000488281</ele>
        <time>2016-12-16T15:03:22Z</time>
      </trkpt>
      <trkpt lat="45.17387" lon="5.579">
        <ele>1508.1999511719</ele>
        <time>2016-12-16T15:03:23Z</time>
      </trkpt>
      <trkpt lat="45.17383" lon="5.57908">
        <ele>1507.8000488281</ele>
        <time>2016-12-16T15:03:24Z</time>
      </trkpt>
      <trkpt lat="45.17376" lon="5.57924">
        <ele>1507.8000488281</ele>
        <time>2016-12-16T15:03:26Z</time>
      </trkpt>
      <trkpt lat="45.17372" lon="5.57932">
        <ele>1507.4000244141</ele>
        <time>2016-12-16T15:03:27Z</time>
      </trkpt>
      <trkpt lat="45.17368" lon="5.5794">
        <ele>1507</ele>
        <time>2016-12-16T15:03:28Z</time>
      </trkpt>
      <trkpt lat="45.17364" lon="5.57947">
        <ele>1506.5999755859</ele>
        <time>2016-12-16T15:03:29Z</time>
      </trkpt>
      <trkpt lat="45.17361" lon="5.57954">
        <ele>1506.1999511719</ele>
        <time>2016-12-16T15:03:30Z</time>
      </trkpt>
      <trkpt lat="45.17357" lon="5.57961">
        <ele>1505.8000488281</ele>
        <time>2016-12-16T15:03:31Z</time>
      </trkpt>
      <trkpt lat="45.17354" lon="5.57967">
        <ele>1505.8000488281</ele>
        <time>2016-12-16T15:03:32Z</time>
      </trkpt>
      <trkpt lat="45.17344" lon="5.5798">
        <ele>1505.8000488281</ele>
        <time>2016-12-16T15:03:34Z</time>
      </trkpt>
      <trkpt lat="45.17338" lon="5.57985">
        <ele>1505.8000488281</ele>
        <time>2016-12-16T15:03:35Z</time>
      </trkpt>
      <trkpt lat="45.17323" lon="5.57994">
        <ele>1505.4000244141</ele>
        <time>2016-12-16T15:03:37Z</time>
      </trkpt>
      <trkpt lat="45.17316" lon="5.57998">
        <ele>1505</ele>
        <time>2016-12-16T15:03:38Z</time>
      </trkpt>
      <trkpt lat="45.17312" lon="5.58001">
        <ele>1504.5999755859</ele>
        <time>2016-12-16T15:03:39Z</time>
      </trkpt>
      <trkpt lat="45.17308" lon="5.58006">
        <ele>1504</ele>
        <time>2016-12-16T15:03:40Z</time>
      </trkpt>
      <trkpt lat="45.17303" lon="5.58011">
        <ele>1503.5999755859</ele>
        <time>2016-12-16T15:03:41Z</time>
      </trkpt>
      <trkpt lat="45.17291" lon="5.58024">
        <ele>1503.5999755859</ele>
        <time>2016-12-16T15:03:44Z</time>
      </trkpt>
      <trkpt lat="45.17287" lon="5.58027">
        <ele>1503.5999755859</ele>
        <time>2016-12-16T15:03:45Z</time>
      </trkpt>
      <trkpt lat="45.17274" lon="5.58037">
        <ele>1503.5999755859</ele>
        <time>2016-12-16T15:03:48Z</time>
      </trkpt>
      <trkpt lat="45.1727" lon="5.58039">
        <ele>1503.5999755859</ele>
        <time>2016-12-16T15:03:49Z</time>
      </trkpt>
      <trkpt lat="45.17254" lon="5.58041">
        <ele>1503.5999755859</ele>
        <time>2016-12-16T15:03:53Z</time>
      </trkpt>
      <trkpt lat="45.1723" lon="5.5804">
        <ele>1503.5999755859</ele>
        <time>2016-12-16T15:03:58Z</time>
      </trkpt>
      <trkpt lat="45.17213" lon="5.58033">
        <ele>1503.5999755859</ele>
        <time>2016-12-16T15:04:02Z</time>
      </trkpt>
      <trkpt lat="45.17196" lon="5.58028">
        <ele>1503.5999755859</ele>
        <time>2016-12-16T15:04:06Z</time>
      </trkpt>
      <trkpt lat="45.17192" lon="5.58026">
        <ele>1503.5999755859</ele>
        <time>2016-12-16T15:04:07Z</time>
      </trkpt>
      <trkpt lat="45.17166" lon="5.58013">
        <ele>1503.5999755859</ele>
        <time>2016-12-16T15:04:13Z</time>
      </trkpt>
      <trkpt lat="45.1714" lon="5.57999">
        <ele>1503.5999755859</ele>
        <time>2016-12-16T15:04:19Z</time>
      </trkpt>
      <trkpt lat="45.17134" lon="5.57997">
        <ele>1503.1999511719</ele>
        <time>2016-12-16T15:04:20Z</time>
      </trkpt>
      <trkpt lat="45.17129" lon="5.57995">
        <ele>1502.8000488281</ele>
        <time>2016-12-16T15:04:21Z</time>
      </trkpt>
      <trkpt lat="45.17125" lon="5.57993">
        <ele>1502.4000244141</ele>
        <time>2016-12-16T15:04:22Z</time>
      </trkpt>
      <trkpt lat="45.17122" lon="5.57992">
        <ele>1502</ele>
        <time>2016-12-16T15:04:23Z</time>
      </trkpt>
      <trkpt lat="45.17118" lon="5.57989">
        <ele>1501.5999755859</ele>
        <time>2016-12-16T15:04:24Z</time>
      </trkpt>
      <trkpt lat="45.17115" lon="5.57987">
        <ele>1501</ele>
        <time>2016-12-16T15:04:25Z</time>
      </trkpt>
      <trkpt lat="45.17111" lon="5.57985">
        <ele>1500.5999755859</ele>
        <time>2016-12-16T15:04:26Z</time>
      </trkpt>
      <trkpt lat="45.17108" lon="5.57983">
        <ele>1500.1999511719</ele>
        <time>2016-12-16T15:04:27Z</time>
      </trkpt>
      <trkpt lat="45.17104" lon="5.57981">
        <ele>1499.8000488281</ele>
        <time>2016-12-16T15:04:28Z</time>
      </trkpt>
      <trkpt lat="45.171" lon="5.57977">
        <ele>1499.1999511719</ele>
        <time>2016-12-16T15:04:29Z</time>
      </trkpt>
      <trkpt lat="45.17094" lon="5.57971">
        <ele>1498.8000488281</ele>
        <time>2016-12-16T15:04:30Z</time>
      </trkpt>
      <trkpt lat="45.17087" lon="5.57966">
        <ele>1498.1999511719</ele>
        <time>2016-12-16T15:04:31Z</time>
      </trkpt>
      <trkpt lat="45.1708" lon="5.57962">
        <ele>1497</ele>
        <time>2016-12-16T15:04:32Z</time>
      </trkpt>
      <trkpt lat="45.17073" lon="5.57957">
        <ele>1496.5999755859</ele>
        <time>2016-12-16T15:04:33Z</time>
      </trkpt>
      <trkpt lat="45.17053" lon="5.57943">
        <ele>1496.1999511719</ele>
        <time>2016-12-16T15:04:36Z</time>
      </trkpt>
      <trkpt lat="45.17046" lon="5.57938">
        <ele>1495.8000488281</ele>
        <time>2016-12-16T15:04:37Z</time>
      </trkpt>
      <trkpt lat="45.1704" lon="5.57934">
        <ele>1495.4000244141</ele>
        <time>2016-12-16T15:04:38Z</time>
      </trkpt>
      <trkpt lat="45.17034" lon="5.5793">
        <ele>1494.8000488281</ele>
        <time>2016-12-16T15:04:39Z</time>
      </trkpt>
      <trkpt lat="45.17027" lon="5.57928">
        <ele>1494.4000244141</ele>
        <time>2016-12-16T15:04:40Z</time>
      </trkpt>
      <trkpt lat="45.1702" lon="5.57927">
        <ele>1494.4000244141</ele>
        <time>2016-12-16T15:04:41Z</time>
      </trkpt>
      <trkpt lat="45.17008" lon="5.57927">
        <ele>1494.4000244141</ele>
        <time>2016-12-16T15:04:43Z</time>
      </trkpt>
      <trkpt lat="45.16997" lon="5.57927">
        <ele>1494.4000244141</ele>
        <time>2016-12-16T15:04:45Z</time>
      </trkpt>
      <trkpt lat="45.16989" lon="5.57926">
        <ele>1494.4000244141</ele>
        <time>2016-12-16T15:04:47Z</time>
      </trkpt>
      <trkpt lat="45.16978" lon="5.5792">
        <ele>1494.4000244141</ele>
        <time>2016-12-16T15:04:49Z</time>
      </trkpt>
      <trkpt lat="45.16962" lon="5.57916">
        <ele>1494.4000244141</ele>
        <time>2016-12-16T15:04:52Z</time>
      </trkpt>
      <trkpt lat="45.16956" lon="5.57916">
        <ele>1494.4000244141</ele>
        <time>2016-12-16T15:04:53Z</time>
      </trkpt>
      <trkpt lat="45.1693" lon="5.57913">
        <ele>1494</ele>
        <time>2016-12-16T15:04:57Z</time>
      </trkpt>
      <trkpt lat="45.16924" lon="5.57912">
        <ele>1493.5999755859</ele>
        <time>2016-12-16T15:04:58Z</time>
      </trkpt>
      <trkpt lat="45.16918" lon="5.57912">
        <ele>1493</ele>
        <time>2016-12-16T15:04:59Z</time>
      </trkpt>
      <trkpt lat="45.16912" lon="5.57912">
        <ele>1492.5999755859</ele>
        <time>2016-12-16T15:05:00Z</time>
      </trkpt>
      <trkpt lat="45.16905" lon="5.57912">
        <ele>1492</ele>
        <time>2016-12-16T15:05:01Z</time>
      </trkpt>
      <trkpt lat="45.1689" lon="5.5791">
        <ele>1492</ele>
        <time>2016-12-16T15:05:03Z</time>
      </trkpt>
      <trkpt lat="45.16882" lon="5.5791">
        <ele>1491.5999755859</ele>
        <time>2016-12-16T15:05:04Z</time>
      </trkpt>
      <trkpt lat="45.16874" lon="5.57909">
        <ele>1491</ele>
        <time>2016-12-16T15:05:05Z</time>
      </trkpt>
      <trkpt lat="45.16866" lon="5.57908">
        <ele>1490.5999755859</ele>
        <time>2016-12-16T15:05:06Z</time>
      </trkpt>
      <trkpt lat="45.16858" lon="5.57907">
        <ele>1490.1999511719</ele>
        <time>2016-12-16T15:05:07Z</time>
      </trkpt>
      <trkpt lat="45.1685" lon="5.57907">
        <ele>1489.5999755859</ele>
        <time>2016-12-16T15:05:08Z</time>
      </trkpt>
      <trkpt lat="45.16842" lon="5.57907">
        <ele>1489</ele>
        <time>2016-12-16T15:05:09Z</time>
      </trkpt>
      <trkpt lat="45.16836" lon="5.57906">
        <ele>1488.1999511719</ele>
        <time>2016-12-16T15:05:10Z</time>
      </trkpt>
      <trkpt lat="45.16829" lon="5.57905">
        <ele>1487.4000244141</ele>
        <time>2016-12-16T15:05:11Z</time>
      </trkpt>
      <trkpt lat="45.16823" lon="5.57902">
        <ele>1486.5999755859</ele>
        <time>2016-12-16T15:05:12Z</time>
      </trkpt>
      <trkpt lat="45.16815" lon="5.57897">
        <ele>1485.8000488281</ele>
        <time>2016-12-16T15:05:13Z</time>
      </trkpt>
      <trkpt lat="45.16809" lon="5.57892">
        <ele>1485</ele>
        <time>2016-12-16T15:05:14Z</time>
      </trkpt>
      <trkpt lat="45.16802" lon="5.57888">
        <ele>1484</ele>
        <time>2016-12-16T15:05:15Z</time>
      </trkpt>
      <trkpt lat="45.16796" lon="5.57885">
        <ele>1483</ele>
        <time>2016-12-16T15:05:16Z</time>
      </trkpt>
      <trkpt lat="45.16789" lon="5.57882">
        <ele>1482</ele>
        <time>2016-12-16T15:05:17Z</time>
      </trkpt>
      <trkpt lat="45.16784" lon="5.57879">
        <ele>1481</ele>
        <time>2016-12-16T15:05:18Z</time>
      </trkpt>
      <trkpt lat="45.1678" lon="5.57877">
        <ele>1480.4000244141</ele>
        <time>2016-12-16T15:05:19Z</time>
      </trkpt>
      <trkpt lat="45.16777" lon="5.57876">
        <ele>1479.8000488281</ele>
        <time>2016-12-16T15:05:20Z</time>
      </trkpt>
      <trkpt lat="45.16776" lon="5.57873">
        <ele>1478.4000244141</ele>
        <time>2016-12-16T15:05:21Z</time>
      </trkpt>
      <trkpt lat="45.16775" lon="5.57872">
        <ele>1477.8000488281</ele>
        <time>2016-12-16T15:05:22Z</time>
      </trkpt>
      <trkpt lat="45.16777" lon="5.57871">
        <ele>1477.1999511719</ele>
        <time>2016-12-16T15:05:23Z</time>
      </trkpt>
      <trkpt lat="45.16778" lon="5.57869">
        <ele>1476.5999755859</ele>
        <time>2016-12-16T15:05:24Z</time>
      </trkpt>
      <trkpt lat="45.1678" lon="5.57868">
        <ele>1476</ele>
        <time>2016-12-16T15:05:25Z</time>
      </trkpt>
      <trkpt lat="45.16783" lon="5.57865">
        <ele>1475.4000244141</ele>
        <time>2016-12-16T15:05:26Z</time>
      </trkpt>
      <trkpt lat="45.1679" lon="5.57862">
        <ele>1475</ele>
        <time>2016-12-16T15:05:28Z</time>
      </trkpt>
      <trkpt lat="45.16794" lon="5.57861">
        <ele>1474.5999755859</ele>
        <time>2016-12-16T15:05:29Z</time>
      </trkpt>
      <trkpt lat="45.16797" lon="5.5786">
        <ele>1474.1999511719</ele>
        <time>2016-12-16T15:05:30Z</time>
      </trkpt>
      <trkpt lat="45.168" lon="5.57859">
        <ele>1473.8000488281</ele>
        <time>2016-12-16T15:05:31Z</time>
      </trkpt>
      <trkpt lat="45.16803" lon="5.57858">
        <ele>1473.4000244141</ele>
        <time>2016-12-16T15:05:32Z</time>
      </trkpt>
      <trkpt lat="45.16805" lon="5.57857">
        <ele>1473.4000244141</ele>
        <time>2016-12-16T15:05:33Z</time>
      </trkpt>
      <trkpt lat="45.1681" lon="5.57856">
        <ele>1472.8000488281</ele>
        <time>2016-12-16T15:05:35Z</time>
      </trkpt>
      <trkpt lat="45.16812" lon="5.57854">
        <ele>1472.4000244141</ele>
        <time>2016-12-16T15:05:36Z</time>
      </trkpt>
      <trkpt lat="45.16813" lon="5.57853">
        <ele>1472</ele>
        <time>2016-12-16T15:05:37Z</time>
      </trkpt>
      <trkpt lat="45.16812" lon="5.57852">
        <ele>1471.5999755859</ele>
        <time>2016-12-16T15:05:38Z</time>
      </trkpt>
      <trkpt lat="45.1681" lon="5.5785">
        <ele>1471.1999511719</ele>
        <time>2016-12-16T15:05:39Z</time>
      </trkpt>
      <trkpt lat="45.16808" lon="5.57849">
        <ele>1471.1999511719</ele>
        <time>2016-12-16T15:05:40Z</time>
      </trkpt>
      <trkpt lat="45.16802" lon="5.57844">
        <ele>1470.8000488281</ele>
        <time>2016-12-16T15:05:42Z</time>
      </trkpt>
      <trkpt lat="45.16799" lon="5.57839">
        <ele>1470.4000244141</ele>
        <time>2016-12-16T15:05:43Z</time>
      </trkpt>
      <trkpt lat="45.16795" lon="5.57834">
        <ele>1470</ele>
        <time>2016-12-16T15:05:44Z</time>
      </trkpt>
      <trkpt lat="45.16791" lon="5.5783">
        <ele>1469.1999511719</ele>
        <time>2016-12-16T15:05:45Z</time>
      </trkpt>
      <trkpt lat="45.16786" lon="5.57827">
        <ele>1468.5999755859</ele>
        <time>2016-12-16T15:05:46Z</time>
      </trkpt>
      <trkpt lat="45.16781" lon="5.57824">
        <ele>1468</ele>
        <time>2016-12-16T15:05:47Z</time>
      </trkpt>
      <trkpt lat="45.16775" lon="5.57823">
        <ele>1467.4000244141</ele>
        <time>2016-12-16T15:05:48Z</time>
      </trkpt>
      <trkpt lat="45.1677" lon="5.57821">
        <ele>1466.8000488281</ele>
        <time>2016-12-16T15:05:49Z</time>
      </trkpt>
      <trkpt lat="45.16764" lon="5.5782">
        <ele>1466.1999511719</ele>
        <time>2016-12-16T15:05:50Z</time>
      </trkpt>
      <trkpt lat="45.16759" lon="5.57817">
        <ele>1465.4000244141</ele>
        <time>2016-12-16T15:05:51Z</time>
      </trkpt>
      <trkpt lat="45.16754" lon="5.57814">
        <ele>1464.8000488281</ele>
        <time>2016-12-16T15:05:52Z</time>
      </trkpt>
      <trkpt lat="45.16749" lon="5.57811">
        <ele>1464.1999511719</ele>
        <time>2016-12-16T15:05:53Z</time>
      </trkpt>
      <trkpt lat="45.16743" lon="5.57807">
        <ele>1463.5999755859</ele>
        <time>2016-12-16T15:05:54Z</time>
      </trkpt>
      <trkpt lat="45.16738" lon="5.57802">
        <ele>1463.1999511719</ele>
        <time>2016-12-16T15:05:55Z</time>
      </trkpt>
      <trkpt lat="45.16733" lon="5.57798">
        <ele>1462.8000488281</ele>
        <time>2016-12-16T15:05:56Z</time>
      </trkpt>
      <trkpt lat="45.16727" lon="5.57794">
        <ele>1462.1999511719</ele>
        <time>2016-12-16T15:05:57Z</time>
      </trkpt>
      <trkpt lat="45.16722" lon="5.57791">
        <ele>1461.8000488281</ele>
        <time>2016-12-16T15:05:58Z</time>
      </trkpt>
      <trkpt lat="45.16717" lon="5.5779">
        <ele>1461.4000244141</ele>
        <time>2016-12-16T15:05:59Z</time>
      </trkpt>
      <trkpt lat="45.16711" lon="5.57789">
        <ele>1460.8000488281</ele>
        <time>2016-12-16T15:06:00Z</time>
      </trkpt>
      <trkpt lat="45.16706" lon="5.5779">
        <ele>1460.4000244141</ele>
        <time>2016-12-16T15:06:01Z</time>
      </trkpt>
      <trkpt lat="45.16701" lon="5.57789">
        <ele>1460</ele>
        <time>2016-12-16T15:06:02Z</time>
      </trkpt>
      <trkpt lat="45.16696" lon="5.57789">
        <ele>1459.5999755859</ele>
        <time>2016-12-16T15:06:03Z</time>
      </trkpt>
      <trkpt lat="45.1669" lon="5.57787">
        <ele>1459.5999755859</ele>
        <time>2016-12-16T15:06:04Z</time>
      </trkpt>
      <trkpt lat="45.16683" lon="5.57785">
        <ele>1459.5999755859</ele>
        <time>2016-12-16T15:06:05Z</time>
      </trkpt>
      <trkpt lat="45.16677" lon="5.57782">
        <ele>1459.5999755859</ele>
        <time>2016-12-16T15:06:06Z</time>
      </trkpt>
      <trkpt lat="45.16667" lon="5.57777">
        <ele>1459.1999511719</ele>
        <time>2016-12-16T15:06:08Z</time>
      </trkpt>
      <trkpt lat="45.1666" lon="5.57775">
        <ele>1458.5999755859</ele>
        <time>2016-12-16T15:06:09Z</time>
      </trkpt>
      <trkpt lat="45.16653" lon="5.57774">
        <ele>1458.1999511719</ele>
        <time>2016-12-16T15:06:10Z</time>
      </trkpt>
      <trkpt lat="45.16646" lon="5.57773">
        <ele>1457.1999511719</ele>
        <time>2016-12-16T15:06:11Z</time>
      </trkpt>
      <trkpt lat="45.16638" lon="5.57771">
        <ele>1456.5999755859</ele>
        <time>2016-12-16T15:06:12Z</time>
      </trkpt>
      <trkpt lat="45.1663" lon="5.57769">
        <ele>1455.8000488281</ele>
        <time>2016-12-16T15:06:13Z</time>
      </trkpt>
      <trkpt lat="45.16623" lon="5.57768">
        <ele>1455.1999511719</ele>
        <time>2016-12-16T15:06:14Z</time>
      </trkpt>
      <trkpt lat="45.16616" lon="5.57766">
        <ele>1454.4000244141</ele>
        <time>2016-12-16T15:06:15Z</time>
      </trkpt>
      <trkpt lat="45.16608" lon="5.57765">
        <ele>1453.5999755859</ele>
        <time>2016-12-16T15:06:16Z</time>
      </trkpt>
      <trkpt lat="45.16601" lon="5.57765">
        <ele>1452.8000488281</ele>
        <time>2016-12-16T15:06:17Z</time>
      </trkpt>
      <trkpt lat="45.16594" lon="5.57764">
        <ele>1452</ele>
        <time>2016-12-16T15:06:18Z</time>
      </trkpt>
      <trkpt lat="45.16587" lon="5.57762">
        <ele>1451.1999511719</ele>
        <time>2016-12-16T15:06:19Z</time>
      </trkpt>
      <trkpt lat="45.16581" lon="5.57758">
        <ele>1450.4000244141</ele>
        <time>2016-12-16T15:06:20Z</time>
      </trkpt>
      <trkpt lat="45.16576" lon="5.57754">
        <ele>1449.5999755859</ele>
        <time>2016-12-16T15:06:21Z</time>
      </trkpt>
      <trkpt lat="45.16571" lon="5.5775">
        <ele>1448.8000488281</ele>
        <time>2016-12-16T15:06:22Z</time>
      </trkpt>
      <trkpt lat="45.16567" lon="5.57749">
        <ele>1448</ele>
        <time>2016-12-16T15:06:23Z</time>
      </trkpt>
      <trkpt lat="45.16563" lon="5.57748">
        <ele>1447</ele>
        <time>2016-12-16T15:06:24Z</time>
      </trkpt>
      <trkpt lat="45.16561" lon="5.57748">
        <ele>1446.1999511719</ele>
        <time>2016-12-16T15:06:25Z</time>
      </trkpt>
      <trkpt lat="45.16558" lon="5.57748">
        <ele>1445.1999511719</ele>
        <time>2016-12-16T15:06:26Z</time>
      </trkpt>
      <trkpt lat="45.16557" lon="5.57747">
        <ele>1444.4000244141</ele>
        <time>2016-12-16T15:06:27Z</time>
      </trkpt>
      <trkpt lat="45.16556" lon="5.57745">
        <ele>1443.5999755859</ele>
        <time>2016-12-16T15:06:28Z</time>
      </trkpt>
      <trkpt lat="45.16556" lon="5.57742">
        <ele>1442.5999755859</ele>
        <time>2016-12-16T15:06:29Z</time>
      </trkpt>
      <trkpt lat="45.16558" lon="5.57732">
        <ele>1442.5999755859</ele>
        <time>2016-12-16T15:06:31Z</time>
      </trkpt>
      <trkpt lat="45.16559" lon="5.57727">
        <ele>1442.1999511719</ele>
        <time>2016-12-16T15:06:32Z</time>
      </trkpt>
      <trkpt lat="45.16559" lon="5.57721">
        <ele>1441.5999755859</ele>
        <time>2016-12-16T15:06:33Z</time>
      </trkpt>
      <trkpt lat="45.16559" lon="5.57713">
        <ele>1441.1999511719</ele>
        <time>2016-12-16T15:06:34Z</time>
      </trkpt>
      <trkpt lat="45.16557" lon="5.57706">
        <ele>1440.1999511719</ele>
        <time>2016-12-16T15:06:35Z</time>
      </trkpt>
      <trkpt lat="45.16555" lon="5.577">
        <ele>1439.5999755859</ele>
        <time>2016-12-16T15:06:36Z</time>
      </trkpt>
      <trkpt lat="45.16554" lon="5.57695">
        <ele>1439</ele>
        <time>2016-12-16T15:06:37Z</time>
      </trkpt>
      <trkpt lat="45.16552" lon="5.57691">
        <ele>1438.1999511719</ele>
        <time>2016-12-16T15:06:38Z</time>
      </trkpt>
      <trkpt lat="45.16551" lon="5.57688">
        <ele>1437.5999755859</ele>
        <time>2016-12-16T15:06:39Z</time>
      </trkpt>
      <trkpt lat="45.1655" lon="5.57684">
        <ele>1437</ele>
        <time>2016-12-16T15:06:40Z</time>
      </trkpt>
      <trkpt lat="45.16548" lon="5.57681">
        <ele>1436.1999511719</ele>
        <time>2016-12-16T15:06:41Z</time>
      </trkpt>
      <trkpt lat="45.16547" lon="5.57677">
        <ele>1435.5999755859</ele>
        <time>2016-12-16T15:06:42Z</time>
      </trkpt>
      <trkpt lat="45.16546" lon="5.57672">
        <ele>1435.5999755859</ele>
        <time>2016-12-16T15:06:43Z</time>
      </trkpt>
      <trkpt lat="45.16544" lon="5.57661">
        <ele>1435</ele>
        <time>2016-12-16T15:06:45Z</time>
      </trkpt>
      <trkpt lat="45.16542" lon="5.57655">
        <ele>1434.5999755859</ele>
        <time>2016-12-16T15:06:46Z</time>
      </trkpt>
      <trkpt lat="45.16539" lon="5.57649">
        <ele>1434</ele>
        <time>2016-12-16T15:06:47Z</time>
      </trkpt>
      <trkpt lat="45.16537" lon="5.57642">
        <ele>1433.4000244141</ele>
        <time>2016-12-16T15:06:48Z</time>
      </trkpt>
      <trkpt lat="45.16535" lon="5.57637">
        <ele>1432.5999755859</ele>
        <time>2016-12-16T15:06:49Z</time>
      </trkpt>
      <trkpt lat="45.16531" lon="5.57632">
        <ele>1432</ele>
        <time>2016-12-16T15:06:50Z</time>
      </trkpt>
      <trkpt lat="45.16527" lon="5.57629">
        <ele>1431.1999511719</ele>
        <time>2016-12-16T15:06:51Z</time>
      </trkpt>
      <trkpt lat="45.16524" lon="5.57625">
        <ele>1430.4000244141</ele>
        <time>2016-12-16T15:06:52Z</time>
      </trkpt>
      <trkpt lat="45.16522" lon="5.57622">
        <ele>1429.5999755859</ele>
        <time>2016-12-16T15:06:53Z</time>
      </trkpt>
      <trkpt lat="45.16521" lon="5.5762">
        <ele>1429</ele>
        <time>2016-12-16T15:06:54Z</time>
      </trkpt>
      <trkpt lat="45.16522" lon="5.57617">
        <ele>1428.1999511719</ele>
        <time>2016-12-16T15:06:55Z</time>
      </trkpt>
      <trkpt lat="45.16522" lon="5.57616">
        <ele>1427.5999755859</ele>
        <time>2016-12-16T15:06:56Z</time>
      </trkpt>
      <trkpt lat="45.16523" lon="5.57615">
        <ele>1427</ele>
        <time>2016-12-16T15:06:57Z</time>
      </trkpt>
      <trkpt lat="45.16525" lon="5.57615">
        <ele>1426.1999511719</ele>
        <time>2016-12-16T15:06:58Z</time>
      </trkpt>
      <trkpt lat="45.16527" lon="5.57616">
        <ele>1425.5999755859</ele>
        <time>2016-12-16T15:06:59Z</time>
      </trkpt>
      <trkpt lat="45.1653" lon="5.57616">
        <ele>1424.4000244141</ele>
        <time>2016-12-16T15:07:00Z</time>
      </trkpt>
      <trkpt lat="45.16533" lon="5.57617">
        <ele>1423.5999755859</ele>
        <time>2016-12-16T15:07:01Z</time>
      </trkpt>
      <trkpt lat="45.16538" lon="5.57618">
        <ele>1423</ele>
        <time>2016-12-16T15:07:02Z</time>
      </trkpt>
      <trkpt lat="45.16542" lon="5.57621">
        <ele>1423</ele>
        <time>2016-12-16T15:07:03Z</time>
      </trkpt>
      <trkpt lat="45.16552" lon="5.57626">
        <ele>1422.5999755859</ele>
        <time>2016-12-16T15:07:05Z</time>
      </trkpt>
      <trkpt lat="45.16558" lon="5.57628">
        <ele>1422</ele>
        <time>2016-12-16T15:07:06Z</time>
      </trkpt>
      <trkpt lat="45.16563" lon="5.5763">
        <ele>1421.5999755859</ele>
        <time>2016-12-16T15:07:07Z</time>
      </trkpt>
      <trkpt lat="45.16567" lon="5.57631">
        <ele>1420.8000488281</ele>
        <time>2016-12-16T15:07:08Z</time>
      </trkpt>
      <trkpt lat="45.1657" lon="5.57633">
        <ele>1420</ele>
        <time>2016-12-16T15:07:09Z</time>
      </trkpt>
      <trkpt lat="45.16573" lon="5.57634">
        <ele>1419.1999511719</ele>
        <time>2016-12-16T15:07:10Z</time>
      </trkpt>
      <trkpt lat="45.16576" lon="5.57635">
        <ele>1418.5999755859</ele>
        <time>2016-12-16T15:07:11Z</time>
      </trkpt>
      <trkpt lat="45.16578" lon="5.57635">
        <ele>1417.8000488281</ele>
        <time>2016-12-16T15:07:12Z</time>
      </trkpt>
      <trkpt lat="45.1658" lon="5.57632">
        <ele>1417</ele>
        <time>2016-12-16T15:07:13Z</time>
      </trkpt>
      <trkpt lat="45.1658" lon="5.5763">
        <ele>1416.4000244141</ele>
        <time>2016-12-16T15:07:14Z</time>
      </trkpt>
      <trkpt lat="45.1658" lon="5.57626">
        <ele>1415.5999755859</ele>
        <time>2016-12-16T15:07:15Z</time>
      </trkpt>
      <trkpt lat="45.16579" lon="5.57621">
        <ele>1415.1999511719</ele>
        <time>2016-12-16T15:07:16Z</time>
      </trkpt>
      <trkpt lat="45.16576" lon="5.57613">
        <ele>1414.5999755859</ele>
        <time>2016-12-16T15:07:17Z</time>
      </trkpt>
      <trkpt lat="45.16572" lon="5.57606">
        <ele>1414.1999511719</ele>
        <time>2016-12-16T15:07:18Z</time>
      </trkpt>
      <trkpt lat="45.16569" lon="5.576">
        <ele>1413.5999755859</ele>
        <time>2016-12-16T15:07:19Z</time>
      </trkpt>
      <trkpt lat="45.16566" lon="5.57594">
        <ele>1412.8000488281</ele>
        <time>2016-12-16T15:07:20Z</time>
      </trkpt>
      <trkpt lat="45.16563" lon="5.57589">
        <ele>1412.1999511719</ele>
        <time>2016-12-16T15:07:21Z</time>
      </trkpt>
      <trkpt lat="45.1656" lon="5.57585">
        <ele>1411.4000244141</ele>
        <time>2016-12-16T15:07:22Z</time>
      </trkpt>
      <trkpt lat="45.16558" lon="5.57582">
        <ele>1410.5999755859</ele>
        <time>2016-12-16T15:07:23Z</time>
      </trkpt>
      <trkpt lat="45.16556" lon="5.5758">
        <ele>1409.8000488281</ele>
        <time>2016-12-16T15:07:24Z</time>
      </trkpt>
      <trkpt lat="45.16554" lon="5.57578">
        <ele>1408.1999511719</ele>
        <time>2016-12-16T15:07:25Z</time>
      </trkpt>
      <trkpt lat="45.16553" lon="5.57576">
        <ele>1407.4000244141</ele>
        <time>2016-12-16T15:07:26Z</time>
      </trkpt>
      <trkpt lat="45.16553" lon="5.57575">
        <ele>1406.5999755859</ele>
        <time>2016-12-16T15:07:27Z</time>
      </trkpt>
      <trkpt lat="45.16553" lon="5.57574">
        <ele>1405.8000488281</ele>
        <time>2016-12-16T15:07:28Z</time>
      </trkpt>
      <trkpt lat="45.16554" lon="5.57573">
        <ele>1405.1999511719</ele>
        <time>2016-12-16T15:07:29Z</time>
      </trkpt>
      <trkpt lat="45.16556" lon="5.57573">
        <ele>1404.8000488281</ele>
        <time>2016-12-16T15:07:30Z</time>
      </trkpt>
      <trkpt lat="45.16557" lon="5.57575">
        <ele>1404.4000244141</ele>
        <time>2016-12-16T15:07:31Z</time>
      </trkpt>
      <trkpt lat="45.1656" lon="5.57577">
        <ele>1404</ele>
        <time>2016-12-16T15:07:32Z</time>
      </trkpt>
      <trkpt lat="45.16562" lon="5.57578">
        <ele>1403.4000244141</ele>
        <time>2016-12-16T15:07:33Z</time>
      </trkpt>
      <trkpt lat="45.16565" lon="5.57579">
        <ele>1403</ele>
        <time>2016-12-16T15:07:34Z</time>
      </trkpt>
      <trkpt lat="45.16568" lon="5.5758">
        <ele>1402.5999755859</ele>
        <time>2016-12-16T15:07:35Z</time>
      </trkpt>
      <trkpt lat="45.16571" lon="5.57581">
        <ele>1402.1999511719</ele>
        <time>2016-12-16T15:07:36Z</time>
      </trkpt>
      <trkpt lat="45.16575" lon="5.57584">
        <ele>1401.8000488281</ele>
        <time>2016-12-16T15:07:37Z</time>
      </trkpt>
      <trkpt lat="45.16577" lon="5.57586">
        <ele>1401</ele>
        <time>2016-12-16T15:07:38Z</time>
      </trkpt>
      <trkpt lat="45.16579" lon="5.57588">
        <ele>1400.4000244141</ele>
        <time>2016-12-16T15:07:39Z</time>
      </trkpt>
      <trkpt lat="45.16581" lon="5.57591">
        <ele>1399.8000488281</ele>
        <time>2016-12-16T15:07:40Z</time>
      </trkpt>
      <trkpt lat="45.16583" lon="5.57593">
        <ele>1399.1999511719</ele>
        <time>2016-12-16T15:07:41Z</time>
      </trkpt>
      <trkpt lat="45.16585" lon="5.57596">
        <ele>1398.5999755859</ele>
        <time>2016-12-16T15:07:42Z</time>
      </trkpt>
      <trkpt lat="45.16589" lon="5.57597">
        <ele>1398</ele>
        <time>2016-12-16T15:07:44Z</time>
      </trkpt>
      <trkpt lat="45.16591" lon="5.57595">
        <ele>1397.5999755859</ele>
        <time>2016-12-16T15:07:45Z</time>
      </trkpt>
      <trkpt lat="45.16591" lon="5.57592">
        <ele>1397.1999511719</ele>
        <time>2016-12-16T15:07:46Z</time>
      </trkpt>
      <trkpt lat="45.16592" lon="5.57587">
        <ele>1396.5999755859</ele>
        <time>2016-12-16T15:07:47Z</time>
      </trkpt>
      <trkpt lat="45.16591" lon="5.57582">
        <ele>1396.1999511719</ele>
        <time>2016-12-16T15:07:48Z</time>
      </trkpt>
      <trkpt lat="45.1659" lon="5.57576">
        <ele>1395.5999755859</ele>
        <time>2016-12-16T15:07:49Z</time>
      </trkpt>
      <trkpt lat="45.16589" lon="5.57572">
        <ele>1395.1999511719</ele>
        <time>2016-12-16T15:07:50Z</time>
      </trkpt>
      <trkpt lat="45.16588" lon="5.57568">
        <ele>1394.5999755859</ele>
        <time>2016-12-16T15:07:51Z</time>
      </trkpt>
      <trkpt lat="45.16587" lon="5.57565">
        <ele>1394</ele>
        <time>2016-12-16T15:07:52Z</time>
      </trkpt>
      <trkpt lat="45.16585" lon="5.57563">
        <ele>1393.4000244141</ele>
        <time>2016-12-16T15:07:53Z</time>
      </trkpt>
      <trkpt lat="45.16585" lon="5.57561">
        <ele>1392.8000488281</ele>
        <time>2016-12-16T15:07:54Z</time>
      </trkpt>
      <trkpt lat="45.16586" lon="5.57561">
        <ele>1392.1999511719</ele>
        <time>2016-12-16T15:07:55Z</time>
      </trkpt>
      <trkpt lat="45.16588" lon="5.57562">
        <ele>1391.5999755859</ele>
        <time>2016-12-16T15:07:56Z</time>
      </trkpt>
      <trkpt lat="45.1659" lon="5.57563">
        <ele>1391</ele>
        <time>2016-12-16T15:07:57Z</time>
      </trkpt>
      <trkpt lat="45.16593" lon="5.57564">
        <ele>1390.5999755859</ele>
        <time>2016-12-16T15:07:58Z</time>
      </trkpt>
      <trkpt lat="45.16595" lon="5.57565">
        <ele>1390</ele>
        <time>2016-12-16T15:07:59Z</time>
      </trkpt>
      <trkpt lat="45.16597" lon="5.57566">
        <ele>1389.4000244141</ele>
        <time>2016-12-16T15:08:00Z</time>
      </trkpt>
      <trkpt lat="45.16599" lon="5.57567">
        <ele>1389</ele>
        <time>2016-12-16T15:08:01Z</time>
      </trkpt>
      <trkpt lat="45.16601" lon="5.57568">
        <ele>1388.5999755859</ele>
        <time>2016-12-16T15:08:02Z</time>
      </trkpt>
      <trkpt lat="45.16602" lon="5.57569">
        <ele>1388</ele>
        <time>2016-12-16T15:08:03Z</time>
      </trkpt>
      <trkpt lat="45.16603" lon="5.5757">
        <ele>1387.5999755859</ele>
        <time>2016-12-16T15:08:04Z</time>
      </trkpt>
      <trkpt lat="45.16604" lon="5.57573">
        <ele>1387.1999511719</ele>
        <time>2016-12-16T15:08:05Z</time>
      </trkpt>
      <trkpt lat="45.16606" lon="5.57574">
        <ele>1387.1999511719</ele>
        <time>2016-12-16T15:08:06Z</time>
      </trkpt>
      <trkpt lat="45.16609" lon="5.57568">
        <ele>1386.8000488281</ele>
        <time>2016-12-16T15:08:09Z</time>
      </trkpt>
      <trkpt lat="45.1661" lon="5.57563">
        <ele>1386.1999511719</ele>
        <time>2016-12-16T15:08:10Z</time>
      </trkpt>
      <trkpt lat="45.1661" lon="5.57558">
        <ele>1385.8000488281</ele>
        <time>2016-12-16T15:08:11Z</time>
      </trkpt>
      <trkpt lat="45.16607" lon="5.57552">
        <ele>1385.1999511719</ele>
        <time>2016-12-16T15:08:12Z</time>
      </trkpt>
      <trkpt lat="45.16605" lon="5.57545">
        <ele>1384.1999511719</ele>
        <time>2016-12-16T15:08:13Z</time>
      </trkpt>
      <trkpt lat="45.16602" lon="5.57538">
        <ele>1383.5999755859</ele>
        <time>2016-12-16T15:08:14Z</time>
      </trkpt>
      <trkpt lat="45.166" lon="5.57532">
        <ele>1383</ele>
        <time>2016-12-16T15:08:15Z</time>
      </trkpt>
      <trkpt lat="45.166" lon="5.57526">
        <ele>1382.1999511719</ele>
        <time>2016-12-16T15:08:16Z</time>
      </trkpt>
      <trkpt lat="45.16599" lon="5.57524">
        <ele>1381.5999755859</ele>
        <time>2016-12-16T15:08:17Z</time>
      </trkpt>
      <trkpt lat="45.16598" lon="5.57522">
        <ele>1380.8000488281</ele>
        <time>2016-12-16T15:08:18Z</time>
      </trkpt>
      <trkpt lat="45.16598" lon="5.57521">
        <ele>1380</ele>
        <time>2016-12-16T15:08:19Z</time>
      </trkpt>
      <trkpt lat="45.16599" lon="5.5752">
        <ele>1379.4000244141</ele>
        <time>2016-12-16T15:08:20Z</time>
      </trkpt>
      <trkpt lat="45.16599" lon="5.5752">
        <ele>1379</ele>
        <time>2016-12-16T15:08:21Z</time>
      </trkpt>
      <trkpt lat="45.166" lon="5.5752">
        <ele>1378.4000244141</ele>
        <time>2016-12-16T15:08:22Z</time>
      </trkpt>
      <trkpt lat="45.16602" lon="5.57522">
        <ele>1377.8000488281</ele>
        <time>2016-12-16T15:08:23Z</time>
      </trkpt>
      <trkpt lat="45.16604" lon="5.57524">
        <ele>1377.1999511719</ele>
        <time>2016-12-16T15:08:24Z</time>
      </trkpt>
      <trkpt lat="45.16608" lon="5.57526">
        <ele>1376.8000488281</ele>
        <time>2016-12-16T15:08:26Z</time>
      </trkpt>
      <trkpt lat="45.1661" lon="5.57525">
        <ele>1376.1999511719</ele>
        <time>2016-12-16T15:08:27Z</time>
      </trkpt>
      <trkpt lat="45.1661" lon="5.57523">
        <ele>1375.8000488281</ele>
        <time>2016-12-16T15:08:28Z</time>
      </trkpt>
      <trkpt lat="45.16611" lon="5.57519">
        <ele>1375.4000244141</ele>
        <time>2016-12-16T15:08:29Z</time>
      </trkpt>
      <trkpt lat="45.16612" lon="5.57514">
        <ele>1375</ele>
        <time>2016-12-16T15:08:30Z</time>
      </trkpt>
      <trkpt lat="45.16613" lon="5.5751">
        <ele>1374.4000244141</ele>
        <time>2016-12-16T15:08:31Z</time>
      </trkpt>
      <trkpt lat="45.16612" lon="5.57503">
        <ele>1374</ele>
        <time>2016-12-16T15:08:32Z</time>
      </trkpt>
      <trkpt lat="45.16611" lon="5.57496">
        <ele>1373.4000244141</ele>
        <time>2016-12-16T15:08:33Z</time>
      </trkpt>
      <trkpt lat="45.16611" lon="5.5749">
        <ele>1372.8000488281</ele>
        <time>2016-12-16T15:08:34Z</time>
      </trkpt>
      <trkpt lat="45.1661" lon="5.57483">
        <ele>1372.1999511719</ele>
        <time>2016-12-16T15:08:35Z</time>
      </trkpt>
      <trkpt lat="45.16611" lon="5.57477">
        <ele>1371.5999755859</ele>
        <time>2016-12-16T15:08:36Z</time>
      </trkpt>
      <trkpt lat="45.1661" lon="5.5747">
        <ele>1370.8000488281</ele>
        <time>2016-12-16T15:08:37Z</time>
      </trkpt>
      <trkpt lat="45.1661" lon="5.57462">
        <ele>1369.8000488281</ele>
        <time>2016-12-16T15:08:38Z</time>
      </trkpt>
      <trkpt lat="45.16609" lon="5.57454">
        <ele>1369.1999511719</ele>
        <time>2016-12-16T15:08:39Z</time>
      </trkpt>
      <trkpt lat="45.16607" lon="5.57444">
        <ele>1368.5999755859</ele>
        <time>2016-12-16T15:08:40Z</time>
      </trkpt>
      <trkpt lat="45.16605" lon="5.57436">
        <ele>1368</ele>
        <time>2016-12-16T15:08:41Z</time>
      </trkpt>
      <trkpt lat="45.16604" lon="5.57428">
        <ele>1367.1999511719</ele>
        <time>2016-12-16T15:08:42Z</time>
      </trkpt>
      <trkpt lat="45.16603" lon="5.57422">
        <ele>1366.5999755859</ele>
        <time>2016-12-16T15:08:43Z</time>
      </trkpt>
      <trkpt lat="45.16602" lon="5.57415">
        <ele>1365.8000488281</ele>
        <time>2016-12-16T15:08:44Z</time>
      </trkpt>
      <trkpt lat="45.16601" lon="5.57408">
        <ele>1365</ele>
        <time>2016-12-16T15:08:45Z</time>
      </trkpt>
      <trkpt lat="45.16601" lon="5.574">
        <ele>1364.4000244141</ele>
        <time>2016-12-16T15:08:46Z</time>
      </trkpt>
      <trkpt lat="45.166" lon="5.57391">
        <ele>1363.5999755859</ele>
        <time>2016-12-16T15:08:47Z</time>
      </trkpt>
      <trkpt lat="45.16599" lon="5.57385">
        <ele>1363</ele>
        <time>2016-12-16T15:08:48Z</time>
      </trkpt>
      <trkpt lat="45.16597" lon="5.57379">
        <ele>1362.4000244141</ele>
        <time>2016-12-16T15:08:49Z</time>
      </trkpt>
      <trkpt lat="45.16597" lon="5.57373">
        <ele>1361.8000488281</ele>
        <time>2016-12-16T15:08:50Z</time>
      </trkpt>
      <trkpt lat="45.16598" lon="5.57365">
        <ele>1361</ele>
        <time>2016-12-16T15:08:51Z</time>
      </trkpt>
      <trkpt lat="45.16598" lon="5.57357">
        <ele>1360.5999755859</ele>
        <time>2016-12-16T15:08:52Z</time>
      </trkpt>
      <trkpt lat="45.16599" lon="5.57349">
        <ele>1360.1999511719</ele>
        <time>2016-12-16T15:08:53Z</time>
      </trkpt>
      <trkpt lat="45.16599" lon="5.57343">
        <ele>1359.5999755859</ele>
        <time>2016-12-16T15:08:54Z</time>
      </trkpt>
      <trkpt lat="45.16599" lon="5.57337">
        <ele>1359.1999511719</ele>
        <time>2016-12-16T15:08:55Z</time>
      </trkpt>
      <trkpt lat="45.16598" lon="5.57331">
        <ele>1358.5999755859</ele>
        <time>2016-12-16T15:08:56Z</time>
      </trkpt>
      <trkpt lat="45.16598" lon="5.57326">
        <ele>1358</ele>
        <time>2016-12-16T15:08:57Z</time>
      </trkpt>
      <trkpt lat="45.16597" lon="5.57321">
        <ele>1357.4000244141</ele>
        <time>2016-12-16T15:08:58Z</time>
      </trkpt>
      <trkpt lat="45.16598" lon="5.57314">
        <ele>1356.8000488281</ele>
        <time>2016-12-16T15:08:59Z</time>
      </trkpt>
      <trkpt lat="45.16598" lon="5.57307">
        <ele>1356.4000244141</ele>
        <time>2016-12-16T15:09:00Z</time>
      </trkpt>
      <trkpt lat="45.16599" lon="5.57301">
        <ele>1355.8000488281</ele>
        <time>2016-12-16T15:09:01Z</time>
      </trkpt>
      <trkpt lat="45.166" lon="5.57296">
        <ele>1354.5999755859</ele>
        <time>2016-12-16T15:09:02Z</time>
      </trkpt>
      <trkpt lat="45.166" lon="5.57293">
        <ele>1354</ele>
        <time>2016-12-16T15:09:03Z</time>
      </trkpt>
      <trkpt lat="45.16601" lon="5.5729">
        <ele>1353.4000244141</ele>
        <time>2016-12-16T15:09:04Z</time>
      </trkpt>
      <trkpt lat="45.16601" lon="5.57288">
        <ele>1352.8000488281</ele>
        <time>2016-12-16T15:09:05Z</time>
      </trkpt>
      <trkpt lat="45.16601" lon="5.57285">
        <ele>1352</ele>
        <time>2016-12-16T15:09:06Z</time>
      </trkpt>
      <trkpt lat="45.16601" lon="5.57281">
        <ele>1351.4000244141</ele>
        <time>2016-12-16T15:09:07Z</time>
      </trkpt>
      <trkpt lat="45.16604" lon="5.5727">
        <ele>1351</ele>
        <time>2016-12-16T15:09:09Z</time>
      </trkpt>
      <trkpt lat="45.16607" lon="5.57265">
        <ele>1350.4000244141</ele>
        <time>2016-12-16T15:09:10Z</time>
      </trkpt>
      <trkpt lat="45.1661" lon="5.57259">
        <ele>1350</ele>
        <time>2016-12-16T15:09:11Z</time>
      </trkpt>
      <trkpt lat="45.16612" lon="5.57254">
        <ele>1349.4000244141</ele>
        <time>2016-12-16T15:09:12Z</time>
      </trkpt>
      <trkpt lat="45.16613" lon="5.5725">
        <ele>1349</ele>
        <time>2016-12-16T15:09:13Z</time>
      </trkpt>
      <trkpt lat="45.16614" lon="5.57245">
        <ele>1348.4000244141</ele>
        <time>2016-12-16T15:09:14Z</time>
      </trkpt>
      <trkpt lat="45.16614" lon="5.57241">
        <ele>1347.8000488281</ele>
        <time>2016-12-16T15:09:15Z</time>
      </trkpt>
      <trkpt lat="45.16616" lon="5.57236">
        <ele>1347.1999511719</ele>
        <time>2016-12-16T15:09:16Z</time>
      </trkpt>
      <trkpt lat="45.16618" lon="5.57229">
        <ele>1346.8000488281</ele>
        <time>2016-12-16T15:09:17Z</time>
      </trkpt>
      <trkpt lat="45.16619" lon="5.57222">
        <ele>1346.1999511719</ele>
        <time>2016-12-16T15:09:18Z</time>
      </trkpt>
      <trkpt lat="45.16619" lon="5.57218">
        <ele>1345.5999755859</ele>
        <time>2016-12-16T15:09:19Z</time>
      </trkpt>
      <trkpt lat="45.1662" lon="5.57215">
        <ele>1345</ele>
        <time>2016-12-16T15:09:20Z</time>
      </trkpt>
      <trkpt lat="45.1662" lon="5.57211">
        <ele>1344.4000244141</ele>
        <time>2016-12-16T15:09:21Z</time>
      </trkpt>
      <trkpt lat="45.16619" lon="5.57208">
        <ele>1343.8000488281</ele>
        <time>2016-12-16T15:09:22Z</time>
      </trkpt>
      <trkpt lat="45.16619" lon="5.57205">
        <ele>1343.1999511719</ele>
        <time>2016-12-16T15:09:23Z</time>
      </trkpt>
      <trkpt lat="45.16618" lon="5.57201">
        <ele>1342.5999755859</ele>
        <time>2016-12-16T15:09:24Z</time>
      </trkpt>
      <trkpt lat="45.16617" lon="5.57198">
        <ele>1342</ele>
        <time>2016-12-16T15:09:25Z</time>
      </trkpt>
      <trkpt lat="45.16617" lon="5.57198">
        <ele>1341.4000244141</ele>
        <time>2016-12-16T15:09:26Z</time>
      </trkpt>
      <trkpt lat="45.16616" lon="5.572">
        <ele>1340.1999511719</ele>
        <time>2016-12-16T15:09:27Z</time>
      </trkpt>
      <trkpt lat="45.16617" lon="5.57201">
        <ele>1339.8000488281</ele>
        <time>2016-12-16T15:09:28Z</time>
      </trkpt>
      <trkpt lat="45.16619" lon="5.57205">
        <ele>1339.1999511719</ele>
        <time>2016-12-16T15:09:29Z</time>
      </trkpt>
      <trkpt lat="45.1662" lon="5.5721">
        <ele>1338.8000488281</ele>
        <time>2016-12-16T15:09:30Z</time>
      </trkpt>
      <trkpt lat="45.1662" lon="5.57214">
        <ele>1338.1999511719</ele>
        <time>2016-12-16T15:09:31Z</time>
      </trkpt>
      <trkpt lat="45.16621" lon="5.57218">
        <ele>1337.8000488281</ele>
        <time>2016-12-16T15:09:32Z</time>
      </trkpt>
      <trkpt lat="45.16622" lon="5.57221">
        <ele>1337.1999511719</ele>
        <time>2016-12-16T15:09:33Z</time>
      </trkpt>
      <trkpt lat="45.16623" lon="5.57224">
        <ele>1336.8000488281</ele>
        <time>2016-12-16T15:09:34Z</time>
      </trkpt>
      <trkpt lat="45.16624" lon="5.57227">
        <ele>1336.1999511719</ele>
        <time>2016-12-16T15:09:35Z</time>
      </trkpt>
      <trkpt lat="45.16626" lon="5.5723">
        <ele>1335.5999755859</ele>
        <time>2016-12-16T15:09:36Z</time>
      </trkpt>
      <trkpt lat="45.16629" lon="5.57235">
        <ele>1335.5999755859</ele>
        <time>2016-12-16T15:09:38Z</time>
      </trkpt>
      <trkpt lat="45.16631" lon="5.57237">
        <ele>1335.1999511719</ele>
        <time>2016-12-16T15:09:39Z</time>
      </trkpt>
      <trkpt lat="45.16633" lon="5.5724">
        <ele>1334.5999755859</ele>
        <time>2016-12-16T15:09:40Z</time>
      </trkpt>
      <trkpt lat="45.16637" lon="5.57245">
        <ele>1334.1999511719</ele>
        <time>2016-12-16T15:09:41Z</time>
      </trkpt>
      <trkpt lat="45.1664" lon="5.57251">
        <ele>1333.5999755859</ele>
        <time>2016-12-16T15:09:42Z</time>
      </trkpt>
      <trkpt lat="45.16643" lon="5.57256">
        <ele>1333</ele>
        <time>2016-12-16T15:09:43Z</time>
      </trkpt>
      <trkpt lat="45.16645" lon="5.57261">
        <ele>1332.5999755859</ele>
        <time>2016-12-16T15:09:44Z</time>
      </trkpt>
      <trkpt lat="45.16648" lon="5.57267">
        <ele>1332</ele>
        <time>2016-12-16T15:09:45Z</time>
      </trkpt>
      <trkpt lat="45.16649" lon="5.57275">
        <ele>1331.4000244141</ele>
        <time>2016-12-16T15:09:46Z</time>
      </trkpt>
      <trkpt lat="45.16651" lon="5.57281">
        <ele>1330.8000488281</ele>
        <time>2016-12-16T15:09:47Z</time>
      </trkpt>
      <trkpt lat="45.16652" lon="5.57287">
        <ele>1330.1999511719</ele>
        <time>2016-12-16T15:09:48Z</time>
      </trkpt>
      <trkpt lat="45.16653" lon="5.57289">
        <ele>1329.5999755859</ele>
        <time>2016-12-16T15:09:49Z</time>
      </trkpt>
      <trkpt lat="45.16654" lon="5.57289">
        <ele>1328.8000488281</ele>
        <time>2016-12-16T15:09:50Z</time>
      </trkpt>
      <trkpt lat="45.16655" lon="5.57288">
        <ele>1327.4000244141</ele>
        <time>2016-12-16T15:09:51Z</time>
      </trkpt>
      <trkpt lat="45.16656" lon="5.57286">
        <ele>1326.5999755859</ele>
        <time>2016-12-16T15:09:52Z</time>
      </trkpt>
      <trkpt lat="45.16657" lon="5.57282">
        <ele>1326</ele>
        <time>2016-12-16T15:09:53Z</time>
      </trkpt>
      <trkpt lat="45.16659" lon="5.57277">
        <ele>1325.5999755859</ele>
        <time>2016-12-16T15:09:54Z</time>
      </trkpt>
      <trkpt lat="45.1666" lon="5.5727">
        <ele>1325.1999511719</ele>
        <time>2016-12-16T15:09:55Z</time>
      </trkpt>
      <trkpt lat="45.1666" lon="5.57263">
        <ele>1324.5999755859</ele>
        <time>2016-12-16T15:09:56Z</time>
      </trkpt>
      <trkpt lat="45.1666" lon="5.57258">
        <ele>1324.1999511719</ele>
        <time>2016-12-16T15:09:57Z</time>
      </trkpt>
      <trkpt lat="45.16659" lon="5.57253">
        <ele>1323.5999755859</ele>
        <time>2016-12-16T15:09:58Z</time>
      </trkpt>
      <trkpt lat="45.16659" lon="5.57247">
        <ele>1323.1999511719</ele>
        <time>2016-12-16T15:09:59Z</time>
      </trkpt>
      <trkpt lat="45.16659" lon="5.57241">
        <ele>1322.5999755859</ele>
        <time>2016-12-16T15:10:00Z</time>
      </trkpt>
      <trkpt lat="45.16659" lon="5.57235">
        <ele>1322</ele>
        <time>2016-12-16T15:10:01Z</time>
      </trkpt>
      <trkpt lat="45.1666" lon="5.57229">
        <ele>1321.4000244141</ele>
        <time>2016-12-16T15:10:02Z</time>
      </trkpt>
      <trkpt lat="45.16662" lon="5.57222">
        <ele>1321</ele>
        <time>2016-12-16T15:10:03Z</time>
      </trkpt>
      <trkpt lat="45.16663" lon="5.57215">
        <ele>1320.4000244141</ele>
        <time>2016-12-16T15:10:04Z</time>
      </trkpt>
      <trkpt lat="45.16664" lon="5.57207">
        <ele>1320</ele>
        <time>2016-12-16T15:10:05Z</time>
      </trkpt>
      <trkpt lat="45.16664" lon="5.57202">
        <ele>1319.1999511719</ele>
        <time>2016-12-16T15:10:06Z</time>
      </trkpt>
      <trkpt lat="45.16663" lon="5.57198">
        <ele>1318.5999755859</ele>
        <time>2016-12-16T15:10:07Z</time>
      </trkpt>
      <trkpt lat="45.16663" lon="5.57194">
        <ele>1317.8000488281</ele>
        <time>2016-12-16T15:10:08Z</time>
      </trkpt>
      <trkpt lat="45.16663" lon="5.5719">
        <ele>1317.1999511719</ele>
        <time>2016-12-16T15:10:09Z</time>
      </trkpt>
      <trkpt lat="45.16663" lon="5.57185">
        <ele>1316.5999755859</ele>
        <time>2016-12-16T15:10:10Z</time>
      </trkpt>
      <trkpt lat="45.16664" lon="5.57179">
        <ele>1316</ele>
        <time>2016-12-16T15:10:11Z</time>
      </trkpt>
      <trkpt lat="45.16663" lon="5.57174">
        <ele>1315.4000244141</ele>
        <time>2016-12-16T15:10:12Z</time>
      </trkpt>
      <trkpt lat="45.16662" lon="5.5717">
        <ele>1314.8000488281</ele>
        <time>2016-12-16T15:10:13Z</time>
      </trkpt>
      <trkpt lat="45.16661" lon="5.57165">
        <ele>1314.1999511719</ele>
        <time>2016-12-16T15:10:14Z</time>
      </trkpt>
      <trkpt lat="45.1666" lon="5.57162">
        <ele>1313.1999511719</ele>
        <time>2016-12-16T15:10:15Z</time>
      </trkpt>
      <trkpt lat="45.16659" lon="5.57159">
        <ele>1312.5999755859</ele>
        <time>2016-12-16T15:10:16Z</time>
      </trkpt>
      <trkpt lat="45.16657" lon="5.57156">
        <ele>1312.1999511719</ele>
        <time>2016-12-16T15:10:17Z</time>
      </trkpt>
      <trkpt lat="45.16657" lon="5.57153">
        <ele>1311.5999755859</ele>
        <time>2016-12-16T15:10:18Z</time>
      </trkpt>
      <trkpt lat="45.16657" lon="5.57152">
        <ele>1311.5999755859</ele>
        <time>2016-12-16T15:10:19Z</time>
      </trkpt>
      <trkpt lat="45.16656" lon="5.57147">
        <ele>1311.1999511719</ele>
        <time>2016-12-16T15:10:21Z</time>
      </trkpt>
      <trkpt lat="45.16656" lon="5.57144">
        <ele>1310.8000488281</ele>
        <time>2016-12-16T15:10:22Z</time>
      </trkpt>
      <trkpt lat="45.16656" lon="5.57143">
        <ele>1310.1999511719</ele>
        <time>2016-12-16T15:10:23Z</time>
      </trkpt>
      <trkpt lat="45.16657" lon="5.57143">
        <ele>1309.5999755859</ele>
        <time>2016-12-16T15:10:24Z</time>
      </trkpt>
      <trkpt lat="45.16658" lon="5.57143">
        <ele>1309</ele>
        <time>2016-12-16T15:10:25Z</time>
      </trkpt>
      <trkpt lat="45.16658" lon="5.57145">
        <ele>1308.4000244141</ele>
        <time>2016-12-16T15:10:26Z</time>
      </trkpt>
      <trkpt lat="45.16658" lon="5.57145">
        <ele>1307.8000488281</ele>
        <time>2016-12-16T15:10:27Z</time>
      </trkpt>
      <trkpt lat="45.1666" lon="5.57146">
        <ele>1307.1999511719</ele>
        <time>2016-12-16T15:10:28Z</time>
      </trkpt>
      <trkpt lat="45.16664" lon="5.5715">
        <ele>1306.8000488281</ele>
        <time>2016-12-16T15:10:29Z</time>
      </trkpt>
      <trkpt lat="45.16667" lon="5.57155">
        <ele>1306.1999511719</ele>
        <time>2016-12-16T15:10:30Z</time>
      </trkpt>
      <trkpt lat="45.16671" lon="5.57161">
        <ele>1305.8000488281</ele>
        <time>2016-12-16T15:10:31Z</time>
      </trkpt>
      <trkpt lat="45.16674" lon="5.57166">
        <ele>1305.1999511719</ele>
        <time>2016-12-16T15:10:32Z</time>
      </trkpt>
      <trkpt lat="45.16678" lon="5.57171">
        <ele>1304.8000488281</ele>
        <time>2016-12-16T15:10:33Z</time>
      </trkpt>
      <trkpt lat="45.16681" lon="5.57176">
        <ele>1304.1999511719</ele>
        <time>2016-12-16T15:10:34Z</time>
      </trkpt>
      <trkpt lat="45.16683" lon="5.57181">
        <ele>1303.8000488281</ele>
        <time>2016-12-16T15:10:35Z</time>
      </trkpt>
      <trkpt lat="45.16684" lon="5.57185">
        <ele>1303.4000244141</ele>
        <time>2016-12-16T15:10:36Z</time>
      </trkpt>
      <trkpt lat="45.16687" lon="5.57186">
        <ele>1302.8000488281</ele>
        <time>2016-12-16T15:10:37Z</time>
      </trkpt>
      <trkpt lat="45.16689" lon="5.57184">
        <ele>1302.4000244141</ele>
        <time>2016-12-16T15:10:38Z</time>
      </trkpt>
      <trkpt lat="45.1669" lon="5.57182">
        <ele>1301.8000488281</ele>
        <time>2016-12-16T15:10:39Z</time>
      </trkpt>
      <trkpt lat="45.16693" lon="5.57178">
        <ele>1300.5999755859</ele>
        <time>2016-12-16T15:10:40Z</time>
      </trkpt>
      <trkpt lat="45.16694" lon="5.57173">
        <ele>1300.1999511719</ele>
        <time>2016-12-16T15:10:41Z</time>
      </trkpt>
      <trkpt lat="45.16695" lon="5.57168">
        <ele>1299.5999755859</ele>
        <time>2016-12-16T15:10:42Z</time>
      </trkpt>
      <trkpt lat="45.16695" lon="5.57162">
        <ele>1299.1999511719</ele>
        <time>2016-12-16T15:10:43Z</time>
      </trkpt>
      <trkpt lat="45.16696" lon="5.57156">
        <ele>1298.8000488281</ele>
        <time>2016-12-16T15:10:44Z</time>
      </trkpt>
      <trkpt lat="45.16696" lon="5.57148">
        <ele>1298.1999511719</ele>
        <time>2016-12-16T15:10:45Z</time>
      </trkpt>
      <trkpt lat="45.16696" lon="5.57139">
        <ele>1297.4000244141</ele>
        <time>2016-12-16T15:10:46Z</time>
      </trkpt>
      <trkpt lat="45.16695" lon="5.57132">
        <ele>1296.8000488281</ele>
        <time>2016-12-16T15:10:47Z</time>
      </trkpt>
      <trkpt lat="45.16694" lon="5.57125">
        <ele>1296.1999511719</ele>
        <time>2016-12-16T15:10:48Z</time>
      </trkpt>
      <trkpt lat="45.16694" lon="5.5712">
        <ele>1295.4000244141</ele>
        <time>2016-12-16T15:10:49Z</time>
      </trkpt>
      <trkpt lat="45.16693" lon="5.57114">
        <ele>1294.5999755859</ele>
        <time>2016-12-16T15:10:50Z</time>
      </trkpt>
      <trkpt lat="45.16692" lon="5.57109">
        <ele>1294</ele>
        <time>2016-12-16T15:10:51Z</time>
      </trkpt>
      <trkpt lat="45.16692" lon="5.57104">
        <ele>1293.1999511719</ele>
        <time>2016-12-16T15:10:52Z</time>
      </trkpt>
      <trkpt lat="45.16693" lon="5.57098">
        <ele>1292.5999755859</ele>
        <time>2016-12-16T15:10:53Z</time>
      </trkpt>
      <trkpt lat="45.16693" lon="5.57092">
        <ele>1291.5999755859</ele>
        <time>2016-12-16T15:10:54Z</time>
      </trkpt>
      <trkpt lat="45.16692" lon="5.57089">
        <ele>1290.8000488281</ele>
        <time>2016-12-16T15:10:55Z</time>
      </trkpt>
      <trkpt lat="45.16691" lon="5.57085">
        <ele>1290</ele>
        <time>2016-12-16T15:10:56Z</time>
      </trkpt>
      <trkpt lat="45.1669" lon="5.57081">
        <ele>1289</ele>
        <time>2016-12-16T15:10:57Z</time>
      </trkpt>
      <trkpt lat="45.16689" lon="5.57077">
        <ele>1288.1999511719</ele>
        <time>2016-12-16T15:10:58Z</time>
      </trkpt>
      <trkpt lat="45.16689" lon="5.57073">
        <ele>1287.8000488281</ele>
        <time>2016-12-16T15:10:59Z</time>
      </trkpt>
      <trkpt lat="45.1669" lon="5.57068">
        <ele>1287.4000244141</ele>
        <time>2016-12-16T15:11:00Z</time>
      </trkpt>
      <trkpt lat="45.16691" lon="5.57064">
        <ele>1287</ele>
        <time>2016-12-16T15:11:01Z</time>
      </trkpt>
      <trkpt lat="45.16692" lon="5.57058">
        <ele>1286.5999755859</ele>
        <time>2016-12-16T15:11:02Z</time>
      </trkpt>
      <trkpt lat="45.16692" lon="5.57049">
        <ele>1286.1999511719</ele>
        <time>2016-12-16T15:11:03Z</time>
      </trkpt>
      <trkpt lat="45.16693" lon="5.57041">
        <ele>1285.5999755859</ele>
        <time>2016-12-16T15:11:04Z</time>
      </trkpt>
      <trkpt lat="45.16693" lon="5.57033">
        <ele>1284.8000488281</ele>
        <time>2016-12-16T15:11:05Z</time>
      </trkpt>
      <trkpt lat="45.16694" lon="5.57026">
        <ele>1284.1999511719</ele>
        <time>2016-12-16T15:11:06Z</time>
      </trkpt>
      <trkpt lat="45.16695" lon="5.5702">
        <ele>1283.8000488281</ele>
        <time>2016-12-16T15:11:07Z</time>
      </trkpt>
      <trkpt lat="45.16696" lon="5.57016">
        <ele>1283.1999511719</ele>
        <time>2016-12-16T15:11:08Z</time>
      </trkpt>
      <trkpt lat="45.16697" lon="5.57011">
        <ele>1282.5999755859</ele>
        <time>2016-12-16T15:11:09Z</time>
      </trkpt>
      <trkpt lat="45.16699" lon="5.57005">
        <ele>1281.8000488281</ele>
        <time>2016-12-16T15:11:10Z</time>
      </trkpt>
      <trkpt lat="45.16701" lon="5.56999">
        <ele>1281.1999511719</ele>
        <time>2016-12-16T15:11:11Z</time>
      </trkpt>
      <trkpt lat="45.16704" lon="5.56994">
        <ele>1280.5999755859</ele>
        <time>2016-12-16T15:11:12Z</time>
      </trkpt>
      <trkpt lat="45.16705" lon="5.5699">
        <ele>1279.8000488281</ele>
        <time>2016-12-16T15:11:13Z</time>
      </trkpt>
      <trkpt lat="45.16706" lon="5.56986">
        <ele>1279</ele>
        <time>2016-12-16T15:11:14Z</time>
      </trkpt>
      <trkpt lat="45.16708" lon="5.56981">
        <ele>1278.1999511719</ele>
        <time>2016-12-16T15:11:15Z</time>
      </trkpt>
      <trkpt lat="45.16709" lon="5.56976">
        <ele>1277.4000244141</ele>
        <time>2016-12-16T15:11:16Z</time>
      </trkpt>
      <trkpt lat="45.1671" lon="5.56971">
        <ele>1277</ele>
        <time>2016-12-16T15:11:17Z</time>
      </trkpt>
      <trkpt lat="45.16712" lon="5.56965">
        <ele>1276.4000244141</ele>
        <time>2016-12-16T15:11:18Z</time>
      </trkpt>
      <trkpt lat="45.16713" lon="5.56959">
        <ele>1275.8000488281</ele>
        <time>2016-12-16T15:11:19Z</time>
      </trkpt>
      <trkpt lat="45.16714" lon="5.56952">
        <ele>1275</ele>
        <time>2016-12-16T15:11:20Z</time>
      </trkpt>
      <trkpt lat="45.16715" lon="5.56945">
        <ele>1274.4000244141</ele>
        <time>2016-12-16T15:11:21Z</time>
      </trkpt>
      <trkpt lat="45.16717" lon="5.56937">
        <ele>1273.8000488281</ele>
        <time>2016-12-16T15:11:22Z</time>
      </trkpt>
      <trkpt lat="45.16719" lon="5.56929">
        <ele>1273</ele>
        <time>2016-12-16T15:11:23Z</time>
      </trkpt>
      <trkpt lat="45.16721" lon="5.56921">
        <ele>1272.1999511719</ele>
        <time>2016-12-16T15:11:24Z</time>
      </trkpt>
      <trkpt lat="45.16722" lon="5.56912">
        <ele>1271.4000244141</ele>
        <time>2016-12-16T15:11:25Z</time>
      </trkpt>
      <trkpt lat="45.16723" lon="5.56903">
        <ele>1270.5999755859</ele>
        <time>2016-12-16T15:11:26Z</time>
      </trkpt>
      <trkpt lat="45.16725" lon="5.56896">
        <ele>1269.8000488281</ele>
        <time>2016-12-16T15:11:27Z</time>
      </trkpt>
      <trkpt lat="45.16729" lon="5.56891">
        <ele>1268.8000488281</ele>
        <time>2016-12-16T15:11:28Z</time>
      </trkpt>
      <trkpt lat="45.16732" lon="5.56886">
        <ele>1267.8000488281</ele>
        <time>2016-12-16T15:11:29Z</time>
      </trkpt>
      <trkpt lat="45.16735" lon="5.56882">
        <ele>1265.8000488281</ele>
        <time>2016-12-16T15:11:30Z</time>
      </trkpt>
      <trkpt lat="45.16737" lon="5.56879">
        <ele>1264.8000488281</ele>
        <time>2016-12-16T15:11:31Z</time>
      </trkpt>
      <trkpt lat="45.1674" lon="5.56876">
        <ele>1264</ele>
        <time>2016-12-16T15:11:32Z</time>
      </trkpt>
      <trkpt lat="45.16742" lon="5.56873">
        <ele>1263.1999511719</ele>
        <time>2016-12-16T15:11:33Z</time>
      </trkpt>
      <trkpt lat="45.16744" lon="5.56871">
        <ele>1262.1999511719</ele>
        <time>2016-12-16T15:11:34Z</time>
      </trkpt>
      <trkpt lat="45.16746" lon="5.56869">
        <ele>1261.4000244141</ele>
        <time>2016-12-16T15:11:35Z</time>
      </trkpt>
      <trkpt lat="45.16748" lon="5.56869">
        <ele>1260.5999755859</ele>
        <time>2016-12-16T15:11:36Z</time>
      </trkpt>
      <trkpt lat="45.1675" lon="5.5687">
        <ele>1260</ele>
        <time>2016-12-16T15:11:37Z</time>
      </trkpt>
      <trkpt lat="45.16752" lon="5.56871">
        <ele>1259.5999755859</ele>
        <time>2016-12-16T15:11:38Z</time>
      </trkpt>
      <trkpt lat="45.16752" lon="5.56873">
        <ele>1259.1999511719</ele>
        <time>2016-12-16T15:11:39Z</time>
      </trkpt>
      <trkpt lat="45.16754" lon="5.56875">
        <ele>1258.8000488281</ele>
        <time>2016-12-16T15:11:40Z</time>
      </trkpt>
      <trkpt lat="45.16755" lon="5.56877">
        <ele>1258.4000244141</ele>
        <time>2016-12-16T15:11:41Z</time>
      </trkpt>
      <trkpt lat="45.16757" lon="5.56879">
        <ele>1258</ele>
        <time>2016-12-16T15:11:42Z</time>
      </trkpt>
      <trkpt lat="45.1676" lon="5.56881">
        <ele>1257.4000244141</ele>
        <time>2016-12-16T15:11:43Z</time>
      </trkpt>
      <trkpt lat="45.16765" lon="5.56884">
        <ele>1257</ele>
        <time>2016-12-16T15:11:44Z</time>
      </trkpt>
      <trkpt lat="45.16769" lon="5.56888">
        <ele>1256.5999755859</ele>
        <time>2016-12-16T15:11:45Z</time>
      </trkpt>
      <trkpt lat="45.16773" lon="5.56892">
        <ele>1256</ele>
        <time>2016-12-16T15:11:46Z</time>
      </trkpt>
      <trkpt lat="45.16774" lon="5.56904">
        <ele>1255.4000244141</ele>
        <time>2016-12-16T15:11:47Z</time>
      </trkpt>
      <trkpt lat="45.16775" lon="5.56918">
        <ele>1254.8000488281</ele>
        <time>2016-12-16T15:11:48Z</time>
      </trkpt>
      <trkpt lat="45.16774" lon="5.56931">
        <ele>1254</ele>
        <time>2016-12-16T15:11:49Z</time>
      </trkpt>
      <trkpt lat="45.16773" lon="5.56944">
        <ele>1253.1999511719</ele>
        <time>2016-12-16T15:11:50Z</time>
      </trkpt>
      <trkpt lat="45.16772" lon="5.56955">
        <ele>1252.4000244141</ele>
        <time>2016-12-16T15:11:51Z</time>
      </trkpt>
      <trkpt lat="45.16774" lon="5.56964">
        <ele>1251.4000244141</ele>
        <time>2016-12-16T15:11:52Z</time>
      </trkpt>
      <trkpt lat="45.16775" lon="5.56971">
        <ele>1250.5999755859</ele>
        <time>2016-12-16T15:11:53Z</time>
      </trkpt>
      <trkpt lat="45.16776" lon="5.56977">
        <ele>1249</ele>
        <time>2016-12-16T15:11:54Z</time>
      </trkpt>
      <trkpt lat="45.16777" lon="5.56981">
        <ele>1248.1999511719</ele>
        <time>2016-12-16T15:11:55Z</time>
      </trkpt>
      <trkpt lat="45.16778" lon="5.56984">
        <ele>1247.5999755859</ele>
        <time>2016-12-16T15:11:56Z</time>
      </trkpt>
      <trkpt lat="45.16779" lon="5.56986">
        <ele>1246.8000488281</ele>
        <time>2016-12-16T15:11:57Z</time>
      </trkpt>
      <trkpt lat="45.16779" lon="5.56987">
        <ele>1246.1999511719</ele>
        <time>2016-12-16T15:11:58Z</time>
      </trkpt>
      <trkpt lat="45.16779" lon="5.56987">
        <ele>1245.5999755859</ele>
        <time>2016-12-16T15:11:59Z</time>
      </trkpt>
      <trkpt lat="45.16779" lon="5.56987">
        <ele>1245.1999511719</ele>
        <time>2016-12-16T15:12:00Z</time>
      </trkpt>
      <trkpt lat="45.16779" lon="5.56985">
        <ele>1244.8000488281</ele>
        <time>2016-12-16T15:12:01Z</time>
      </trkpt>
      <trkpt lat="45.1678" lon="5.56982">
        <ele>1244.4000244141</ele>
        <time>2016-12-16T15:12:02Z</time>
      </trkpt>
      <trkpt lat="45.16781" lon="5.56979">
        <ele>1244</ele>
        <time>2016-12-16T15:12:03Z</time>
      </trkpt>
      <trkpt lat="45.16781" lon="5.56974">
        <ele>1244</ele>
        <time>2016-12-16T15:12:04Z</time>
      </trkpt>
      <trkpt lat="45.16784" lon="5.56969">
        <ele>1244</ele>
        <time>2016-12-16T15:12:05Z</time>
      </trkpt>
      <trkpt lat="45.1679" lon="5.56955">
        <ele>1244</ele>
        <time>2016-12-16T15:12:07Z</time>
      </trkpt>
      <trkpt lat="45.16793" lon="5.56948">
        <ele>1243.4000244141</ele>
        <time>2016-12-16T15:12:08Z</time>
      </trkpt>
      <trkpt lat="45.16796" lon="5.56942">
        <ele>1243</ele>
        <time>2016-12-16T15:12:09Z</time>
      </trkpt>
      <trkpt lat="45.16798" lon="5.56936">
        <ele>1242.4000244141</ele>
        <time>2016-12-16T15:12:10Z</time>
      </trkpt>
      <trkpt lat="45.16801" lon="5.5693">
        <ele>1241.8000488281</ele>
        <time>2016-12-16T15:12:11Z</time>
      </trkpt>
      <trkpt lat="45.16803" lon="5.56924">
        <ele>1241</ele>
        <time>2016-12-16T15:12:12Z</time>
      </trkpt>
      <trkpt lat="45.1681" lon="5.56905">
        <ele>1238.5999755859</ele>
        <time>2016-12-16T15:12:15Z</time>
      </trkpt>
      <trkpt lat="45.16811" lon="5.56898">
        <ele>1237.8000488281</ele>
        <time>2016-12-16T15:12:16Z</time>
      </trkpt>
      <trkpt lat="45.16813" lon="5.5689">
        <ele>1237</ele>
        <time>2016-12-16T15:12:17Z</time>
      </trkpt>
      <trkpt lat="45.16815" lon="5.56882">
        <ele>1236</ele>
        <time>2016-12-16T15:12:18Z</time>
      </trkpt>
      <trkpt lat="45.16818" lon="5.56874">
        <ele>1234.1999511719</ele>
        <time>2016-12-16T15:12:19Z</time>
      </trkpt>
      <trkpt lat="45.16821" lon="5.56866">
        <ele>1233.4000244141</ele>
        <time>2016-12-16T15:12:20Z</time>
      </trkpt>
      <trkpt lat="45.16824" lon="5.56856">
        <ele>1232.4000244141</ele>
        <time>2016-12-16T15:12:21Z</time>
      </trkpt>
      <trkpt lat="45.16828" lon="5.56846">
        <ele>1231.4000244141</ele>
        <time>2016-12-16T15:12:22Z</time>
      </trkpt>
      <trkpt lat="45.16831" lon="5.56838">
        <ele>1230.4000244141</ele>
        <time>2016-12-16T15:12:23Z</time>
      </trkpt>
      <trkpt lat="45.16834" lon="5.5683">
        <ele>1229.5999755859</ele>
        <time>2016-12-16T15:12:24Z</time>
      </trkpt>
      <trkpt lat="45.16837" lon="5.56823">
        <ele>1228.5999755859</ele>
        <time>2016-12-16T15:12:25Z</time>
      </trkpt>
      <trkpt lat="45.16839" lon="5.56815">
        <ele>1227.8000488281</ele>
        <time>2016-12-16T15:12:26Z</time>
      </trkpt>
      <trkpt lat="45.16841" lon="5.56808">
        <ele>1226.8000488281</ele>
        <time>2016-12-16T15:12:27Z</time>
      </trkpt>
      <trkpt lat="45.16844" lon="5.568">
        <ele>1226</ele>
        <time>2016-12-16T15:12:28Z</time>
      </trkpt>
      <trkpt lat="45.16847" lon="5.56794">
        <ele>1225</ele>
        <time>2016-12-16T15:12:29Z</time>
      </trkpt>
      <trkpt lat="45.16849" lon="5.56787">
        <ele>1224</ele>
        <time>2016-12-16T15:12:30Z</time>
      </trkpt>
      <trkpt lat="45.16852" lon="5.5678">
        <ele>1223</ele>
        <time>2016-12-16T15:12:31Z</time>
      </trkpt>
      <trkpt lat="45.16854" lon="5.56774">
        <ele>1222.1999511719</ele>
        <time>2016-12-16T15:12:32Z</time>
      </trkpt>
      <trkpt lat="45.16856" lon="5.56767">
        <ele>1221.1999511719</ele>
        <time>2016-12-16T15:12:33Z</time>
      </trkpt>
      <trkpt lat="45.16859" lon="5.56761">
        <ele>1220.4000244141</ele>
        <time>2016-12-16T15:12:34Z</time>
      </trkpt>
      <trkpt lat="45.1686" lon="5.56755">
        <ele>1219.5999755859</ele>
        <time>2016-12-16T15:12:35Z</time>
      </trkpt>
      <trkpt lat="45.16863" lon="5.5675">
        <ele>1218.8000488281</ele>
        <time>2016-12-16T15:12:36Z</time>
      </trkpt>
      <trkpt lat="45.16864" lon="5.56746">
        <ele>1218</ele>
        <time>2016-12-16T15:12:37Z</time>
      </trkpt>
      <trkpt lat="45.16864" lon="5.56743">
        <ele>1217.4000244141</ele>
        <time>2016-12-16T15:12:38Z</time>
      </trkpt>
      <trkpt lat="45.16866" lon="5.56742">
        <ele>1216.5999755859</ele>
        <time>2016-12-16T15:12:39Z</time>
      </trkpt>
      <trkpt lat="45.16866" lon="5.56741">
        <ele>1215.8000488281</ele>
        <time>2016-12-16T15:12:40Z</time>
      </trkpt>
      <trkpt lat="45.16866" lon="5.56739">
        <ele>1215.1999511719</ele>
        <time>2016-12-16T15:12:41Z</time>
      </trkpt>
      <trkpt lat="45.16863" lon="5.56737">
        <ele>1214</ele>
        <time>2016-12-16T15:12:43Z</time>
      </trkpt>
      <trkpt lat="45.16863" lon="5.56738">
        <ele>1213.1999511719</ele>
        <time>2016-12-16T15:12:44Z</time>
      </trkpt>
      <trkpt lat="45.16864" lon="5.5674">
        <ele>1212.8000488281</ele>
        <time>2016-12-16T15:12:45Z</time>
      </trkpt>
      <trkpt lat="45.16864" lon="5.56745">
        <ele>1212.4000244141</ele>
        <time>2016-12-16T15:12:46Z</time>
      </trkpt>
      <trkpt lat="45.16865" lon="5.56756">
        <ele>1211.8000488281</ele>
        <time>2016-12-16T15:12:48Z</time>
      </trkpt>
      <trkpt lat="45.16864" lon="5.56761">
        <ele>1211.4000244141</ele>
        <time>2016-12-16T15:12:49Z</time>
      </trkpt>
      <trkpt lat="45.16865" lon="5.56766">
        <ele>1210.8000488281</ele>
        <time>2016-12-16T15:12:50Z</time>
      </trkpt>
      <trkpt lat="45.16866" lon="5.56772">
        <ele>1210.4000244141</ele>
        <time>2016-12-16T15:12:51Z</time>
      </trkpt>
      <trkpt lat="45.16866" lon="5.56779">
        <ele>1209.8000488281</ele>
        <time>2016-12-16T15:12:52Z</time>
      </trkpt>
      <trkpt lat="45.16866" lon="5.56786">
        <ele>1209.1999511719</ele>
        <time>2016-12-16T15:12:53Z</time>
      </trkpt>
      <trkpt lat="45.16866" lon="5.56794">
        <ele>1208.5999755859</ele>
        <time>2016-12-16T15:12:54Z</time>
      </trkpt>
      <trkpt lat="45.16867" lon="5.56802">
        <ele>1208.1999511719</ele>
        <time>2016-12-16T15:12:55Z</time>
      </trkpt>
      <trkpt lat="45.16867" lon="5.56811">
        <ele>1207.5999755859</ele>
        <time>2016-12-16T15:12:56Z</time>
      </trkpt>
      <trkpt lat="45.16867" lon="5.56821">
        <ele>1207</ele>
        <time>2016-12-16T15:12:57Z</time>
      </trkpt>
      <trkpt lat="45.16868" lon="5.56829">
        <ele>1206.5999755859</ele>
        <time>2016-12-16T15:12:58Z</time>
      </trkpt>
      <trkpt lat="45.16868" lon="5.56841">
        <ele>1206</ele>
        <time>2016-12-16T15:12:59Z</time>
      </trkpt>
      <trkpt lat="45.16868" lon="5.56853">
        <ele>1205.4000244141</ele>
        <time>2016-12-16T15:13:00Z</time>
      </trkpt>
      <trkpt lat="45.16869" lon="5.56864">
        <ele>1204.5999755859</ele>
        <time>2016-12-16T15:13:01Z</time>
      </trkpt>
      <trkpt lat="45.1687" lon="5.56872">
        <ele>1204</ele>
        <time>2016-12-16T15:13:02Z</time>
      </trkpt>
      <trkpt lat="45.16869" lon="5.56876">
        <ele>1203.1999511719</ele>
        <time>2016-12-16T15:13:03Z</time>
      </trkpt>
      <trkpt lat="45.16867" lon="5.56881">
        <ele>1202.4000244141</ele>
        <time>2016-12-16T15:13:04Z</time>
      </trkpt>
      <trkpt lat="45.16866" lon="5.56888">
        <ele>1201.5999755859</ele>
        <time>2016-12-16T15:13:05Z</time>
      </trkpt>
      <trkpt lat="45.16866" lon="5.56895">
        <ele>1200.8000488281</ele>
        <time>2016-12-16T15:13:06Z</time>
      </trkpt>
      <trkpt lat="45.16865" lon="5.56903">
        <ele>1200.1999511719</ele>
        <time>2016-12-16T15:13:07Z</time>
      </trkpt>
      <trkpt lat="45.16865" lon="5.56911">
        <ele>1199.5999755859</ele>
        <time>2016-12-16T15:13:08Z</time>
      </trkpt>
      <trkpt lat="45.16865" lon="5.56919">
        <ele>1198.4000244141</ele>
        <time>2016-12-16T15:13:09Z</time>
      </trkpt>
      <trkpt lat="45.16866" lon="5.56926">
        <ele>1197.8000488281</ele>
        <time>2016-12-16T15:13:10Z</time>
      </trkpt>
      <trkpt lat="45.16868" lon="5.56934">
        <ele>1197.1999511719</ele>
        <time>2016-12-16T15:13:11Z</time>
      </trkpt>
      <trkpt lat="45.16872" lon="5.56941">
        <ele>1196.5999755859</ele>
        <time>2016-12-16T15:13:12Z</time>
      </trkpt>
      <trkpt lat="45.16876" lon="5.56947">
        <ele>1196</ele>
        <time>2016-12-16T15:13:13Z</time>
      </trkpt>
      <trkpt lat="45.16881" lon="5.56953">
        <ele>1195.4000244141</ele>
        <time>2016-12-16T15:13:14Z</time>
      </trkpt>
      <trkpt lat="45.16885" lon="5.56957">
        <ele>1194.8000488281</ele>
        <time>2016-12-16T15:13:15Z</time>
      </trkpt>
      <trkpt lat="45.16889" lon="5.56958">
        <ele>1194.1999511719</ele>
        <time>2016-12-16T15:13:16Z</time>
      </trkpt>
      <trkpt lat="45.16891" lon="5.56958">
        <ele>1193.4000244141</ele>
        <time>2016-12-16T15:13:17Z</time>
      </trkpt>
      <trkpt lat="45.16891" lon="5.56957">
        <ele>1192.8000488281</ele>
        <time>2016-12-16T15:13:18Z</time>
      </trkpt>
      <trkpt lat="45.16891" lon="5.56954">
        <ele>1192</ele>
        <time>2016-12-16T15:13:19Z</time>
      </trkpt>
      <trkpt lat="45.1689" lon="5.56951">
        <ele>1191.4000244141</ele>
        <time>2016-12-16T15:13:20Z</time>
      </trkpt>
      <trkpt lat="45.1689" lon="5.56948">
        <ele>1191</ele>
        <time>2016-12-16T15:13:21Z</time>
      </trkpt>
      <trkpt lat="45.16891" lon="5.56944">
        <ele>1190.4000244141</ele>
        <time>2016-12-16T15:13:22Z</time>
      </trkpt>
      <trkpt lat="45.16892" lon="5.56941">
        <ele>1190</ele>
        <time>2016-12-16T15:13:23Z</time>
      </trkpt>
      <trkpt lat="45.16893" lon="5.56938">
        <ele>1189.4000244141</ele>
        <time>2016-12-16T15:13:24Z</time>
      </trkpt>
      <trkpt lat="45.16893" lon="5.56935">
        <ele>1188.8000488281</ele>
        <time>2016-12-16T15:13:25Z</time>
      </trkpt>
      <trkpt lat="45.16893" lon="5.56935">
        <ele>1188.4000244141</ele>
        <time>2016-12-16T15:13:26Z</time>
      </trkpt>
      <trkpt lat="45.16894" lon="5.56935">
        <ele>1187</ele>
        <time>2016-12-16T15:13:28Z</time>
      </trkpt>
      <trkpt lat="45.16896" lon="5.56937">
        <ele>1186.4000244141</ele>
        <time>2016-12-16T15:13:29Z</time>
      </trkpt>
      <trkpt lat="45.16898" lon="5.56939">
        <ele>1185.8000488281</ele>
        <time>2016-12-16T15:13:30Z</time>
      </trkpt>
      <trkpt lat="45.169" lon="5.56938">
        <ele>1185.1999511719</ele>
        <time>2016-12-16T15:13:31Z</time>
      </trkpt>
      <trkpt lat="45.16901" lon="5.56938">
        <ele>1184.5999755859</ele>
        <time>2016-12-16T15:13:32Z</time>
      </trkpt>
      <trkpt lat="45.16901" lon="5.5694">
        <ele>1183.8000488281</ele>
        <time>2016-12-16T15:13:33Z</time>
      </trkpt>
      <trkpt lat="45.16901" lon="5.56938">
        <ele>1183.1999511719</ele>
        <time>2016-12-16T15:13:34Z</time>
      </trkpt>
      <trkpt lat="45.16903" lon="5.56933">
        <ele>1182.5999755859</ele>
        <time>2016-12-16T15:13:35Z</time>
      </trkpt>
      <trkpt lat="45.16905" lon="5.56929">
        <ele>1182.1999511719</ele>
        <time>2016-12-16T15:13:36Z</time>
      </trkpt>
      <trkpt lat="45.16907" lon="5.56927">
        <ele>1181.5999755859</ele>
        <time>2016-12-16T15:13:37Z</time>
      </trkpt>
      <trkpt lat="45.16908" lon="5.56925">
        <ele>1181</ele>
        <time>2016-12-16T15:13:38Z</time>
      </trkpt>
      <trkpt lat="45.16909" lon="5.56922">
        <ele>1180.5999755859</ele>
        <time>2016-12-16T15:13:41Z</time>
      </trkpt>
      <trkpt lat="45.16909" lon="5.56922">
        <ele>1179</ele>
        <time>2016-12-16T15:13:45Z</time>
      </trkpt>
      <trkpt lat="45.1691" lon="5.56921">
        <ele>1179</ele>
        <time>2016-12-16T15:13:59Z</time>
      </trkpt>
      <trkpt lat="45.16916" lon="5.56909">
        <ele>1179</ele>
        <time>2016-12-16T15:14:04Z</time>
      </trkpt>
      <trkpt lat="45.1692" lon="5.56891">
        <ele>1179</ele>
        <time>2016-12-16T15:14:07Z</time>
      </trkpt>
      <trkpt lat="45.1692" lon="5.56884">
        <ele>1179</ele>
        <time>2016-12-16T15:14:08Z</time>
      </trkpt>
      <trkpt lat="45.16921" lon="5.56869">
        <ele>1178.5999755859</ele>
        <time>2016-12-16T15:14:10Z</time>
      </trkpt>
      <trkpt lat="45.16922" lon="5.5686">
        <ele>1178</ele>
        <time>2016-12-16T15:14:11Z</time>
      </trkpt>
      <trkpt lat="45.16925" lon="5.56854">
        <ele>1177.5999755859</ele>
        <time>2016-12-16T15:14:12Z</time>
      </trkpt>
      <trkpt lat="45.16927" lon="5.56847">
        <ele>1177.1999511719</ele>
        <time>2016-12-16T15:14:13Z</time>
      </trkpt>
      <trkpt lat="45.16929" lon="5.56839">
        <ele>1176.8000488281</ele>
        <time>2016-12-16T15:14:14Z</time>
      </trkpt>
      <trkpt lat="45.16931" lon="5.56831">
        <ele>1176.1999511719</ele>
        <time>2016-12-16T15:14:15Z</time>
      </trkpt>
      <trkpt lat="45.16933" lon="5.56821">
        <ele>1175.5999755859</ele>
        <time>2016-12-16T15:14:16Z</time>
      </trkpt>
      <trkpt lat="45.16936" lon="5.56812">
        <ele>1175.1999511719</ele>
        <time>2016-12-16T15:14:17Z</time>
      </trkpt>
      <trkpt lat="45.16938" lon="5.56802">
        <ele>1174.4000244141</ele>
        <time>2016-12-16T15:14:18Z</time>
      </trkpt>
      <trkpt lat="45.1694" lon="5.56793">
        <ele>1173.8000488281</ele>
        <time>2016-12-16T15:14:19Z</time>
      </trkpt>
      <trkpt lat="45.16941" lon="5.56784">
        <ele>1173.1999511719</ele>
        <time>2016-12-16T15:14:20Z</time>
      </trkpt>
      <trkpt lat="45.16942" lon="5.56775">
        <ele>1172.4000244141</ele>
        <time>2016-12-16T15:14:21Z</time>
      </trkpt>
      <trkpt lat="45.16944" lon="5.56765">
        <ele>1171.5999755859</ele>
        <time>2016-12-16T15:14:22Z</time>
      </trkpt>
      <trkpt lat="45.16945" lon="5.56756">
        <ele>1170</ele>
        <time>2016-12-16T15:14:23Z</time>
      </trkpt>
      <trkpt lat="45.16944" lon="5.56748">
        <ele>1169.1999511719</ele>
        <time>2016-12-16T15:14:24Z</time>
      </trkpt>
      <trkpt lat="45.16943" lon="5.5674">
        <ele>1168.5999755859</ele>
        <time>2016-12-16T15:14:25Z</time>
      </trkpt>
      <trkpt lat="45.16941" lon="5.56732">
        <ele>1167.8000488281</ele>
        <time>2016-12-16T15:14:26Z</time>
      </trkpt>
      <trkpt lat="45.16939" lon="5.56723">
        <ele>1167</ele>
        <time>2016-12-16T15:14:27Z</time>
      </trkpt>
      <trkpt lat="45.16938" lon="5.56714">
        <ele>1166.1999511719</ele>
        <time>2016-12-16T15:14:28Z</time>
      </trkpt>
      <trkpt lat="45.16937" lon="5.56705">
        <ele>1165.5999755859</ele>
        <time>2016-12-16T15:14:29Z</time>
      </trkpt>
      <trkpt lat="45.16936" lon="5.56695">
        <ele>1164.8000488281</ele>
        <time>2016-12-16T15:14:30Z</time>
      </trkpt>
      <trkpt lat="45.16935" lon="5.56686">
        <ele>1164</ele>
        <time>2016-12-16T15:14:31Z</time>
      </trkpt>
      <trkpt lat="45.16935" lon="5.56677">
        <ele>1163</ele>
        <time>2016-12-16T15:14:32Z</time>
      </trkpt>
      <trkpt lat="45.16935" lon="5.56669">
        <ele>1162.1999511719</ele>
        <time>2016-12-16T15:14:33Z</time>
      </trkpt>
      <trkpt lat="45.16935" lon="5.56662">
        <ele>1161.1999511719</ele>
        <time>2016-12-16T15:14:34Z</time>
      </trkpt>
      <trkpt lat="45.16935" lon="5.56656">
        <ele>1160.1999511719</ele>
        <time>2016-12-16T15:14:35Z</time>
      </trkpt>
      <trkpt lat="45.16935" lon="5.56649">
        <ele>1159.4000244141</ele>
        <time>2016-12-16T15:14:36Z</time>
      </trkpt>
      <trkpt lat="45.16935" lon="5.56641">
        <ele>1158.4000244141</ele>
        <time>2016-12-16T15:14:37Z</time>
      </trkpt>
      <trkpt lat="45.16935" lon="5.56634">
        <ele>1157.4000244141</ele>
        <time>2016-12-16T15:14:38Z</time>
      </trkpt>
      <trkpt lat="45.1694" lon="5.56629">
        <ele>1156.1999511719</ele>
        <time>2016-12-16T15:14:39Z</time>
      </trkpt>
      <trkpt lat="45.16946" lon="5.56626">
        <ele>1155.1999511719</ele>
        <time>2016-12-16T15:14:40Z</time>
      </trkpt>
      <trkpt lat="45.16949" lon="5.56626">
        <ele>1154.1999511719</ele>
        <time>2016-12-16T15:14:41Z</time>
      </trkpt>
      <trkpt lat="45.16952" lon="5.56625">
        <ele>1153.1999511719</ele>
        <time>2016-12-16T15:14:42Z</time>
      </trkpt>
      <trkpt lat="45.16954" lon="5.56625">
        <ele>1152</ele>
        <time>2016-12-16T15:14:43Z</time>
      </trkpt>
      <trkpt lat="45.16955" lon="5.56624">
        <ele>1151</ele>
        <time>2016-12-16T15:14:44Z</time>
      </trkpt>
      <trkpt lat="45.16957" lon="5.56624">
        <ele>1150</ele>
        <time>2016-12-16T15:14:45Z</time>
      </trkpt>
      <trkpt lat="45.16963" lon="5.56625">
        <ele>1149.4000244141</ele>
        <time>2016-12-16T15:14:47Z</time>
      </trkpt>
      <trkpt lat="45.16963" lon="5.56625">
        <ele>1148.4000244141</ele>
        <time>2016-12-16T15:14:48Z</time>
      </trkpt>
      <trkpt lat="45.16964" lon="5.56625">
        <ele>1147.8000488281</ele>
        <time>2016-12-16T15:14:49Z</time>
      </trkpt>
      <trkpt lat="45.16965" lon="5.56625">
        <ele>1147.1999511719</ele>
        <time>2016-12-16T15:14:50Z</time>
      </trkpt>
      <trkpt lat="45.16967" lon="5.56626">
        <ele>1146.8000488281</ele>
        <time>2016-12-16T15:14:51Z</time>
      </trkpt>
      <trkpt lat="45.1697" lon="5.56624">
        <ele>1146.4000244141</ele>
        <time>2016-12-16T15:14:52Z</time>
      </trkpt>
      <trkpt lat="45.16973" lon="5.56623">
        <ele>1146</ele>
        <time>2016-12-16T15:14:53Z</time>
      </trkpt>
      <trkpt lat="45.16977" lon="5.56622">
        <ele>1145.5999755859</ele>
        <time>2016-12-16T15:14:54Z</time>
      </trkpt>
      <trkpt lat="45.16983" lon="5.56621">
        <ele>1145.1999511719</ele>
        <time>2016-12-16T15:14:55Z</time>
      </trkpt>
      <trkpt lat="45.16988" lon="5.56619">
        <ele>1145.1999511719</ele>
        <time>2016-12-16T15:14:56Z</time>
      </trkpt>
      <trkpt lat="45.16999" lon="5.56604">
        <ele>1145.1999511719</ele>
        <time>2016-12-16T15:14:59Z</time>
      </trkpt>
      <trkpt lat="45.17002" lon="5.56591">
        <ele>1145.1999511719</ele>
        <time>2016-12-16T15:15:01Z</time>
      </trkpt>
      <trkpt lat="45.17003" lon="5.5658">
        <ele>1145.1999511719</ele>
        <time>2016-12-16T15:15:03Z</time>
      </trkpt>
      <trkpt lat="45.17003" lon="5.56574">
        <ele>1145.5999755859</ele>
        <time>2016-12-16T15:15:04Z</time>
      </trkpt>
      <trkpt lat="45.17004" lon="5.5657">
        <ele>1146</ele>
        <time>2016-12-16T15:15:05Z</time>
      </trkpt>
      <trkpt lat="45.17006" lon="5.56566">
        <ele>1146.5999755859</ele>
        <time>2016-12-16T15:15:06Z</time>
      </trkpt>
      <trkpt lat="45.17007" lon="5.56564">
        <ele>1147</ele>
        <time>2016-12-16T15:15:07Z</time>
      </trkpt>
      <trkpt lat="45.17009" lon="5.56562">
        <ele>1147.4000244141</ele>
        <time>2016-12-16T15:15:08Z</time>
      </trkpt>
      <trkpt lat="45.17018" lon="5.56555">
        <ele>1147.4000244141</ele>
        <time>2016-12-16T15:15:11Z</time>
      </trkpt>
      <trkpt lat="45.17024" lon="5.56553">
        <ele>1147.4000244141</ele>
        <time>2016-12-16T15:15:13Z</time>
      </trkpt>
      <trkpt lat="45.17026" lon="5.56552">
        <ele>1147.4000244141</ele>
        <time>2016-12-16T15:15:14Z</time>
      </trkpt>
      <trkpt lat="45.17035" lon="5.56543">
        <ele>1147.4000244141</ele>
        <time>2016-12-16T15:15:20Z</time>
      </trkpt>
      <trkpt lat="45.17038" lon="5.56537">
        <ele>1147</ele>
        <time>2016-12-16T15:15:22Z</time>
      </trkpt>
      <trkpt lat="45.17038" lon="5.56534">
        <ele>1146.5999755859</ele>
        <time>2016-12-16T15:15:23Z</time>
      </trkpt>
      <trkpt lat="45.17038" lon="5.56531">
        <ele>1146.1999511719</ele>
        <time>2016-12-16T15:15:24Z</time>
      </trkpt>
      <trkpt lat="45.17038" lon="5.56528">
        <ele>1145.5999755859</ele>
        <time>2016-12-16T15:15:25Z</time>
      </trkpt>
      <trkpt lat="45.17038" lon="5.56525">
        <ele>1145</ele>
        <time>2016-12-16T15:15:26Z</time>
      </trkpt>
      <trkpt lat="45.17038" lon="5.56523">
        <ele>1144.4000244141</ele>
        <time>2016-12-16T15:15:27Z</time>
      </trkpt>
      <trkpt lat="45.17038" lon="5.5652">
        <ele>1143.8000488281</ele>
        <time>2016-12-16T15:15:28Z</time>
      </trkpt>
      <trkpt lat="45.17038" lon="5.56518">
        <ele>1143.1999511719</ele>
        <time>2016-12-16T15:15:29Z</time>
      </trkpt>
      <trkpt lat="45.17038" lon="5.56518">
        <ele>1142.5999755859</ele>
        <time>2016-12-16T15:15:30Z</time>
      </trkpt>
      <trkpt lat="45.17038" lon="5.56518">
        <ele>1141.4000244141</ele>
        <time>2016-12-16T15:15:32Z</time>
      </trkpt>
      <trkpt lat="45.17038" lon="5.56516">
        <ele>1140.1999511719</ele>
        <time>2016-12-16T15:15:37Z</time>
      </trkpt>
      <trkpt lat="45.17038" lon="5.56515">
        <ele>1139.4000244141</ele>
        <time>2016-12-16T15:15:39Z</time>
      </trkpt>
      <trkpt lat="45.1704" lon="5.56514">
        <ele>1138.8000488281</ele>
        <time>2016-12-16T15:15:40Z</time>
      </trkpt>
      <trkpt lat="45.17043" lon="5.56512">
        <ele>1138.4000244141</ele>
        <time>2016-12-16T15:15:41Z</time>
      </trkpt>
      <trkpt lat="45.17053" lon="5.565">
        <ele>1138.4000244141</ele>
        <time>2016-12-16T15:15:46Z</time>
      </trkpt>
      <trkpt lat="45.17057" lon="5.56492">
        <ele>1138.4000244141</ele>
        <time>2016-12-16T15:15:49Z</time>
      </trkpt>
      <trkpt lat="45.17059" lon="5.56491">
        <ele>1138.4000244141</ele>
        <time>2016-12-16T15:15:50Z</time>
      </trkpt>
      <trkpt lat="45.1707" lon="5.56485">
        <ele>1138.4000244141</ele>
        <time>2016-12-16T15:15:54Z</time>
      </trkpt>
      <trkpt lat="45.17073" lon="5.56482">
        <ele>1138</ele>
        <time>2016-12-16T15:15:55Z</time>
      </trkpt>
      <trkpt lat="45.17076" lon="5.56478">
        <ele>1137.5999755859</ele>
        <time>2016-12-16T15:15:56Z</time>
      </trkpt>
      <trkpt lat="45.17079" lon="5.56475">
        <ele>1137.1999511719</ele>
        <time>2016-12-16T15:15:57Z</time>
      </trkpt>
      <trkpt lat="45.17082" lon="5.56471">
        <ele>1136.8000488281</ele>
        <time>2016-12-16T15:15:58Z</time>
      </trkpt>
      <trkpt lat="45.17086" lon="5.56469">
        <ele>1136.4000244141</ele>
        <time>2016-12-16T15:15:59Z</time>
      </trkpt>
      <trkpt lat="45.17095" lon="5.5646">
        <ele>1136.4000244141</ele>
        <time>2016-12-16T15:16:02Z</time>
      </trkpt>
      <trkpt lat="45.17101" lon="5.56451">
        <ele>1136.4000244141</ele>
        <time>2016-12-16T15:16:05Z</time>
      </trkpt>
      <trkpt lat="45.171" lon="5.56449">
        <ele>1136</ele>
        <time>2016-12-16T15:16:06Z</time>
      </trkpt>
      <trkpt lat="45.17099" lon="5.56447">
        <ele>1135.4000244141</ele>
        <time>2016-12-16T15:16:07Z</time>
      </trkpt>
      <trkpt lat="45.17097" lon="5.56443">
        <ele>1135</ele>
        <time>2016-12-16T15:16:08Z</time>
      </trkpt>
      <trkpt lat="45.17095" lon="5.5644">
        <ele>1134.5999755859</ele>
        <time>2016-12-16T15:16:09Z</time>
      </trkpt>
      <trkpt lat="45.17092" lon="5.5644">
        <ele>1133.8000488281</ele>
        <time>2016-12-16T15:16:10Z</time>
      </trkpt>
      <trkpt lat="45.17088" lon="5.56439">
        <ele>1133.1999511719</ele>
        <time>2016-12-16T15:16:11Z</time>
      </trkpt>
      <trkpt lat="45.17085" lon="5.56439">
        <ele>1132.4000244141</ele>
        <time>2016-12-16T15:16:12Z</time>
      </trkpt>
      <trkpt lat="45.17082" lon="5.5644">
        <ele>1131.5999755859</ele>
        <time>2016-12-16T15:16:13Z</time>
      </trkpt>
      <trkpt lat="45.17079" lon="5.56442">
        <ele>1130.5999755859</ele>
        <time>2016-12-16T15:16:14Z</time>
      </trkpt>
      <trkpt lat="45.17076" lon="5.56444">
        <ele>1129.8000488281</ele>
        <time>2016-12-16T15:16:15Z</time>
      </trkpt>
      <trkpt lat="45.17073" lon="5.56447">
        <ele>1129</ele>
        <time>2016-12-16T15:16:16Z</time>
      </trkpt>
      <trkpt lat="45.17069" lon="5.5645">
        <ele>1128</ele>
        <time>2016-12-16T15:16:17Z</time>
      </trkpt>
      <trkpt lat="45.17065" lon="5.56452">
        <ele>1127.1999511719</ele>
        <time>2016-12-16T15:16:18Z</time>
      </trkpt>
      <trkpt lat="45.1706" lon="5.56455">
        <ele>1126.4000244141</ele>
        <time>2016-12-16T15:16:19Z</time>
      </trkpt>
      <trkpt lat="45.17056" lon="5.56457">
        <ele>1125.8000488281</ele>
        <time>2016-12-16T15:16:20Z</time>
      </trkpt>
      <trkpt lat="45.17052" lon="5.56457">
        <ele>1125.4000244141</ele>
        <time>2016-12-16T15:16:21Z</time>
      </trkpt>
      <trkpt lat="45.17046" lon="5.5646">
        <ele>1125</ele>
        <time>2016-12-16T15:16:22Z</time>
      </trkpt>
      <trkpt lat="45.17042" lon="5.56458">
        <ele>1124.5999755859</ele>
        <time>2016-12-16T15:16:23Z</time>
      </trkpt>
      <trkpt lat="45.17039" lon="5.56455">
        <ele>1124.1999511719</ele>
        <time>2016-12-16T15:16:24Z</time>
      </trkpt>
      <trkpt lat="45.17037" lon="5.56451">
        <ele>1124.1999511719</ele>
        <time>2016-12-16T15:16:25Z</time>
      </trkpt>
      <trkpt lat="45.17037" lon="5.56445">
        <ele>1124.1999511719</ele>
        <time>2016-12-16T15:16:26Z</time>
      </trkpt>
      <trkpt lat="45.1704" lon="5.56423">
        <ele>1124.1999511719</ele>
        <time>2016-12-16T15:16:31Z</time>
      </trkpt>
      <trkpt lat="45.17037" lon="5.56401">
        <ele>1124.1999511719</ele>
        <time>2016-12-16T15:16:37Z</time>
      </trkpt>
      <trkpt lat="45.17039" lon="5.56377">
        <ele>1124.1999511719</ele>
        <time>2016-12-16T15:16:42Z</time>
      </trkpt>
      <trkpt lat="45.17041" lon="5.56351">
        <ele>1124.1999511719</ele>
        <time>2016-12-16T15:16:48Z</time>
      </trkpt>
      <trkpt lat="45.17044" lon="5.56319">
        <ele>1124.1999511719</ele>
        <time>2016-12-16T15:16:55Z</time>
      </trkpt>
      <trkpt lat="45.17046" lon="5.56282">
        <ele>1124.1999511719</ele>
        <time>2016-12-16T15:17:02Z</time>
      </trkpt>
      <trkpt lat="45.17049" lon="5.56237">
        <ele>1124.1999511719</ele>
        <time>2016-12-16T15:17:08Z</time>
      </trkpt>
      <trkpt lat="45.17049" lon="5.5621">
        <ele>1123.8000488281</ele>
        <time>2016-12-16T15:17:11Z</time>
      </trkpt>
      <trkpt lat="45.1705" lon="5.56201">
        <ele>1123.4000244141</ele>
        <time>2016-12-16T15:17:12Z</time>
      </trkpt>
      <trkpt lat="45.17051" lon="5.56192">
        <ele>1122.8000488281</ele>
        <time>2016-12-16T15:17:13Z</time>
      </trkpt>
      <trkpt lat="45.17052" lon="5.56183">
        <ele>1122.4000244141</ele>
        <time>2016-12-16T15:17:14Z</time>
      </trkpt>
      <trkpt lat="45.17053" lon="5.56175">
        <ele>1122</ele>
        <time>2016-12-16T15:17:15Z</time>
      </trkpt>
      <trkpt lat="45.17056" lon="5.5616">
        <ele>1121.5999755859</ele>
        <time>2016-12-16T15:17:17Z</time>
      </trkpt>
      <trkpt lat="45.17057" lon="5.56153">
        <ele>1121.1999511719</ele>
        <time>2016-12-16T15:17:18Z</time>
      </trkpt>
      <trkpt lat="45.17059" lon="5.56147">
        <ele>1120.8000488281</ele>
        <time>2016-12-16T15:17:19Z</time>
      </trkpt>
      <trkpt lat="45.17061" lon="5.56143">
        <ele>1120.4000244141</ele>
        <time>2016-12-16T15:17:20Z</time>
      </trkpt>
      <trkpt lat="45.17064" lon="5.56139">
        <ele>1120</ele>
        <time>2016-12-16T15:17:21Z</time>
      </trkpt>
      <trkpt lat="45.1707" lon="5.56132">
        <ele>1119.4000244141</ele>
        <time>2016-12-16T15:17:23Z</time>
      </trkpt>
      <trkpt lat="45.17074" lon="5.56128">
        <ele>1119</ele>
        <time>2016-12-16T15:17:24Z</time>
      </trkpt>
      <trkpt lat="45.17078" lon="5.56123">
        <ele>1118.5999755859</ele>
        <time>2016-12-16T15:17:25Z</time>
      </trkpt>
      <trkpt lat="45.17082" lon="5.56118">
        <ele>1118.1999511719</ele>
        <time>2016-12-16T15:17:26Z</time>
      </trkpt>
      <trkpt lat="45.17086" lon="5.56112">
        <ele>1117.5999755859</ele>
        <time>2016-12-16T15:17:27Z</time>
      </trkpt>
      <trkpt lat="45.17091" lon="5.56107">
        <ele>1117.5999755859</ele>
        <time>2016-12-16T15:17:28Z</time>
      </trkpt>
      <trkpt lat="45.17104" lon="5.56091">
        <ele>1117.1999511719</ele>
        <time>2016-12-16T15:17:31Z</time>
      </trkpt>
      <trkpt lat="45.17108" lon="5.56085">
        <ele>1116.8000488281</ele>
        <time>2016-12-16T15:17:32Z</time>
      </trkpt>
      <trkpt lat="45.17113" lon="5.5608">
        <ele>1116.4000244141</ele>
        <time>2016-12-16T15:17:33Z</time>
      </trkpt>
      <trkpt lat="45.17119" lon="5.56075">
        <ele>1116</ele>
        <time>2016-12-16T15:17:34Z</time>
      </trkpt>
      <trkpt lat="45.17126" lon="5.56071">
        <ele>1115.5999755859</ele>
        <time>2016-12-16T15:17:35Z</time>
      </trkpt>
      <trkpt lat="45.17147" lon="5.56057">
        <ele>1115.1999511719</ele>
        <time>2016-12-16T15:17:38Z</time>
      </trkpt>
      <trkpt lat="45.17155" lon="5.56051">
        <ele>1114.5999755859</ele>
        <time>2016-12-16T15:17:39Z</time>
      </trkpt>
      <trkpt lat="45.17161" lon="5.56046">
        <ele>1114.1999511719</ele>
        <time>2016-12-16T15:17:40Z</time>
      </trkpt>
      <trkpt lat="45.17168" lon="5.56042">
        <ele>1113.1999511719</ele>
        <time>2016-12-16T15:17:41Z</time>
      </trkpt>
      <trkpt lat="45.17193" lon="5.56031">
        <ele>1113.1999511719</ele>
        <time>2016-12-16T15:17:45Z</time>
      </trkpt>
      <trkpt lat="45.17198" lon="5.5603">
        <ele>1112.8000488281</ele>
        <time>2016-12-16T15:17:46Z</time>
      </trkpt>
      <trkpt lat="45.17204" lon="5.56027">
        <ele>1112.4000244141</ele>
        <time>2016-12-16T15:17:47Z</time>
      </trkpt>
      <trkpt lat="45.1721" lon="5.56025">
        <ele>1112</ele>
        <time>2016-12-16T15:17:48Z</time>
      </trkpt>
      <trkpt lat="45.17216" lon="5.56022">
        <ele>1111.4000244141</ele>
        <time>2016-12-16T15:17:49Z</time>
      </trkpt>
      <trkpt lat="45.17222" lon="5.56019">
        <ele>1111</ele>
        <time>2016-12-16T15:17:50Z</time>
      </trkpt>
      <trkpt lat="45.17229" lon="5.56016">
        <ele>1111</ele>
        <time>2016-12-16T15:17:51Z</time>
      </trkpt>
      <trkpt lat="45.17236" lon="5.56012">
        <ele>1110.5999755859</ele>
        <time>2016-12-16T15:17:52Z</time>
      </trkpt>
      <trkpt lat="45.17243" lon="5.56009">
        <ele>1110</ele>
        <time>2016-12-16T15:17:53Z</time>
      </trkpt>
      <trkpt lat="45.1725" lon="5.56005">
        <ele>1109.5999755859</ele>
        <time>2016-12-16T15:17:55Z</time>
      </trkpt>
      <trkpt lat="45.17257" lon="5.56001">
        <ele>1109.1999511719</ele>
        <time>2016-12-16T15:17:56Z</time>
      </trkpt>
      <trkpt lat="45.17264" lon="5.55997">
        <ele>1108.5999755859</ele>
        <time>2016-12-16T15:17:57Z</time>
      </trkpt>
      <trkpt lat="45.17271" lon="5.55993">
        <ele>1108</ele>
        <time>2016-12-16T15:17:58Z</time>
      </trkpt>
      <trkpt lat="45.17278" lon="5.55989">
        <ele>1107.4000244141</ele>
        <time>2016-12-16T15:17:59Z</time>
      </trkpt>
      <trkpt lat="45.17285" lon="5.55986">
        <ele>1106.5999755859</ele>
        <time>2016-12-16T15:18:00Z</time>
      </trkpt>
      <trkpt lat="45.17291" lon="5.55982">
        <ele>1106</ele>
        <time>2016-12-16T15:18:01Z</time>
      </trkpt>
      <trkpt lat="45.17298" lon="5.55979">
        <ele>1105.4000244141</ele>
        <time>2016-12-16T15:18:02Z</time>
      </trkpt>
      <trkpt lat="45.17304" lon="5.55977">
        <ele>1104.5999755859</ele>
        <time>2016-12-16T15:18:03Z</time>
      </trkpt>
      <trkpt lat="45.17311" lon="5.55978">
        <ele>1103.8000488281</ele>
        <time>2016-12-16T15:18:04Z</time>
      </trkpt>
      <trkpt lat="45.17317" lon="5.55982">
        <ele>1103.1999511719</ele>
        <time>2016-12-16T15:18:05Z</time>
      </trkpt>
      <trkpt lat="45.17323" lon="5.55988">
        <ele>1102.4000244141</ele>
        <time>2016-12-16T15:18:06Z</time>
      </trkpt>
      <trkpt lat="45.17328" lon="5.55995">
        <ele>1101.4000244141</ele>
        <time>2016-12-16T15:18:07Z</time>
      </trkpt>
      <trkpt lat="45.17333" lon="5.56002">
        <ele>1100.8000488281</ele>
        <time>2016-12-16T15:18:08Z</time>
      </trkpt>
      <trkpt lat="45.17338" lon="5.5601">
        <ele>1100.4000244141</ele>
        <time>2016-12-16T15:18:09Z</time>
      </trkpt>
      <trkpt lat="45.17343" lon="5.56018">
        <ele>1100</ele>
        <time>2016-12-16T15:18:10Z</time>
      </trkpt>
      <trkpt lat="45.17347" lon="5.56026">
        <ele>1099.5999755859</ele>
        <time>2016-12-16T15:18:11Z</time>
      </trkpt>
      <trkpt lat="45.17352" lon="5.56033">
        <ele>1099</ele>
        <time>2016-12-16T15:18:12Z</time>
      </trkpt>
      <trkpt lat="45.17357" lon="5.5604">
        <ele>1098.5999755859</ele>
        <time>2016-12-16T15:18:13Z</time>
      </trkpt>
      <trkpt lat="45.17363" lon="5.56045">
        <ele>1098</ele>
        <time>2016-12-16T15:18:14Z</time>
      </trkpt>
      <trkpt lat="45.17368" lon="5.56049">
        <ele>1097.4000244141</ele>
        <time>2016-12-16T15:18:15Z</time>
      </trkpt>
      <trkpt lat="45.17374" lon="5.56049">
        <ele>1096.8000488281</ele>
        <time>2016-12-16T15:18:16Z</time>
      </trkpt>
      <trkpt lat="45.17379" lon="5.56045">
        <ele>1096.1999511719</ele>
        <time>2016-12-16T15:18:17Z</time>
      </trkpt>
      <trkpt lat="45.17382" lon="5.56039">
        <ele>1095.5999755859</ele>
        <time>2016-12-16T15:18:18Z</time>
      </trkpt>
      <trkpt lat="45.17384" lon="5.56032">
        <ele>1095</ele>
        <time>2016-12-16T15:18:19Z</time>
      </trkpt>
      <trkpt lat="45.17385" lon="5.56024">
        <ele>1094.4000244141</ele>
        <time>2016-12-16T15:18:20Z</time>
      </trkpt>
      <trkpt lat="45.17381" lon="5.55991">
        <ele>1094.4000244141</ele>
        <time>2016-12-16T15:18:24Z</time>
      </trkpt>
      <trkpt lat="45.17378" lon="5.55972">
        <ele>1094</ele>
        <time>2016-12-16T15:18:26Z</time>
      </trkpt>
      <trkpt lat="45.17377" lon="5.55963">
        <ele>1093.4000244141</ele>
        <time>2016-12-16T15:18:27Z</time>
      </trkpt>
      <trkpt lat="45.17375" lon="5.55953">
        <ele>1093</ele>
        <time>2016-12-16T15:18:28Z</time>
      </trkpt>
      <trkpt lat="45.17373" lon="5.55943">
        <ele>1092.4000244141</ele>
        <time>2016-12-16T15:18:29Z</time>
      </trkpt>
      <trkpt lat="45.17372" lon="5.55932">
        <ele>1092</ele>
        <time>2016-12-16T15:18:30Z</time>
      </trkpt>
      <trkpt lat="45.17369" lon="5.55922">
        <ele>1092</ele>
        <time>2016-12-16T15:18:31Z</time>
      </trkpt>
      <trkpt lat="45.17367" lon="5.55911">
        <ele>1091.4000244141</ele>
        <time>2016-12-16T15:18:32Z</time>
      </trkpt>
      <trkpt lat="45.17364" lon="5.55901">
        <ele>1091</ele>
        <time>2016-12-16T15:18:33Z</time>
      </trkpt>
      <trkpt lat="45.17361" lon="5.55891">
        <ele>1090.5999755859</ele>
        <time>2016-12-16T15:18:34Z</time>
      </trkpt>
      <trkpt lat="45.17358" lon="5.55881">
        <ele>1090.1999511719</ele>
        <time>2016-12-16T15:18:35Z</time>
      </trkpt>
      <trkpt lat="45.17354" lon="5.55871">
        <ele>1089.8000488281</ele>
        <time>2016-12-16T15:18:36Z</time>
      </trkpt>
      <trkpt lat="45.1735" lon="5.55848">
        <ele>1089.8000488281</ele>
        <time>2016-12-16T15:18:39Z</time>
      </trkpt>
      <trkpt lat="45.17349" lon="5.55842">
        <ele>1089.8000488281</ele>
        <time>2016-12-16T15:18:40Z</time>
      </trkpt>
      <trkpt lat="45.17347" lon="5.55825">
        <ele>1089.8000488281</ele>
        <time>2016-12-16T15:18:43Z</time>
      </trkpt>
      <trkpt lat="45.17345" lon="5.55815">
        <ele>1089.8000488281</ele>
        <time>2016-12-16T15:18:45Z</time>
      </trkpt>
      <trkpt lat="45.17344" lon="5.55791">
        <ele>1089.8000488281</ele>
        <time>2016-12-16T15:18:50Z</time>
      </trkpt>
      <trkpt lat="45.17351" lon="5.55769">
        <ele>1089.8000488281</ele>
        <time>2016-12-16T15:18:56Z</time>
      </trkpt>
      <trkpt lat="45.17362" lon="5.55748">
        <ele>1090.1999511719</ele>
        <time>2016-12-16T15:19:03Z</time>
      </trkpt>
      <trkpt lat="45.17363" lon="5.55746">
        <ele>1090.8000488281</ele>
        <time>2016-12-16T15:19:04Z</time>
      </trkpt>
      <trkpt lat="45.17365" lon="5.55743">
        <ele>1091.1999511719</ele>
        <time>2016-12-16T15:19:05Z</time>
      </trkpt>
      <trkpt lat="45.17366" lon="5.5574">
        <ele>1091.5999755859</ele>
        <time>2016-12-16T15:19:06Z</time>
      </trkpt>
      <trkpt lat="45.17368" lon="5.55739">
        <ele>1092</ele>
        <time>2016-12-16T15:19:07Z</time>
      </trkpt>
      <trkpt lat="45.17373" lon="5.55731">
        <ele>1092</ele>
        <time>2016-12-16T15:19:10Z</time>
      </trkpt>
      <trkpt lat="45.17381" lon="5.55717">
        <ele>1092</ele>
        <time>2016-12-16T15:19:15Z</time>
      </trkpt>
      <trkpt lat="45.17386" lon="5.55693">
        <ele>1092</ele>
        <time>2016-12-16T15:19:20Z</time>
      </trkpt>
      <trkpt lat="45.17386" lon="5.55678">
        <ele>1091.5999755859</ele>
        <time>2016-12-16T15:19:22Z</time>
      </trkpt>
      <trkpt lat="45.17386" lon="5.5567">
        <ele>1091.1999511719</ele>
        <time>2016-12-16T15:19:23Z</time>
      </trkpt>
      <trkpt lat="45.17387" lon="5.55661">
        <ele>1090.8000488281</ele>
        <time>2016-12-16T15:19:24Z</time>
      </trkpt>
      <trkpt lat="45.17388" lon="5.55651">
        <ele>1090</ele>
        <time>2016-12-16T15:19:25Z</time>
      </trkpt>
      <trkpt lat="45.1739" lon="5.55641">
        <ele>1089.4000244141</ele>
        <time>2016-12-16T15:19:26Z</time>
      </trkpt>
      <trkpt lat="45.17393" lon="5.55632">
        <ele>1088.4000244141</ele>
        <time>2016-12-16T15:19:27Z</time>
      </trkpt>
      <trkpt lat="45.17397" lon="5.55623">
        <ele>1087.5999755859</ele>
        <time>2016-12-16T15:19:28Z</time>
      </trkpt>
      <trkpt lat="45.17403" lon="5.55614">
        <ele>1086.5999755859</ele>
        <time>2016-12-16T15:19:29Z</time>
      </trkpt>
      <trkpt lat="45.1741" lon="5.55606">
        <ele>1085.5999755859</ele>
        <time>2016-12-16T15:19:30Z</time>
      </trkpt>
      <trkpt lat="45.17416" lon="5.55597">
        <ele>1084.5999755859</ele>
        <time>2016-12-16T15:19:31Z</time>
      </trkpt>
      <trkpt lat="45.17423" lon="5.55589">
        <ele>1083.5999755859</ele>
        <time>2016-12-16T15:19:32Z</time>
      </trkpt>
      <trkpt lat="45.17431" lon="5.55579">
        <ele>1082.5999755859</ele>
        <time>2016-12-16T15:19:33Z</time>
      </trkpt>
      <trkpt lat="45.17438" lon="5.55568">
        <ele>1081.5999755859</ele>
        <time>2016-12-16T15:19:34Z</time>
      </trkpt>
      <trkpt lat="45.17446" lon="5.55556">
        <ele>1080.5999755859</ele>
        <time>2016-12-16T15:19:35Z</time>
      </trkpt>
      <trkpt lat="45.17453" lon="5.55544">
        <ele>1079.5999755859</ele>
        <time>2016-12-16T15:19:36Z</time>
      </trkpt>
      <trkpt lat="45.17461" lon="5.55532">
        <ele>1078.5999755859</ele>
        <time>2016-12-16T15:19:37Z</time>
      </trkpt>
      <trkpt lat="45.17469" lon="5.5552">
        <ele>1077.4000244141</ele>
        <time>2016-12-16T15:19:38Z</time>
      </trkpt>
      <trkpt lat="45.17477" lon="5.55508">
        <ele>1076.4000244141</ele>
        <time>2016-12-16T15:19:39Z</time>
      </trkpt>
      <trkpt lat="45.17484" lon="5.55496">
        <ele>1075.4000244141</ele>
        <time>2016-12-16T15:19:40Z</time>
      </trkpt>
      <trkpt lat="45.17491" lon="5.55486">
        <ele>1074.1999511719</ele>
        <time>2016-12-16T15:19:41Z</time>
      </trkpt>
      <trkpt lat="45.17497" lon="5.55474">
        <ele>1073.1999511719</ele>
        <time>2016-12-16T15:19:42Z</time>
      </trkpt>
      <trkpt lat="45.17501" lon="5.55461">
        <ele>1072.1999511719</ele>
        <time>2016-12-16T15:19:43Z</time>
      </trkpt>
      <trkpt lat="45.17504" lon="5.55448">
        <ele>1071.4000244141</ele>
        <time>2016-12-16T15:19:44Z</time>
      </trkpt>
      <trkpt lat="45.17507" lon="5.55434">
        <ele>1070.8000488281</ele>
        <time>2016-12-16T15:19:45Z</time>
      </trkpt>
      <trkpt lat="45.17509" lon="5.55421">
        <ele>1069.5999755859</ele>
        <time>2016-12-16T15:19:46Z</time>
      </trkpt>
      <trkpt lat="45.1751" lon="5.55407">
        <ele>1069</ele>
        <time>2016-12-16T15:19:47Z</time>
      </trkpt>
      <trkpt lat="45.17511" lon="5.5538">
        <ele>1068.5999755859</ele>
        <time>2016-12-16T15:19:49Z</time>
      </trkpt>
      <trkpt lat="45.1751" lon="5.55368">
        <ele>1068</ele>
        <time>2016-12-16T15:19:50Z</time>
      </trkpt>
      <trkpt lat="45.17508" lon="5.55356">
        <ele>1067.5999755859</ele>
        <time>2016-12-16T15:19:51Z</time>
      </trkpt>
      <trkpt lat="45.17506" lon="5.55344">
        <ele>1067.1999511719</ele>
        <time>2016-12-16T15:19:52Z</time>
      </trkpt>
      <trkpt lat="45.17504" lon="5.55333">
        <ele>1066.8000488281</ele>
        <time>2016-12-16T15:19:53Z</time>
      </trkpt>
      <trkpt lat="45.17501" lon="5.55301">
        <ele>1066.8000488281</ele>
        <time>2016-12-16T15:19:56Z</time>
      </trkpt>
      <trkpt lat="45.17501" lon="5.55292">
        <ele>1066.8000488281</ele>
        <time>2016-12-16T15:19:57Z</time>
      </trkpt>
      <trkpt lat="45.17505" lon="5.55249">
        <ele>1066.8000488281</ele>
        <time>2016-12-16T15:20:02Z</time>
      </trkpt>
      <trkpt lat="45.17512" lon="5.55189">
        <ele>1066.8000488281</ele>
        <time>2016-12-16T15:20:09Z</time>
      </trkpt>
      <trkpt lat="45.17524" lon="5.55154">
        <ele>1066.8000488281</ele>
        <time>2016-12-16T15:20:13Z</time>
      </trkpt>
      <trkpt lat="45.17527" lon="5.55146">
        <ele>1066.4000244141</ele>
        <time>2016-12-16T15:20:14Z</time>
      </trkpt>
      <trkpt lat="45.1753" lon="5.55136">
        <ele>1066</ele>
        <time>2016-12-16T15:20:15Z</time>
      </trkpt>
      <trkpt lat="45.17534" lon="5.55127">
        <ele>1065.5999755859</ele>
        <time>2016-12-16T15:20:16Z</time>
      </trkpt>
      <trkpt lat="45.17539" lon="5.55117">
        <ele>1065.1999511719</ele>
        <time>2016-12-16T15:20:17Z</time>
      </trkpt>
      <trkpt lat="45.17543" lon="5.55108">
        <ele>1064.8000488281</ele>
        <time>2016-12-16T15:20:18Z</time>
      </trkpt>
      <trkpt lat="45.17548" lon="5.55098">
        <ele>1064.1999511719</ele>
        <time>2016-12-16T15:20:19Z</time>
      </trkpt>
      <trkpt lat="45.17552" lon="5.55088">
        <ele>1063.8000488281</ele>
        <time>2016-12-16T15:20:20Z</time>
      </trkpt>
      <trkpt lat="45.17557" lon="5.55078">
        <ele>1063.4000244141</ele>
        <time>2016-12-16T15:20:21Z</time>
      </trkpt>
      <trkpt lat="45.17562" lon="5.55068">
        <ele>1062.8000488281</ele>
        <time>2016-12-16T15:20:22Z</time>
      </trkpt>
      <trkpt lat="45.17566" lon="5.55058">
        <ele>1062.4000244141</ele>
        <time>2016-12-16T15:20:23Z</time>
      </trkpt>
      <trkpt lat="45.1757" lon="5.55048">
        <ele>1062</ele>
        <time>2016-12-16T15:20:24Z</time>
      </trkpt>
      <trkpt lat="45.17572" lon="5.55036">
        <ele>1061.5999755859</ele>
        <time>2016-12-16T15:20:25Z</time>
      </trkpt>
      <trkpt lat="45.17573" lon="5.55025">
        <ele>1061.1999511719</ele>
        <time>2016-12-16T15:20:26Z</time>
      </trkpt>
      <trkpt lat="45.1757" lon="5.55014">
        <ele>1060.5999755859</ele>
        <time>2016-12-16T15:20:27Z</time>
      </trkpt>
      <trkpt lat="45.17566" lon="5.55003">
        <ele>1060.1999511719</ele>
        <time>2016-12-16T15:20:28Z</time>
      </trkpt>
      <trkpt lat="45.17562" lon="5.54993">
        <ele>1059.5999755859</ele>
        <time>2016-12-16T15:20:29Z</time>
      </trkpt>
      <trkpt lat="45.17556" lon="5.54983">
        <ele>1059</ele>
        <time>2016-12-16T15:20:30Z</time>
      </trkpt>
      <trkpt lat="45.1755" lon="5.54973">
        <ele>1058.4000244141</ele>
        <time>2016-12-16T15:20:31Z</time>
      </trkpt>
      <trkpt lat="45.17545" lon="5.54962">
        <ele>1058</ele>
        <time>2016-12-16T15:20:32Z</time>
      </trkpt>
      <trkpt lat="45.17539" lon="5.54952">
        <ele>1057.4000244141</ele>
        <time>2016-12-16T15:20:33Z</time>
      </trkpt>
      <trkpt lat="45.17532" lon="5.54943">
        <ele>1056.8000488281</ele>
        <time>2016-12-16T15:20:34Z</time>
      </trkpt>
      <trkpt lat="45.17527" lon="5.54932">
        <ele>1055.5999755859</ele>
        <time>2016-12-16T15:20:35Z</time>
      </trkpt>
      <trkpt lat="45.17521" lon="5.54922">
        <ele>1055</ele>
        <time>2016-12-16T15:20:36Z</time>
      </trkpt>
      <trkpt lat="45.17515" lon="5.54912">
        <ele>1054.1999511719</ele>
        <time>2016-12-16T15:20:37Z</time>
      </trkpt>
      <trkpt lat="45.1751" lon="5.54901">
        <ele>1053.5999755859</ele>
        <time>2016-12-16T15:20:38Z</time>
      </trkpt>
      <trkpt lat="45.17507" lon="5.54889">
        <ele>1053.5999755859</ele>
        <time>2016-12-16T15:20:39Z</time>
      </trkpt>
      <trkpt lat="45.17505" lon="5.54862">
        <ele>1053.1999511719</ele>
        <time>2016-12-16T15:20:41Z</time>
      </trkpt>
      <trkpt lat="45.17506" lon="5.5485">
        <ele>1052.8000488281</ele>
        <time>2016-12-16T15:20:42Z</time>
      </trkpt>
      <trkpt lat="45.17507" lon="5.54838">
        <ele>1052.4000244141</ele>
        <time>2016-12-16T15:20:43Z</time>
      </trkpt>
      <trkpt lat="45.17508" lon="5.54826">
        <ele>1051.8000488281</ele>
        <time>2016-12-16T15:20:44Z</time>
      </trkpt>
      <trkpt lat="45.1751" lon="5.54814">
        <ele>1051.4000244141</ele>
        <time>2016-12-16T15:20:45Z</time>
      </trkpt>
      <trkpt lat="45.17516" lon="5.54768">
        <ele>1051</ele>
        <time>2016-12-16T15:20:49Z</time>
      </trkpt>
      <trkpt lat="45.17517" lon="5.54757">
        <ele>1050.5999755859</ele>
        <time>2016-12-16T15:20:50Z</time>
      </trkpt>
      <trkpt lat="45.17518" lon="5.54746">
        <ele>1050</ele>
        <time>2016-12-16T15:20:51Z</time>
      </trkpt>
      <trkpt lat="45.17519" lon="5.54736">
        <ele>1049.5999755859</ele>
        <time>2016-12-16T15:20:52Z</time>
      </trkpt>
      <trkpt lat="45.1752" lon="5.54725">
        <ele>1049.1999511719</ele>
        <time>2016-12-16T15:20:53Z</time>
      </trkpt>
      <trkpt lat="45.17523" lon="5.54704">
        <ele>1049.1999511719</ele>
        <time>2016-12-16T15:20:55Z</time>
      </trkpt>
      <trkpt lat="45.17532" lon="5.54665">
        <ele>1048.8000488281</ele>
        <time>2016-12-16T15:20:59Z</time>
      </trkpt>
      <trkpt lat="45.17535" lon="5.54656">
        <ele>1048</ele>
        <time>2016-12-16T15:21:00Z</time>
      </trkpt>
      <trkpt lat="45.17539" lon="5.54647">
        <ele>1047.5999755859</ele>
        <time>2016-12-16T15:21:01Z</time>
      </trkpt>
      <trkpt lat="45.17542" lon="5.54638">
        <ele>1047.1999511719</ele>
        <time>2016-12-16T15:21:02Z</time>
      </trkpt>
      <trkpt lat="45.17563" lon="5.54595">
        <ele>1046.5999755859</ele>
        <time>2016-12-16T15:21:07Z</time>
      </trkpt>
      <trkpt lat="45.17568" lon="5.54586">
        <ele>1046.1999511719</ele>
        <time>2016-12-16T15:21:08Z</time>
      </trkpt>
      <trkpt lat="45.17573" lon="5.54576">
        <ele>1045.8000488281</ele>
        <time>2016-12-16T15:21:09Z</time>
      </trkpt>
      <trkpt lat="45.17578" lon="5.54567">
        <ele>1045.1999511719</ele>
        <time>2016-12-16T15:21:10Z</time>
      </trkpt>
      <trkpt lat="45.17583" lon="5.54557">
        <ele>1044.8000488281</ele>
        <time>2016-12-16T15:21:11Z</time>
      </trkpt>
      <trkpt lat="45.17587" lon="5.54547">
        <ele>1044.1999511719</ele>
        <time>2016-12-16T15:21:12Z</time>
      </trkpt>
      <trkpt lat="45.17591" lon="5.54539">
        <ele>1043.8000488281</ele>
        <time>2016-12-16T15:21:13Z</time>
      </trkpt>
      <trkpt lat="45.17595" lon="5.5453">
        <ele>1043.4000244141</ele>
        <time>2016-12-16T15:21:14Z</time>
      </trkpt>
      <trkpt lat="45.17598" lon="5.54523">
        <ele>1043</ele>
        <time>2016-12-16T15:21:15Z</time>
      </trkpt>
      <trkpt lat="45.17601" lon="5.54515">
        <ele>1042.4000244141</ele>
        <time>2016-12-16T15:21:16Z</time>
      </trkpt>
      <trkpt lat="45.17603" lon="5.54509">
        <ele>1042</ele>
        <time>2016-12-16T15:21:17Z</time>
      </trkpt>
      <trkpt lat="45.17605" lon="5.54503">
        <ele>1041.4000244141</ele>
        <time>2016-12-16T15:21:18Z</time>
      </trkpt>
      <trkpt lat="45.17608" lon="5.54497">
        <ele>1041</ele>
        <time>2016-12-16T15:21:19Z</time>
      </trkpt>
      <trkpt lat="45.17609" lon="5.54493">
        <ele>1040.4000244141</ele>
        <time>2016-12-16T15:21:20Z</time>
      </trkpt>
      <trkpt lat="45.17619" lon="5.54479">
        <ele>1040.4000244141</ele>
        <time>2016-12-16T15:21:25Z</time>
      </trkpt>
      <trkpt lat="45.17627" lon="5.54465">
        <ele>1040.4000244141</ele>
        <time>2016-12-16T15:21:30Z</time>
      </trkpt>
      <trkpt lat="45.17637" lon="5.54446">
        <ele>1040.4000244141</ele>
        <time>2016-12-16T15:21:34Z</time>
      </trkpt>
      <trkpt lat="45.1764" lon="5.54441">
        <ele>1040.4000244141</ele>
        <time>2016-12-16T15:21:35Z</time>
      </trkpt>
      <trkpt lat="45.17659" lon="5.54404">
        <ele>1040.4000244141</ele>
        <time>2016-12-16T15:21:41Z</time>
      </trkpt>
      <trkpt lat="45.17674" lon="5.5437">
        <ele>1040.4000244141</ele>
        <time>2016-12-16T15:21:47Z</time>
      </trkpt>
      <trkpt lat="45.17676" lon="5.54364">
        <ele>1040.8000488281</ele>
        <time>2016-12-16T15:21:48Z</time>
      </trkpt>
      <trkpt lat="45.17678" lon="5.54359">
        <ele>1041.5999755859</ele>
        <time>2016-12-16T15:21:49Z</time>
      </trkpt>
      <trkpt lat="45.1768" lon="5.54352">
        <ele>1042</ele>
        <time>2016-12-16T15:21:50Z</time>
      </trkpt>
      <trkpt lat="45.17683" lon="5.54347">
        <ele>1042.4000244141</ele>
        <time>2016-12-16T15:21:51Z</time>
      </trkpt>
      <trkpt lat="45.17689" lon="5.54328">
        <ele>1042.4000244141</ele>
        <time>2016-12-16T15:21:54Z</time>
      </trkpt>
      <trkpt lat="45.17708" lon="5.5428">
        <ele>1042.8000488281</ele>
        <time>2016-12-16T15:22:02Z</time>
      </trkpt>
      <trkpt lat="45.17711" lon="5.54274">
        <ele>1043.1999511719</ele>
        <time>2016-12-16T15:22:03Z</time>
      </trkpt>
      <trkpt lat="45.17714" lon="5.54269">
        <ele>1043.8000488281</ele>
        <time>2016-12-16T15:22:04Z</time>
      </trkpt>
      <trkpt lat="45.17716" lon="5.54263">
        <ele>1044.1999511719</ele>
        <time>2016-12-16T15:22:05Z</time>
      </trkpt>
      <trkpt lat="45.17719" lon="5.54258">
        <ele>1044.5999755859</ele>
        <time>2016-12-16T15:22:06Z</time>
      </trkpt>
      <trkpt lat="45.17726" lon="5.54243">
        <ele>1044.5999755859</ele>
        <time>2016-12-16T15:22:09Z</time>
      </trkpt>
      <trkpt lat="45.17745" lon="5.54209">
        <ele>1044.5999755859</ele>
        <time>2016-12-16T15:22:15Z</time>
      </trkpt>
      <trkpt lat="45.17751" lon="5.54197">
        <ele>1044.5999755859</ele>
        <time>2016-12-16T15:22:17Z</time>
      </trkpt>
      <trkpt lat="45.17759" lon="5.54177">
        <ele>1044.5999755859</ele>
        <time>2016-12-16T15:22:20Z</time>
      </trkpt>
      <trkpt lat="45.17762" lon="5.54164">
        <ele>1044.5999755859</ele>
        <time>2016-12-16T15:22:22Z</time>
      </trkpt>
      <trkpt lat="45.17764" lon="5.54147">
        <ele>1044.5999755859</ele>
        <time>2016-12-16T15:22:25Z</time>
      </trkpt>
      <trkpt lat="45.17758" lon="5.54128">
        <ele>1044.5999755859</ele>
        <time>2016-12-16T15:22:29Z</time>
      </trkpt>
      <trkpt lat="45.17752" lon="5.5412">
        <ele>1044.5999755859</ele>
        <time>2016-12-16T15:22:31Z</time>
      </trkpt>
      <trkpt lat="45.17741" lon="5.54101">
        <ele>1044.5999755859</ele>
        <time>2016-12-16T15:22:35Z</time>
      </trkpt>
      <trkpt lat="45.1772" lon="5.54079">
        <ele>1044.5999755859</ele>
        <time>2016-12-16T15:22:40Z</time>
      </trkpt>
      <trkpt lat="45.1771" lon="5.54068">
        <ele>1044.1999511719</ele>
        <time>2016-12-16T15:22:42Z</time>
      </trkpt>
      <trkpt lat="45.17704" lon="5.54062">
        <ele>1043.5999755859</ele>
        <time>2016-12-16T15:22:43Z</time>
      </trkpt>
      <trkpt lat="45.17699" lon="5.54057">
        <ele>1043.1999511719</ele>
        <time>2016-12-16T15:22:44Z</time>
      </trkpt>
      <trkpt lat="45.17693" lon="5.54051">
        <ele>1042.8000488281</ele>
        <time>2016-12-16T15:22:45Z</time>
      </trkpt>
      <trkpt lat="45.17687" lon="5.54046">
        <ele>1042.4000244141</ele>
        <time>2016-12-16T15:22:46Z</time>
      </trkpt>
      <trkpt lat="45.17672" lon="5.54027">
        <ele>1042</ele>
        <time>2016-12-16T15:22:49Z</time>
      </trkpt>
      <trkpt lat="45.17667" lon="5.54021">
        <ele>1041.5999755859</ele>
        <time>2016-12-16T15:22:50Z</time>
      </trkpt>
      <trkpt lat="45.17664" lon="5.54014">
        <ele>1041</ele>
        <time>2016-12-16T15:22:51Z</time>
      </trkpt>
      <trkpt lat="45.1766" lon="5.54008">
        <ele>1040.5999755859</ele>
        <time>2016-12-16T15:22:52Z</time>
      </trkpt>
      <trkpt lat="45.17658" lon="5.54002">
        <ele>1040.1999511719</ele>
        <time>2016-12-16T15:22:53Z</time>
      </trkpt>
      <trkpt lat="45.17653" lon="5.53995">
        <ele>1039.8000488281</ele>
        <time>2016-12-16T15:22:55Z</time>
      </trkpt>
      <trkpt lat="45.17651" lon="5.53994">
        <ele>1039.4000244141</ele>
        <time>2016-12-16T15:22:56Z</time>
      </trkpt>
      <trkpt lat="45.17649" lon="5.53995">
        <ele>1039</ele>
        <time>2016-12-16T15:22:57Z</time>
      </trkpt>
      <trkpt lat="45.1765" lon="5.53997">
        <ele>1038.4000244141</ele>
        <time>2016-12-16T15:22:58Z</time>
      </trkpt>
      <trkpt lat="45.1765" lon="5.53998">
        <ele>1038</ele>
        <time>2016-12-16T15:22:59Z</time>
      </trkpt>
      <trkpt lat="45.1765" lon="5.53998">
        <ele>1038</ele>
        <time>2016-12-16T15:23:03Z</time>
        <extensions>
          <visugpx:TrkExtension xmlns:visugpx="https://www.visugpx.com/editgpx/">
            <visugpx:node>1</visugpx:node>
            </visugpx:TrkExtension>
        </extensions>
      </trkpt>
    </trkseg>
  </trk>
</gpx>